GFSMW_sfc_wetblb_000.txt.gz
Wetbulb
47.08 49.49 50.07 50.41 51.36 51.54 51.52 51.49 52.95 53.66 57.79 59.08 58.76 58.56 60.24 60.10 59.60 59.60 59.52 58.95 58.43 57.87 57.32 58.10 58.25 57.30 57.21 57.74 57.20 55.70 55.11 55.11 53.37 52.31 54.83 54.83 54.79 54.77 55.48 55.71 54.90 54.89 54.27
47.66 49.01 49.36 48.79 49.24 49.18 50.47 51.04 51.63 52.59 54.80 57.50 58.89 59.79 59.58 59.88 60.52 60.98 60.94 60.70 60.18 59.82 59.01 58.44 58.86 58.44 57.76 57.68 57.66 56.17 55.83 55.87 54.66 54.46 54.02 52.22 54.81 55.43 55.56 56.12 55.65 55.25 55.57
47.47 47.75 47.99 48.24 48.15 47.82 47.79 49.92 50.94 52.71 53.29 56.88 58.58 58.68 59.36 59.06 58.92 59.23 59.87 60.88 61.39 61.65 60.99 60.98 59.95 59.66 58.23 58.37 58.37 57.59 55.82 56.46 58.25 55.96 55.22 51.77 50.60 48.85 50.41 51.98 54.58 55.33 55.05
46.81 47.58 48.05 48.08 47.84 47.86 48.33 49.28 50.03 50.43 51.64 52.86 53.21 53.44 54.15 53.95 55.85 56.78 57.87 57.90 59.01 60.11 61.10 61.35 61.24 60.94 60.23 58.92 59.30 59.73 58.81 58.56 56.56 58.42 56.93 57.40 56.92 52.71 52.51 54.01 49.99 51.57 53.26
46.32 46.94 47.52 48.59 48.28 48.18 48.02 48.59 49.58 50.33 49.66 49.24 49.66 49.66 49.13 51.64 52.96 52.89 52.07 52.93 54.71 56.16 57.23 58.96 59.90 60.30 60.93 61.02 61.07 60.75 60.47 60.62 59.29 58.64 58.21 56.79 56.34 56.52 54.25 52.47 54.42 55.97 53.19
45.88 46.69 47.34 48.47 48.12 47.87 48.29 48.58 49.16 48.98 49.18 49.02 48.47 47.84 47.41 47.60 48.41 48.21 49.23 49.90 51.52 53.56 52.70 52.88 54.90 58.66 59.92 60.71 61.70 61.98 61.70 61.65 60.97 60.64 60.00 58.49 56.37 55.64 55.07 54.01 54.61 54.72 56.82
45.69 46.16 46.06 46.89 47.29 47.16 47.34 48.74 48.52 48.16 48.30 48.14 48.19 47.91 47.53 47.45 47.11 47.03 47.29 47.67 48.90 49.24 50.36 49.65 50.01 50.41 51.35 53.58 57.52 59.85 60.76 61.14 60.46 60.02 59.59 60.17 59.83 59.70 58.26 57.10 56.17 55.67 57.30
45.46 46.05 46.00 46.42 46.71 47.31 47.18 46.99 47.24 47.23 47.73 47.78 47.77 47.76 48.10 48.14 48.06 47.60 47.43 47.67 47.90 48.45 48.87 49.54 49.82 49.94 50.26 50.51 50.65 51.53 53.75 56.46 58.04 58.32 58.72 58.80 58.68 59.17 59.19 57.94 56.51 54.47 55.52
45.13 45.79 45.83 46.42 46.71 46.26 45.50 46.05 46.55 46.77 47.18 47.33 47.67 47.54 47.46 47.63 47.39 47.21 47.56 47.79 48.20 50.00 49.41 49.12 48.47 49.18 49.44 49.69 49.67 49.78 49.71 50.41 51.30 52.13 53.76 55.29 56.34 57.04 57.84 57.98 57.59 55.45 51.80
44.73 45.43 45.97 46.27 45.66 45.28 45.26 45.95 46.59 46.53 46.63 46.85 46.71 47.17 46.81 46.82 46.56 46.31 45.91 46.15 46.91 47.40 47.59 47.73 47.96 48.35 48.87 49.10 49.02 48.97 49.34 49.15 49.69 50.52 50.45 51.23 52.64 53.93 55.55 56.53 56.89 56.37 54.58
44.09 44.70 45.41 45.03 44.92 44.97 45.46 45.71 45.81 45.01 44.70 45.31 45.22 44.82 45.54 45.24 44.54 44.16 44.37 44.38 44.69 45.03 45.28 45.83 46.28 46.78 47.38 47.22 46.99 47.07 47.51 47.45 48.04 49.10 49.27 50.29 51.49 52.17 53.41 54.40 54.71 54.26 54.11
44.40 44.42 43.76 44.32 44.54 44.26 44.31 43.65 43.19 42.31 42.39 43.25 42.95 42.77 43.65 42.64 41.77 41.53 42.03 42.78 42.42 43.21 43.40 44.28 44.56 44.66 44.48 45.26 45.63 45.67 46.17 46.09 44.88 45.83 47.46 48.61 50.35 50.17 51.18 51.78 51.65 51.94 52.75
43.71 42.21 42.22 43.35 43.64 43.09 42.68 41.61 40.81 40.27 41.00 41.28 40.90 40.58 40.65 39.10 38.38 38.99 39.84 40.40 40.55 40.92 41.16 41.93 41.56 41.46 42.41 44.05 43.99 45.04 44.58 44.12 44.70 45.37 46.65 47.68 48.07 47.11 48.09 49.12 49.28 49.95 51.09
42.47 40.77 41.39 42.67 42.23 41.53 40.44 39.02 38.53 38.81 39.37 39.46 38.52 38.50 36.89 36.65 36.93 37.52 37.67 37.87 38.59 38.56 38.70 39.14 38.95 39.88 42.07 41.44 43.41 44.23 42.39 43.84 44.42 46.33 47.01 45.83 43.90 44.07 45.95 46.74 46.90 48.22 49.01
40.76 40.49 41.93 41.07 40.04 38.70 37.50 36.94 36.65 36.75 37.36 36.40 36.24 35.63 35.63 35.59 35.51 35.45 35.55 36.07 36.38 36.54 37.03 36.57 36.85 37.93 39.86 40.00 42.33 40.94 40.68 42.05 43.99 42.50 41.43 42.66 42.99 45.36 47.15 44.27 42.52 45.92 45.62
39.99 42.93 42.16 39.60 38.17 36.14 35.49 35.70 35.01 35.11 35.32 33.99 33.96 33.82 33.18 33.05 32.91 33.22 33.53 33.84 33.90 34.08 34.74 34.55 35.12 36.95 36.75 41.01 43.21 42.20 39.58 42.41 40.24 37.96 38.73 41.01 42.02 44.57 43.42 43.48 44.88 45.10 44.04
41.98 41.46 39.46 38.21 36.92 35.04 34.82 33.54 33.53 33.84 32.64 32.70 31.55 31.58 31.59 31.15 31.33 31.81 31.89 31.67 31.49 32.47 32.45 32.81 33.74 32.98 34.40 40.63 41.52 42.46 38.15 37.26 37.64 36.72 36.28 37.39 40.68 39.91 37.33 40.10 42.80 41.61 43.85
41.03 39.29 37.66 36.36 35.31 34.04 33.33 32.67 32.45 30.80 30.05 29.92 29.68 30.51 30.42 30.00 30.33 30.16 29.94 29.80 30.52 30.49 30.75 31.48 31.73 32.14 33.30 38.73 40.46 41.28 34.80 33.30 33.92 35.30 34.95 37.00 37.43 37.42 38.56 38.30 37.67 38.70 40.40
38.86 37.53 36.31 35.59 33.61 32.50 31.19 30.20 28.82 27.95 28.43 28.59 28.60 29.39 29.41 29.01 29.07 28.45 28.44 29.10 29.27 29.38 29.89 30.65 30.56 30.19 30.96 37.33 38.87 37.60 33.05 32.93 33.38 34.35 35.08 37.31 36.80 39.40 40.12 37.21 36.73 37.83 39.54
37.86 36.36 37.05 34.82 32.53 29.98 28.60 27.48 26.61 26.19 26.50 27.64 28.33 28.94 28.97 28.54 27.68 27.80 27.80 28.97 28.94 29.07 29.84 29.51 29.84 31.99 30.39 34.62 36.63 35.78 32.88 31.40 32.24 33.28 34.90 38.38 37.40 38.81 38.76 36.19 36.35 36.53 38.93
37.84 36.18 33.73 31.81 29.86 27.59 27.05 25.96 25.18 24.92 26.69 27.78 27.97 28.12 28.17 27.53 27.72 28.03 28.21 28.10 27.81 28.01 27.62 27.89 28.68 29.26 30.28 31.84 36.12 36.32 33.19 32.24 32.42 32.70 33.41 33.93 37.15 37.41 38.00 39.18 38.51 38.09 39.64
34.63 33.92 30.37 30.61 30.39 29.67 26.40 24.78 23.78 26.05 26.48 26.76 27.06 27.09 26.88 27.98 29.07 27.03 27.25 27.38 26.80 26.10 26.14 26.46 27.47 29.65 30.62 34.17 34.64 36.12 36.39 36.18 32.47 32.24 32.39 33.05 36.46 38.11 39.28 38.74 39.71 39.70 38.77
33.27 32.40 31.30 30.41 30.07 27.18 25.72 23.89 24.92 25.58 25.99 25.55 25.71 26.25 26.79 26.68 27.07 26.35 26.08 25.92 26.12 25.35 25.42 25.92 26.62 27.98 30.00 30.64 34.62 35.65 36.18 36.00 33.26 32.47 34.25 34.96 36.26 36.86 35.51 36.35 37.48 37.49 33.81
31.15 31.09 29.95 28.58 26.73 26.67 26.07 25.04 25.32 25.81 25.06 24.25 24.72 25.38 25.05 26.41 26.46 26.53 26.68 25.72 24.99 25.03 25.41 26.42 26.66 27.51 28.48 29.40 30.85 32.00 32.06 33.76 32.91 33.69 31.09 33.46 33.43 33.56 33.13 33.25 33.94 32.98 32.81
30.83 29.73 28.19 25.88 25.25 24.80 24.38 24.94 25.63 24.98 23.67 23.68 24.38 25.17 25.46 25.44 25.39 26.11 25.91 25.92 26.88 27.96 27.57 27.58 27.89 27.11 27.44 29.16 33.30 32.58 31.07 32.54 32.00 31.13 29.28 28.81 27.70 27.60 28.65 29.51 30.93 32.03 31.97
28.97 25.95 24.79 23.93 23.84 23.52 23.49 24.29 25.07 24.43 23.54 24.03 24.60 24.79 25.36 24.99 25.32 24.69 24.71 29.74 30.88 32.05 32.10 32.08 30.85 30.07 32.20 33.35 33.13 33.29 34.19 33.75 32.05 27.63 25.98 25.32 24.53 25.15 26.49 27.34 28.89 30.33 31.56

GFSMW_sfc_wetblb_003.txt.gz
Wetbulb
46.37 48.07 48.35 48.17 48.69 49.61 50.37 50.15 51.50 52.19 56.02 57.84 57.32 57.31 58.25 58.95 58.70 58.88 58.86 58.30 57.59 57.10 56.12 56.96 57.19 57.13 56.43 57.14 57.27 55.43 54.54 54.56 53.60 53.76 54.89 55.96 56.01 55.25 55.23 56.03 55.90 55.18 54.91
45.65 47.14 47.78 47.12 47.07 46.91 47.71 48.87 50.29 51.65 53.86 57.18 58.00 58.65 58.42 58.73 59.32 60.04 60.28 60.32 59.96 59.46 58.41 57.49 58.12 58.15 57.10 56.71 56.68 56.12 55.52 55.40 56.21 54.32 54.22 52.67 54.11 54.32 54.94 55.51 55.41 55.44 55.87
45.51 45.93 46.33 46.27 46.17 46.23 46.61 48.46 48.75 49.56 51.38 54.55 57.60 57.65 57.47 57.12 56.03 56.35 57.17 57.35 57.91 59.20 59.65 59.61 59.52 59.36 57.88 57.56 58.12 57.03 55.98 55.71 57.31 56.43 54.95 52.24 50.84 51.37 52.26 51.86 54.40 54.85 54.93
45.26 46.33 46.58 46.27 46.03 46.39 47.14 47.97 48.62 49.15 49.86 49.66 50.39 50.67 50.90 50.68 51.81 52.88 52.25 51.78 52.89 53.83 54.04 55.07 56.21 57.93 59.25 58.27 58.62 59.60 59.10 57.85 56.42 57.68 56.93 56.75 56.66 53.56 53.20 55.21 52.93 53.39 54.26
45.53 45.93 46.30 46.99 46.66 46.86 46.63 47.01 48.30 48.56 48.01 47.86 47.18 47.19 46.46 47.12 48.13 47.77 47.75 48.43 49.36 50.63 49.66 49.53 49.43 50.85 53.06 55.21 57.46 58.67 59.60 60.19 59.10 58.61 58.62 58.22 56.53 56.09 53.98 52.11 54.44 56.95 56.09
44.53 45.38 46.19 46.75 46.17 45.97 46.51 46.84 47.73 47.29 47.46 47.92 47.49 46.37 45.65 46.02 46.81 46.50 47.03 47.19 47.71 48.53 48.96 48.85 48.24 47.60 47.92 48.64 50.12 51.48 53.27 56.08 57.95 58.36 57.83 56.78 55.52 55.11 54.98 54.21 54.84 54.93 56.62
44.21 44.65 45.04 45.35 45.60 45.18 45.32 47.07 46.63 46.26 46.50 46.89 46.61 46.12 45.85 45.57 45.26 45.21 45.41 45.29 46.15 46.64 47.10 46.83 47.10 47.23 47.52 47.86 47.82 48.26 48.75 50.14 50.95 51.56 52.75 54.55 54.88 55.15 54.85 54.03 53.00 52.50 55.33
43.64 44.16 44.68 44.69 44.27 44.43 44.57 45.06 45.41 45.48 45.83 45.79 45.51 45.07 45.00 45.31 44.94 44.50 44.55 44.40 44.59 45.20 45.39 46.26 46.40 46.45 47.09 47.67 47.80 47.51 47.50 48.03 48.00 47.92 49.36 50.11 51.30 52.53 53.64 53.07 52.08 49.58 50.72
43.45 43.91 44.50 43.99 43.23 43.34 43.91 44.55 44.70 44.60 44.78 44.58 44.58 44.01 43.29 43.12 42.92 42.80 42.72 42.89 42.95 44.99 44.34 44.47 44.33 45.12 45.79 46.53 46.53 45.72 45.81 46.36 46.57 47.09 47.43 48.18 48.83 50.22 51.35 52.07 52.58 50.71 47.68
43.47 43.73 43.87 43.02 43.03 43.70 44.09 43.93 43.42 42.60 42.65 42.74 42.64 43.00 42.02 41.64 41.31 40.77 40.20 40.59 41.33 41.78 41.78 41.94 42.84 43.32 43.97 43.82 43.48 44.33 45.41 45.01 45.55 45.97 44.80 44.87 46.99 48.80 49.70 50.35 50.99 50.88 49.17
43.14 43.22 42.53 42.48 43.21 43.27 42.41 41.54 40.94 40.56 40.41 41.00 40.62 40.00 39.75 39.14 38.16 37.66 38.01 38.27 38.87 39.28 39.41 39.68 40.10 40.02 40.07 40.82 42.24 42.34 43.26 43.81 42.86 42.94 43.60 43.95 46.09 47.21 47.33 47.20 47.56 47.36 48.24
42.75 42.39 42.10 42.65 42.36 41.43 40.23 39.20 38.95 38.71 39.00 39.27 38.43 38.02 36.81 36.11 35.55 35.77 36.18 36.57 36.02 37.03 37.30 37.37 37.20 36.81 37.81 39.14 39.56 39.05 41.89 40.39 40.01 42.19 42.24 43.24 46.36 44.52 44.57 43.72 44.28 45.83 46.41
41.75 41.02 42.14 42.12 41.14 40.05 38.40 36.95 36.64 36.56 37.53 37.04 36.27 35.07 34.31 33.82 33.46 33.86 34.38 34.45 34.43 34.65 34.97 35.39 34.94 35.09 35.96 38.07 37.48 38.29 39.61 37.78 37.94 40.01 40.76 43.77 41.31 41.32 39.95 40.88 43.42 42.87 41.48
41.36 40.54 41.84 41.02 39.43 37.95 36.39 35.32 34.83 35.04 35.27 34.89 33.97 32.56 32.24 32.08 32.01 32.25 32.51 32.80 33.23 32.82 32.93 33.73 33.77 34.16 35.13 35.81 35.89 36.92 36.98 36.72 38.46 40.62 43.08 39.05 38.56 38.96 39.28 40.81 37.84 37.40 38.36
39.22 40.76 41.25 39.82 37.57 35.77 34.31 33.99 33.86 34.00 33.63 32.97 31.73 31.19 31.17 30.88 30.60 30.59 30.93 31.44 31.63 31.71 32.07 32.28 32.43 33.00 33.59 34.74 34.84 36.10 35.89 36.82 34.88 34.92 36.30 36.26 37.53 39.53 41.22 40.25 37.80 36.50 36.95
38.57 41.31 40.83 37.85 36.30 33.50 33.14 33.50 32.66 32.28 31.68 30.89 29.87 30.38 30.07 29.78 29.48 29.76 29.94 30.10 30.06 30.10 30.48 30.52 30.78 31.22 32.83 36.44 37.88 37.58 35.98 34.71 32.33 31.41 32.76 34.67 36.18 36.29 41.04 40.69 40.59 39.90 36.91
39.79 40.82 38.35 36.77 34.84 32.79 32.73 31.23 30.80 30.92 29.95 29.32 29.19 29.33 29.37 28.87 28.84 29.05 28.82 28.44 28.17 28.60 28.60 28.95 29.68 29.54 30.27 35.64 37.28 37.95 35.46 32.42 31.48 31.82 32.48 32.91 34.83 36.12 36.71 38.37 39.94 39.22 39.65
40.61 38.33 36.52 34.87 32.82 32.13 31.33 31.56 31.44 29.20 28.00 27.81 27.77 28.38 28.27 27.89 28.12 27.66 27.19 26.97 27.71 27.55 27.75 28.17 28.84 28.76 30.16 34.79 36.23 36.84 33.01 32.06 31.84 32.02 32.26 32.15 32.66 34.76 35.50 34.99 34.84 34.67 35.23
38.11 36.80 35.09 33.57 31.27 30.55 31.94 30.36 27.15 26.39 26.50 26.56 26.40 27.11 27.09 26.96 26.90 26.19 26.03 26.68 27.03 26.96 27.23 28.02 27.90 27.50 28.15 33.77 34.99 34.67 32.11 31.35 31.29 32.51 32.72 33.22 32.90 36.02 37.10 34.02 32.78 32.54 33.71
36.74 35.00 33.80 32.48 32.56 30.99 27.72 26.32 26.14 24.74 24.66 25.73 26.17 26.68 26.76 26.40 25.55 25.44 25.61 26.83 26.49 26.72 27.43 27.14 27.53 29.60 27.80 32.40 34.86 34.30 31.72 30.44 31.11 32.33 32.87 35.43 34.28 36.11 36.82 33.07 32.50 32.72 34.71
35.19 33.84 33.58 31.36 28.81 29.35 27.16 26.44 26.76 24.12 25.06 25.95 26.05 26.22 26.09 25.20 25.13 25.32 25.88 25.99 25.65 25.84 25.35 25.78 26.58 27.17 28.80 29.96 34.44 34.97 31.91 31.26 31.63 32.27 30.81 31.55 35.19 36.11 35.39 36.09 33.60 34.00 35.60
33.17 32.43 29.82 29.23 30.07 30.00 28.77 26.93 23.46 24.59 24.86 25.12 25.06 24.88 24.55 25.74 27.50 24.62 25.34 25.32 24.74 24.07 24.10 24.49 25.41 27.57 28.84 32.27 32.96 34.47 34.82 34.84 31.35 29.97 30.73 31.71 34.27 33.81 34.27 33.19 34.14 34.80 35.16
30.74 30.52 29.29 29.33 29.41 29.10 27.55 22.91 23.74 24.24 24.35 23.54 23.09 23.52 24.11 24.22 25.00 24.13 24.56 24.11 24.26 23.55 23.43 23.97 24.49 26.24 28.28 28.89 32.92 34.02 34.59 34.67 31.52 31.49 33.24 32.79 32.42 32.36 30.54 31.43 32.87 33.40 30.65
29.28 29.24 29.47 28.41 27.74 25.76 24.09 23.14 23.50 24.01 23.16 21.64 21.73 23.08 22.31 25.10 25.20 24.58 24.92 24.32 23.40 23.35 23.56 24.62 25.60 26.14 26.80 27.58 28.87 30.34 30.89 32.22 31.37 33.85 28.94 29.45 30.25 30.32 28.93 27.89 28.93 28.99 29.35
30.67 29.22 27.98 25.27 23.90 23.34 22.93 23.14 23.73 23.25 22.40 22.03 22.38 22.45 22.91 22.87 23.54 24.46 24.74 24.64 25.34 26.43 26.46 26.40 26.67 25.86 25.48 27.24 31.64 31.68 29.73 29.76 33.12 30.30 25.78 24.21 25.00 23.38 23.73 24.65 26.46 26.83 27.61
29.14 26.46 23.85 23.38 22.52 22.32 22.25 23.03 23.77 23.12 21.88 22.44 22.97 22.63 23.81 23.41 24.00 23.42 23.50 28.56 29.70 31.00 31.19 31.12 29.74 28.62 30.82 31.99 32.30 32.21 32.49 33.44 32.17 26.47 23.13 22.31 22.76 22.20 22.48 23.36 23.98 25.52 26.16

GFSMW_sfc_wetblb_006.txt.gz
Wetbulb
45.11 46.92 46.91 46.55 47.16 47.14 47.53 47.95 50.94 51.93 55.82 56.73 56.33 56.37 56.83 57.68 58.11 58.82 59.26 58.69 57.86 57.32 55.99 55.56 55.73 55.89 55.12 56.29 56.71 55.11 53.80 55.15 54.80 53.74 54.31 55.34 55.66 55.42 55.57 55.55 55.04 55.19 55.15
44.86 46.05 46.18 45.64 45.76 45.87 46.96 48.23 48.60 49.56 52.85 56.43 56.94 57.50 57.53 57.92 58.11 57.18 55.74 55.67 57.00 57.27 57.63 57.25 57.06 57.01 56.57 56.51 55.82 55.68 56.50 56.78 56.84 54.31 54.99 52.66 54.20 54.60 55.75 55.69 55.20 55.10 55.94
44.85 44.68 45.13 44.93 45.11 45.32 45.76 47.27 47.39 48.44 49.18 50.64 53.95 53.46 53.80 52.47 51.38 51.45 50.33 50.91 51.42 50.62 50.32 50.73 51.62 53.18 55.48 56.05 56.65 57.06 56.93 56.15 57.55 57.38 55.02 52.72 52.09 55.30 55.96 53.72 54.26 54.58 54.97
43.88 45.68 46.02 45.54 45.30 45.68 46.39 46.74 47.48 47.62 48.21 47.64 48.33 47.53 47.22 46.48 47.33 47.78 47.20 48.04 48.70 48.71 48.34 48.17 47.68 47.67 49.51 48.83 50.57 51.42 54.21 55.29 54.33 56.66 58.24 57.54 56.25 52.88 51.83 56.18 55.56 53.64 53.71
44.23 44.74 45.31 45.74 45.64 45.98 45.30 45.55 46.98 47.18 47.07 47.12 46.47 46.62 45.49 45.41 45.80 45.76 45.36 45.76 46.63 47.42 47.38 47.01 46.27 46.14 46.87 46.62 46.88 47.37 47.81 49.14 50.73 50.91 52.64 52.96 53.25 53.71 52.05 49.30 51.45 54.71 56.81
43.79 44.45 44.78 45.03 44.47 44.64 45.05 45.26 46.52 45.97 46.16 46.30 45.75 44.96 43.90 43.58 43.75 43.72 43.58 44.25 44.88 45.57 45.61 45.81 45.60 45.33 45.55 45.82 46.50 46.68 46.21 46.79 47.59 48.33 47.71 47.70 47.56 47.96 48.70 47.75 48.13 49.10 51.85
43.18 43.67 43.68 43.58 43.58 43.72 44.38 45.75 45.40 44.58 44.87 44.68 44.03 43.60 43.09 42.35 41.84 41.74 41.95 41.39 41.98 42.65 42.98 43.28 43.63 43.97 44.55 45.20 45.76 45.62 45.29 45.67 45.81 45.81 45.99 47.40 47.25 48.49 48.29 47.34 46.75 47.61 49.52
42.49 43.43 43.23 42.57 42.71 43.53 43.65 43.84 43.75 43.43 43.65 43.53 42.50 41.59 41.29 41.63 41.05 40.45 40.52 40.18 40.44 41.02 41.05 41.57 41.89 42.46 43.03 43.66 43.30 43.21 43.75 44.41 44.45 44.02 44.97 46.02 45.78 46.41 46.43 46.76 46.57 43.78 44.74
42.46 42.96 42.39 41.88 42.38 42.83 42.82 42.48 42.06 41.74 41.72 41.39 41.16 39.59 38.95 38.54 38.06 38.13 37.73 37.92 38.12 39.96 39.33 38.80 38.81 39.55 39.76 39.71 39.93 40.91 41.28 41.94 43.11 43.28 42.70 42.47 43.48 44.58 46.28 47.98 47.80 44.61 40.07
42.25 42.35 41.83 41.80 42.48 42.42 41.35 40.60 40.44 39.85 39.72 39.39 38.87 38.10 36.74 36.34 35.94 35.61 34.76 34.87 35.58 35.98 36.21 36.23 36.23 36.30 36.13 36.88 37.08 39.85 38.27 39.22 42.11 39.96 39.10 41.32 42.22 43.23 45.71 45.79 45.00 43.91 42.40
42.13 41.98 41.22 41.96 42.00 40.67 39.48 38.60 38.47 38.28 37.64 37.60 36.51 35.12 34.72 34.32 33.65 33.15 33.20 33.18 33.41 33.90 34.13 34.26 34.54 34.21 34.16 34.90 35.07 37.06 36.38 37.61 37.61 36.73 36.99 38.75 40.45 42.62 41.51 42.55 40.71 39.18 41.08
42.30 41.30 41.14 41.42 40.38 38.69 37.46 36.62 36.69 36.45 36.20 36.29 34.57 33.27 32.63 32.01 31.17 31.14 31.63 32.04 31.39 32.61 32.54 32.70 32.92 32.82 33.15 33.52 34.14 33.43 34.07 35.56 34.37 35.20 36.82 38.20 41.49 37.58 38.91 38.81 36.38 38.11 41.43
40.76 40.35 40.86 40.58 39.42 37.47 36.03 34.96 34.59 34.06 34.33 33.79 32.02 30.90 30.38 29.61 29.01 29.47 30.54 30.98 30.94 31.02 31.19 31.42 31.32 31.48 31.98 32.40 32.26 32.82 33.55 33.97 34.36 35.77 34.54 32.87 35.09 33.98 33.83 33.64 34.34 38.81 38.18
40.76 40.55 40.86 39.61 38.06 36.17 34.41 33.33 32.82 32.75 32.74 31.70 30.31 29.43 29.01 28.71 28.65 29.15 29.51 29.79 30.08 29.42 29.75 30.22 30.41 30.74 31.18 31.52 32.19 33.08 33.38 33.97 35.20 33.75 32.39 31.89 32.20 32.55 33.05 33.13 33.77 37.14 35.55
39.34 41.35 40.85 37.93 35.57 33.70 32.75 32.47 32.13 31.18 31.17 29.76 29.14 28.93 29.09 28.92 28.56 28.50 28.56 28.82 28.92 29.17 29.29 29.25 29.58 29.86 30.57 32.20 32.34 33.11 33.14 32.97 33.15 32.03 31.95 32.72 34.46 36.41 36.02 34.44 33.86 34.41 33.69
38.99 41.12 39.77 37.09 34.53 32.10 31.91 31.91 30.62 29.53 29.73 28.71 28.27 28.78 28.50 28.33 27.91 27.91 27.95 27.83 27.78 27.73 27.94 27.91 28.20 28.36 30.47 34.18 35.89 35.27 32.56 32.30 31.29 30.57 31.31 32.03 34.14 34.24 37.34 37.38 37.62 36.66 33.21
38.06 40.22 37.80 35.73 32.87 31.75 31.62 29.67 28.68 28.66 28.81 28.39 27.63 27.82 27.81 27.23 27.21 27.30 26.80 26.57 26.20 26.37 26.49 26.79 27.19 27.13 27.87 33.65 35.32 35.85 32.30 31.19 30.98 30.76 30.73 31.26 33.19 34.00 32.92 35.42 36.74 36.12 37.17
39.51 38.35 35.81 33.32 31.71 31.18 30.07 28.99 29.06 29.71 27.74 26.55 26.37 26.84 26.66 26.19 26.36 25.61 25.03 24.70 25.61 25.35 25.74 26.01 26.61 26.61 28.14 32.99 34.34 35.04 31.54 30.85 30.85 30.90 31.12 31.07 32.37 32.86 33.36 32.51 32.09 32.74 32.08
38.28 36.27 34.60 32.41 30.27 29.18 28.95 28.95 28.65 25.63 25.52 25.44 25.06 25.54 25.45 25.02 24.81 24.25 23.90 24.57 24.78 25.18 25.38 26.11 25.96 25.45 26.18 32.23 33.44 33.31 30.36 29.88 29.84 31.09 31.57 33.24 31.86 34.48 35.87 32.75 31.08 29.72 31.60
36.01 34.06 32.28 30.92 29.44 27.69 27.04 25.58 24.84 24.30 24.25 24.69 24.80 25.19 25.14 24.44 23.58 23.47 23.80 24.45 24.66 25.02 25.69 25.44 25.62 27.83 26.02 30.76 33.49 32.82 30.05 28.72 29.31 30.38 33.14 33.91 32.77 35.14 35.44 30.88 29.54 28.03 27.28
33.81 32.56 31.31 29.05 27.14 26.69 28.37 25.14 23.80 23.24 24.03 24.61 24.66 24.65 24.50 23.54 23.32 23.25 23.59 24.40 24.23 24.22 23.69 23.92 24.90 25.32 26.83 28.23 33.24 33.69 30.29 29.56 29.69 30.99 29.00 29.80 34.13 35.04 33.24 33.15 28.45 27.84 30.70
32.29 31.02 28.24 26.71 27.49 29.76 25.60 24.01 24.21 23.65 23.67 23.73 23.52 23.19 22.93 24.22 26.25 23.48 23.71 23.59 23.18 22.64 22.81 23.03 23.69 25.81 27.17 31.07 31.80 33.24 33.41 33.38 30.35 28.59 28.86 30.15 33.58 31.56 31.63 30.41 31.49 31.64 31.23
31.01 29.83 27.93 26.52 25.71 25.59 24.81 22.14 22.94 22.98 22.96 22.19 21.85 21.86 22.79 23.20 23.63 23.10 23.61 23.44 23.13 22.44 22.18 22.52 23.17 25.21 27.07 27.59 31.75 32.60 33.32 33.61 30.36 29.40 32.03 30.77 30.57 29.88 28.60 29.56 30.02 29.37 25.14
29.08 28.31 26.76 26.47 27.28 26.53 23.73 22.36 22.49 22.75 21.97 20.60 20.59 21.64 21.28 23.43 22.89 22.58 23.83 23.12 22.44 22.07 22.43 23.63 24.50 24.96 25.86 26.37 27.30 29.02 29.69 31.40 30.06 32.36 29.81 28.86 28.45 28.51 27.75 26.01 25.26 23.78 24.38
28.67 28.13 28.39 27.08 24.68 22.58 22.06 22.21 22.97 22.12 21.43 21.09 21.58 21.54 21.74 21.12 22.43 23.31 22.74 23.25 23.93 25.28 25.08 25.35 25.69 24.76 24.67 26.29 30.80 30.58 28.76 29.21 30.60 29.86 26.35 24.21 23.19 22.42 22.55 22.75 22.69 22.98 23.60
28.85 27.43 26.35 23.64 22.15 21.60 21.36 22.01 22.54 22.08 20.60 21.07 22.24 21.78 22.83 22.15 22.96 22.25 22.58 27.91 29.08 30.16 30.31 30.37 29.05 28.07 30.10 31.18 31.52 31.38 31.81 31.85 30.51 25.34 22.82 22.12 21.61 21.18 21.27 21.32 21.24 21.84 23.16

GFSMW_sfc_wetblb_009.txt.gz
Wetbulb
48.52 49.13 49.46 49.90 51.12 51.04 51.78 52.19 54.96 57.06 60.21 60.44 60.54 61.03 60.00 58.84 57.30 56.56 56.17 56.24 57.01 57.49 57.37 57.22 56.78 57.49 57.60 57.58 58.02 58.37 57.82 58.10 59.33 55.80 55.85 57.57 59.33 60.15 60.54 60.96 59.99 59.53 59.54
47.77 48.21 48.80 49.30 49.08 49.63 50.46 51.16 51.65 52.93 57.16 60.31 60.53 60.75 57.69 55.20 54.31 53.74 53.14 53.06 51.95 51.70 51.56 51.51 51.66 52.14 52.79 52.48 52.99 53.94 53.21 54.76 56.59 55.37 55.14 53.07 55.27 58.77 59.24 59.76 59.33 59.97 60.30
46.92 47.35 48.04 48.25 48.93 48.79 49.21 50.15 50.80 51.24 51.78 53.72 54.83 54.42 54.08 53.40 52.24 50.98 50.57 50.59 50.97 50.09 49.80 49.85 49.64 49.85 50.37 49.53 50.29 50.73 50.18 48.94 51.24 53.11 51.97 49.94 48.74 50.95 54.74 57.26 58.87 59.44 59.36
47.23 47.66 47.79 48.12 48.52 48.32 49.65 49.99 50.10 50.45 50.78 51.86 51.23 50.34 49.66 48.02 48.52 48.72 48.95 48.94 49.30 49.06 48.03 48.30 48.35 48.41 48.64 48.13 48.59 48.96 48.93 48.38 47.25 49.67 51.23 50.98 50.73 46.40 46.31 51.06 53.67 54.85 56.46
47.30 46.70 47.25 47.63 47.93 48.56 48.48 49.11 49.18 48.87 49.05 49.07 49.12 48.39 46.99 47.40 47.14 46.81 46.26 46.60 46.94 47.58 45.96 46.23 46.44 46.32 46.64 47.10 47.35 47.18 47.31 47.97 47.06 47.20 47.53 47.82 48.73 49.16 47.64 45.01 47.31 50.89 52.15
46.42 46.38 46.71 47.16 47.28 48.21 48.48 48.62 47.88 46.85 47.05 47.09 46.83 46.12 45.29 44.54 44.04 43.74 43.11 43.41 43.84 44.60 43.65 43.67 43.85 44.31 44.09 44.42 44.96 45.70 46.23 46.14 46.37 47.00 47.03 46.44 45.61 45.18 44.96 44.63 45.15 45.67 48.74
45.95 45.94 45.91 46.29 46.70 47.10 47.53 47.48 46.97 45.25 45.41 44.83 44.21 44.18 43.42 42.78 41.53 41.03 40.50 40.09 40.21 41.15 40.94 41.51 41.05 41.49 41.78 41.89 42.29 42.48 44.07 44.29 44.20 45.17 45.89 46.19 44.21 44.03 43.87 43.96 44.22 44.73 46.83
45.71 45.75 45.68 45.84 45.97 45.90 45.86 45.63 45.07 44.28 44.00 43.08 41.67 41.38 41.23 40.54 39.84 39.47 39.06 38.54 38.57 39.38 39.61 39.59 39.57 39.50 39.45 39.21 39.95 40.11 42.79 41.37 42.20 44.35 43.09 42.40 41.39 42.93 43.29 43.69 43.26 40.86 41.76
44.93 45.16 44.76 45.33 45.31 44.80 44.20 44.04 43.34 42.69 42.55 41.36 39.79 38.69 38.45 37.98 37.49 37.57 37.68 37.36 37.50 37.66 37.70 37.96 37.64 38.02 37.80 37.79 38.06 38.09 39.47 39.43 40.13 41.41 40.27 39.92 40.43 43.43 44.18 45.22 44.83 40.97 37.92
44.40 44.25 44.02 44.56 44.29 43.14 42.57 42.54 41.98 40.92 40.25 39.09 38.31 36.86 36.60 36.52 36.39 36.38 35.45 35.49 35.98 36.24 36.19 36.16 36.23 36.41 36.35 36.50 36.58 36.87 37.76 37.61 37.36 39.06 37.70 38.99 40.33 41.73 43.32 41.99 41.54 42.12 37.82
44.14 43.85 43.70 44.30 42.81 41.67 41.13 40.54 39.93 39.38 38.44 37.11 36.03 35.29 35.06 35.01 34.94 34.59 34.66 34.70 34.96 34.88 34.64 34.59 34.67 34.75 34.71 35.11 35.07 35.18 35.85 35.25 36.40 37.15 37.33 38.13 38.78 36.90 37.96 39.98 39.38 37.85 36.54
44.16 43.43 43.54 42.52 40.87 39.65 39.03 38.58 38.12 37.54 36.69 35.59 34.68 34.09 34.03 33.80 33.45 33.40 33.59 33.95 33.44 34.02 33.64 33.61 33.47 33.54 33.60 33.94 33.68 33.47 34.45 34.53 34.63 35.67 36.73 35.84 35.37 34.58 35.55 36.37 35.35 35.66 36.26
42.92 42.34 42.43 41.27 39.68 38.30 37.48 36.87 36.31 35.87 35.09 34.12 33.57 33.08 32.78 32.73 32.45 32.49 32.79 33.03 32.81 32.85 32.91 32.65 32.20 32.25 32.47 32.65 33.20 33.78 34.19 34.68 34.88 35.12 35.37 34.18 33.72 33.58 34.35 34.66 34.70 36.02 35.80
42.29 41.89 41.85 40.68 38.83 37.35 36.47 35.61 34.60 34.84 33.90 33.14 32.60 32.16 32.14 31.95 31.87 32.22 32.14 31.95 32.13 31.70 31.67 31.84 31.70 31.68 31.72 32.05 32.94 33.74 34.16 34.31 34.60 34.54 34.37 33.83 33.48 32.93 34.37 35.03 35.50 35.19 35.07
41.17 41.87 41.12 39.35 37.21 35.82 35.25 34.65 33.63 33.05 32.91 32.08 31.80 31.54 31.72 31.80 31.68 31.41 31.25 31.28 31.14 30.99 31.07 30.62 30.83 31.09 31.16 32.00 32.98 33.97 33.78 33.44 33.12 33.61 33.68 34.12 34.70 35.59 35.92 35.09 35.01 34.89 33.77
40.90 42.20 40.97 38.49 36.28 35.26 34.70 33.91 32.46 31.63 32.04 31.01 30.52 30.91 30.87 30.83 30.58 30.49 30.26 30.12 30.03 30.12 29.84 29.70 29.72 29.65 30.42 32.92 34.72 34.79 33.61 32.96 32.45 32.18 32.92 33.49 34.21 34.94 36.53 36.53 36.73 35.87 33.12
40.66 42.17 40.59 38.06 35.49 34.73 34.16 32.56 31.13 31.18 30.87 30.16 29.73 29.84 29.87 29.46 29.53 29.54 29.19 28.84 28.63 28.96 28.92 29.08 29.06 28.76 29.39 32.51 34.10 34.76 33.35 32.57 32.00 31.72 32.31 32.51 33.57 34.44 34.38 35.54 36.05 36.09 35.67
39.97 40.99 38.52 35.89 34.44 33.78 32.59 31.10 30.91 30.61 29.65 28.81 28.69 28.97 28.67 28.44 28.73 28.32 27.93 27.94 28.55 28.23 28.19 28.12 28.48 28.26 29.11 31.84 33.40 34.04 32.69 32.16 31.70 31.81 32.15 32.09 32.77 34.30 33.30 33.35 34.03 32.24 32.56
40.61 39.45 37.50 34.49 32.91 31.94 31.25 30.55 29.56 28.28 28.23 28.06 27.66 27.94 27.85 27.50 27.45 27.10 27.11 27.84 27.98 27.88 27.68 28.10 27.65 27.17 27.67 31.39 32.48 33.08 31.84 31.00 30.97 31.99 32.24 33.07 32.96 33.83 34.91 33.52 30.44 30.13 30.89
37.63 35.88 33.81 32.14 31.16 29.86 29.61 28.76 28.23 27.52 27.16 27.14 27.10 27.48 27.51 26.99 26.45 26.81 27.11 27.66 27.56 27.16 27.80 27.00 27.26 28.23 27.34 30.27 32.58 32.63 31.15 30.09 30.29 31.28 32.45 33.37 32.50 34.18 35.26 30.72 29.10 27.41 28.03
34.55 33.37 32.63 31.21 29.79 28.80 29.54 28.56 27.12 26.58 26.83 26.83 26.85 27.01 27.06 26.22 27.05 27.15 27.17 27.04 26.69 26.42 25.93 25.80 26.78 27.23 28.31 29.34 32.46 33.04 30.78 29.98 30.22 30.78 30.22 31.11 33.23 35.42 32.89 32.09 28.90 28.23 30.17
33.39 31.98 29.65 28.63 28.62 30.42 29.20 26.83 26.17 26.57 26.30 26.11 25.75 25.98 26.17 26.23 27.20 26.47 26.72 26.61 25.82 24.97 24.73 25.06 25.69 27.51 28.71 30.75 31.35 32.52 32.70 32.83 29.93 29.27 30.18 31.21 34.80 32.32 31.18 29.82 30.43 30.94 29.86
32.40 31.15 29.43 27.87 27.65 27.74 27.22 25.87 26.03 25.74 25.40 24.85 24.88 25.01 25.49 25.86 26.25 25.95 25.87 25.62 25.50 24.46 24.22 24.51 24.86 26.55 28.34 29.04 31.13 31.96 32.78 32.83 30.19 30.64 32.11 31.53 30.81 30.53 28.79 28.92 29.34 28.80 25.57
30.47 29.60 28.22 27.10 27.72 28.28 27.04 25.37 25.20 25.22 24.50 23.96 24.12 24.98 24.90 26.74 26.36 25.37 25.55 24.93 24.51 24.19 24.28 24.83 25.54 26.04 27.23 28.01 28.98 29.83 30.45 31.29 31.05 31.39 28.84 28.84 29.02 29.06 27.84 26.74 26.47 25.75 25.32
30.29 29.02 27.94 27.83 27.60 26.15 24.90 24.75 25.44 24.46 24.00 23.99 24.28 24.53 24.49 23.87 24.54 25.03 25.00 25.27 26.55 26.87 26.24 26.33 26.60 25.76 25.78 27.57 30.74 30.34 28.97 29.84 29.94 28.34 26.43 25.33 25.64 23.94 24.00 24.05 24.26 24.73 24.57
28.52 27.01 27.64 27.37 25.65 23.97 23.88 24.28 24.58 24.18 23.09 23.44 24.61 24.16 25.00 24.53 24.48 23.79 24.39 27.89 28.84 29.84 29.92 29.99 28.94 28.49 30.06 31.01 31.07 30.99 31.40 31.14 29.81 25.51 23.01 22.52 23.10 22.17 22.15 21.92 22.41 23.33 23.48

GFSMW_sfc_wetblb_012.txt.gz
Wetbulb
53.30 54.27 54.98 56.34 57.07 58.09 59.32 61.24 62.68 63.71 64.40 64.50 63.96 62.60 59.56 58.79 57.44 56.86 56.24 55.69 55.48 55.32 55.29 55.25 54.82 54.99 54.77 54.24 54.23 54.30 53.46 53.87 55.13 52.73 53.64 54.82 57.63 59.46 59.00 61.60 61.56 60.57 61.43
52.72 53.09 54.09 54.76 55.26 55.87 56.68 58.04 60.07 62.81 63.67 64.25 62.36 59.41 57.47 56.32 55.84 55.43 54.68 54.42 53.64 53.32 53.04 53.02 52.94 53.02 52.83 52.69 52.37 52.45 51.28 51.86 52.60 50.36 50.11 48.52 51.43 54.87 54.80 54.97 54.97 56.68 57.56
51.74 52.43 53.18 53.94 54.82 54.65 55.08 55.52 56.48 57.45 57.99 58.32 57.71 57.19 56.89 56.09 54.57 53.52 52.91 52.40 52.53 51.31 51.22 51.21 51.11 51.05 51.17 50.26 50.42 50.13 49.39 47.76 49.62 50.66 48.35 45.75 45.20 48.39 50.75 51.80 52.84 54.04 54.90
52.45 52.58 52.91 53.42 53.81 54.05 55.19 55.07 55.16 55.22 55.85 56.75 55.76 54.80 53.40 51.39 51.57 51.56 51.63 51.18 50.68 49.24 47.99 48.23 48.22 48.27 48.23 47.69 47.57 47.64 47.69 47.51 45.65 47.52 48.59 48.88 47.67 44.59 43.71 49.13 50.09 51.76 51.37
52.16 51.78 52.25 52.37 53.15 54.07 54.03 53.94 53.59 53.22 53.49 53.60 53.59 52.47 51.05 50.83 50.51 49.96 49.12 48.65 48.34 47.48 45.56 45.63 45.64 45.51 45.52 45.66 45.56 45.34 45.39 46.33 44.93 44.79 45.54 46.32 47.07 47.01 44.75 42.27 43.94 47.04 48.08
51.77 51.85 52.01 52.51 52.48 53.34 53.23 52.82 51.64 51.00 51.51 51.23 50.82 50.18 49.12 48.09 47.55 46.66 45.87 45.50 45.21 45.22 43.97 43.79 43.88 44.01 43.64 43.29 43.42 43.87 44.34 45.00 44.00 44.18 44.83 44.89 43.35 42.29 41.33 39.94 41.40 42.21 44.48
51.10 50.69 50.87 51.46 51.84 51.87 51.78 51.06 50.17 48.66 49.27 48.69 48.06 47.57 46.86 45.97 44.69 43.91 43.18 42.41 42.34 42.43 41.87 42.37 42.00 41.97 42.06 41.98 42.20 42.18 42.88 43.80 42.14 42.85 43.84 44.11 42.06 41.92 40.16 39.75 40.93 40.86 43.44
51.50 51.22 51.57 51.63 51.21 50.77 50.54 50.07 48.99 47.68 47.06 46.34 45.28 45.00 44.51 43.80 42.71 41.99 41.59 40.98 40.66 40.76 41.05 40.71 40.76 40.65 40.69 40.83 41.01 41.06 41.34 42.05 41.79 40.76 40.93 42.22 40.62 41.27 41.24 40.80 40.76 38.78 39.95
50.84 50.83 51.06 51.29 50.58 49.91 49.33 48.90 47.99 46.67 45.51 44.43 43.83 42.49 42.00 41.45 40.83 40.58 40.70 39.96 39.75 39.20 39.71 39.98 39.66 39.99 39.86 39.75 39.67 39.58 39.58 39.90 40.59 39.68 40.76 40.06 40.33 41.49 41.85 41.57 40.81 38.53 34.61
50.45 50.34 50.46 50.37 49.88 48.83 48.18 47.80 47.11 44.95 43.94 43.00 42.06 41.01 40.20 39.99 39.79 39.65 38.77 38.83 38.94 38.93 38.82 38.67 38.58 38.60 38.67 38.65 38.52 38.52 38.69 38.36 38.64 38.97 38.76 39.24 39.41 40.52 39.99 38.47 37.98 38.07 36.61
50.10 49.77 50.05 49.79 48.36 47.66 47.00 45.73 45.13 43.81 42.34 41.36 40.54 39.98 39.14 38.60 38.51 38.23 38.18 38.07 38.20 37.95 37.64 37.40 37.27 37.21 37.16 37.54 37.23 37.12 37.18 36.79 37.33 38.11 37.73 37.60 38.82 38.37 37.43 37.42 37.24 35.94 36.07
50.45 49.87 49.65 48.15 46.63 46.10 45.37 44.39 43.89 42.79 41.32 39.98 39.23 38.41 37.97 38.02 37.76 37.46 37.46 37.44 36.99 37.38 36.83 36.63 36.40 36.35 36.34 36.39 35.86 35.63 36.18 36.08 36.05 36.56 36.55 36.30 36.96 36.26 36.38 36.48 35.31 35.85 36.58
49.53 49.03 48.67 47.12 46.28 45.14 44.13 43.15 42.88 41.28 39.68 38.77 37.96 37.58 37.33 37.19 36.82 36.83 36.81 36.65 36.38 36.28 36.40 36.06 35.43 35.16 35.28 35.04 35.41 35.40 35.65 36.06 36.23 36.18 35.70 35.29 35.38 34.47 35.19 35.04 35.08 36.24 36.05
48.58 48.35 47.84 47.22 46.07 44.67 43.21 41.95 41.12 40.27 38.10 37.14 37.19 36.53 36.28 36.21 36.25 36.37 36.03 35.79 35.80 35.41 35.29 35.19 34.89 34.74 34.64 34.65 34.64 34.78 35.27 35.53 35.86 35.82 35.73 35.20 34.50 33.99 34.35 34.44 34.51 35.02 34.51
47.72 47.49 47.49 46.89 45.39 43.42 42.24 40.95 39.28 38.33 36.96 36.41 36.28 35.40 35.51 35.69 35.59 35.56 35.34 35.33 35.15 34.94 34.79 34.29 34.40 34.45 34.14 34.01 33.61 34.20 34.43 34.53 34.45 35.15 34.90 34.84 34.89 35.20 35.54 34.82 34.68 34.34 33.51
47.11 47.35 47.53 46.76 44.45 42.71 41.03 39.68 37.91 36.53 36.40 35.52 34.42 34.64 34.45 34.70 34.82 34.68 34.32 34.38 34.35 34.44 34.26 33.95 33.71 33.36 33.18 33.92 34.03 34.31 33.63 33.85 33.75 33.04 33.68 34.14 34.43 34.65 36.05 36.24 36.54 35.35 33.25
47.22 46.97 47.01 46.00 43.41 41.85 41.16 39.62 37.43 35.92 35.14 34.37 33.77 33.47 33.69 33.68 33.72 33.76 33.60 33.54 33.49 34.02 33.57 33.37 33.05 32.43 32.69 33.37 33.58 34.20 33.35 33.46 33.25 32.99 32.82 32.93 33.76 34.49 34.08 35.31 35.50 35.64 36.15
46.50 47.12 46.86 44.25 42.51 41.32 39.78 37.53 36.10 35.06 33.89 33.11 33.13 33.21 32.96 32.61 33.05 33.00 33.07 33.28 33.46 33.02 32.68 32.48 32.35 31.84 31.87 32.58 33.05 33.48 33.26 33.11 33.07 33.13 32.99 32.61 32.90 33.95 33.90 33.73 33.30 33.54 33.00
46.21 47.02 46.07 43.04 40.35 39.32 38.17 36.52 34.58 33.52 32.88 32.82 32.49 32.39 32.39 31.91 32.16 32.20 32.37 32.79 32.43 32.20 32.05 31.97 31.44 30.74 30.91 32.05 32.35 32.86 32.46 31.87 32.04 32.68 32.96 33.06 32.59 33.86 34.45 33.35 32.07 30.76 31.32
43.72 42.95 41.37 40.11 39.54 37.59 36.45 35.12 33.26 31.56 32.45 32.07 31.83 32.16 32.16 31.71 31.56 31.90 31.87 32.34 32.14 31.42 31.54 30.95 31.28 31.03 30.36 31.91 32.56 32.64 31.52 30.48 31.25 31.98 32.58 33.58 33.13 34.05 34.60 31.52 30.91 28.76 28.94
40.90 39.68 39.35 38.71 37.81 35.78 35.16 32.55 30.54 30.95 32.05 31.87 31.77 31.93 32.15 31.66 31.80 31.88 32.12 31.65 31.14 30.88 30.52 30.06 30.59 30.71 31.19 31.43 32.69 32.83 31.39 30.96 31.09 31.79 31.69 32.40 33.44 33.62 32.77 32.24 30.27 28.99 29.86
38.34 38.81 37.81 36.26 35.37 34.87 33.00 30.57 30.84 32.08 31.74 31.36 31.20 31.41 31.72 31.42 31.20 31.18 31.27 31.04 30.46 29.50 29.14 28.92 29.24 30.63 31.41 31.84 32.07 32.71 32.80 32.76 30.64 29.91 31.87 31.96 32.36 31.25 30.81 30.84 31.05 30.76 29.95
37.73 37.58 36.88 34.66 34.08 32.70 31.84 31.01 31.86 31.37 30.89 30.70 30.78 30.94 31.18 31.29 31.60 30.54 29.74 29.26 29.41 28.42 27.87 27.83 28.09 28.93 30.08 30.75 32.11 32.49 32.91 32.87 30.72 31.40 32.37 31.81 30.42 29.71 29.54 29.71 29.62 29.03 27.46
37.57 36.69 35.48 34.59 32.40 31.99 31.51 31.63 31.17 30.79 30.04 29.97 30.37 30.78 30.52 30.31 30.56 30.49 29.94 28.76 28.11 27.62 27.51 27.54 27.47 28.07 28.61 29.34 30.72 31.05 32.03 32.03 31.55 31.94 30.56 29.54 28.98 28.78 28.44 27.72 27.69 27.29 26.73
37.02 36.12 35.44 34.20 33.32 31.79 30.67 30.78 30.62 30.20 29.61 29.81 30.14 30.15 30.06 29.92 29.56 29.60 28.94 28.29 29.12 28.85 27.45 27.78 27.93 27.46 27.02 28.55 31.04 30.67 29.97 30.43 30.86 29.79 28.08 26.65 25.65 25.28 25.35 25.68 25.96 26.36 25.94
36.26 34.58 33.96 33.14 31.00 30.37 30.04 30.17 30.12 29.68 28.89 28.70 29.57 29.39 28.97 29.24 28.58 28.07 27.96 30.18 29.98 30.31 30.19 30.16 29.41 29.16 30.34 30.95 31.26 30.86 30.98 31.65 30.56 26.69 24.42 23.49 24.01 23.56 23.83 23.59 23.96 24.62 24.71

GFSMW_sfc_wetblb_015.txt.gz
Wetbulb
55.60 56.44 57.59 58.54 59.23 61.20 62.66 63.57 63.74 64.64 65.25 65.12 63.76 61.43 58.63 57.91 56.90 56.44 56.08 55.57 55.18 55.03 54.64 54.49 54.09 54.11 53.53 53.33 52.77 52.52 51.81 52.00 52.97 50.75 51.32 51.89 52.91 53.50 54.68 53.40 53.04 53.82 55.39
54.27 55.09 56.04 56.86 57.15 58.16 60.21 62.14 63.12 64.31 63.99 62.01 60.82 59.26 57.58 56.52 55.81 55.43 54.46 53.97 52.71 52.32 52.22 51.74 51.64 51.39 51.35 50.97 50.20 49.90 48.52 49.27 49.78 47.19 46.54 44.81 47.51 51.02 49.91 50.47 51.69 51.59 53.36
53.17 53.92 54.91 55.59 56.33 56.13 57.19 57.75 58.24 58.66 58.77 58.93 58.36 57.58 57.28 56.59 54.22 53.37 52.68 51.89 51.33 49.29 48.91 48.89 48.46 48.59 48.96 48.24 48.01 47.70 46.97 45.29 47.46 47.78 44.47 41.87 40.39 44.10 47.93 48.50 49.61 49.40 49.13
53.82 54.14 54.34 54.73 55.17 55.44 56.66 56.59 56.72 57.03 57.56 58.18 57.16 55.94 53.58 51.04 51.68 51.74 51.52 50.93 49.89 47.80 46.41 46.42 46.21 46.26 46.44 45.80 45.98 45.70 45.51 45.72 44.13 45.75 45.54 45.62 44.89 41.17 40.16 45.77 46.19 47.04 46.51
53.49 53.42 53.98 54.36 55.03 55.56 55.20 55.08 54.77 54.50 54.94 54.99 54.58 53.19 51.50 51.14 50.99 50.57 49.38 48.62 47.97 47.03 44.97 44.75 44.69 44.30 44.40 44.24 43.69 44.20 43.81 44.92 43.80 42.89 43.01 43.30 44.35 44.37 40.02 36.97 40.16 42.77 43.93
53.21 53.62 53.96 54.30 53.93 54.60 54.15 53.91 52.75 52.11 52.52 52.47 52.02 51.20 50.16 49.46 48.52 47.44 46.48 46.06 45.76 45.27 43.85 43.55 43.38 43.33 42.83 42.52 42.92 43.48 43.60 43.38 43.66 42.83 42.18 41.46 40.56 39.67 38.56 36.70 37.38 37.98 41.62
52.64 52.22 52.25 52.67 52.94 52.87 52.55 51.93 51.21 49.93 50.32 50.00 49.50 48.97 48.25 47.43 45.64 44.97 44.15 43.33 42.99 42.55 41.87 42.04 41.50 41.55 42.33 42.31 42.35 42.03 42.15 41.99 41.79 41.51 41.13 40.78 40.57 41.70 39.47 37.99 37.19 37.07 40.24
52.55 52.03 52.68 52.94 52.70 52.23 51.64 51.05 49.74 48.41 48.37 47.78 46.96 46.66 46.39 45.31 44.16 43.26 42.62 41.89 41.28 40.91 41.11 40.88 40.80 40.67 40.75 40.59 40.88 40.89 41.18 41.09 40.72 40.59 40.47 39.70 40.59 40.53 39.78 38.33 37.29 34.97 35.46
52.20 52.20 52.84 52.94 52.25 51.63 51.30 50.38 48.74 47.55 46.88 46.28 45.70 44.50 43.96 43.14 42.34 41.98 41.72 40.96 40.67 39.91 39.93 40.05 39.55 39.70 39.67 39.55 39.52 39.07 39.04 39.42 39.36 39.32 39.43 39.07 39.53 40.00 39.85 39.73 39.36 34.92 29.89
52.14 52.35 52.41 52.26 51.94 51.21 50.47 49.93 48.65 46.71 45.80 45.06 44.24 43.19 42.10 41.54 41.30 41.05 39.80 39.52 39.58 39.31 39.00 38.82 38.58 38.48 38.57 38.57 38.58 38.25 38.55 37.84 38.17 38.22 38.07 38.01 38.48 38.47 38.81 38.74 38.16 36.63 33.49
51.72 51.82 52.11 52.02 50.96 50.19 49.30 48.24 46.61 45.31 44.40 43.95 43.24 42.17 40.93 40.56 40.48 39.68 39.15 38.63 38.63 38.30 37.93 37.77 37.49 37.43 37.35 37.47 37.07 36.88 37.00 36.45 36.69 37.39 37.16 36.95 37.50 36.88 36.89 37.05 36.44 35.46 34.93
52.06 51.83 51.84 50.80 49.33 48.84 47.98 47.13 46.28 44.89 43.87 42.79 41.89 40.68 40.49 40.22 39.36 38.43 38.10 38.01 37.48 37.83 37.44 37.16 36.89 36.72 36.59 36.49 35.69 35.34 35.83 35.20 35.16 35.92 36.01 35.78 36.69 35.62 36.18 35.43 34.55 34.21 34.39
51.62 51.36 51.13 49.53 48.77 48.20 47.25 46.09 45.43 43.86 42.54 41.50 40.76 40.04 39.37 38.77 38.00 37.68 37.56 37.44 36.95 36.85 36.93 36.72 36.01 35.74 35.92 35.46 35.33 35.20 34.48 34.76 35.20 35.34 35.17 34.91 35.06 34.08 34.36 34.09 33.08 33.47 34.23
51.01 50.69 50.31 49.43 49.06 48.02 46.63 45.30 44.23 43.03 41.07 40.00 39.36 38.66 38.10 37.48 37.17 37.15 36.87 36.60 36.44 36.01 36.16 36.09 35.61 35.73 35.47 35.27 35.08 34.13 33.77 34.05 34.57 35.10 35.05 35.09 34.42 33.53 33.11 32.95 32.95 33.65 32.82
50.11 49.97 49.80 49.48 48.74 47.16 45.81 44.46 43.20 41.40 40.02 38.51 37.89 37.04 36.85 36.77 36.61 36.27 36.15 36.04 36.01 35.96 36.00 35.45 35.65 35.70 35.12 34.96 34.24 33.64 33.15 33.08 33.15 34.09 34.73 34.91 35.60 35.85 35.34 33.70 33.09 32.49 31.98
49.90 50.12 50.09 49.82 48.25 46.74 44.81 43.01 41.32 39.47 38.86 37.41 36.10 36.08 35.72 35.82 35.64 35.53 35.02 35.18 35.34 35.49 35.45 35.22 35.07 34.83 34.45 36.03 35.70 34.36 32.59 32.58 32.53 32.56 33.57 34.12 35.13 34.85 36.02 36.09 36.18 34.95 31.35
49.96 49.86 49.70 49.71 48.43 46.37 44.48 41.89 40.24 38.56 37.48 36.08 35.34 34.98 34.89 34.55 34.64 34.66 34.54 34.54 34.56 35.16 34.77 34.55 34.33 33.53 33.58 35.31 35.08 34.65 32.35 32.08 32.57 32.51 32.50 32.80 33.78 34.13 33.35 34.87 35.47 35.11 35.74
49.59 49.75 49.89 49.37 47.55 45.63 43.59 41.93 38.76 37.41 35.90 34.86 34.49 34.53 34.18 33.79 34.05 33.92 33.91 34.18 34.45 34.06 33.74 33.59 33.47 32.83 33.04 34.61 34.27 33.97 32.40 32.24 32.44 32.49 32.48 31.95 32.05 33.10 32.82 32.35 32.04 32.48 32.20
49.68 50.01 50.06 47.75 45.12 42.83 41.12 38.63 37.15 35.74 34.72 34.02 33.91 33.86 33.63 33.02 33.09 32.87 33.08 33.63 33.55 33.28 32.80 33.05 32.50 31.86 31.80 33.74 33.82 33.12 31.77 31.34 31.25 32.17 32.29 32.04 31.88 33.96 34.90 31.96 29.91 28.46 28.93
47.91 47.31 46.45 43.83 41.90 40.84 39.35 37.77 35.97 34.53 33.38 33.03 33.25 33.54 33.45 32.84 32.45 32.62 32.66 33.35 33.19 32.45 32.65 32.11 32.34 32.84 31.24 33.46 33.82 33.25 31.51 29.99 30.29 31.29 32.16 33.70 32.61 34.25 34.73 30.21 28.00 25.68 26.94
43.95 43.27 42.49 41.36 40.26 38.99 38.47 36.39 34.09 32.78 32.88 33.03 33.24 33.25 33.39 32.88 32.80 32.50 32.82 32.55 32.05 31.75 31.40 30.97 31.53 31.50 32.06 32.18 33.98 33.90 31.40 30.42 29.73 29.92 29.97 31.13 33.36 33.93 33.04 32.36 28.07 27.59 29.70
40.54 41.39 40.53 38.77 38.08 37.90 37.04 34.05 32.40 32.86 32.89 32.94 32.62 32.75 32.95 32.83 32.82 32.52 32.57 32.08 31.23 30.29 29.82 29.73 29.82 31.36 31.93 33.13 33.07 33.73 33.55 33.02 29.86 29.06 29.89 30.48 33.65 31.83 31.35 30.07 30.90 31.12 30.04
39.72 40.40 39.13 37.15 36.86 35.77 35.31 32.73 32.92 32.72 32.46 32.17 32.11 32.34 32.47 32.66 32.79 31.79 31.02 30.44 30.32 29.18 28.58 28.40 28.33 29.00 30.56 30.79 32.68 32.86 33.03 33.10 30.22 30.13 31.19 33.01 30.88 30.33 29.00 29.24 29.96 29.40 25.24
39.29 39.65 37.98 36.28 34.36 33.97 32.64 33.33 32.65 32.40 31.60 31.22 31.55 31.83 31.63 31.88 31.81 32.00 31.29 30.11 29.01 28.24 27.72 27.32 27.07 27.73 28.14 28.80 29.68 29.97 30.35 31.45 30.28 31.25 30.62 29.34 29.04 28.96 27.79 26.79 26.54 25.40 25.12
39.44 38.83 38.10 37.04 34.71 34.00 32.74 32.55 32.08 31.80 30.66 30.90 30.91 31.34 31.55 30.86 30.60 30.92 30.37 29.55 29.99 29.75 27.66 27.68 27.71 26.27 25.86 27.75 30.82 30.43 28.86 28.92 30.20 29.58 27.00 25.33 24.32 23.23 23.66 23.74 24.01 24.31 24.33
38.81 37.71 37.15 35.73 33.70 32.66 32.12 31.89 31.76 31.10 30.26 29.46 30.23 30.57 30.05 30.33 30.14 29.31 29.01 31.98 32.01 32.19 31.71 31.28 29.89 29.30 30.67 31.42 31.49 31.02 30.82 31.45 30.89 26.24 23.37 22.24 22.43 21.96 21.91 21.86 22.03 23.02 23.76

GFSMW_sfc_wetblb_018.txt.gz
Wetbulb
51.99 52.90 53.44 54.60 56.65 58.59 58.89 59.72 60.21 60.87 61.11 60.93 58.76 55.57 53.01 51.85 51.32 51.14 50.91 49.88 49.30 49.81 48.15 48.23 47.97 47.62 47.06 46.35 45.85 44.87 43.91 43.54 43.96 42.65 42.88 43.55 45.21 44.31 44.86 46.00 46.64 47.59 48.42
50.19 51.37 52.43 52.30 54.56 56.47 57.75 58.94 59.43 58.60 58.14 57.08 55.83 54.32 52.22 51.28 50.75 50.31 49.49 48.19 46.55 46.20 46.27 44.49 44.41 44.07 44.01 43.48 42.70 42.16 41.70 42.18 42.46 40.14 39.61 37.16 40.11 42.18 44.17 45.11 45.82 45.39 45.18
49.30 49.84 50.05 50.95 51.64 52.50 53.06 54.30 54.60 54.93 54.98 54.70 54.20 53.14 52.86 50.89 48.52 47.88 46.89 46.44 44.94 43.93 43.36 42.78 42.12 41.91 42.01 41.09 40.45 40.26 39.66 38.93 40.40 40.79 38.13 35.33 34.45 38.19 41.13 42.33 43.04 42.02 43.05
49.78 50.35 50.27 50.04 50.31 51.01 52.19 52.84 53.42 53.73 54.17 53.61 52.29 50.26 47.68 45.63 46.26 45.95 45.69 44.76 44.02 42.12 42.08 41.83 40.95 40.27 40.49 38.97 38.88 40.93 38.91 38.67 37.72 39.65 41.76 38.20 37.21 34.97 34.83 39.24 40.29 40.66 40.52
49.56 49.42 49.99 51.18 51.33 51.06 49.92 49.87 50.15 50.24 50.30 50.00 49.18 47.49 45.71 45.26 45.02 44.47 43.01 42.42 42.18 41.16 40.81 40.48 39.43 38.79 39.06 38.06 37.83 37.48 37.37 38.35 37.22 37.37 36.89 36.41 36.99 36.62 34.53 32.04 34.30 37.56 38.33
49.09 49.65 50.42 51.06 50.13 49.97 49.26 48.15 47.78 47.76 47.78 47.19 46.44 45.18 43.60 43.03 42.06 40.78 40.09 39.90 40.07 39.84 39.09 39.81 38.12 37.87 37.70 37.26 37.35 36.95 36.54 36.56 36.37 36.84 36.04 36.15 33.50 33.59 33.43 33.28 33.26 33.17 35.95
48.87 48.81 48.51 48.62 48.77 48.16 47.65 47.40 46.43 45.38 45.46 44.66 43.99 43.21 41.91 40.58 38.83 38.59 37.94 37.34 37.32 36.93 36.39 37.08 36.33 36.21 36.61 37.08 36.73 35.82 35.27 35.44 34.66 34.70 34.90 36.18 35.42 35.99 35.78 33.82 32.54 32.06 34.52
48.48 48.29 48.35 48.26 48.17 47.99 46.41 45.69 44.59 43.55 43.29 42.29 41.25 40.73 40.61 39.45 38.53 37.74 37.12 36.19 35.79 35.53 36.10 36.05 35.83 35.66 36.07 35.85 35.29 34.86 34.70 34.91 33.77 32.90 33.65 34.69 35.52 35.96 35.35 33.93 32.49 29.48 31.28
48.24 48.14 48.53 48.63 47.73 46.58 46.01 44.78 43.58 42.72 42.14 41.17 39.67 38.46 38.14 37.61 36.93 36.52 36.24 35.73 35.41 37.28 35.65 35.11 34.49 34.71 34.90 35.06 34.31 33.33 33.15 33.07 32.80 32.67 32.58 33.43 34.84 35.21 35.05 34.70 34.10 31.44 27.09
48.22 48.30 48.80 48.17 47.40 46.78 45.70 44.35 43.18 41.66 40.81 39.85 38.71 37.84 36.59 36.62 36.29 35.64 34.64 34.81 35.02 35.30 34.54 34.02 33.92 33.94 33.98 33.81 33.02 32.68 33.25 32.94 32.79 34.03 32.94 33.38 34.21 34.14 34.37 33.80 33.62 32.82 30.13
48.27 48.55 48.43 47.82 46.43 45.61 44.64 42.70 41.35 40.50 39.61 39.10 37.87 36.39 36.03 36.13 35.43 34.54 34.30 34.33 34.32 33.78 33.60 33.66 33.25 33.15 33.05 32.95 32.13 31.70 32.76 32.18 31.20 32.11 32.63 32.80 33.62 33.25 33.14 33.33 33.11 31.78 31.20
48.59 48.49 47.85 46.39 44.92 44.18 43.14 41.65 40.90 39.67 38.96 38.27 36.87 36.16 35.93 35.23 34.06 33.66 33.84 33.90 32.70 33.15 32.98 33.09 32.91 32.72 32.78 32.35 31.50 30.91 31.71 30.15 30.40 31.17 31.57 31.71 34.03 32.03 32.57 32.08 31.13 30.81 30.82
47.67 47.52 46.93 45.34 44.09 43.43 42.42 41.48 40.15 38.47 37.95 37.39 36.24 35.45 34.65 33.73 32.92 32.89 33.47 33.40 32.79 32.17 32.38 32.65 32.09 32.15 32.94 32.20 31.18 31.92 30.09 30.50 30.67 31.00 31.00 31.13 31.39 30.91 31.28 30.56 30.07 30.56 31.59
48.01 47.11 46.32 44.61 43.84 43.15 41.85 40.71 38.78 37.83 36.88 36.41 35.37 34.03 33.08 32.70 32.36 32.69 32.75 33.04 32.65 31.63 31.58 31.96 32.13 32.36 32.33 32.17 32.49 31.08 30.13 30.02 30.79 31.25 31.17 31.21 31.25 30.68 30.63 30.81 30.80 31.82 30.85
47.39 46.76 45.71 44.48 43.37 42.21 40.89 39.82 38.15 36.71 36.08 35.06 34.17 33.11 33.13 32.98 32.73 32.76 32.71 32.47 32.05 31.95 31.83 31.66 31.74 31.69 32.21 33.64 31.90 31.78 30.26 29.48 29.68 30.19 30.91 31.83 33.46 35.83 34.84 32.62 31.57 31.06 29.57
47.44 46.83 46.59 44.90 43.15 41.10 39.62 38.92 36.81 35.45 35.27 33.84 33.19 33.60 33.06 32.68 32.54 32.17 31.60 31.01 30.90 30.64 30.87 30.51 30.65 30.22 32.84 36.11 36.48 35.00 30.52 29.66 29.26 28.83 30.26 30.95 32.94 33.05 35.62 35.45 35.52 34.62 31.25
46.85 46.29 46.03 44.85 43.03 40.94 39.48 36.58 35.12 34.85 33.69 33.18 33.08 32.97 32.84 32.32 31.69 31.26 30.40 29.66 29.10 29.29 29.06 28.92 29.04 28.37 28.22 35.44 36.15 35.81 30.98 29.41 29.08 29.12 29.34 29.86 31.69 32.00 30.48 33.41 35.18 35.22 35.33
46.97 46.29 45.83 44.64 42.33 40.35 38.56 36.24 34.66 33.65 33.23 32.41 32.31 32.67 32.34 31.04 30.39 29.40 28.85 28.18 28.50 28.12 27.88 27.91 28.03 27.26 29.64 34.94 35.24 35.17 30.10 29.29 29.15 29.39 29.37 29.07 29.19 30.48 31.84 31.39 31.00 31.49 29.29
45.34 45.30 44.77 42.20 39.97 38.17 35.63 34.69 33.69 32.67 32.31 31.74 32.14 31.99 30.54 29.23 28.86 28.02 27.20 27.48 27.45 27.20 26.92 27.69 27.34 26.41 27.46 33.91 34.60 33.50 29.60 28.94 28.63 29.67 30.02 30.27 29.99 33.23 34.42 31.16 29.89 27.35 27.16
44.20 42.83 41.34 39.95 38.06 35.72 35.05 33.37 31.83 31.18 30.89 30.92 30.57 30.27 30.00 28.94 27.51 27.03 26.71 27.43 27.32 27.77 28.28 28.36 27.32 29.78 27.28 32.48 34.55 33.54 30.19 28.15 28.40 29.26 29.85 32.72 31.80 33.65 34.54 30.16 27.54 25.19 24.35
40.07 39.54 38.35 37.00 34.78 34.69 34.64 31.70 30.67 29.39 29.99 30.37 30.30 30.03 29.36 28.15 27.41 26.93 26.98 26.80 26.12 25.99 25.69 26.09 26.41 25.84 27.27 28.65 34.09 34.09 30.24 29.03 28.48 28.44 28.14 28.96 32.37 34.23 33.50 32.51 26.90 26.14 29.07
38.36 38.06 35.93 34.42 34.60 35.05 32.70 29.90 28.24 28.85 29.66 29.74 29.44 28.64 27.81 28.93 30.00 26.76 26.46 26.40 25.18 23.97 23.65 24.57 25.41 26.44 27.28 31.75 31.98 33.26 33.10 32.66 28.80 27.81 27.90 28.16 32.87 31.83 31.30 29.34 30.40 30.97 29.39
37.20 36.80 34.64 33.45 32.74 32.21 30.66 28.01 27.88 29.28 29.36 28.10 27.36 27.15 27.47 27.87 28.06 26.43 25.44 24.75 24.35 23.19 23.50 24.05 24.13 25.04 27.33 27.37 31.47 32.21 32.77 32.63 29.50 28.42 30.12 32.78 30.94 29.80 27.55 28.56 29.33 28.63 22.84
36.09 35.18 33.13 31.18 29.41 28.93 29.64 28.58 29.18 29.21 28.41 26.66 25.92 26.23 25.97 27.41 26.55 26.57 26.02 24.43 23.21 23.22 23.53 24.08 24.22 24.73 25.45 25.85 26.91 28.41 28.74 30.67 28.92 30.30 29.39 28.32 27.84 27.84 26.90 25.19 24.58 23.15 23.33
35.67 34.78 33.27 31.51 29.35 29.15 28.75 28.71 28.85 28.23 25.90 24.98 24.88 25.59 26.12 25.50 24.85 25.47 24.95 24.32 24.96 26.42 26.45 25.75 25.25 24.20 24.39 26.43 31.19 30.61 28.38 28.22 29.41 29.02 24.72 22.63 22.17 21.42 21.63 21.88 22.18 23.07 23.42
35.12 34.10 32.39 30.16 28.87 28.52 28.03 28.16 28.32 26.85 25.33 23.98 24.48 24.30 24.12 24.19 24.12 23.31 24.88 30.37 31.53 32.16 32.02 31.80 29.95 28.46 30.97 31.95 31.84 31.36 31.19 31.26 30.38 24.65 21.02 20.26 20.48 20.00 20.53 20.68 21.28 22.24 23.20

GFSMW_sfc_wetblb_021.txt.gz
Wetbulb
49.62 51.77 52.49 54.10 55.68 56.61 57.36 58.00 59.02 59.20 59.61 55.98 53.20 51.36 49.27 49.36 48.79 48.03 46.92 45.84 45.78 45.55 44.19 44.46 43.58 43.23 42.81 41.07 41.40 41.25 40.41 40.44 40.59 39.65 39.11 39.85 41.70 40.26 41.00 41.80 43.11 43.50 44.46
48.39 50.11 51.19 52.59 54.45 54.31 54.71 55.48 55.40 55.62 56.49 55.28 52.96 51.25 49.37 47.86 47.67 46.73 45.01 43.84 43.01 43.17 42.87 41.40 41.03 40.50 40.79 39.24 38.62 38.53 38.28 39.13 39.25 37.55 36.44 34.80 37.42 38.85 40.43 40.37 41.60 40.81 40.27
48.27 47.67 48.74 50.17 50.58 50.72 52.03 52.95 53.09 53.39 53.31 52.80 52.09 50.88 49.40 47.44 45.52 44.24 42.96 41.72 41.48 41.40 40.89 39.99 39.40 39.01 38.95 37.53 36.82 36.86 36.59 35.99 37.44 37.85 35.60 32.35 31.35 34.68 37.81 39.19 38.81 38.64 39.06
48.67 48.83 48.28 48.29 49.05 49.22 50.54 51.66 52.38 52.36 51.93 51.47 50.44 48.15 45.66 43.86 43.73 43.57 41.96 40.80 40.04 39.60 40.01 39.33 38.34 37.79 37.81 36.23 36.44 38.13 36.15 35.83 34.60 36.56 39.48 35.53 34.04 31.22 30.92 35.57 36.64 37.47 38.70
48.77 48.15 48.73 49.44 49.25 48.13 47.10 46.98 47.69 48.09 48.17 47.79 46.93 45.82 43.42 42.92 42.46 40.86 39.62 39.02 38.14 38.54 38.86 38.04 36.99 36.53 36.75 35.58 35.38 34.83 34.44 35.09 34.33 34.26 34.78 33.29 33.44 33.24 30.46 28.84 30.59 35.56 36.44
47.74 48.64 49.24 49.21 47.56 46.58 45.64 45.26 45.87 44.75 44.95 45.07 44.23 43.26 41.32 39.63 38.57 37.63 37.13 37.16 37.16 36.98 36.84 37.51 35.75 35.32 35.28 34.90 34.81 34.38 33.76 33.30 33.42 33.18 33.18 32.38 31.18 31.85 30.58 29.56 30.51 31.22 33.54
47.79 47.95 47.66 47.22 46.14 44.91 44.40 44.48 44.05 42.55 42.38 41.84 40.88 39.69 38.02 37.19 36.58 36.15 35.34 35.10 34.94 34.61 34.38 34.91 33.97 33.76 34.10 34.68 34.24 33.25 32.61 32.62 31.49 31.28 31.44 32.45 32.79 32.67 32.83 31.63 30.25 29.54 32.44
47.61 47.54 47.45 46.65 45.33 44.83 43.49 42.59 41.94 40.72 40.24 39.36 38.57 38.04 37.72 36.82 36.09 35.60 34.69 34.07 33.87 33.71 33.84 33.69 33.44 33.36 33.73 33.58 32.93 32.48 32.07 32.34 30.95 30.18 30.41 31.36 31.97 33.21 33.04 31.61 30.16 27.64 28.87
46.76 46.93 47.25 46.77 44.99 43.26 42.31 41.77 40.85 39.74 39.09 37.96 36.82 35.83 35.89 35.65 34.69 34.15 34.10 33.66 33.39 36.05 33.40 33.02 32.70 32.65 32.81 32.63 31.81 30.94 30.75 30.58 30.29 30.09 29.97 29.98 32.14 32.62 32.66 32.65 32.00 29.14 24.80
46.48 46.88 47.20 46.41 44.78 43.59 41.92 40.92 40.31 39.18 38.05 36.84 35.68 35.34 34.63 34.62 33.96 33.41 32.56 32.74 32.79 33.05 32.95 32.46 31.83 31.90 31.88 31.71 30.80 30.32 30.94 30.10 29.96 31.25 29.20 30.21 31.55 31.84 32.28 31.68 31.24 31.05 28.64
46.19 46.73 46.94 46.46 44.56 42.98 41.49 39.78 38.87 37.91 36.86 36.12 34.86 34.29 34.18 33.86 33.17 32.53 32.24 32.26 32.43 32.18 31.94 31.85 31.60 31.36 31.11 30.95 29.94 29.66 30.54 29.53 28.58 28.82 30.01 29.99 30.93 30.77 31.16 31.41 31.33 30.57 29.57
46.58 46.69 46.43 44.64 43.68 41.99 40.16 39.04 37.97 37.22 36.26 35.47 34.64 34.12 33.76 33.03 32.02 31.76 32.01 32.27 31.63 31.65 31.31 31.53 31.38 31.12 31.35 30.63 29.52 28.81 29.13 27.99 27.90 28.52 28.98 29.28 31.63 29.61 30.33 30.46 29.86 29.49 29.78
46.03 45.83 44.33 43.56 42.92 41.04 39.66 38.39 37.10 35.97 35.46 35.07 34.07 33.27 32.44 31.68 31.00 31.18 31.79 32.11 31.34 30.91 31.13 31.23 30.76 30.78 31.27 30.64 29.83 29.45 28.47 28.36 28.21 28.46 28.70 29.04 28.99 28.54 29.36 29.54 29.25 29.87 31.14
46.23 44.99 43.65 43.00 42.37 41.00 39.71 37.64 35.95 35.55 34.93 34.33 33.12 31.91 31.37 31.09 31.05 31.54 31.70 31.61 31.32 30.81 30.75 30.72 30.76 31.02 30.76 30.58 30.49 29.50 28.55 27.94 28.70 29.20 29.30 29.10 29.01 28.77 29.36 29.86 29.92 30.96 29.30
45.37 44.69 43.27 42.54 41.72 40.09 38.46 36.96 35.38 34.54 34.20 33.19 32.28 31.48 31.55 31.66 31.65 31.43 31.21 31.13 30.93 30.87 30.27 30.19 30.02 29.82 30.30 32.49 31.72 31.36 29.42 27.58 27.29 28.07 29.26 29.94 31.46 34.00 33.44 31.32 29.65 29.24 28.55
45.63 45.02 43.85 42.88 41.49 39.76 37.68 36.62 34.49 33.52 33.52 32.27 31.66 32.02 31.75 31.67 31.13 30.85 30.81 29.94 29.44 29.25 28.97 28.41 28.41 28.15 31.25 35.17 36.06 34.78 30.38 28.10 27.42 27.29 28.80 29.35 31.58 31.42 34.56 34.39 34.70 33.84 30.27
44.69 44.74 44.17 43.10 41.33 39.12 37.45 34.75 33.35 32.87 31.97 31.48 31.74 32.02 31.66 31.21 30.99 30.47 29.24 28.43 27.79 26.98 26.88 26.77 26.82 26.37 26.36 34.71 35.71 35.73 30.97 27.79 27.04 27.68 27.96 28.58 30.55 31.19 29.34 32.47 34.33 33.79 35.05
45.49 45.36 44.55 42.07 40.32 37.50 36.05 33.82 33.02 31.98 31.45 31.22 31.23 31.42 31.40 30.63 29.78 28.59 27.59 26.33 26.20 26.03 25.89 25.88 25.91 25.25 27.94 34.17 34.72 35.07 29.95 28.00 27.24 27.35 27.83 27.78 28.27 29.78 30.96 30.07 29.59 31.06 30.19
44.32 43.81 42.67 39.83 37.83 36.00 34.30 33.00 31.83 31.11 30.67 30.24 30.51 30.65 29.99 28.91 28.29 26.98 25.42 25.50 25.52 25.28 25.03 25.39 25.04 24.02 24.41 32.88 34.07 33.11 28.84 28.16 27.77 28.71 28.69 29.96 29.24 32.24 33.45 30.01 29.91 27.47 26.68
41.67 39.26 38.15 36.29 34.34 33.54 33.80 31.84 30.26 29.65 29.71 30.24 30.19 29.86 29.55 28.27 26.24 25.32 25.03 25.53 25.22 25.45 25.65 25.83 24.82 27.46 24.43 30.83 33.23 32.34 28.90 27.03 27.40 28.13 28.98 31.67 30.58 32.57 34.06 30.05 27.28 23.54 23.69
37.52 37.58 36.14 33.91 32.79 32.45 32.29 30.36 29.21 28.53 29.60 29.85 29.72 29.23 28.52 26.90 26.00 25.26 24.98 24.88 24.49 24.03 22.87 22.65 22.88 23.21 24.94 26.51 32.63 32.89 29.19 27.89 28.06 27.83 27.16 27.58 31.68 34.20 32.24 31.58 25.21 25.14 28.33
35.74 35.29 33.68 32.69 32.55 32.04 31.25 27.85 26.85 28.13 29.00 29.06 28.72 27.89 26.47 27.34 28.73 25.42 25.05 25.00 23.44 21.91 21.24 21.05 21.97 23.41 24.36 30.07 31.17 32.66 32.71 32.37 28.65 27.29 26.90 27.48 33.19 30.83 29.97 28.09 29.63 30.10 28.66
33.76 34.35 33.37 31.29 29.84 29.06 28.95 26.84 27.09 28.59 28.25 27.21 26.32 25.54 25.81 26.43 26.28 25.20 24.53 23.67 22.39 21.19 22.24 22.01 22.20 24.26 25.89 24.59 30.87 32.27 32.66 32.65 29.17 27.95 30.29 30.79 29.43 28.37 26.33 27.77 28.47 27.92 22.40
33.30 32.63 30.77 28.58 27.06 27.79 28.21 27.68 27.82 27.93 26.89 25.16 24.72 24.91 24.48 26.56 24.88 24.70 24.47 23.13 21.43 21.23 22.13 22.74 23.80 23.74 24.89 25.51 26.67 28.55 28.36 30.24 29.13 30.01 26.66 26.84 26.59 26.70 25.88 24.34 23.94 23.11 23.25
32.55 31.82 29.90 28.54 26.89 26.90 26.65 26.77 27.01 26.72 24.90 24.13 23.73 23.41 24.04 23.54 22.90 23.28 23.04 23.22 23.45 25.28 25.54 24.92 24.84 23.71 23.99 26.14 30.85 30.05 27.95 28.28 29.11 27.69 23.15 21.67 21.41 20.64 21.07 21.63 22.32 22.78 23.03
32.89 31.40 29.21 27.48 26.25 25.82 25.69 26.21 26.74 25.79 24.25 23.28 23.17 22.85 23.16 22.42 22.12 21.24 22.45 28.54 30.13 30.98 30.92 30.80 28.96 27.51 30.25 31.20 31.11 30.95 31.06 30.63 29.56 23.75 20.22 19.63 20.05 19.73 20.07 20.20 20.76 21.79 22.51

GFSMW_sfc_wetblb_024.txt.gz
Wetbulb
48.03 49.74 51.50 53.11 54.94 55.63 56.48 56.80 57.88 55.18 54.54 52.89 50.77 48.39 46.63 48.15 46.54 46.24 44.50 43.73 43.15 42.67 41.96 41.29 40.82 41.22 39.33 37.99 38.72 38.20 37.79 37.86 37.90 37.43 37.07 38.08 39.17 37.17 37.82 38.09 38.82 38.95 39.36
47.22 49.27 51.48 52.99 54.88 54.80 55.46 55.90 56.93 54.80 54.00 52.44 49.98 48.57 46.83 46.91 44.83 42.80 41.59 41.38 41.14 41.16 41.01 39.49 38.86 38.74 37.99 36.65 36.26 36.10 35.88 36.64 36.96 34.76 34.54 32.78 35.17 36.70 37.83 37.18 38.01 35.42 37.45
47.49 47.94 50.17 50.91 51.35 51.91 52.71 53.19 52.97 52.43 51.84 50.81 49.49 47.87 46.88 44.83 42.49 40.77 39.45 39.23 39.77 39.88 39.17 38.31 37.68 37.22 36.73 35.50 35.02 34.89 34.42 33.69 35.22 35.10 33.59 29.76 28.81 32.12 34.58 35.86 35.32 36.60 35.26
47.76 47.84 49.01 48.56 49.61 49.46 50.65 51.06 51.60 50.96 50.71 50.52 48.51 47.00 44.83 42.59 41.85 40.43 38.49 37.76 38.28 38.21 38.28 37.73 36.74 36.02 35.79 34.35 34.65 36.15 33.96 33.27 32.08 34.24 37.12 33.86 32.33 28.56 27.89 32.98 35.12 33.28 35.21
48.21 48.52 49.13 49.29 48.59 48.46 48.25 48.60 49.43 49.40 48.69 48.10 47.15 45.51 42.57 41.81 40.71 38.79 36.85 36.11 36.25 37.05 37.20 36.40 35.32 34.80 34.83 33.66 33.22 32.91 32.11 32.73 32.03 31.75 32.31 31.03 31.11 30.85 29.30 26.78 28.36 32.87 34.42
47.48 47.68 48.02 47.77 45.64 44.95 44.97 45.42 46.70 45.35 45.72 45.51 43.63 42.67 40.80 38.57 37.66 36.17 35.64 35.38 35.24 35.41 35.27 35.72 34.06 33.41 33.29 32.94 32.81 32.17 31.63 31.18 30.93 30.75 30.42 29.96 28.51 28.83 27.69 26.94 27.75 28.35 31.14
46.54 46.87 46.49 45.69 44.46 43.72 43.03 43.68 44.04 41.53 42.04 41.58 40.51 39.05 37.59 36.62 35.55 34.88 34.38 33.94 33.61 33.39 33.10 33.36 32.46 32.15 32.28 32.74 32.22 31.32 30.64 30.47 29.38 28.87 29.00 30.00 30.27 30.78 29.86 28.59 27.65 27.22 30.07
47.03 47.03 46.36 45.20 43.88 43.23 41.76 41.70 41.45 39.45 39.62 38.95 37.00 36.21 36.10 35.69 34.94 34.32 33.69 33.14 32.83 32.67 32.49 32.22 31.89 31.57 31.92 31.71 30.97 30.64 30.29 30.44 29.04 28.19 28.18 29.06 29.53 30.00 29.86 29.05 27.56 25.02 26.71
46.42 46.03 45.58 44.70 43.59 42.08 41.03 40.63 39.68 38.02 37.79 36.97 36.09 34.72 34.69 34.57 33.69 33.07 32.99 32.47 32.46 34.81 31.92 31.44 31.06 30.98 31.16 30.97 30.16 29.35 29.08 28.82 28.57 28.12 27.88 27.82 28.94 29.55 30.04 30.11 29.56 27.01 22.86
45.91 45.67 45.37 44.11 42.88 41.58 39.70 38.88 38.93 37.59 36.05 35.15 34.84 34.34 33.45 33.21 32.62 32.31 31.63 31.69 31.58 31.76 31.36 31.00 30.62 30.52 30.50 30.31 29.44 28.95 29.42 28.52 28.23 29.70 27.60 27.54 28.69 29.39 29.74 29.54 29.61 29.13 26.76
45.47 45.60 45.02 44.01 42.04 40.67 39.53 38.01 37.38 36.13 34.85 34.38 33.45 32.89 32.60 32.40 31.86 31.43 31.13 31.22 31.03 30.87 30.76 30.66 30.33 30.16 29.90 29.79 28.71 28.32 28.87 28.16 27.34 27.54 27.70 28.02 28.66 28.71 28.92 29.20 29.30 28.58 28.36
45.80 45.62 44.80 42.65 40.91 39.67 38.34 37.38 36.03 35.34 34.30 33.80 33.11 32.54 32.20 31.62 30.88 30.69 30.87 31.06 30.20 30.51 30.21 30.26 30.16 29.83 29.96 29.46 28.39 27.81 27.90 26.99 26.65 27.08 27.20 27.36 30.36 27.76 28.22 28.39 27.94 28.19 28.72
45.01 44.89 43.43 42.12 40.41 38.90 37.32 36.45 35.40 34.35 33.83 33.72 32.60 31.81 31.12 30.65 30.03 30.19 30.69 30.85 30.25 29.77 30.07 30.02 29.74 29.69 29.97 29.30 28.71 28.08 27.41 27.13 27.10 27.09 26.94 27.32 27.45 26.93 27.57 27.73 27.68 28.63 30.30
44.91 43.92 42.88 41.65 40.06 38.57 37.24 35.73 34.02 34.27 33.50 33.06 31.81 30.83 30.38 30.09 30.02 30.41 30.47 30.51 30.19 29.59 29.41 29.51 29.26 29.49 29.10 29.02 28.94 28.51 27.69 27.25 27.74 27.93 27.98 27.55 27.43 27.10 27.52 28.60 28.66 29.68 27.66
43.89 43.37 42.35 41.13 38.98 37.55 36.20 35.38 34.02 33.55 33.12 32.06 31.26 30.59 30.45 30.43 30.42 30.32 30.08 30.19 29.37 29.35 29.01 28.55 28.66 28.22 28.64 31.19 30.93 30.33 28.55 27.18 26.41 26.91 27.56 28.63 30.62 33.96 33.01 30.92 29.80 29.11 28.20
43.91 43.53 42.65 40.94 38.94 37.74 35.98 34.96 33.09 32.58 32.92 31.47 30.82 30.98 30.66 30.44 30.17 29.95 28.86 28.45 28.39 27.86 27.43 27.18 26.75 26.46 29.70 34.22 35.63 34.30 29.71 27.47 26.21 26.58 27.54 28.09 31.01 30.51 34.09 33.93 34.28 33.12 29.37
44.08 43.16 42.25 41.67 40.40 37.40 35.88 33.47 32.51 32.31 31.44 30.82 30.69 30.81 30.60 30.01 29.61 28.99 28.39 27.62 26.35 26.17 26.10 25.51 25.30 24.61 24.58 33.97 34.92 35.28 30.37 26.99 26.06 25.67 26.55 27.42 29.74 30.51 28.87 31.86 33.51 32.78 34.03
44.56 43.53 42.78 41.30 38.72 36.47 34.89 32.56 32.24 31.34 30.70 30.09 30.28 30.52 30.13 29.45 28.71 27.69 26.52 25.73 25.78 25.53 24.98 24.67 24.43 23.56 26.18 33.02 34.07 34.56 28.28 26.35 26.02 26.29 26.16 26.05 27.77 28.83 29.95 28.91 28.87 30.76 28.03
44.64 43.96 42.56 38.79 35.98 34.21 33.34 32.14 30.72 30.06 29.92 29.43 29.74 29.86 29.29 28.15 27.03 25.99 25.10 24.87 24.92 24.39 23.84 23.92 23.49 22.36 22.84 31.73 33.24 32.23 27.78 27.16 26.30 27.33 26.62 28.77 27.96 31.30 33.21 31.30 27.03 25.94 25.03
40.98 38.86 37.25 35.67 33.59 32.65 32.73 31.23 29.25 28.78 28.58 29.42 29.45 28.70 28.19 27.27 25.97 24.81 24.84 24.54 23.85 23.55 23.80 23.39 22.94 26.26 23.09 29.51 32.64 31.93 28.24 26.13 26.55 27.41 28.49 31.32 29.87 32.84 34.03 28.10 25.33 21.88 22.70
35.42 35.66 35.13 33.07 31.61 31.70 31.59 29.12 27.90 28.07 28.88 28.60 28.25 28.10 27.47 26.03 25.24 24.55 23.84 23.76 22.99 22.63 21.64 21.83 21.67 21.78 23.37 24.41 32.17 32.77 29.27 27.87 27.98 28.18 26.82 26.96 31.92 32.54 31.37 30.63 24.03 24.58 28.19
33.62 33.73 31.95 30.46 29.98 30.77 30.38 27.87 26.94 26.99 27.70 27.94 27.55 26.58 25.16 26.81 27.29 24.70 24.32 23.98 21.88 20.49 20.18 20.04 20.49 22.79 22.80 29.23 30.81 32.55 32.89 32.65 27.86 26.56 26.65 28.10 31.09 30.05 29.28 27.39 29.31 30.05 28.35
32.28 32.81 31.43 29.30 27.94 27.87 28.61 26.03 25.45 27.10 26.96 26.03 24.90 24.73 25.00 24.79 24.53 24.30 23.56 22.60 21.06 20.06 20.40 20.31 20.87 23.30 25.18 23.68 30.51 31.96 32.71 31.72 28.96 27.92 29.81 29.91 28.76 27.81 25.75 27.19 28.37 27.70 22.06
30.86 30.84 29.60 27.58 25.64 26.19 26.84 26.13 26.43 26.73 25.58 24.06 23.15 23.08 23.26 25.12 22.93 22.89 23.56 22.16 20.40 19.93 21.02 22.37 22.85 22.64 24.09 24.72 25.97 27.89 26.99 29.89 28.75 29.24 25.60 26.25 26.02 26.15 25.50 24.15 23.77 22.51 22.72
30.15 29.75 28.31 26.81 25.06 25.54 25.43 25.69 25.90 25.47 23.66 22.74 23.11 22.69 23.21 22.29 21.82 22.11 21.57 22.47 22.47 24.09 24.14 23.04 23.62 22.76 23.02 25.32 30.01 29.24 27.81 27.81 27.97 27.11 22.58 20.97 20.57 20.25 20.73 21.19 21.70 22.44 22.49
29.81 28.60 26.79 25.54 24.46 24.63 24.41 24.84 25.21 24.08 23.13 23.06 22.83 22.15 22.34 21.31 21.07 20.42 20.68 27.27 29.19 30.17 30.19 30.07 28.17 26.50 29.37 30.49 30.38 30.84 30.68 29.95 28.74 22.79 19.41 18.89 19.47 19.08 19.53 19.65 20.43 21.29 21.67

GFSMW_sfc_wetblb_027.txt.gz
Wetbulb
47.37 49.08 49.82 50.40 52.79 53.52 54.36 53.11 55.99 53.53 54.14 52.16 50.26 48.70 48.03 46.67 45.82 45.55 45.11 44.14 42.18 41.42 39.99 39.66 39.21 38.40 37.18 36.05 36.53 36.17 35.58 35.90 35.90 34.63 35.11 36.40 37.30 36.32 35.43 36.38 35.26 35.18 36.28
46.30 48.34 49.35 51.35 53.78 54.11 54.86 55.41 53.29 52.44 52.99 51.75 48.28 46.95 45.31 43.98 44.03 43.32 42.20 40.39 39.90 39.76 39.52 38.09 37.37 36.86 36.25 35.26 34.49 34.23 33.97 34.28 35.03 32.81 32.84 30.72 32.81 35.07 36.62 34.62 36.13 33.90 34.80
46.20 46.90 48.65 51.49 52.34 53.04 53.69 54.19 52.48 51.36 50.38 48.73 47.61 45.76 45.30 43.86 42.38 40.88 38.08 37.97 38.47 38.42 37.81 37.03 36.45 35.69 35.27 34.00 33.33 33.08 32.45 31.55 32.86 33.80 30.90 27.12 26.42 29.91 32.49 32.89 33.53 34.43 32.63
46.90 48.19 49.26 50.16 51.21 51.89 52.11 51.39 51.00 49.56 48.87 49.03 47.25 46.66 44.36 41.51 41.11 37.83 36.06 36.18 36.97 36.75 37.09 36.41 35.52 34.77 34.26 32.84 33.06 33.96 31.84 31.49 30.43 32.25 34.80 32.04 30.71 26.81 25.71 31.20 33.40 31.47 33.08
47.08 47.35 50.14 51.11 50.61 49.78 49.68 49.14 48.96 48.55 47.54 46.81 46.62 44.94 42.31 41.06 37.95 36.09 34.70 34.62 35.02 35.76 35.76 35.11 34.00 33.46 33.35 32.04 31.63 31.01 30.38 31.03 29.91 29.83 30.29 29.06 29.51 28.40 26.66 25.45 26.96 30.75 31.97
47.13 47.96 48.33 48.29 46.69 46.60 47.20 47.85 48.06 46.18 45.81 45.24 43.90 43.59 40.89 38.32 36.56 34.61 34.13 33.81 33.92 34.18 34.02 34.17 32.82 32.19 32.05 31.41 31.07 30.48 30.08 29.56 29.12 28.82 28.19 27.77 26.81 26.65 25.63 24.56 25.72 25.93 28.74
46.14 46.89 47.02 46.37 45.16 45.35 45.10 45.99 46.65 43.39 42.96 42.22 41.10 40.49 38.76 37.92 35.78 34.54 33.69 33.00 32.68 32.40 32.02 32.08 31.30 31.11 31.17 31.35 30.85 30.07 29.27 29.05 27.78 27.21 27.32 28.22 28.18 28.75 27.83 26.51 25.33 24.55 27.63
46.39 47.74 47.71 46.45 45.15 44.33 44.17 44.20 43.64 40.83 40.21 39.20 37.08 36.15 36.06 35.71 34.43 33.82 33.07 32.36 32.00 31.83 31.49 31.17 30.89 30.64 30.88 30.53 29.81 29.49 28.97 29.03 27.65 26.87 26.70 27.55 27.87 28.25 27.51 26.88 25.11 23.10 24.52
46.23 47.28 45.78 44.46 43.65 42.38 41.64 41.88 40.42 38.48 37.68 36.24 35.64 34.10 34.10 33.98 33.10 32.15 32.05 31.67 31.59 33.34 30.94 30.52 30.24 30.05 30.19 29.94 29.10 28.19 27.90 27.47 27.31 27.02 26.97 26.69 27.69 28.11 27.98 28.16 27.71 25.17 21.32
46.06 45.74 44.61 42.99 41.98 40.33 38.80 38.71 39.25 37.55 35.67 34.74 34.62 33.54 32.53 32.38 31.90 31.61 30.93 30.87 30.74 30.88 30.49 30.18 29.73 29.64 29.50 29.23 28.34 27.84 28.34 27.37 27.30 28.43 26.75 26.51 27.29 27.45 27.62 27.56 27.89 27.40 25.12
44.82 44.10 43.39 42.16 40.40 38.93 38.06 36.52 36.22 35.40 34.29 34.10 33.00 32.32 31.54 31.33 30.96 30.55 30.33 30.34 30.23 30.13 30.01 29.85 29.40 29.10 28.83 28.59 27.66 27.34 28.02 27.15 26.61 26.51 26.51 26.90 27.52 26.84 27.13 27.28 27.59 26.97 26.70
44.42 43.69 41.99 40.28 39.53 37.91 36.56 35.39 34.67 34.30 33.38 32.95 32.33 31.37 31.04 30.62 30.07 29.86 29.91 30.17 29.46 29.68 29.44 29.28 28.94 28.67 28.75 28.18 27.11 26.58 26.99 26.37 25.81 26.13 25.94 26.30 29.62 26.79 26.80 26.67 26.39 26.69 27.28
43.34 42.26 40.77 39.84 38.29 36.84 35.54 34.63 33.83 32.89 32.60 32.67 31.69 30.57 30.08 29.79 29.27 29.31 29.68 29.83 29.35 28.85 28.88 28.69 28.17 28.09 28.47 27.96 27.53 27.21 26.75 26.47 26.22 26.11 25.79 26.28 26.35 26.01 26.53 26.41 26.47 27.12 28.87
43.41 42.09 40.65 39.14 37.28 36.32 35.37 33.98 32.37 32.94 32.31 31.92 30.78 29.83 29.49 29.29 29.22 29.41 29.40 29.47 28.95 28.23 27.81 27.71 27.75 27.90 27.68 27.77 27.77 27.91 27.11 26.51 27.12 27.08 26.81 26.54 26.47 26.07 26.41 27.86 27.99 29.54 27.68
42.75 41.92 40.30 38.18 36.31 34.85 34.24 33.65 32.54 32.39 32.17 31.27 30.39 29.64 29.46 29.53 29.50 29.19 28.90 28.81 28.35 27.61 27.41 27.23 27.36 26.74 27.22 30.01 29.71 29.31 27.82 26.38 25.67 25.95 26.09 27.47 29.61 33.10 32.36 30.48 28.73 27.97 27.59
42.85 42.33 40.90 38.43 36.06 35.15 34.25 33.55 32.15 31.71 32.16 30.73 29.89 29.97 29.73 29.60 29.13 28.53 28.00 27.55 27.03 26.83 26.29 25.76 25.48 25.13 28.47 32.96 35.18 33.84 28.29 26.30 25.35 24.62 26.29 26.42 29.86 29.52 33.61 33.26 33.60 32.51 28.80
42.90 42.08 40.70 39.16 37.38 35.67 34.31 32.42 32.14 31.64 30.85 30.28 29.85 29.90 29.64 29.25 28.58 28.35 27.48 26.74 25.31 24.85 24.83 24.82 24.33 23.56 23.31 32.95 34.56 34.77 29.03 25.79 25.03 25.11 26.13 26.49 28.92 29.77 27.71 31.04 33.00 32.72 33.59
43.20 42.42 41.15 39.13 36.54 34.96 33.60 31.95 31.90 31.02 30.38 29.34 29.37 29.62 29.77 28.55 28.29 26.88 25.53 24.19 24.32 24.74 24.00 23.86 23.34 22.31 24.83 32.63 33.66 34.05 27.22 25.64 25.23 25.45 25.66 25.42 25.94 28.03 29.46 28.93 30.21 26.77 26.42
43.51 42.42 41.35 37.94 35.14 33.65 32.62 31.71 30.16 29.68 29.51 28.64 28.91 29.08 28.38 27.53 26.20 24.77 23.74 24.45 23.86 23.42 22.91 22.53 22.25 21.24 21.85 31.25 32.69 31.91 26.86 25.86 24.87 25.76 26.62 27.69 28.43 31.08 33.30 30.04 25.53 24.91 24.67
41.54 38.80 36.45 35.20 33.22 31.99 32.38 30.99 29.05 28.51 28.04 28.68 28.41 28.05 27.61 25.96 24.55 24.00 24.00 23.68 23.02 22.56 22.49 22.68 21.93 24.93 21.64 29.11 32.32 31.57 27.75 25.72 26.50 27.46 28.29 31.03 29.82 32.68 33.39 27.78 25.14 21.69 22.34
35.80 35.44 35.09 33.27 31.37 31.68 31.72 28.98 27.90 27.54 28.20 28.10 27.81 26.90 25.88 24.76 24.13 23.60 23.51 22.90 21.56 21.25 20.46 20.90 20.55 20.87 22.77 24.19 31.82 32.53 28.70 27.25 27.76 26.16 26.34 26.91 31.62 32.45 31.39 30.66 23.99 24.21 28.52
32.52 32.45 30.81 29.42 29.91 31.16 30.69 27.66 26.97 26.90 27.41 27.07 26.10 24.77 23.72 26.17 26.57 24.19 23.34 23.02 20.70 19.60 19.39 19.50 20.48 22.57 21.95 28.91 30.30 32.19 32.52 32.26 26.82 26.56 26.40 27.21 31.13 30.05 29.38 27.53 29.12 30.26 28.43
30.97 31.12 29.92 28.36 27.37 28.06 30.01 27.02 24.90 26.12 25.68 24.70 23.56 22.93 23.99 24.08 23.90 23.59 22.59 21.63 20.06 19.21 19.42 19.71 20.08 22.49 24.77 23.37 30.14 31.54 32.10 31.57 29.22 27.40 29.16 29.83 28.81 27.79 25.50 26.93 28.43 27.61 21.69
29.91 30.27 29.39 27.57 25.25 25.80 26.08 25.76 25.44 25.57 24.41 22.21 21.96 22.63 23.28 22.60 21.84 22.27 23.04 21.60 19.91 19.58 20.57 21.52 22.08 21.63 23.34 23.84 25.14 26.93 26.25 29.90 28.30 28.56 24.33 26.08 25.76 25.80 25.02 23.50 23.23 22.10 22.20
29.30 29.52 28.07 26.37 24.15 24.80 24.40 24.60 24.74 24.30 22.65 22.16 22.59 22.15 22.26 21.40 21.02 21.35 20.52 22.14 22.30 23.34 22.94 22.53 22.96 22.23 22.22 24.77 29.68 28.99 27.77 27.30 27.72 26.96 22.17 20.30 19.90 19.47 19.88 20.46 21.26 21.59 21.71
27.85 26.70 25.34 24.84 23.31 23.68 23.22 23.62 24.05 23.59 22.96 22.45 22.30 22.58 21.61 20.24 20.48 19.85 20.58 26.77 28.65 29.73 29.79 29.71 27.78 26.15 28.92 30.07 30.18 30.76 30.44 29.90 28.58 22.42 18.71 18.35 18.53 18.25 18.73 18.92 19.35 20.16 20.70

GFSMW_sfc_wetblb_030.txt.gz
Wetbulb
49.99 48.21 48.79 49.20 50.26 51.66 52.09 54.24 56.39 54.19 54.26 52.45 50.82 50.07 46.97 46.24 45.78 45.43 45.11 44.37 43.42 41.42 39.84 38.39 37.19 36.60 35.73 34.54 35.25 34.61 33.50 34.14 34.28 33.35 33.93 34.86 35.21 35.80 34.71 34.47 34.01 34.03 34.58
45.87 47.15 47.98 48.78 51.85 52.34 52.48 53.82 53.08 53.20 53.81 53.16 47.82 46.95 45.73 43.67 43.82 43.08 42.36 42.28 41.35 39.32 38.49 36.74 35.86 35.57 35.04 33.99 33.24 32.60 32.34 32.22 33.11 30.83 30.82 28.31 30.92 33.23 34.78 32.47 34.65 31.79 33.50
47.52 45.90 46.60 49.08 51.42 52.05 52.88 53.11 51.45 50.83 49.86 48.03 46.33 43.62 42.96 42.81 41.48 40.74 40.17 39.60 38.41 37.53 36.61 35.86 35.17 34.51 34.22 32.97 32.12 31.78 31.35 30.20 31.27 32.06 29.62 26.08 24.72 28.08 31.08 31.80 32.67 31.82 31.02
45.89 46.58 46.57 49.07 50.96 51.83 52.58 51.58 50.48 48.78 47.92 48.04 46.80 45.77 44.70 42.10 41.54 39.78 38.62 37.58 35.96 35.75 35.89 35.33 34.46 33.67 33.22 31.94 32.51 32.38 30.61 30.25 29.00 30.40 33.31 30.23 29.30 25.16 24.29 29.31 31.56 29.80 31.80
46.86 46.25 47.07 50.21 50.91 51.17 50.61 49.29 47.98 47.45 46.24 46.73 47.23 45.19 42.20 40.83 39.19 37.77 36.22 33.59 33.77 34.55 34.60 33.96 33.15 32.62 32.44 31.09 30.66 29.82 29.18 29.73 28.44 28.47 28.59 27.32 27.82 26.61 25.01 24.02 25.57 29.84 30.87
44.42 46.44 47.76 49.85 49.30 48.95 48.17 47.60 47.35 45.17 44.92 45.05 44.73 44.68 40.96 38.69 36.86 35.71 33.48 32.58 32.75 32.94 32.83 33.10 31.91 31.56 31.33 30.65 30.09 29.48 29.01 28.47 27.79 27.44 26.85 26.36 25.45 25.18 23.99 22.88 24.83 24.93 27.19
43.83 45.18 47.03 48.65 47.40 47.60 47.07 47.11 46.74 43.73 44.20 45.71 44.23 42.52 40.30 39.08 35.58 34.05 33.04 32.11 31.68 31.21 30.92 31.06 30.71 30.40 30.60 30.54 30.12 29.15 28.31 28.00 26.96 26.31 26.21 27.00 26.88 27.20 26.30 24.75 24.29 23.40 26.22
43.09 45.84 47.82 48.99 48.19 47.80 46.94 47.15 45.58 42.34 43.23 42.36 39.17 37.72 37.62 36.55 34.97 33.67 32.58 31.66 31.15 30.74 30.36 30.23 30.16 30.07 30.33 29.81 28.96 28.65 28.18 27.81 26.68 25.94 25.82 26.64 26.89 27.20 26.44 25.38 24.08 21.94 22.51
43.50 45.72 47.78 48.31 47.09 46.52 46.02 45.35 42.84 40.14 39.13 37.38 36.77 35.27 35.15 34.48 32.91 31.48 31.41 31.00 30.70 32.02 29.81 29.81 29.67 29.62 29.65 29.17 28.26 27.34 27.09 26.52 26.35 26.19 25.91 25.86 26.85 27.16 27.11 26.90 26.06 24.01 20.12
43.74 45.72 46.90 45.63 45.09 43.85 41.70 41.50 41.04 38.75 36.45 35.41 35.35 34.09 32.52 32.26 31.44 31.32 30.20 29.94 29.88 29.95 29.74 29.49 29.33 29.16 28.89 28.39 27.42 26.93 27.34 26.43 26.39 27.74 25.96 25.59 26.18 26.53 26.69 26.20 26.68 26.11 24.08
44.52 45.26 44.14 42.64 40.40 39.82 40.17 37.89 36.85 36.09 34.66 34.04 32.96 32.35 31.38 30.83 30.32 30.07 29.44 29.33 29.31 29.41 29.38 29.25 28.92 28.51 27.99 27.53 26.61 26.16 27.05 26.19 25.97 26.01 25.63 25.90 26.45 25.98 26.07 26.08 26.44 25.72 25.55
43.96 42.77 40.36 39.37 39.26 37.46 37.20 36.16 35.54 34.60 33.47 32.84 32.03 30.98 30.58 30.01 29.49 28.90 28.85 29.26 28.57 28.92 28.77 28.68 28.29 27.78 27.72 26.82 25.75 25.56 26.15 25.65 25.34 25.61 25.23 25.31 28.85 25.67 26.00 26.06 25.60 25.54 26.48
40.88 39.30 39.06 38.55 36.70 35.71 34.98 34.35 34.01 32.74 32.32 32.22 31.20 30.12 29.26 29.03 28.23 28.26 28.67 28.87 28.45 28.12 28.12 28.05 27.46 27.01 27.24 26.48 26.13 26.11 26.05 25.90 25.68 25.43 24.94 25.06 24.98 24.57 25.43 25.56 25.46 26.21 27.85
41.19 39.83 38.72 36.96 35.78 35.05 33.72 32.76 32.05 32.47 31.75 31.36 30.47 29.26 28.50 28.21 28.12 28.32 28.38 28.50 28.08 27.59 27.26 27.19 26.79 26.72 26.36 26.58 26.74 27.30 26.85 26.13 26.14 25.94 25.68 25.36 25.22 25.00 25.65 26.21 26.45 28.55 26.44
41.16 39.66 37.21 35.64 34.46 33.32 32.62 32.15 31.67 31.67 31.60 30.65 29.93 28.65 28.34 28.47 28.36 28.09 27.92 27.97 27.95 27.81 27.17 26.60 26.13 25.56 26.27 29.17 28.85 29.00 27.52 25.82 24.86 25.28 25.78 26.36 28.41 32.69 32.08 30.03 28.34 27.62 26.66
41.69 39.94 37.69 35.69 34.11 33.12 32.30 32.17 31.20 30.76 31.55 30.42 29.09 29.01 28.82 28.46 27.89 27.51 27.33 27.39 27.24 26.42 25.62 24.84 24.92 24.66 27.66 32.36 34.72 33.67 27.54 26.58 25.50 24.54 25.85 25.53 29.21 28.55 33.39 33.25 33.49 32.55 29.46
42.02 39.82 37.65 36.20 34.72 33.62 32.82 31.29 30.95 30.80 30.45 29.68 29.10 28.97 28.61 27.89 27.50 27.38 27.46 26.60 25.87 24.84 23.75 23.55 23.22 22.51 22.48 32.38 34.45 34.70 28.40 26.21 24.73 24.67 25.13 26.01 28.47 29.39 26.58 30.49 32.94 32.98 32.76
42.37 40.23 38.17 35.89 34.28 33.24 32.33 31.11 31.26 30.51 29.84 28.94 28.59 28.53 28.24 27.25 27.23 26.76 25.88 25.26 24.21 23.16 22.68 22.44 22.19 21.40 23.98 32.20 33.35 33.81 26.87 25.32 24.77 24.60 24.50 24.14 25.14 26.49 29.44 28.69 30.68 26.52 26.29
42.89 40.76 38.71 35.68 33.90 32.56 32.04 31.25 29.96 29.41 29.13 27.97 27.83 27.77 27.39 26.75 26.27 25.71 24.88 22.90 22.74 22.21 21.53 21.64 21.24 20.41 21.39 30.96 32.43 31.67 25.92 24.80 24.58 25.57 24.90 25.48 27.48 31.09 33.04 30.36 26.33 25.04 24.76
41.03 37.90 35.62 34.37 32.47 31.52 32.03 30.75 28.85 28.47 27.65 27.58 27.35 27.40 27.40 26.27 25.06 23.67 22.97 22.41 21.75 21.63 21.68 22.04 21.15 24.58 20.84 28.87 31.86 31.39 27.00 23.54 25.73 25.62 26.80 30.39 29.86 32.37 33.68 28.06 25.29 22.17 22.46
36.44 35.44 34.77 33.11 30.95 31.48 31.68 28.99 28.27 27.30 27.41 27.76 27.22 26.59 25.68 24.16 23.20 22.59 22.04 21.44 20.64 20.43 19.68 20.52 20.23 20.80 22.41 23.86 31.40 32.24 28.09 26.39 27.01 25.89 26.30 27.00 31.23 32.38 31.43 30.89 24.23 23.97 28.46
33.06 32.61 30.96 29.68 30.24 31.36 30.63 28.10 26.75 26.08 26.94 26.50 25.28 23.76 23.48 26.20 25.47 23.13 22.44 21.97 19.85 19.00 18.86 19.30 20.54 22.58 22.00 28.26 29.94 31.84 32.16 31.71 26.63 26.42 26.61 26.65 31.19 30.22 29.48 27.56 28.88 30.27 28.40
30.20 30.57 29.26 28.08 27.67 28.75 30.27 26.60 24.01 26.08 25.13 23.63 22.65 22.65 23.23 23.03 23.42 23.03 21.93 20.90 19.35 18.78 19.06 19.53 20.12 22.09 24.80 22.99 29.69 31.17 31.70 31.61 28.85 27.65 29.04 30.22 29.11 27.87 25.24 26.51 28.10 27.31 21.23
29.00 29.66 29.10 27.39 25.41 26.22 26.47 25.46 25.33 25.13 23.83 21.69 21.53 22.30 22.57 21.59 21.09 21.69 22.81 21.14 19.63 19.32 20.19 20.86 21.80 20.86 22.72 23.00 24.58 25.16 25.84 29.76 28.46 28.74 25.45 26.41 25.63 25.41 24.52 22.84 22.52 21.59 21.43
29.62 29.84 28.06 25.89 24.07 25.31 24.51 24.45 24.03 23.76 22.50 21.53 21.93 21.52 21.46 20.46 20.25 20.63 20.05 21.54 21.61 22.23 22.29 22.18 22.66 21.73 21.59 24.46 29.37 28.92 27.69 27.68 28.12 27.28 22.28 19.81 19.33 18.80 19.10 19.61 20.26 20.75 20.99
27.70 26.24 25.36 24.47 23.42 23.69 22.67 22.60 23.29 23.20 22.06 21.58 22.00 22.36 20.46 19.39 19.92 19.46 19.96 26.56 28.19 29.41 29.46 29.22 27.29 25.80 28.42 29.70 29.96 30.34 30.58 30.03 28.89 22.55 18.16 17.62 18.00 17.66 17.92 18.08 18.53 19.45 20.32

GFSMW_sfc_wetblb_033.txt.gz
Wetbulb
51.82 53.35 53.52 53.94 53.39 54.06 55.53 56.72 60.18 61.87 60.28 58.15 56.61 54.77 52.45 52.51 49.07 47.84 46.59 45.56 45.08 43.42 42.63 43.16 42.23 42.12 41.27 40.52 40.87 41.35 40.09 39.73 40.37 40.56 41.56 42.61 42.20 43.55 44.20 41.43 42.33 40.96 40.73
50.05 51.56 51.85 52.39 52.98 54.81 55.40 56.96 59.81 58.57 59.01 59.21 56.20 53.88 52.04 48.99 47.57 45.50 44.04 43.68 42.57 41.73 41.50 42.01 41.13 41.14 40.44 40.04 39.64 39.90 39.59 38.75 39.14 37.59 37.99 36.42 39.62 40.78 41.04 41.17 40.71 40.02 40.02
48.61 50.91 50.95 51.54 53.13 54.12 55.04 56.33 56.85 56.59 55.91 51.55 49.58 47.19 46.82 46.08 44.85 42.63 41.50 41.10 40.86 40.32 41.30 40.84 40.36 40.14 40.42 38.77 38.58 38.86 38.54 37.05 37.89 38.13 37.25 35.33 34.14 34.46 38.69 39.29 39.71 38.75 38.01
47.51 49.94 50.86 50.80 52.21 54.68 55.70 55.83 54.79 53.55 51.99 51.64 50.67 49.93 50.15 47.58 45.46 40.85 39.79 39.29 39.76 39.39 40.01 39.81 39.70 39.31 39.06 38.48 37.98 37.83 37.65 37.83 35.63 37.47 36.84 37.06 36.06 32.56 31.26 36.81 37.54 37.32 35.88
47.18 48.82 50.43 51.42 52.86 54.47 55.38 54.42 53.20 52.03 50.89 51.65 51.74 51.72 49.90 44.89 40.39 39.26 37.56 37.26 37.42 39.06 38.81 39.01 38.65 38.12 37.83 37.29 37.20 36.58 36.46 36.55 35.82 35.60 35.33 34.78 34.91 34.35 31.86 29.70 32.60 34.58 35.89
46.89 49.32 50.21 51.19 52.24 53.99 53.78 52.32 51.43 49.61 49.61 50.39 49.88 48.38 45.50 39.56 37.71 37.38 36.14 37.36 36.98 37.65 37.64 37.49 37.56 37.46 37.13 36.79 36.44 36.01 35.72 35.25 34.80 34.98 34.24 33.56 32.77 32.32 30.90 29.42 30.48 30.41 32.92
45.92 47.06 48.00 49.88 51.11 52.36 51.70 50.58 49.96 47.49 47.94 48.21 47.65 45.50 42.99 40.63 38.52 37.56 36.22 35.56 36.23 36.21 36.12 36.65 36.46 36.40 36.36 36.07 36.25 35.71 35.23 34.88 34.70 33.96 33.94 33.99 33.52 33.26 32.09 30.65 29.78 28.92 31.35
46.05 46.31 48.05 50.15 51.22 51.90 50.57 50.44 48.70 46.42 47.22 46.78 44.83 43.48 41.20 39.97 38.29 37.43 36.89 37.26 36.56 35.84 35.83 35.62 35.87 35.61 35.57 35.36 35.41 35.49 35.22 34.69 34.49 32.94 33.24 33.21 33.59 33.44 32.69 31.14 29.16 27.35 29.42
44.01 46.25 48.11 50.05 50.85 51.07 50.33 49.44 47.43 46.01 45.53 43.41 41.43 39.79 39.03 38.20 37.26 37.28 37.17 36.43 35.66 35.06 35.11 35.54 35.13 35.09 34.99 34.74 34.47 34.57 34.12 33.89 33.74 33.60 33.16 32.48 33.23 33.35 33.17 32.68 31.68 28.67 24.63
42.91 45.57 48.00 49.59 50.46 50.71 48.82 47.75 46.18 44.07 42.69 40.78 39.66 38.01 37.33 37.60 36.61 36.39 35.32 35.28 35.06 34.91 34.85 34.71 34.77 34.41 34.20 33.93 33.64 33.53 33.33 33.06 33.48 33.48 32.46 32.41 32.61 32.62 32.93 32.50 31.99 31.11 28.33
42.99 45.45 47.94 48.08 47.17 45.81 45.56 43.62 41.82 40.42 39.12 38.06 36.56 36.77 35.85 35.52 35.61 34.79 34.56 34.45 34.49 34.58 34.39 34.23 33.85 33.63 33.27 33.01 32.92 32.33 32.45 31.81 32.07 32.59 31.90 31.43 32.08 31.79 31.94 32.03 31.53 30.51 29.94
44.17 45.69 43.98 42.35 43.21 42.43 41.80 41.39 40.61 38.56 36.80 36.43 36.33 35.09 34.49 34.37 33.99 33.61 33.64 34.19 33.70 34.04 33.66 33.41 32.97 32.61 32.30 32.16 31.59 31.21 31.68 31.42 31.25 31.38 30.94 30.68 31.44 30.94 31.23 30.77 29.99 29.97 30.55
40.67 39.91 40.59 41.28 40.89 40.09 39.23 39.58 37.68 35.72 34.90 34.98 34.57 33.88 33.38 33.35 32.97 32.88 33.09 33.37 33.05 32.81 32.76 32.71 32.09 31.56 31.33 31.05 31.15 31.42 31.91 31.95 31.48 31.05 30.34 30.34 30.08 29.37 29.87 29.94 29.80 30.24 30.23
39.55 39.81 39.28 38.58 38.43 38.03 37.55 36.47 34.87 34.97 33.99 34.21 34.00 33.04 32.76 32.70 32.65 32.57 32.53 32.51 32.52 32.00 31.88 31.66 31.21 30.66 30.41 30.50 31.29 32.31 32.70 32.09 31.79 30.99 30.87 30.43 29.87 29.47 29.97 30.30 30.34 30.58 30.22
39.47 38.94 37.29 36.79 36.18 35.41 35.56 35.09 34.01 33.56 34.01 33.51 33.18 32.06 32.02 32.23 31.99 31.76 31.75 31.57 31.89 31.46 31.31 30.76 30.07 29.80 30.25 31.23 33.21 33.73 33.13 31.87 31.20 30.97 30.76 31.02 31.65 33.14 33.17 31.70 31.04 30.28 29.90
40.03 38.02 36.58 35.99 35.26 34.69 34.23 34.09 33.42 33.46 34.23 33.10 31.66 31.69 31.67 31.52 31.09 30.99 30.74 30.90 30.65 30.51 30.13 29.36 28.92 28.87 29.62 32.15 34.62 34.92 33.24 31.82 30.58 29.84 30.51 30.63 30.97 31.00 33.04 33.22 33.48 32.71 30.11
39.96 37.61 36.47 35.81 34.69 34.51 34.44 33.32 33.19 33.51 32.93 31.88 31.52 31.38 31.23 30.55 30.37 30.25 30.25 29.91 29.60 29.58 28.82 28.36 27.90 27.58 27.84 32.18 34.26 34.50 32.84 30.97 30.51 30.06 29.87 29.59 30.16 31.40 30.19 31.63 33.08 33.24 34.61
40.14 38.32 37.17 35.31 34.54 34.52 33.87 32.97 33.20 32.74 31.94 31.29 30.93 31.04 30.64 29.63 29.59 29.63 29.32 29.01 29.04 28.48 28.08 27.48 27.04 26.83 27.76 31.83 33.22 33.59 31.89 30.86 30.52 30.20 29.89 29.13 29.20 30.22 30.62 31.01 31.56 31.28 29.94
41.04 39.31 37.75 35.36 34.46 33.67 33.49 32.61 31.98 31.79 31.36 30.60 30.45 30.18 30.03 29.05 29.02 28.63 28.51 28.16 28.08 27.40 26.81 26.71 26.17 26.21 27.54 30.45 32.17 32.44 30.89 29.95 29.78 30.05 30.01 29.63 29.79 31.75 33.30 31.23 29.46 28.01 28.02
39.86 37.11 36.06 35.13 33.77 33.20 33.52 32.37 31.09 31.28 30.28 30.04 29.46 29.73 29.62 29.07 28.42 28.35 27.56 26.92 26.66 26.44 26.51 26.27 26.53 26.85 26.42 28.88 31.74 31.95 30.39 28.85 28.88 30.08 29.99 30.84 31.05 32.34 33.39 30.05 28.19 25.55 25.38
37.12 36.31 35.64 34.24 32.71 33.28 33.26 31.24 31.03 29.57 29.32 29.44 29.30 28.86 28.51 27.78 27.79 27.09 26.75 25.90 25.57 25.34 25.00 25.50 26.19 26.33 26.81 28.24 31.18 31.90 30.27 29.24 29.19 28.41 28.58 29.59 31.35 32.49 31.85 31.23 27.33 25.76 29.16
33.89 33.43 32.17 31.42 32.40 33.26 32.55 30.30 27.94 28.43 29.10 28.65 27.40 26.85 27.66 28.50 27.59 26.89 26.24 25.31 24.70 24.34 24.11 24.51 25.69 27.13 27.06 28.70 30.04 31.49 31.94 32.01 28.91 28.18 29.02 29.27 31.61 30.44 29.75 28.49 28.57 30.08 29.13
31.30 31.90 30.65 29.71 30.36 31.93 31.58 27.58 26.90 28.36 27.37 26.55 25.80 25.96 26.43 26.50 26.91 26.46 25.72 25.46 24.22 23.76 23.83 24.32 24.47 25.57 27.25 27.20 29.59 30.89 31.47 31.53 29.81 29.81 30.10 30.67 29.36 28.06 26.14 26.53 28.14 27.24 23.49
29.94 30.55 29.82 28.24 26.87 28.46 28.67 28.01 27.54 27.29 26.38 25.22 25.20 25.54 25.47 24.80 24.84 25.47 25.84 24.98 24.11 23.79 24.42 24.60 24.64 24.86 25.51 26.06 27.23 28.00 29.15 30.26 29.78 29.76 28.54 27.46 26.17 25.57 25.05 23.72 23.81 23.46 23.24
29.90 29.88 28.13 26.52 25.81 26.93 26.22 26.63 26.26 26.57 25.12 24.77 24.94 24.73 24.42 24.25 24.16 24.41 24.55 25.48 25.57 25.87 26.22 25.92 25.59 24.48 24.24 26.13 29.80 29.51 28.45 29.48 29.24 28.51 24.93 22.07 21.24 20.70 20.95 21.45 21.94 22.39 22.39
27.91 26.74 26.18 25.53 25.02 25.27 24.68 24.84 25.63 26.16 25.31 24.63 24.76 24.48 23.88 23.45 23.67 23.39 23.69 26.85 28.20 28.82 28.94 28.71 27.88 27.29 28.54 29.57 29.90 30.05 30.64 30.05 29.06 24.25 20.19 19.39 19.70 19.15 19.27 19.19 19.79 20.83 21.68

GFSMW_sfc_wetblb_036.txt.gz
Wetbulb
54.72 56.31 57.71 59.15 60.03 60.22 60.47 60.81 61.13 62.55 64.89 65.63 66.16 66.77 65.41 62.45 61.45 59.51 57.17 52.87 50.93 48.17 49.55 47.02 48.78 48.80 47.52 46.16 46.19 45.50 44.88 44.10 44.42 44.89 46.36 46.96 46.45 46.92 47.36 47.11 45.29 45.02 44.26
51.73 53.71 55.75 57.67 58.87 59.22 60.21 60.76 61.45 63.25 64.79 65.50 64.89 64.34 62.19 57.25 54.91 53.10 51.68 51.87 48.80 45.16 47.84 47.45 47.10 47.09 45.75 45.07 44.79 44.94 44.44 43.56 43.58 41.99 43.12 42.29 43.48 45.74 45.69 44.75 44.76 43.40 43.88
49.29 50.84 53.23 55.89 58.09 58.54 59.75 60.29 61.84 63.58 64.34 64.20 63.49 59.10 54.24 49.86 48.30 47.23 47.30 47.39 45.98 43.56 46.11 46.03 46.34 45.91 45.63 44.07 43.79 43.81 43.12 42.29 42.72 42.04 41.02 40.16 39.96 39.57 43.67 43.20 42.42 42.57 41.73
50.06 50.61 51.68 53.73 56.34 58.31 60.43 60.69 61.94 62.68 63.26 61.70 58.25 56.51 56.61 52.10 51.29 49.16 46.71 43.57 43.07 42.08 43.23 44.39 45.43 44.80 44.39 43.45 42.49 42.71 42.66 43.23 41.22 42.64 40.75 40.44 39.23 36.97 36.34 41.24 41.34 41.16 39.95
49.75 50.16 51.43 52.60 55.19 58.21 59.86 60.32 61.20 61.50 60.23 59.23 59.74 59.31 57.82 54.54 50.33 47.10 43.30 40.48 41.21 42.42 44.52 44.30 44.05 43.29 43.03 42.61 42.02 41.87 41.57 41.78 41.35 40.62 40.00 39.77 39.09 38.54 35.83 34.43 37.70 39.53 40.46
49.42 50.57 52.04 53.25 54.02 57.46 59.41 59.87 59.43 59.05 58.66 59.50 59.30 60.12 55.98 49.79 46.01 42.65 39.09 38.62 40.59 43.03 43.38 43.23 43.27 42.93 42.39 41.81 41.45 41.19 40.46 40.85 40.35 40.05 39.12 37.55 36.60 36.42 35.65 34.42 35.28 35.12 37.75
48.86 49.91 51.69 52.63 54.06 55.63 58.10 58.58 58.24 57.13 57.58 58.03 58.68 57.77 52.36 49.52 47.22 42.91 38.77 40.77 39.69 41.90 41.98 42.37 42.04 41.92 41.67 41.19 41.14 40.73 40.42 40.15 39.75 38.78 38.23 38.01 37.24 37.19 35.99 34.68 34.07 33.62 36.12
49.71 49.56 51.89 53.51 54.45 55.41 57.47 57.72 57.21 55.77 56.34 56.78 56.28 53.37 49.06 46.56 41.80 40.85 39.33 41.08 40.63 40.70 42.12 41.75 41.45 40.84 40.52 40.41 40.43 40.60 40.55 39.88 39.40 37.61 37.68 37.28 37.33 37.31 36.50 34.73 33.01 31.10 33.37
48.65 49.91 50.58 52.79 54.73 55.80 57.10 57.17 56.54 55.17 55.11 55.02 52.14 46.98 44.84 41.72 42.61 38.88 40.47 39.88 41.31 40.66 41.05 40.95 40.39 40.16 39.95 39.57 39.44 39.99 39.11 38.49 38.45 37.94 37.51 36.85 37.12 37.24 36.93 36.36 35.22 32.16 28.12
48.85 50.54 50.36 51.94 54.43 56.17 57.05 57.27 56.12 54.12 53.74 52.20 50.21 45.27 41.61 40.16 38.99 39.94 38.63 39.85 40.57 40.36 40.25 40.07 39.74 39.40 39.05 38.65 38.70 38.52 38.01 37.26 38.10 37.13 36.77 36.57 36.82 36.49 36.54 35.96 35.38 34.46 31.67
48.96 50.25 50.64 52.40 54.49 55.82 55.95 54.77 53.51 51.88 50.27 49.10 46.52 42.85 39.52 38.75 40.24 39.99 40.67 40.97 40.36 40.05 39.58 39.30 38.88 38.53 37.97 37.70 37.89 37.19 36.76 35.86 36.30 36.76 36.05 35.33 35.80 35.21 35.31 35.28 34.54 33.37 32.87
49.03 49.90 50.39 52.22 53.09 53.14 52.96 52.06 50.42 48.97 47.29 45.19 43.11 40.09 38.50 38.98 40.22 40.49 40.34 40.16 39.41 39.52 38.92 38.51 38.08 37.38 36.71 36.91 36.38 35.78 36.06 35.61 35.40 35.52 35.07 34.56 34.73 34.05 34.18 33.80 32.90 32.57 33.18
47.62 47.01 47.68 48.91 50.40 50.52 50.19 49.32 47.36 44.21 43.05 42.24 39.07 37.34 37.78 39.74 40.05 39.13 39.10 39.19 38.72 38.24 37.97 37.74 36.93 35.93 35.72 35.59 35.57 35.50 35.76 36.00 35.76 35.36 34.56 34.07 33.64 32.70 33.22 33.06 32.70 33.11 33.05
45.58 45.96 46.63 47.72 48.73 48.98 47.42 44.60 40.78 38.90 38.68 37.43 37.16 37.07 39.36 39.61 38.75 38.45 38.07 38.10 38.08 37.47 37.14 36.74 35.74 35.13 34.99 34.64 34.70 35.57 36.01 36.23 35.76 35.38 34.65 34.05 33.09 32.52 32.66 32.78 32.87 32.76 31.57
44.22 44.37 44.71 45.72 45.66 42.93 40.30 37.88 36.95 36.60 36.83 36.00 36.47 36.97 38.80 38.21 37.66 37.03 37.22 37.08 37.19 36.86 36.27 35.42 34.74 34.71 34.44 34.21 35.25 36.23 36.42 35.72 35.08 34.96 34.48 34.09 33.67 33.41 33.86 32.72 32.19 31.88 30.97
44.24 43.43 43.41 43.39 40.58 38.06 36.50 35.77 35.19 35.26 36.03 35.31 35.17 36.65 36.94 36.57 36.32 36.42 36.26 36.24 35.87 35.44 35.09 34.30 33.65 33.39 33.26 32.12 34.41 35.41 35.33 35.04 34.12 33.15 33.52 33.74 33.54 33.25 33.96 34.12 34.00 32.94 30.67
43.55 42.38 42.09 39.67 38.22 36.64 36.29 34.75 34.83 36.11 35.62 34.98 36.05 36.37 36.22 35.31 35.56 35.56 35.60 35.21 34.98 35.06 34.20 33.33 33.07 32.89 33.05 31.87 34.05 34.56 34.62 34.14 33.42 32.99 32.69 32.42 32.86 33.11 32.10 32.72 33.69 34.21 34.61
43.25 42.83 39.42 37.35 37.15 37.13 36.26 35.76 36.51 36.21 36.54 36.23 35.84 35.72 35.46 34.50 34.66 34.96 34.72 34.46 34.70 34.07 33.62 33.04 32.73 32.41 32.47 31.52 32.96 33.79 34.07 33.67 33.35 33.04 32.76 32.19 32.03 32.26 31.98 31.55 32.22 32.58 32.15
43.82 42.46 38.80 37.71 38.42 37.98 37.96 38.15 37.86 37.11 36.21 35.56 34.84 34.87 34.61 33.83 34.02 34.01 34.24 34.01 33.58 33.09 33.02 32.65 31.64 31.59 32.28 30.71 32.06 32.94 33.09 32.74 32.48 32.76 32.94 32.54 31.65 32.54 33.58 31.95 31.37 29.78 30.14
42.57 40.63 39.68 39.77 39.19 38.52 39.01 37.58 36.38 36.14 34.19 33.92 34.11 34.68 34.80 34.51 34.32 33.99 33.15 32.68 33.02 32.43 32.46 31.61 31.94 30.57 31.01 30.87 31.59 32.45 32.22 31.30 31.51 32.32 32.65 32.95 32.33 33.07 33.36 31.09 29.41 28.01 28.01
40.26 40.21 39.71 38.40 37.35 37.77 37.52 35.25 35.25 33.73 34.10 34.21 34.29 34.02 34.35 33.47 33.43 33.04 32.87 32.27 32.07 31.81 31.67 30.87 31.81 31.41 31.02 31.09 31.31 32.06 31.43 30.99 30.46 30.50 30.50 31.58 32.59 32.82 32.73 31.79 28.81 27.60 29.36
37.83 36.69 34.61 34.28 35.63 36.73 36.52 35.29 33.12 33.18 33.29 33.01 32.11 31.44 32.28 32.33 32.78 32.41 31.77 31.34 31.57 31.04 30.41 30.22 30.64 31.58 31.45 30.74 30.74 31.51 31.90 32.19 30.14 29.39 30.38 31.34 32.11 31.61 30.84 29.67 29.49 30.00 30.18
35.92 37.21 36.15 35.61 36.70 36.90 35.14 31.21 30.88 31.86 31.61 30.87 30.58 32.14 32.29 32.04 32.19 32.00 31.39 31.66 30.87 29.94 29.38 29.27 28.95 29.55 30.34 30.63 30.60 31.14 31.70 32.14 30.85 30.86 31.23 31.87 30.79 29.68 28.03 28.14 28.48 28.08 26.47
35.00 35.75 34.97 33.91 33.42 33.09 31.40 30.40 30.72 31.12 31.11 31.30 31.20 31.56 31.24 30.78 31.02 31.32 31.14 30.66 29.99 29.16 28.93 28.54 28.05 28.37 28.76 29.29 30.05 30.31 30.76 31.32 30.95 31.17 30.94 29.80 28.71 27.58 27.24 26.41 26.65 26.53 26.02
34.15 34.68 33.30 32.27 31.52 31.51 30.19 30.33 30.70 32.33 31.61 31.47 31.25 31.18 30.94 30.64 30.28 30.22 30.24 30.12 30.51 29.41 28.16 28.22 27.85 26.87 26.58 28.05 30.24 30.29 29.41 30.34 30.19 29.66 27.42 25.84 24.79 24.14 24.29 24.69 25.12 25.28 25.14
32.19 31.53 31.10 30.85 30.69 30.68 29.92 30.94 32.20 32.48 31.56 30.40 30.54 30.50 30.30 30.04 30.01 29.52 29.34 28.00 27.81 28.30 28.30 28.26 27.97 28.24 29.01 29.56 29.81 29.93 30.55 30.18 29.59 25.48 23.48 22.94 23.10 22.44 22.52 22.35 22.75 23.60 24.41

GFSMW_sfc_wetblb_039.txt.gz
Wetbulb
55.56 56.76 57.91 59.02 59.46 60.18 60.91 61.63 61.76 62.65 63.02 64.36 65.43 67.20 67.55 67.11 66.59 66.58 66.43 63.01 59.81 56.11 54.27 52.89 52.28 52.40 50.96 49.83 48.78 47.50 46.85 45.49 45.60 46.83 47.95 47.91 46.70 47.22 47.89 48.22 46.92 46.75 45.57
52.27 54.14 55.98 57.17 57.99 59.00 60.54 60.99 61.65 62.32 63.12 65.21 66.50 67.59 64.44 61.72 61.54 62.18 61.53 58.74 56.28 53.39 50.41 50.13 50.42 50.02 48.49 47.48 47.24 47.35 45.76 44.77 44.83 42.52 44.83 43.64 44.24 45.92 46.63 47.04 45.30 44.34 45.08
50.00 51.56 52.89 55.14 57.87 58.15 59.84 61.00 61.63 62.80 64.04 65.55 66.69 66.36 58.58 54.42 51.66 53.11 53.17 53.43 51.84 49.97 48.45 49.01 48.25 48.20 48.61 47.11 46.69 46.19 45.75 44.09 44.08 43.20 41.08 41.37 40.92 40.32 45.24 44.22 44.46 43.39 43.61
50.20 51.01 51.80 53.06 54.81 57.72 60.71 61.41 62.16 62.88 64.61 66.07 64.94 63.36 57.48 53.52 51.24 50.06 50.82 49.94 48.95 47.99 47.50 47.53 46.60 47.10 47.01 45.98 45.16 44.79 44.38 44.50 42.19 43.54 41.56 41.15 39.65 37.12 36.40 43.15 42.48 43.66 40.79
50.74 50.79 51.82 53.22 54.59 56.62 59.87 61.93 62.09 63.02 64.51 64.78 64.37 61.28 57.53 57.23 51.49 47.49 46.85 45.29 45.03 45.38 45.91 45.39 46.83 46.03 46.04 44.50 43.85 43.62 42.86 42.62 41.50 40.93 40.33 40.04 40.22 39.46 36.37 34.54 38.37 40.50 41.45
49.91 50.61 51.98 52.88 54.02 56.19 59.28 61.75 61.53 62.35 63.69 63.89 61.28 59.77 60.26 53.67 47.71 44.94 43.50 43.24 45.28 45.40 44.63 45.77 45.87 45.24 44.43 43.71 43.38 43.02 42.58 41.48 40.64 40.02 39.19 38.02 36.77 36.60 36.14 34.88 35.45 35.27 38.10
49.06 49.33 50.07 51.56 53.00 54.86 56.43 60.17 60.53 60.93 61.95 60.85 61.01 60.50 60.01 53.03 48.85 45.41 43.34 42.56 42.05 43.34 43.84 43.96 44.14 43.95 43.87 43.17 42.90 42.25 41.64 40.84 40.06 39.55 38.73 38.61 37.79 37.82 36.63 35.15 34.14 33.54 36.16
48.68 49.94 51.01 52.23 54.07 54.92 56.14 58.70 59.61 59.87 59.89 60.11 60.34 61.80 56.19 53.31 50.07 46.91 45.85 43.73 42.87 41.71 43.52 44.18 43.67 42.63 42.16 42.00 41.99 41.53 41.08 40.38 39.89 39.14 38.91 37.95 37.89 37.99 37.03 35.37 33.43 30.82 32.70
48.67 49.50 50.98 52.28 52.48 54.95 56.07 58.24 59.15 59.27 58.82 59.45 60.59 57.49 54.07 51.73 48.99 47.24 44.61 42.68 43.65 42.24 43.22 42.92 41.91 41.67 41.37 41.28 40.96 40.27 39.56 39.08 39.17 38.96 39.08 37.72 37.93 38.16 37.71 36.98 35.69 32.34 27.97
48.40 49.83 51.13 52.66 52.54 55.10 56.85 58.67 58.87 57.89 58.13 58.93 57.33 54.29 50.01 45.34 42.48 42.63 40.72 41.13 40.50 41.56 41.24 41.70 41.27 40.76 40.46 40.13 39.83 39.22 38.89 37.87 38.45 38.27 37.16 37.35 37.46 37.21 37.02 36.32 35.81 34.72 31.69
48.58 49.91 51.26 53.14 53.18 55.16 57.18 57.86 58.10 56.72 56.82 55.17 50.82 48.01 44.82 42.62 41.09 39.81 39.76 39.59 40.77 40.11 41.12 40.87 40.39 39.87 39.41 39.10 38.56 37.98 37.53 36.82 37.24 37.68 37.00 36.37 36.66 35.70 35.61 35.44 34.81 33.45 32.75
48.09 50.42 51.00 52.64 53.42 55.37 56.98 57.01 56.32 55.45 54.55 51.29 47.12 43.66 41.98 40.85 40.61 39.76 39.94 41.83 39.79 41.55 40.47 40.00 39.59 39.00 38.47 37.99 37.16 36.57 36.97 36.51 36.20 36.41 36.11 35.39 35.79 35.06 34.77 34.09 33.26 32.86 33.03
48.03 50.11 49.91 51.09 53.37 54.99 55.26 54.73 53.79 52.26 50.44 47.66 43.80 41.42 40.68 40.36 39.54 39.17 40.93 40.35 40.21 39.52 39.35 39.01 38.42 37.76 37.15 36.53 36.33 36.33 36.42 36.61 36.60 36.30 35.47 34.95 34.46 33.48 33.46 33.14 32.48 32.84 33.58
48.57 48.73 48.64 49.80 51.76 52.90 52.73 51.63 50.17 48.26 46.74 44.48 42.17 40.22 39.46 39.34 39.29 39.36 40.29 40.07 39.35 38.47 38.51 38.14 37.37 36.61 35.97 35.59 35.43 36.25 36.43 36.77 36.78 36.55 35.92 35.00 34.06 32.98 32.57 32.14 32.04 32.46 31.31
47.97 47.61 47.29 48.83 50.00 50.44 49.80 46.84 45.15 45.06 43.80 41.90 40.41 39.35 38.95 38.73 38.51 39.33 39.16 38.80 38.66 37.92 37.56 36.78 36.20 35.65 35.39 35.28 34.74 35.69 36.07 35.83 35.62 35.76 35.36 35.07 35.43 35.15 34.55 32.75 31.97 31.53 30.26
47.02 46.43 46.28 47.61 47.27 44.57 42.74 40.87 40.11 39.15 38.81 38.62 37.76 37.58 37.83 37.53 38.52 37.39 37.59 37.44 36.71 36.46 36.30 35.84 35.30 34.84 34.62 32.86 34.24 35.14 34.37 34.49 34.26 33.79 33.96 34.17 34.77 34.36 35.18 35.25 35.13 33.72 30.43
45.75 44.26 44.63 44.62 40.87 38.58 37.78 36.86 37.05 37.01 36.47 35.46 36.37 36.02 36.67 36.46 36.96 36.80 36.74 35.96 35.92 36.07 35.33 34.70 34.26 33.97 34.13 32.26 33.97 34.63 33.67 33.18 33.67 33.21 32.91 32.66 33.48 33.82 32.53 33.51 34.43 34.08 34.81
43.62 43.74 42.17 39.87 37.51 36.77 36.10 36.20 36.83 36.47 35.30 34.94 34.98 35.35 35.38 35.12 36.24 36.04 35.83 35.62 35.65 35.15 34.72 33.89 33.66 33.27 33.82 31.67 32.89 33.87 32.84 33.20 33.42 33.48 32.97 32.25 32.07 32.62 32.38 31.57 30.73 31.39 31.94
44.35 41.47 39.63 37.07 35.76 35.44 36.54 36.42 35.63 35.41 35.02 34.22 34.32 35.22 35.67 35.64 35.56 34.90 34.80 34.87 34.42 33.93 33.58 33.22 32.87 32.66 32.77 31.81 32.12 32.69 31.85 31.99 31.98 33.05 33.04 32.73 32.13 33.77 34.37 31.42 29.67 29.99 29.38
38.77 36.98 37.31 36.55 36.25 36.56 37.26 36.56 35.61 35.74 34.71 36.21 36.44 36.48 36.25 35.53 34.90 34.68 33.73 33.97 34.00 32.97 32.93 32.30 32.82 32.95 31.18 32.81 32.31 32.24 31.05 29.93 30.75 31.72 31.99 33.94 32.84 34.22 34.21 30.93 29.32 26.59 27.05
37.96 38.67 38.37 36.90 37.23 38.07 38.31 37.06 37.11 35.76 36.11 36.13 35.75 35.39 35.37 34.45 34.14 33.69 33.57 33.33 32.75 32.39 32.40 31.81 32.76 32.57 32.45 31.62 32.17 32.39 30.46 30.09 29.85 29.66 29.87 30.88 33.31 33.50 33.86 33.38 28.79 27.34 29.23
39.91 40.34 39.28 38.92 39.66 39.79 38.25 35.26 33.18 34.13 34.21 33.58 33.26 33.27 33.44 33.72 33.85 33.27 32.83 32.43 32.04 31.73 31.53 31.13 31.24 32.08 32.34 32.49 32.00 31.95 32.07 32.44 29.92 29.06 29.89 30.69 32.66 33.12 32.43 30.83 30.55 30.86 30.53
35.46 35.87 35.38 35.63 36.86 36.75 34.85 32.01 32.35 32.98 32.26 31.79 32.04 32.64 32.96 32.95 33.34 32.75 32.13 31.79 31.45 30.68 30.10 29.70 29.43 29.77 30.72 30.83 32.28 32.25 32.62 32.66 30.53 30.49 31.43 32.57 31.95 31.33 29.27 29.09 29.91 29.53 25.98
36.83 37.11 36.27 34.24 32.29 32.40 31.84 30.87 31.09 31.91 32.17 31.97 31.94 32.08 31.53 31.49 31.84 31.67 31.47 31.01 30.54 29.51 29.00 28.44 27.96 28.03 28.52 29.09 29.68 29.76 29.98 31.05 30.29 30.87 29.82 29.93 29.68 29.25 28.11 26.93 26.64 26.08 25.76
37.14 37.18 34.99 32.16 30.44 30.53 30.03 31.07 32.07 33.19 32.14 31.83 31.68 31.59 31.54 31.46 30.86 30.79 30.42 29.93 30.77 28.89 27.13 27.10 26.60 25.95 25.60 27.38 30.01 29.69 28.69 29.08 29.77 29.45 26.67 25.22 24.60 23.90 24.11 24.29 24.61 24.89 24.81
35.00 33.48 31.94 30.09 29.83 30.29 30.64 32.47 34.11 33.79 32.35 30.97 31.36 31.39 31.01 30.79 30.40 29.83 29.70 29.54 28.43 28.28 28.63 28.52 27.56 27.42 29.14 29.78 29.77 29.96 30.58 30.69 30.17 25.45 22.96 22.56 22.81 22.28 22.31 22.15 22.33 23.09 23.93

GFSMW_sfc_wetblb_042.txt.gz
Wetbulb
52.02 52.89 53.49 54.05 54.14 54.32 55.43 59.01 57.85 58.25 59.09 57.48 61.15 63.77 64.41 64.92 65.76 65.73 65.36 63.55 58.50 56.53 52.15 50.17 49.52 48.37 46.25 44.73 43.38 42.27 41.45 39.49 39.86 39.93 40.37 40.89 40.73 41.71 41.60 42.26 41.40 40.82 40.96
49.59 51.23 51.96 52.47 54.03 54.28 54.56 55.11 56.94 57.79 59.06 59.28 59.53 61.53 61.85 61.07 62.70 63.46 62.44 59.19 56.18 53.04 50.14 48.42 47.46 45.50 43.74 42.67 41.87 42.04 40.35 39.43 39.17 37.01 37.71 36.23 37.99 40.09 41.24 41.19 40.57 38.58 38.90
47.30 49.03 49.93 50.73 51.88 54.15 54.43 55.25 56.29 56.75 58.26 58.99 61.18 57.45 55.32 53.49 52.01 53.85 53.88 53.58 51.16 50.65 47.75 47.59 46.36 45.24 44.15 42.47 41.30 41.00 41.20 38.45 38.01 37.30 35.55 33.76 33.33 33.40 38.26 38.04 38.49 37.31 36.58
46.94 47.97 48.42 48.03 49.16 52.34 54.63 55.37 55.95 56.77 57.93 60.02 61.00 58.59 58.57 55.95 50.62 51.65 51.49 50.42 50.36 49.65 46.82 46.96 47.12 44.71 44.38 42.86 40.69 41.48 39.27 38.63 36.75 37.02 38.97 35.29 33.83 31.02 29.76 35.17 36.07 36.66 36.24
45.76 46.17 46.92 48.55 48.99 49.07 50.42 54.70 56.05 56.42 57.55 60.88 62.10 58.89 55.30 50.77 50.30 47.51 46.36 46.81 47.57 47.50 46.29 45.39 43.31 43.55 43.33 41.23 39.73 38.47 37.84 37.00 36.10 35.75 34.90 33.91 34.03 33.23 30.48 28.36 31.54 33.91 34.91
43.64 44.82 45.64 47.21 47.86 48.87 49.61 52.66 55.06 55.88 58.90 60.49 60.74 57.35 53.92 48.55 46.46 45.45 44.27 43.82 44.70 45.80 45.65 45.17 43.62 42.13 40.90 40.19 39.10 38.15 37.14 35.96 35.46 34.98 34.32 33.27 31.62 30.66 29.62 27.90 28.01 28.88 31.89
42.60 43.68 44.10 45.41 47.01 47.42 49.16 50.40 55.19 55.05 58.92 59.54 58.46 56.15 54.44 48.52 45.28 44.44 43.25 43.09 43.06 43.49 44.00 43.87 42.76 40.74 40.17 40.04 39.03 37.72 36.54 35.99 34.72 34.12 33.45 33.63 33.03 33.07 31.77 29.80 28.15 27.45 29.56
42.97 43.02 43.82 46.19 47.17 48.34 48.99 49.70 54.85 55.38 58.32 58.74 56.46 56.22 49.96 47.11 45.30 44.66 43.72 43.45 42.74 42.89 44.14 43.63 41.19 39.80 39.18 38.67 38.13 37.10 36.35 35.50 34.55 33.64 33.33 33.24 33.17 33.27 32.15 30.62 27.96 26.41 26.46
42.93 42.57 44.59 46.58 47.71 47.82 49.66 49.90 54.35 55.44 57.12 56.79 56.70 52.73 50.08 46.86 44.78 43.16 44.12 43.26 43.08 43.00 42.74 41.55 39.30 38.52 38.37 37.82 37.10 35.68 34.86 34.32 34.00 33.11 32.94 32.70 32.97 32.80 32.29 31.88 30.63 27.15 24.53
43.28 44.25 46.04 47.26 49.18 50.70 49.76 50.89 54.20 54.89 55.41 56.26 54.41 51.34 48.75 46.11 45.07 43.74 41.85 42.14 41.92 41.61 40.50 38.83 39.09 38.01 37.39 36.84 36.20 35.02 34.66 33.81 33.20 33.55 32.10 31.94 32.25 31.73 31.23 30.66 30.58 29.43 26.33
42.91 44.05 46.57 47.82 49.27 50.25 49.93 51.49 54.14 55.27 54.89 54.17 51.71 43.33 40.86 41.61 42.28 41.46 41.32 40.65 40.94 40.66 39.96 39.47 38.71 36.98 36.47 36.36 35.33 34.33 34.13 33.18 32.59 32.62 32.45 32.33 32.13 30.70 30.21 29.83 29.67 28.46 27.39
42.58 43.69 46.24 46.66 47.78 48.55 50.78 51.93 54.77 55.16 49.95 47.56 43.04 40.80 39.46 39.42 39.69 39.63 40.07 40.30 40.29 41.08 39.59 37.55 38.13 37.19 35.95 34.87 34.06 33.62 33.56 32.61 32.05 32.17 31.71 31.46 34.16 30.03 29.73 28.68 27.95 27.51 27.63
43.66 44.81 45.53 45.68 46.92 50.73 52.77 53.28 53.98 48.61 44.95 41.63 39.47 38.53 38.90 39.62 40.07 39.00 39.93 40.11 39.58 38.85 38.97 37.77 36.36 34.59 34.95 34.25 33.75 33.38 32.95 32.92 32.54 32.10 31.35 30.84 30.30 28.71 28.28 27.85 27.02 27.58 30.56
44.42 45.47 44.72 45.00 46.22 51.50 51.34 50.32 46.57 44.90 41.05 39.09 38.33 38.59 39.47 39.59 39.09 39.26 39.34 38.50 38.17 37.30 36.58 35.64 34.61 34.50 34.59 34.10 33.85 34.08 33.25 32.85 32.95 33.08 32.05 31.04 30.14 28.93 27.58 28.21 27.48 29.09 27.15
44.96 45.17 43.96 44.36 48.02 49.02 47.07 45.11 43.73 40.40 38.98 38.36 38.33 38.71 39.07 39.00 38.66 38.16 37.81 37.82 37.61 36.04 35.30 33.81 33.72 34.26 33.95 34.59 33.32 33.54 32.76 31.39 30.90 30.82 31.53 31.37 32.90 36.02 34.65 31.90 27.82 27.63 27.19
44.86 44.33 44.38 44.90 45.64 43.24 40.88 40.34 39.61 38.32 38.56 37.99 37.06 37.91 37.58 37.35 36.69 36.63 36.29 35.53 35.14 34.24 34.80 33.70 33.76 32.76 34.15 35.06 34.81 34.65 31.65 31.06 29.62 28.51 29.64 30.00 33.54 32.44 35.63 35.66 35.62 33.93 29.60
44.09 42.92 43.95 40.19 38.63 37.86 38.07 35.63 35.43 37.21 37.10 36.82 36.87 36.86 36.66 36.14 35.71 35.73 35.36 34.20 33.42 32.77 32.43 31.67 32.56 31.82 31.81 34.28 33.97 34.43 31.14 29.43 28.35 28.18 28.34 29.18 32.04 32.05 29.07 32.56 34.56 33.63 34.43
43.84 43.45 39.55 37.41 36.60 36.90 35.87 36.34 36.20 36.11 35.65 35.77 35.45 35.58 35.03 34.90 34.96 34.54 34.04 32.91 33.72 32.29 31.88 31.55 31.56 31.12 32.38 33.45 33.15 33.76 29.34 27.97 27.81 28.22 28.02 27.19 27.36 28.58 31.00 29.41 25.99 27.56 28.22
40.45 38.42 36.50 35.67 35.24 35.26 35.77 35.53 35.08 34.71 34.88 34.06 34.07 34.49 34.83 34.30 34.18 33.10 32.55 31.45 31.34 30.29 30.54 31.41 30.56 29.28 27.68 32.55 32.53 31.61 27.90 27.30 25.86 28.18 28.16 28.94 28.06 32.83 34.87 30.83 26.46 27.61 28.11
35.95 34.86 35.04 35.46 35.30 35.48 35.99 34.92 34.20 34.36 33.92 34.44 34.77 35.33 35.02 33.77 32.35 31.11 30.33 30.40 31.19 30.70 30.67 29.85 28.51 31.49 27.01 32.68 33.13 31.60 27.86 24.82 25.57 26.71 27.84 32.67 31.57 34.00 34.53 30.34 28.74 27.00 25.05
36.26 36.53 36.56 35.91 36.65 37.70 37.28 35.53 35.14 33.97 34.86 35.18 34.68 33.81 32.81 31.30 31.98 31.26 31.44 30.55 29.88 29.50 27.97 27.49 27.50 27.49 28.27 27.55 33.03 33.18 27.90 26.24 26.69 26.29 26.17 26.41 32.80 33.71 34.03 34.04 28.02 26.43 28.93
38.16 38.04 37.08 37.53 38.54 38.37 36.20 33.09 32.12 33.14 32.88 32.19 31.54 31.68 32.10 32.95 32.04 29.98 28.92 28.53 27.62 26.40 25.92 25.85 25.27 26.36 26.31 32.22 31.71 33.09 32.67 32.21 27.18 25.93 25.43 26.60 32.76 33.08 32.55 30.92 31.23 31.44 30.93
34.99 36.21 35.47 34.49 34.54 33.86 32.97 30.53 30.62 31.83 31.70 30.96 30.79 31.18 31.53 31.39 30.58 28.21 27.16 26.42 26.81 25.36 24.43 23.62 22.86 22.95 24.93 24.46 31.93 32.16 32.26 31.85 28.63 27.68 30.03 32.07 31.67 30.81 28.34 29.28 30.36 29.58 23.10
34.77 34.07 32.45 30.98 30.40 31.62 31.28 30.57 31.11 32.06 31.57 29.83 29.03 28.21 27.31 27.65 27.80 27.96 27.26 25.58 24.65 23.37 22.10 22.06 21.28 21.30 22.39 23.15 24.31 26.51 25.23 29.26 28.06 29.33 26.60 28.69 28.59 28.59 27.38 25.53 24.46 23.31 23.25
33.50 32.28 30.49 29.03 28.10 29.50 29.66 31.52 32.21 31.75 29.01 28.30 27.51 27.33 27.57 26.68 25.53 25.32 24.53 23.62 24.74 24.95 22.84 22.39 22.40 21.02 20.58 23.91 29.38 28.73 26.91 27.37 29.23 28.63 23.59 21.96 20.94 21.13 21.60 21.95 22.21 22.60 22.72
31.07 29.69 29.22 28.89 29.42 30.60 31.22 31.86 31.58 29.93 28.38 26.07 25.37 25.77 24.41 24.18 23.87 23.46 23.95 30.03 29.03 28.98 28.64 28.42 26.18 24.90 28.15 29.60 29.75 30.11 30.80 30.63 30.00 23.51 19.90 19.35 20.11 20.01 20.33 20.43 20.65 21.48 22.47

GFSMW_sfc_wetblb_045.txt.gz
Wetbulb
50.09 50.06 50.43 50.65 50.08 50.71 51.87 55.09 55.67 62.40 65.27 64.46 65.35 65.57 64.12 64.39 65.20 65.41 64.47 63.03 59.65 57.26 54.47 51.80 49.20 46.79 45.21 43.42 42.17 40.52 39.18 37.93 37.58 38.61 38.66 39.60 39.75 40.27 40.03 40.21 39.32 39.90 39.88
46.09 47.89 49.02 49.13 50.26 51.63 51.44 51.39 54.63 57.71 61.55 62.92 64.37 63.96 62.61 61.23 63.09 64.71 64.02 61.45 57.27 55.05 52.13 49.35 47.17 45.55 43.89 41.98 41.45 40.83 38.92 37.86 37.07 36.23 37.22 35.72 37.25 38.46 39.30 39.26 40.14 37.65 38.04
45.81 46.48 46.42 47.36 47.47 49.04 50.48 52.27 52.89 55.09 56.05 56.79 58.25 56.08 56.32 56.16 56.56 58.80 58.15 55.15 53.50 52.31 51.31 47.18 45.93 43.35 42.72 41.58 40.59 40.33 40.02 37.44 36.94 36.58 36.11 33.86 33.37 32.04 35.91 36.69 36.91 35.61 35.26
44.08 44.66 45.41 45.21 46.03 46.99 49.80 51.61 52.95 53.94 55.45 56.65 58.29 58.62 58.97 59.35 55.65 54.19 50.45 50.73 50.44 50.25 50.21 47.41 46.66 43.81 42.93 41.01 40.28 40.61 39.40 39.44 36.71 37.48 37.92 33.89 33.05 30.82 30.01 33.48 34.42 34.29 35.20
44.58 45.18 45.47 46.73 47.07 46.12 46.52 49.45 51.36 52.83 54.54 56.96 59.21 59.57 58.89 52.91 51.34 50.99 48.27 49.39 48.95 49.16 49.05 48.22 48.13 44.76 43.51 40.56 39.20 38.93 38.07 38.71 37.48 36.50 34.33 32.75 32.63 31.55 29.74 28.15 30.42 32.21 32.89
43.10 43.88 44.15 45.07 45.27 45.64 45.67 47.50 50.39 51.57 52.56 56.45 58.95 59.24 53.26 50.37 48.74 47.37 46.28 46.26 47.37 46.54 46.95 46.72 45.89 45.55 44.29 42.09 40.96 37.25 36.97 36.36 36.05 34.76 33.86 32.63 31.18 29.93 28.82 27.23 27.00 27.47 30.05
41.17 42.14 42.08 43.97 44.00 44.32 45.34 46.76 48.11 50.84 52.95 55.86 58.56 56.34 53.41 51.80 49.98 47.29 46.74 44.13 43.96 44.23 44.42 44.11 43.82 43.41 42.20 41.77 39.99 37.04 36.26 35.41 34.93 34.19 33.17 33.01 32.42 32.19 30.86 28.91 27.26 26.51 28.15
40.56 42.47 41.86 43.38 44.51 45.85 46.18 46.34 47.12 50.22 54.22 57.36 56.55 53.94 50.92 50.28 48.98 47.74 46.17 45.30 44.51 44.39 44.91 43.53 43.25 42.14 42.31 42.11 38.03 36.85 36.19 35.06 34.37 33.56 33.12 32.87 32.74 32.60 31.39 30.04 27.41 24.81 25.44
40.55 40.27 43.83 44.88 45.60 46.48 47.31 47.32 46.97 52.00 55.76 56.35 54.05 49.46 48.76 48.04 46.62 45.42 44.68 45.50 44.56 43.85 42.94 42.46 41.50 41.48 41.02 40.12 37.81 37.04 34.05 34.33 34.29 33.82 33.31 32.56 32.53 32.15 31.31 30.85 29.74 26.52 22.83
40.22 43.14 44.76 45.68 46.50 46.83 47.34 47.78 47.50 52.41 55.12 54.45 50.15 48.05 46.84 45.95 44.42 43.74 42.38 40.93 42.02 42.97 41.47 41.44 40.84 40.83 39.82 37.86 36.90 34.15 33.79 34.19 33.60 34.01 32.78 31.89 32.03 31.55 30.59 29.81 29.46 28.29 25.63
41.97 41.26 44.21 45.36 46.04 46.54 47.20 47.24 48.25 52.87 53.27 51.12 48.12 46.11 44.75 43.39 42.98 42.29 41.61 42.55 41.89 41.16 40.31 39.67 39.28 37.97 37.30 36.07 34.97 34.01 34.47 33.09 32.59 32.72 32.52 32.69 31.90 30.76 29.70 28.82 28.49 27.34 25.83
41.53 43.63 44.63 45.14 45.34 45.62 47.17 48.27 50.86 50.90 48.91 45.25 43.41 42.57 41.40 41.16 40.48 40.96 41.47 40.89 40.09 40.30 39.61 39.19 38.26 37.51 36.64 35.76 35.05 34.06 32.87 31.97 32.04 31.63 31.80 31.48 33.49 29.76 28.92 27.81 27.09 25.96 25.98
42.34 43.12 43.79 44.21 44.73 45.68 49.76 48.98 45.85 42.80 43.08 41.29 41.10 40.41 39.78 39.60 38.99 38.23 40.24 40.32 39.98 39.35 39.06 38.35 37.10 36.29 35.72 34.34 33.32 32.95 32.42 33.39 32.44 32.40 31.99 31.18 30.13 28.56 27.66 27.00 26.00 26.30 29.18
44.04 43.33 43.35 44.59 45.75 47.64 44.94 43.12 41.17 40.90 39.80 40.41 39.43 39.05 38.60 38.72 38.85 39.45 39.38 39.31 38.90 37.85 38.19 36.58 35.74 35.09 34.58 34.13 34.14 33.19 32.89 32.32 33.13 33.36 31.86 30.68 29.48 28.08 27.18 27.18 26.71 27.61 25.65
43.74 43.49 42.93 44.53 45.23 43.69 41.69 39.66 39.98 39.89 40.46 40.01 39.06 38.50 39.29 39.80 39.10 38.13 38.04 37.90 37.53 36.51 35.95 35.24 34.69 33.84 33.86 34.06 33.37 33.34 32.85 32.17 31.50 30.74 30.61 30.38 31.89 35.64 34.02 31.02 27.20 26.22 25.49
43.87 43.10 43.69 41.16 39.46 40.99 40.01 39.14 39.13 39.24 39.29 38.72 37.66 37.56 37.98 37.66 36.89 36.70 36.11 35.68 35.21 34.58 33.99 33.27 33.52 32.83 34.60 36.54 36.65 34.56 32.19 30.46 29.33 28.12 28.18 28.71 32.37 31.79 35.15 35.23 35.35 33.71 28.14
44.81 42.46 36.67 34.90 35.72 37.40 37.33 37.37 36.70 37.39 36.99 36.46 36.32 36.39 36.17 35.41 35.02 35.22 34.68 34.14 33.73 34.15 33.43 33.05 32.35 31.63 32.80 35.71 35.19 34.78 31.09 28.85 27.17 26.81 27.02 27.62 30.64 30.71 27.46 31.51 34.58 33.81 34.69
42.15 38.10 36.00 34.84 35.36 35.59 35.72 36.40 36.43 36.07 35.53 35.11 35.07 35.27 35.07 34.61 34.89 34.57 33.76 33.33 33.06 32.00 31.54 31.09 31.28 30.97 33.24 34.65 34.07 34.01 27.84 27.04 26.82 26.61 26.42 25.60 25.81 27.04 30.37 28.31 26.31 28.16 27.82
34.43 34.29 34.68 34.64 34.85 34.91 35.57 35.09 34.60 34.45 34.35 33.88 34.27 34.56 34.86 34.10 33.97 33.55 33.57 33.18 32.43 31.08 29.87 30.75 30.43 28.41 29.60 33.61 33.08 30.78 27.65 26.12 25.54 27.08 27.08 28.22 26.99 32.06 34.30 29.71 25.42 26.29 27.43
34.60 34.06 34.66 34.96 34.39 34.51 35.19 34.07 33.60 33.71 33.32 33.82 33.97 34.87 34.74 34.15 33.22 32.71 31.61 30.71 30.79 30.72 30.81 29.82 28.63 31.06 26.43 32.85 33.11 31.27 27.39 24.49 25.70 25.70 26.78 31.64 30.65 33.35 34.05 30.53 27.71 26.11 25.38
35.57 36.18 36.26 34.92 35.15 36.19 35.87 34.09 34.19 33.29 34.61 35.56 35.88 35.65 35.16 33.82 32.62 31.25 30.46 30.58 29.94 29.12 27.60 26.47 25.55 26.21 27.88 27.27 33.24 33.35 27.28 26.38 25.67 25.44 25.05 25.83 31.97 33.31 33.84 33.25 26.51 26.21 29.03
36.20 36.82 35.08 34.19 34.82 36.77 36.04 34.47 33.15 34.70 34.29 34.23 33.23 32.00 31.92 32.30 31.39 29.97 29.08 28.06 26.88 24.93 24.06 25.01 24.73 24.45 24.73 31.58 31.89 33.29 32.76 31.98 26.12 25.41 24.82 25.41 32.09 32.12 31.67 29.48 30.66 31.35 29.63
35.67 35.92 33.96 33.63 33.71 35.22 36.20 33.66 32.65 32.55 31.42 31.09 30.88 30.85 31.30 30.75 28.34 26.34 25.15 24.68 25.29 24.35 22.35 21.80 21.37 21.80 23.81 22.95 30.17 31.10 31.80 31.14 27.81 26.50 29.27 31.43 30.56 29.30 26.52 28.53 29.50 28.62 22.28
33.29 33.86 32.80 31.78 30.57 31.20 31.24 30.94 31.31 31.80 31.25 30.09 29.51 27.78 26.62 26.40 26.36 26.44 25.66 23.93 22.64 21.13 20.93 21.08 20.13 19.92 21.37 22.65 24.11 26.15 25.00 28.61 27.79 28.63 25.57 27.35 26.71 26.88 26.31 24.51 23.79 22.67 22.34
32.41 31.64 29.60 28.49 28.48 30.28 30.62 31.43 31.51 31.30 29.28 27.78 26.23 25.95 25.75 24.10 22.75 22.97 22.57 22.99 22.83 23.10 21.26 21.35 22.18 21.20 21.04 24.27 29.13 28.62 27.12 27.72 28.31 27.40 21.97 20.52 20.56 20.43 20.92 21.27 21.65 22.00 22.11
30.40 29.31 29.09 29.18 29.87 30.69 30.54 30.89 31.25 29.94 27.39 24.91 23.96 23.78 22.64 21.93 21.46 20.95 21.27 30.02 29.66 29.88 29.10 28.56 26.45 24.84 28.23 29.90 29.85 30.34 30.53 29.97 29.04 21.46 19.11 18.71 19.31 19.14 19.42 19.57 19.81 20.53 21.60

GFSMW_sfc_wetblb_048.txt.gz
Wetbulb
48.77 48.19 48.46 48.54 48.48 48.97 49.18 51.15 57.96 63.46 64.91 65.24 64.61 63.83 63.20 63.09 63.44 63.19 62.52 61.23 59.59 57.54 56.33 54.21 50.47 46.98 46.13 43.66 41.69 39.70 38.71 36.99 36.82 38.12 38.24 39.11 38.27 38.41 39.00 39.40 38.26 38.99 38.78
45.68 46.20 48.00 48.37 48.81 49.64 48.77 48.99 52.27 59.24 63.79 65.71 65.84 65.07 64.06 62.20 63.48 63.27 62.61 62.22 59.30 57.77 56.38 53.24 49.73 46.36 43.92 41.93 40.91 40.69 38.23 36.92 35.89 36.22 36.78 36.15 38.12 39.60 39.22 38.49 39.51 37.02 37.31
45.73 46.72 45.03 46.11 46.75 46.94 48.54 50.15 50.60 53.56 61.53 64.83 62.21 57.73 58.41 57.87 58.25 59.76 60.31 61.58 58.86 57.43 55.55 51.68 48.94 45.75 45.41 42.20 40.47 39.86 39.37 36.77 35.97 36.75 37.35 34.42 35.01 33.61 36.71 36.31 36.20 35.02 34.89
43.33 45.22 45.25 44.96 45.76 46.56 47.16 48.94 50.41 51.56 54.32 55.79 59.49 61.90 61.06 59.79 59.02 62.02 57.62 54.64 54.23 56.40 53.04 49.65 47.50 47.19 44.67 41.54 40.46 40.67 39.14 38.08 35.66 35.48 37.15 34.16 34.58 32.32 31.61 34.21 34.32 33.74 34.62
41.48 42.30 43.05 45.02 45.63 44.86 44.62 45.82 48.21 50.04 52.03 53.99 58.36 59.83 60.87 60.95 55.71 53.40 52.54 52.17 52.60 53.14 51.57 49.84 48.29 45.74 44.02 43.21 44.15 43.57 41.05 38.92 37.30 37.43 34.34 32.96 32.54 31.27 30.63 30.11 30.86 32.80 32.89
40.17 41.81 42.88 43.28 43.63 43.52 43.83 43.51 45.39 47.70 49.77 51.98 55.30 58.60 57.85 53.00 52.99 50.75 50.13 49.47 49.37 50.20 50.20 48.88 46.60 45.96 44.55 44.99 44.04 41.23 40.90 39.09 38.09 36.31 33.74 32.45 31.43 30.85 29.85 28.44 27.83 27.83 30.48
40.07 41.16 41.24 42.16 42.87 43.29 45.01 45.46 45.74 46.74 48.22 49.69 53.99 55.76 56.36 54.31 53.71 51.40 50.68 47.66 47.04 46.37 48.26 48.75 46.14 44.94 45.30 43.82 41.29 39.35 39.03 38.17 37.12 33.44 33.35 32.54 32.40 32.13 30.96 29.61 28.04 27.31 29.03
39.11 39.67 40.97 42.40 44.47 45.57 45.75 46.19 46.70 46.59 47.03 48.98 54.12 56.31 55.83 54.60 53.20 52.00 49.60 49.17 47.87 46.06 46.08 44.93 45.08 43.35 42.42 41.40 40.49 39.31 38.50 37.64 36.29 33.96 34.07 32.26 32.71 31.91 30.80 29.98 27.54 25.26 25.94
41.07 39.78 42.67 43.79 44.67 44.92 45.69 46.19 47.23 47.06 47.35 50.31 54.19 51.20 52.10 51.18 49.94 47.62 47.52 46.15 46.37 45.65 44.55 44.63 43.27 42.43 41.60 40.82 40.27 38.86 37.61 36.14 35.51 34.88 31.87 31.68 31.42 31.13 30.72 30.50 29.60 26.89 23.10
43.17 42.18 42.97 44.36 45.05 45.27 45.56 46.10 46.81 46.78 47.37 52.62 49.56 49.07 49.04 48.70 47.42 47.05 47.03 45.71 46.26 44.39 43.58 42.33 41.24 40.53 40.17 39.51 38.60 37.09 35.84 35.41 34.50 33.41 31.19 30.82 30.99 30.48 29.69 29.31 28.96 27.95 25.70
43.46 42.82 40.14 43.67 44.92 44.97 45.28 46.58 47.00 46.67 50.79 48.46 46.48 45.91 45.17 45.70 46.37 46.11 45.17 44.72 44.23 42.39 42.25 40.96 40.08 39.25 38.23 38.25 37.04 36.02 35.05 34.29 33.85 32.13 31.33 31.56 31.07 30.38 29.01 28.37 28.10 27.01 25.53
42.51 42.41 42.61 44.96 44.59 44.25 45.53 48.75 48.32 49.91 48.66 46.90 45.10 43.96 43.59 44.09 44.02 42.92 43.15 41.96 40.52 42.23 41.22 39.52 38.50 37.82 37.21 36.01 35.57 35.07 34.44 33.83 32.83 31.65 31.18 32.29 33.05 29.90 29.15 28.47 27.05 25.90 25.37
43.77 42.69 42.30 43.90 44.35 44.39 48.29 45.16 44.12 43.24 42.28 42.16 41.69 41.95 41.61 42.48 41.70 41.75 39.78 39.59 39.62 39.37 38.86 38.03 36.80 36.44 36.74 36.53 35.09 34.45 33.90 33.25 33.34 32.90 32.51 31.20 30.84 29.30 28.54 27.61 26.45 25.60 28.16
44.98 42.57 43.70 43.98 43.73 45.16 41.59 39.20 39.02 41.69 39.57 41.33 41.27 40.08 39.27 39.49 39.99 40.17 39.73 39.30 38.75 37.79 37.73 37.74 37.31 36.70 35.68 34.72 34.53 34.20 33.56 33.36 33.28 33.15 32.33 31.66 30.31 28.96 28.50 28.11 27.10 26.99 25.43
44.54 42.61 42.60 41.18 41.83 38.63 37.66 37.28 39.47 40.76 41.76 40.00 39.28 38.19 38.40 39.20 39.04 38.33 38.05 37.68 36.97 36.39 36.07 35.40 35.31 35.16 34.85 35.11 34.10 34.33 33.12 32.24 31.53 31.30 30.66 30.54 31.83 35.36 34.29 30.66 27.39 26.68 26.00
44.13 43.67 37.44 36.16 36.39 35.67 36.50 37.68 39.46 40.08 41.21 39.78 38.89 38.76 37.76 37.01 36.60 36.28 36.76 36.20 35.23 34.85 34.81 33.95 33.65 34.61 36.23 37.81 37.23 34.45 32.15 30.44 29.14 28.70 28.89 28.41 31.27 30.69 34.87 35.38 35.35 33.58 27.63
42.90 38.44 35.78 35.08 35.49 36.08 36.04 35.49 37.15 38.00 37.89 37.25 36.83 36.27 35.62 34.83 34.71 35.02 34.69 34.03 33.70 34.58 34.16 34.21 33.83 32.74 33.99 35.93 35.91 34.86 29.89 28.29 27.20 26.35 26.18 26.75 29.68 29.69 27.40 31.31 34.15 33.36 34.68
34.58 33.23 32.17 32.37 34.42 35.66 35.79 36.16 36.02 35.50 35.09 34.60 34.84 35.43 35.59 35.27 35.49 34.98 34.25 34.33 34.82 34.08 33.25 32.30 32.18 32.21 33.68 36.13 35.22 33.69 28.41 26.59 26.48 26.23 26.15 25.16 26.34 27.17 30.31 28.52 26.67 27.65 28.15
33.76 33.91 34.56 34.30 34.52 34.56 34.92 34.65 34.30 34.43 34.30 34.05 34.30 34.93 35.25 34.51 34.08 33.07 32.60 32.94 32.50 31.53 31.20 31.34 30.42 31.15 31.92 34.56 34.10 31.30 26.90 25.80 25.80 26.29 26.43 27.64 27.32 31.61 33.89 29.74 26.65 26.83 26.74
34.40 33.97 34.25 34.35 34.06 34.25 35.00 34.25 33.78 33.83 33.75 34.30 34.56 35.45 34.93 33.33 33.15 33.10 32.30 31.84 31.93 30.95 30.77 29.80 28.69 30.19 26.47 33.36 33.21 31.23 26.37 24.20 25.52 25.33 26.65 30.58 29.95 32.73 33.80 30.39 26.85 23.44 23.74
35.48 35.69 35.32 34.55 34.82 35.72 35.65 34.08 33.82 33.06 33.97 33.85 34.03 35.08 34.67 33.45 32.68 31.86 31.94 31.29 30.26 28.96 27.20 25.45 24.79 25.08 26.61 26.20 33.34 33.65 26.33 26.14 26.27 25.92 25.53 26.19 31.43 33.10 33.24 32.53 24.69 25.05 28.05
35.28 35.23 33.82 33.79 35.20 36.78 35.06 33.32 31.84 33.94 33.74 34.01 33.81 32.73 33.18 34.03 32.63 30.57 29.06 27.96 26.11 24.25 22.89 23.45 23.07 23.37 23.16 30.68 31.32 32.21 32.02 31.43 26.17 25.51 25.37 25.53 31.64 31.27 30.70 28.48 29.97 31.02 29.30
34.91 35.14 34.14 33.05 33.62 35.77 35.24 32.49 33.32 33.73 33.36 32.77 32.15 31.32 31.07 30.14 28.01 26.34 24.39 22.91 23.18 22.52 21.47 20.94 20.10 20.55 22.97 22.28 29.73 30.97 31.42 30.96 27.85 26.61 28.93 30.72 29.73 28.36 25.89 27.86 29.18 28.27 21.48
35.88 36.04 35.22 31.99 31.48 33.35 34.10 32.98 32.95 32.70 31.34 28.97 27.71 27.31 25.86 25.38 24.91 25.06 24.60 22.55 21.05 19.89 19.91 20.39 19.54 19.56 21.43 22.54 23.95 25.94 24.87 28.95 27.86 28.49 23.30 26.02 25.90 25.97 25.60 23.93 23.30 22.38 21.91
32.25 31.62 29.53 28.96 29.00 30.43 29.94 29.86 29.61 28.86 26.77 25.58 24.97 24.58 24.45 22.99 22.23 22.68 22.62 22.47 21.39 22.00 20.42 20.64 21.60 20.28 20.30 23.79 28.68 28.38 26.94 26.82 27.45 24.15 20.91 19.72 19.77 19.68 20.21 20.69 21.12 21.44 21.50
30.00 29.33 29.26 29.30 29.62 30.02 29.80 29.82 29.05 27.85 25.99 24.18 23.39 23.33 21.75 21.00 20.72 20.65 21.00 30.20 29.70 29.99 29.34 28.93 26.43 24.71 28.33 29.83 29.85 29.75 29.84 28.83 28.66 20.87 18.11 17.75 18.42 18.40 18.80 19.02 19.23 19.90 20.82

GFSMW_sfc_wetblb_051.txt.gz
Wetbulb
47.94 46.78 47.64 48.24 48.08 47.93 47.44 49.38 54.70 61.65 64.25 65.17 64.82 64.28 64.03 63.88 63.31 63.55 62.95 60.87 59.94 58.42 58.03 55.39 51.06 49.24 48.29 46.31 42.99 39.91 39.07 37.39 36.95 37.82 37.58 38.08 37.60 37.19 37.48 37.44 37.40 38.76 38.70
44.30 45.17 46.39 46.72 47.42 48.44 47.94 46.88 50.04 57.85 63.53 64.53 64.90 64.26 64.15 64.18 64.31 63.29 62.25 60.80 60.06 58.24 57.47 55.20 52.07 49.55 45.56 42.43 40.99 40.51 38.02 36.77 36.24 36.45 36.00 35.51 36.63 37.13 37.47 37.56 38.54 37.50 37.39
45.01 46.12 44.23 45.38 45.96 46.25 47.78 49.07 48.49 50.81 59.61 64.48 64.09 59.05 59.32 58.57 58.77 59.07 60.05 59.87 60.01 58.90 58.03 56.15 53.29 48.81 47.88 45.19 42.52 41.47 40.12 36.75 34.99 35.20 37.74 34.17 34.92 33.24 34.45 35.01 35.13 34.77 34.70
42.74 43.37 43.80 43.62 43.96 45.61 46.61 47.54 48.80 49.41 51.84 58.61 61.17 62.41 61.33 60.21 61.06 62.28 62.38 58.89 58.01 58.29 57.87 55.78 51.82 50.83 48.51 47.13 46.95 46.01 43.14 39.15 35.99 35.50 36.58 35.10 35.81 33.71 30.98 32.67 32.95 32.55 33.88
40.00 41.46 42.35 43.56 44.57 44.59 43.91 44.47 45.75 47.01 49.28 52.36 60.48 61.85 61.65 60.00 59.29 60.47 60.62 53.23 54.44 56.99 54.86 52.87 51.14 49.94 49.52 48.37 46.61 45.67 44.95 41.85 38.83 36.16 35.09 32.73 31.94 32.85 31.76 29.35 29.94 31.94 32.44
39.44 40.79 40.80 41.97 42.02 41.94 42.75 43.10 43.74 44.97 46.94 49.31 53.44 58.85 60.93 55.28 54.95 54.25 56.71 53.19 52.46 53.41 52.72 52.22 51.21 50.43 48.07 45.77 46.20 46.66 44.62 41.72 41.36 39.17 37.02 34.98 34.60 32.59 30.28 28.13 27.31 27.60 29.76
40.66 41.81 39.76 40.11 42.06 43.42 43.12 43.81 44.10 44.86 45.42 46.45 49.38 53.86 56.76 55.79 56.19 55.72 55.85 53.29 51.15 49.85 49.22 49.09 47.76 47.95 47.98 46.90 44.86 43.07 40.83 40.56 39.37 38.12 35.45 33.41 33.87 31.39 30.66 29.22 26.68 26.29 27.76
40.49 40.74 41.27 41.67 42.36 43.63 44.81 45.01 45.32 45.90 46.43 45.58 46.66 50.84 54.23 56.62 56.90 55.13 54.80 53.93 53.50 53.57 49.76 48.07 47.08 47.13 46.31 43.96 42.18 40.04 39.04 38.43 37.37 35.70 35.14 34.82 34.01 33.56 32.26 29.52 27.32 24.59 24.80
41.55 41.58 41.22 43.44 44.16 44.00 44.22 44.26 45.02 45.85 46.50 46.41 47.05 50.44 53.13 53.35 53.94 52.88 51.02 50.21 48.41 47.88 47.47 46.59 45.60 43.11 41.67 40.99 39.91 38.78 37.51 37.31 37.03 35.99 35.24 34.15 33.85 33.09 31.15 30.01 29.13 27.07 23.10
42.34 42.44 41.51 41.16 42.39 43.76 44.18 44.42 45.25 45.89 46.45 46.26 48.32 50.30 50.39 50.59 49.20 47.33 46.09 46.02 46.07 46.50 46.02 44.53 44.41 42.12 40.64 39.88 38.61 37.18 37.04 36.18 35.92 36.17 34.33 33.23 32.60 32.15 30.63 29.19 28.87 28.15 26.13
43.03 42.76 43.14 42.43 42.49 43.76 43.90 44.25 46.41 47.18 47.25 48.78 47.05 45.78 44.82 44.66 45.03 45.43 45.15 45.45 44.39 44.91 44.49 43.49 41.75 40.17 38.84 38.59 37.32 36.50 36.20 34.97 34.43 33.85 33.47 32.84 32.87 31.87 30.39 29.44 29.09 28.78 25.78
42.18 42.09 42.25 41.22 41.95 43.51 43.76 46.44 47.03 47.57 47.55 45.24 43.52 42.55 42.93 43.41 43.07 43.09 43.46 45.11 43.42 43.29 41.94 41.44 39.43 38.66 37.86 37.09 35.96 35.57 35.13 34.25 33.46 33.28 33.02 32.73 33.54 31.90 31.03 30.63 28.75 27.33 26.05
44.10 46.85 43.80 42.65 43.21 42.48 44.04 41.47 40.67 40.49 40.47 41.55 41.16 40.92 41.26 42.40 44.19 43.72 42.33 42.93 41.88 40.74 40.20 38.80 37.29 36.24 36.07 35.49 35.52 35.06 34.60 34.17 33.96 33.51 32.93 33.03 32.73 31.44 30.83 29.32 26.75 26.23 28.20
44.71 45.29 43.78 42.40 41.24 39.92 38.74 38.53 38.94 40.42 40.64 40.96 41.75 41.51 41.87 42.72 41.41 41.10 41.27 40.90 39.24 37.74 37.22 37.33 37.14 36.80 36.51 36.12 35.66 34.88 34.08 34.03 34.20 34.26 33.42 32.01 31.19 30.27 29.38 27.66 27.22 27.39 25.20
39.35 41.00 41.20 38.72 36.78 35.14 35.82 37.55 38.65 39.32 39.79 38.90 38.78 39.53 39.15 39.70 38.72 37.87 37.33 37.90 37.34 36.40 35.81 35.04 34.88 35.16 35.41 35.66 34.97 34.87 33.83 32.96 32.25 31.76 30.54 30.78 31.84 34.66 33.78 30.71 27.66 26.52 25.91
38.63 41.09 35.18 33.38 32.83 32.57 33.80 35.83 35.98 36.59 37.90 37.94 36.69 37.29 37.06 36.72 36.26 35.78 36.12 36.11 35.78 35.38 35.08 34.89 34.99 35.40 36.71 38.27 37.49 34.19 31.69 30.69 29.85 29.14 28.62 28.43 30.21 31.25 33.71 34.39 35.15 33.58 27.55
34.61 33.27 32.71 32.24 32.04 33.01 34.59 33.63 34.34 35.40 35.07 35.43 35.41 35.30 35.40 35.05 35.17 35.44 35.23 34.68 34.26 34.47 34.07 34.44 34.46 34.66 35.13 37.29 36.96 34.86 31.11 29.50 26.60 26.94 26.99 27.22 29.32 28.99 27.03 30.94 33.95 33.28 34.72
32.89 33.02 33.02 33.31 33.99 35.84 35.82 36.11 36.14 35.97 35.75 35.32 35.49 35.99 35.79 35.12 35.25 35.06 34.57 34.46 34.54 33.94 33.54 32.77 32.48 32.29 35.05 36.78 36.52 33.74 28.49 27.98 27.42 26.53 25.60 24.99 25.52 27.03 29.64 28.35 27.66 28.21 28.11
33.63 33.49 33.95 34.17 34.24 34.34 35.14 35.03 34.83 35.16 35.28 35.12 35.30 35.64 35.42 34.60 34.40 33.30 32.66 32.51 32.54 32.12 31.99 31.83 31.65 31.48 32.53 35.05 35.17 31.24 27.51 26.80 25.45 26.05 25.91 26.93 26.19 30.87 33.21 29.27 27.11 27.22 27.06
34.07 33.53 34.28 34.64 34.20 34.52 35.26 34.48 34.20 34.16 33.99 34.79 34.86 35.48 35.44 34.36 32.77 32.42 32.20 31.94 32.12 31.90 31.69 30.63 29.29 31.95 27.79 33.63 33.45 31.39 25.67 23.56 25.53 25.10 26.41 30.06 29.22 32.52 33.52 30.42 26.04 22.82 22.96
35.08 35.70 35.47 35.12 35.58 35.95 35.27 33.80 33.54 32.08 33.89 34.84 35.23 34.54 33.93 32.81 32.17 32.09 32.08 31.42 30.61 28.85 26.57 25.14 23.77 24.43 27.33 26.63 33.95 33.78 26.60 26.44 26.04 25.49 24.73 25.74 31.34 32.57 32.72 32.16 24.15 24.64 27.51
34.69 34.85 34.58 34.83 35.94 35.92 34.75 33.36 31.89 34.58 34.55 33.77 33.21 32.78 33.89 34.68 33.05 31.53 29.20 26.82 25.11 23.07 22.40 21.34 21.05 21.94 21.53 30.12 30.73 31.88 31.64 30.97 26.01 25.16 24.88 25.12 31.39 31.27 30.68 28.43 29.56 30.85 29.26
33.90 33.98 34.10 34.22 34.87 35.78 35.14 32.43 33.72 34.77 34.14 33.20 32.70 32.51 31.74 29.40 26.99 24.77 22.94 21.63 21.32 20.51 20.48 20.31 19.73 20.47 22.94 22.34 29.81 30.49 31.21 30.87 27.54 26.72 28.81 29.93 29.29 28.19 25.67 27.64 29.35 28.20 21.01
35.17 35.19 33.85 33.48 33.38 34.41 34.39 33.99 34.39 34.01 31.97 28.10 25.96 24.99 23.97 23.41 23.14 23.62 23.63 21.11 19.64 18.96 19.65 19.98 19.27 19.09 21.21 22.21 23.59 25.77 24.24 28.40 27.27 27.05 21.70 25.39 25.38 25.62 25.35 23.59 23.00 21.85 21.58
33.77 30.09 30.45 30.33 31.04 32.20 31.79 31.75 28.83 27.08 25.21 24.67 24.48 23.40 22.77 21.75 21.43 21.91 21.37 21.42 20.04 20.86 19.66 19.89 21.32 20.01 20.00 23.91 28.81 28.37 26.62 25.58 26.86 24.30 20.20 18.95 18.90 18.96 19.63 20.20 20.61 20.86 20.93
29.25 28.96 29.60 29.51 29.33 27.84 26.87 26.99 27.38 26.35 24.82 23.35 22.67 22.13 21.06 20.22 20.49 20.71 21.03 30.56 30.09 30.80 30.07 29.70 26.20 24.77 28.18 29.55 29.72 29.50 29.21 28.44 28.21 20.50 17.32 16.94 17.63 17.84 18.33 18.61 18.82 19.34 20.25

GFSMW_sfc_wetblb_054.txt.gz
Wetbulb
47.26 46.40 46.68 46.99 47.14 47.19 46.85 47.92 49.86 59.21 65.25 66.20 65.78 65.54 64.55 65.07 64.96 63.72 63.90 61.98 60.26 58.85 58.87 58.21 56.17 53.97 52.07 49.35 45.28 40.35 39.30 37.35 37.73 37.97 37.49 37.37 37.07 36.46 37.30 38.01 36.86 38.30 37.88
43.99 44.52 45.05 44.90 45.68 47.54 46.55 45.94 47.98 52.34 60.70 64.87 65.44 65.30 65.50 65.29 65.11 63.88 63.63 62.95 60.19 58.54 58.48 57.57 55.15 52.48 50.33 45.72 43.59 41.08 38.20 37.20 37.48 37.41 36.14 35.38 36.43 36.31 36.95 36.25 37.18 36.17 36.30
41.18 43.27 42.57 43.49 43.58 44.28 46.22 47.09 46.75 48.62 56.89 62.90 64.00 59.24 59.62 59.38 62.86 60.79 61.71 61.69 60.03 59.10 58.75 57.24 55.46 51.96 49.91 47.28 45.35 43.27 42.66 38.29 37.61 35.85 38.44 34.03 35.17 33.61 33.63 34.58 35.20 34.60 33.80
38.34 39.80 40.78 41.48 42.28 43.36 44.08 45.83 47.30 47.67 49.79 59.04 62.08 62.00 61.94 60.87 61.49 62.54 62.33 61.16 59.96 58.96 58.69 57.06 54.81 51.89 49.79 48.04 46.48 47.28 47.60 46.02 40.71 38.13 36.80 33.71 35.19 33.80 31.24 32.09 32.41 32.18 32.79
38.78 40.34 39.37 40.78 41.95 42.12 42.23 43.42 45.10 46.71 48.42 50.16 59.23 61.48 61.27 61.71 58.59 59.72 60.02 59.97 58.39 59.32 58.63 56.69 54.20 51.65 50.23 49.23 47.72 46.33 45.22 45.88 42.66 39.50 37.72 35.60 34.34 31.91 33.98 29.85 31.65 32.27 31.32
40.76 43.05 42.97 41.96 41.31 41.71 41.78 41.54 42.17 43.84 45.17 46.66 51.63 59.34 61.04 59.18 55.94 55.85 57.62 54.27 55.30 56.61 57.04 55.71 53.39 51.21 49.99 48.39 48.24 46.61 46.21 44.18 42.80 41.08 38.91 38.27 36.47 33.97 33.49 30.16 30.84 31.30 29.71
41.06 41.27 41.93 41.94 43.11 43.11 43.69 44.65 43.90 43.61 43.84 43.79 45.81 51.36 57.11 57.31 57.14 57.77 58.71 57.13 55.00 55.77 54.92 54.68 53.35 50.80 49.58 48.75 47.95 46.55 46.20 44.37 41.11 39.53 37.93 36.92 35.82 35.62 33.89 31.36 30.29 29.88 28.68
41.31 41.87 41.74 41.15 41.79 42.28 42.98 43.34 43.65 43.99 44.50 44.51 44.48 45.82 49.63 54.45 56.79 56.10 57.23 56.73 55.25 55.43 54.98 54.33 51.92 49.74 48.32 47.51 46.94 46.05 42.71 40.51 38.66 36.83 36.28 35.44 35.62 35.53 34.12 33.10 30.99 25.73 28.14
41.96 41.98 41.91 41.54 41.29 41.82 42.53 42.89 43.48 44.11 44.88 45.23 44.95 44.95 46.87 50.02 53.31 53.29 53.85 54.45 51.76 51.25 50.84 49.68 49.38 49.25 48.05 46.70 44.58 40.71 38.51 38.42 37.46 37.19 36.65 35.68 34.51 34.01 33.51 33.35 31.16 31.09 24.87
41.69 42.61 42.07 42.22 41.73 41.86 42.55 43.66 43.82 44.87 46.33 46.72 45.83 46.51 47.28 49.24 50.60 49.14 48.22 47.07 45.99 47.12 47.28 47.65 46.86 46.20 44.59 42.52 41.28 38.80 37.93 37.01 36.39 35.93 34.73 34.26 33.71 33.35 32.93 32.61 31.78 30.99 28.08
42.17 41.62 41.84 42.69 42.16 42.38 42.95 43.23 45.26 45.23 46.60 47.08 46.03 45.03 44.50 44.77 44.83 44.68 43.87 44.08 44.50 45.31 44.88 45.06 44.55 43.39 42.23 41.27 38.92 37.33 36.77 35.85 35.26 35.03 34.32 33.57 33.53 32.66 32.11 31.91 31.33 30.80 29.92
42.41 42.65 43.91 42.85 42.91 42.42 42.11 42.92 40.01 40.50 41.56 43.20 42.67 42.44 45.09 45.20 43.92 43.53 43.11 43.91 44.87 45.02 44.49 43.36 41.89 40.35 39.23 38.49 36.80 36.14 35.47 34.58 33.72 33.48 33.48 32.71 34.32 32.63 32.24 32.32 31.60 30.36 29.37
42.56 41.49 42.42 41.80 40.74 39.38 38.28 37.89 38.35 38.67 39.90 41.05 41.44 41.27 43.73 44.57 44.41 44.58 44.24 44.30 43.02 41.94 41.35 40.31 38.28 36.90 36.80 35.81 35.61 35.17 34.86 34.72 34.80 34.95 34.69 34.36 34.22 33.38 32.90 31.59 30.16 29.85 29.68
37.91 38.31 40.11 38.09 35.36 35.18 36.51 37.31 37.72 38.02 38.64 39.37 42.02 42.39 43.21 43.05 41.69 41.42 41.48 40.87 39.93 38.20 37.34 37.02 36.63 36.55 36.56 36.41 36.17 35.63 34.95 34.68 34.80 34.85 34.19 33.25 32.50 31.95 31.40 30.39 29.33 28.57 27.59
36.14 36.34 35.51 32.15 32.16 33.23 34.69 35.47 36.16 36.88 37.01 37.04 37.82 37.75 38.75 39.35 38.35 37.57 37.41 37.18 36.69 36.29 36.17 35.74 35.75 35.94 36.02 36.02 35.44 35.65 34.64 33.79 32.41 31.64 31.21 30.88 31.51 33.70 33.95 32.40 28.76 26.78 26.21
34.92 33.64 33.86 32.10 34.18 31.49 32.65 34.59 35.54 34.49 35.41 35.44 35.57 36.62 36.77 37.48 36.09 36.70 36.13 35.72 35.53 35.58 35.88 35.88 36.21 36.57 37.86 39.37 38.58 35.70 33.55 32.92 31.65 30.13 29.51 29.49 30.80 31.31 32.81 33.67 34.38 32.75 27.18
33.61 31.04 30.81 32.40 34.10 35.35 35.85 35.00 35.63 36.41 35.75 35.54 35.70 35.95 36.02 35.60 35.46 35.50 35.69 35.18 34.87 35.40 35.18 35.83 36.40 36.60 38.07 39.74 38.76 36.22 32.04 30.45 28.59 27.58 27.27 28.13 29.53 28.83 27.35 30.67 33.34 32.76 34.53
32.98 31.98 32.23 33.39 34.23 35.94 35.96 36.41 36.89 36.53 36.45 35.77 35.88 36.23 36.09 35.69 35.76 35.27 34.71 34.84 34.87 34.35 33.94 33.09 32.77 32.39 35.09 37.84 35.87 32.95 29.09 27.81 27.36 27.35 26.76 26.16 25.90 26.65 28.92 27.56 26.36 27.84 27.95
33.32 33.04 33.61 33.80 34.33 34.46 35.34 35.33 35.15 35.47 35.33 34.48 34.69 35.44 35.17 34.40 34.34 32.88 32.44 32.69 32.51 32.32 32.05 32.09 32.33 32.62 33.69 36.31 35.57 30.79 27.20 25.82 25.62 26.05 25.43 26.36 25.24 30.32 33.04 28.67 27.60 27.84 26.13
34.34 34.04 34.67 35.01 34.66 35.14 35.68 34.68 34.12 34.24 34.19 34.86 34.87 35.32 34.94 33.96 32.69 32.40 32.16 32.36 32.18 31.94 32.31 31.35 31.52 33.09 27.71 33.88 34.53 29.73 25.60 22.81 25.43 24.47 25.78 29.77 28.83 32.37 33.42 30.32 25.69 21.95 22.37
34.49 35.59 35.66 34.84 34.91 35.54 35.39 33.73 33.63 33.42 34.81 35.24 34.66 34.25 33.67 32.53 32.39 32.01 32.02 32.01 30.59 27.89 25.98 25.04 24.75 25.36 28.03 29.33 34.59 33.02 26.51 26.42 26.08 25.61 24.66 25.74 31.36 32.32 32.45 31.71 23.39 24.31 27.16
33.53 35.14 34.99 34.96 35.58 35.84 35.04 33.78 32.51 34.82 34.84 34.08 33.45 32.90 33.36 34.46 33.75 31.46 28.95 26.26 24.83 22.92 21.18 20.86 21.00 21.86 21.45 30.68 31.49 31.88 31.31 30.56 26.05 25.26 24.80 25.14 30.88 30.15 29.48 27.26 29.37 30.75 28.34
33.54 33.92 34.92 34.56 35.22 35.65 35.28 32.84 34.33 35.48 34.37 33.82 33.21 31.97 28.84 26.42 25.59 23.82 22.18 20.83 20.23 19.42 18.97 18.98 18.74 20.12 23.09 22.28 30.15 30.77 31.07 30.50 26.94 26.69 27.95 28.55 27.98 27.27 24.82 27.54 28.52 27.14 20.60
33.94 34.60 34.81 34.12 33.74 34.93 35.10 34.79 34.92 34.34 31.11 26.88 24.09 23.41 22.79 22.23 22.01 22.62 22.81 20.37 19.03 18.35 18.70 19.57 18.90 18.90 21.01 21.97 23.24 25.60 23.99 27.99 26.74 25.10 21.04 24.46 24.72 24.96 24.54 23.03 22.48 21.45 21.09
33.62 32.65 32.98 33.23 33.22 34.02 33.65 32.68 29.17 26.61 24.58 23.44 22.79 21.54 21.49 20.85 20.87 21.28 21.06 20.73 18.32 20.25 19.18 19.38 20.69 19.39 19.89 24.00 28.38 27.80 26.14 24.86 26.24 22.88 19.41 18.25 18.23 18.45 19.19 19.74 20.05 20.31 20.38
28.64 30.76 31.17 30.63 30.46 30.23 27.37 25.83 26.24 25.52 23.77 22.48 21.69 21.28 20.20 19.87 20.70 20.96 21.14 30.93 30.18 30.75 30.39 29.40 26.08 25.00 28.06 29.37 29.53 29.04 28.75 27.93 27.96 19.50 16.72 16.23 16.96 17.34 17.86 18.15 18.34 18.74 19.63

GFSMW_sfc_wetblb_057.txt.gz
Wetbulb
47.93 49.66 50.17 50.65 50.83 51.58 51.20 51.78 52.96 58.93 66.77 66.61 65.85 65.26 64.90 65.59 65.05 65.73 66.11 65.09 63.84 62.85 63.08 63.29 62.77 62.20 61.64 60.66 57.66 52.85 48.80 46.06 46.17 45.02 45.11 45.48 45.60 45.15 47.34 48.62 47.73 47.26 46.26
43.65 44.59 46.63 48.04 48.53 49.70 50.45 50.59 50.86 53.04 59.21 65.93 66.60 66.68 65.97 66.58 65.93 65.37 65.14 65.78 63.89 62.97 62.67 62.51 61.67 60.95 60.30 58.80 54.59 51.08 47.03 46.12 45.55 46.02 45.24 44.18 43.84 43.98 44.18 45.09 45.22 45.49 44.87
41.92 43.42 42.89 44.86 46.40 46.70 48.37 49.66 50.60 51.31 54.01 62.13 66.20 64.79 64.89 63.99 65.24 64.59 64.28 64.25 64.09 62.81 62.45 62.10 61.48 59.96 59.63 56.99 53.82 51.09 49.95 46.27 44.05 45.23 47.51 41.72 43.89 42.11 41.63 42.51 43.39 43.40 43.20
43.44 44.35 44.32 44.67 44.85 45.91 46.74 47.70 48.90 50.41 51.42 56.60 62.98 63.76 62.93 62.44 63.45 64.37 64.83 64.09 64.00 62.68 61.71 61.48 60.77 59.54 58.55 56.96 53.62 50.44 51.24 49.30 45.42 42.48 41.66 41.87 43.99 40.95 38.47 38.79 40.56 40.38 40.82
43.44 44.57 45.02 44.88 45.67 46.55 46.43 45.93 46.58 47.94 50.22 51.94 59.95 63.04 62.93 63.59 64.35 64.27 64.26 64.04 62.72 62.75 61.57 61.64 60.49 58.95 57.08 56.85 54.04 51.26 51.08 51.02 48.77 46.78 40.93 39.98 38.09 38.16 38.69 36.40 36.96 37.80 38.83
44.15 45.29 46.01 45.95 46.46 47.03 47.89 48.61 47.75 46.94 47.40 49.05 51.61 60.03 62.45 62.81 62.12 61.72 62.17 62.57 61.72 61.40 61.34 60.75 60.35 59.09 56.93 54.90 53.38 52.71 51.24 50.35 49.73 46.98 42.64 41.65 40.91 39.62 36.61 36.58 35.48 35.28 36.92
44.33 45.24 45.10 45.00 46.19 46.58 46.67 47.48 47.38 47.63 48.24 48.22 47.82 50.15 55.36 60.54 60.87 61.49 61.39 61.47 58.63 58.38 59.62 60.03 58.75 57.71 56.26 55.03 53.83 52.09 51.01 49.68 47.58 44.69 41.22 40.86 39.94 38.63 38.00 36.04 32.39 33.82 33.53
44.13 44.92 44.87 44.96 45.67 45.98 46.25 46.47 46.83 47.47 48.33 49.03 48.98 48.64 49.52 52.67 57.60 60.16 60.74 61.10 60.52 59.76 60.00 58.63 58.78 57.17 55.24 52.82 51.31 50.42 50.09 49.53 46.40 42.68 40.60 39.09 38.91 37.35 38.10 36.73 34.09 30.92 32.01
43.53 44.75 44.95 45.30 46.06 45.84 46.00 45.98 46.71 47.66 49.33 49.61 50.12 49.95 49.69 49.94 51.93 55.28 58.27 59.91 59.64 57.64 57.78 57.10 55.29 54.18 52.94 51.82 50.84 50.22 48.13 46.92 42.57 39.73 38.38 37.48 37.32 36.24 36.33 36.57 35.89 35.37 31.76
44.67 45.01 45.14 45.69 46.19 46.20 46.21 46.49 47.07 47.20 47.25 48.37 49.15 49.35 49.67 50.58 51.44 52.79 54.13 55.07 53.97 53.81 53.26 52.80 51.08 50.62 50.00 49.20 48.42 45.23 43.40 39.68 38.26 37.45 36.43 35.35 35.07 34.91 35.95 34.47 33.21 33.79 31.43
44.10 44.15 44.70 45.82 44.97 44.63 44.31 44.39 43.38 43.61 44.20 45.70 46.49 46.78 46.99 47.79 49.03 49.88 50.09 50.58 49.94 49.96 49.72 49.08 48.07 46.40 44.63 43.44 41.29 39.79 39.20 38.55 36.96 36.29 35.21 33.94 34.65 33.38 33.44 34.33 33.63 32.70 32.94
42.51 41.24 41.68 42.15 40.26 39.70 40.51 40.82 41.38 42.34 43.01 44.09 44.80 45.67 46.30 47.11 47.63 47.35 46.74 47.37 47.85 48.07 47.45 46.47 44.62 42.50 41.11 40.00 38.43 38.00 37.35 36.59 34.95 34.73 34.28 33.85 35.21 33.73 33.99 33.89 33.17 33.12 32.76
38.96 40.01 39.83 37.30 36.99 38.29 39.32 39.83 40.03 40.01 41.08 42.74 44.06 45.31 45.43 45.29 44.61 45.18 45.21 45.43 45.41 44.66 43.40 41.48 39.39 38.18 38.02 37.43 37.10 36.17 35.55 35.41 35.62 35.67 35.39 34.97 35.22 34.43 34.28 33.43 32.12 31.37 31.71
36.84 36.49 35.67 34.97 35.11 36.09 36.86 37.17 37.74 38.35 38.58 39.06 40.32 40.65 41.53 41.74 41.00 41.07 40.33 39.52 39.17 37.66 37.26 37.21 36.89 36.76 36.68 36.62 36.39 36.09 35.86 36.00 35.90 35.32 34.69 33.89 33.19 32.22 32.29 32.46 32.28 31.59 30.23
35.32 33.86 34.03 33.72 34.60 34.76 35.34 36.45 36.63 36.89 37.29 37.28 37.52 37.73 38.30 38.84 38.56 37.95 38.36 38.21 38.28 38.30 36.96 36.47 36.83 36.93 36.74 36.87 36.47 36.30 35.31 34.25 33.07 32.52 32.39 32.48 32.69 34.09 33.67 33.26 32.57 32.11 30.67
34.72 33.00 33.14 33.46 34.47 35.18 35.34 36.30 36.39 36.37 37.33 36.50 36.09 36.69 36.98 37.23 37.21 37.24 37.28 37.98 37.64 38.37 38.44 37.88 37.42 37.65 38.37 40.04 39.35 36.43 33.85 32.88 31.93 30.92 30.74 31.18 32.94 32.90 32.97 33.15 33.82 34.08 31.85
33.68 32.57 31.96 32.71 34.59 36.11 36.68 36.39 36.61 37.34 36.84 36.55 36.63 36.57 36.31 35.67 35.76 36.23 36.15 35.96 36.26 37.16 37.24 37.60 38.02 38.17 39.15 40.57 39.41 36.75 32.49 30.93 30.18 29.96 29.58 29.63 30.58 30.19 30.47 31.71 32.90 33.04 33.86
33.34 32.46 33.10 33.82 34.69 36.06 36.42 36.89 37.21 36.80 36.23 35.95 36.01 36.17 35.79 35.33 35.25 34.65 34.57 34.77 35.06 34.59 34.18 33.44 33.52 34.37 36.61 36.89 35.44 33.72 30.89 30.18 29.41 29.05 28.76 28.91 29.28 29.77 31.44 31.13 31.17 31.21 31.51
33.06 33.44 34.24 34.56 34.95 35.36 36.15 35.98 35.97 36.44 35.90 35.23 35.78 35.78 35.31 35.07 33.83 32.47 32.37 32.69 32.29 32.02 32.15 32.66 32.85 33.37 35.46 35.52 34.27 30.66 28.96 28.54 28.02 28.70 29.02 30.18 29.31 30.57 32.84 31.42 30.11 29.79 29.22
34.96 34.61 35.25 35.47 35.30 35.67 35.93 35.04 34.96 35.03 34.37 34.77 35.11 35.57 35.53 34.30 32.71 32.40 32.05 32.22 32.25 31.52 31.95 31.31 32.89 33.53 31.59 35.19 35.09 30.41 28.96 27.92 28.92 28.89 28.86 30.04 30.64 32.16 33.01 31.51 29.08 26.09 27.28
34.63 36.02 35.61 34.74 35.08 35.85 35.46 34.37 34.60 33.78 34.73 34.94 35.11 34.66 34.06 32.68 32.82 32.40 32.04 30.75 28.41 27.68 27.21 26.62 26.77 28.32 31.29 33.94 34.47 32.75 29.97 29.31 28.51 27.99 28.00 28.70 31.04 31.80 31.45 31.04 27.54 27.08 30.32
34.11 35.66 34.98 34.74 35.73 36.23 35.77 34.23 32.80 35.09 35.58 34.69 34.12 33.52 34.09 34.39 32.04 28.97 27.17 26.83 26.16 24.97 24.17 24.30 24.60 25.47 26.60 31.99 32.62 32.49 31.94 31.23 28.35 27.38 28.07 28.57 29.86 29.18 28.79 28.46 29.43 30.67 29.06
33.47 34.16 35.24 35.01 35.51 35.86 34.69 33.87 34.59 35.44 34.69 33.29 30.19 27.45 26.66 26.41 26.61 26.10 25.23 24.59 24.61 23.85 23.02 23.09 23.17 24.02 25.71 26.81 30.91 31.15 30.85 30.24 28.46 28.73 28.64 28.22 27.37 26.89 26.00 27.27 28.12 27.08 24.69
33.47 34.41 34.08 34.41 34.12 35.52 35.57 35.25 35.32 34.38 30.79 26.62 25.33 25.23 25.24 24.34 24.39 25.08 24.98 23.52 22.84 22.54 22.90 23.23 22.63 23.25 24.76 25.96 27.37 28.17 28.01 28.74 27.73 26.14 25.09 25.36 25.26 24.96 25.24 24.46 24.41 24.24 24.25
34.64 35.50 34.86 34.36 34.25 35.20 34.68 32.65 31.01 28.33 26.28 25.17 24.84 24.41 24.26 24.28 24.60 25.02 24.97 24.06 23.07 24.45 23.73 23.49 24.15 23.64 24.34 26.80 29.72 29.10 27.86 27.78 27.71 24.61 22.70 21.93 21.68 22.01 22.43 22.84 22.93 23.14 23.04
31.68 33.33 34.03 33.73 33.09 32.82 30.18 28.08 27.92 27.22 25.55 24.14 24.10 24.17 24.08 24.40 24.86 25.47 25.89 31.19 30.93 30.96 30.11 28.86 27.14 26.89 28.44 29.35 29.24 28.54 28.31 27.06 26.88 21.68 20.03 20.30 20.76 20.72 20.87 20.84 21.19 21.71 22.02

GFSMW_sfc_wetblb_060.txt.gz
Wetbulb
52.68 52.52 52.97 53.97 54.94 56.11 57.15 57.81 57.95 59.02 62.42 66.53 66.66 66.47 66.00 66.59 66.60 67.04 68.71 69.16 68.35 67.71 66.96 66.37 66.01 65.74 64.88 65.15 65.04 63.73 59.80 56.97 58.03 52.80 51.53 50.94 50.94 50.42 51.71 53.35 53.13 52.00 51.70
48.84 49.18 49.64 50.79 51.99 53.01 54.68 56.11 57.03 57.91 58.91 62.18 66.67 67.47 67.64 67.09 67.27 67.16 67.26 67.27 68.29 67.77 67.10 66.44 65.97 65.56 64.55 64.27 64.40 63.09 58.75 58.25 55.23 54.88 54.73 51.23 49.95 49.14 49.63 51.12 51.30 50.94 50.61
48.55 49.92 50.35 50.84 51.60 51.47 52.30 53.22 54.73 56.05 57.29 58.62 62.15 65.80 67.13 67.50 66.89 67.35 67.32 66.93 66.37 67.39 67.36 66.52 66.62 65.91 65.41 64.08 64.17 62.67 58.75 55.79 53.40 55.51 55.79 51.88 51.40 48.84 48.85 48.27 49.46 48.96 48.59
50.23 50.65 50.94 51.52 51.89 52.67 52.72 51.84 52.63 53.44 54.79 56.27 57.79 61.57 63.13 62.64 64.64 65.79 66.81 66.99 66.46 65.52 65.65 65.71 66.51 66.27 65.03 63.55 63.31 61.94 60.20 59.01 52.82 51.33 51.13 50.46 52.06 49.07 44.76 45.09 46.46 47.38 45.79
50.32 50.59 51.01 51.28 52.42 53.08 53.61 54.10 53.06 52.00 53.48 54.80 56.41 59.15 61.79 62.84 64.04 65.24 65.58 66.06 66.59 65.56 64.18 64.49 64.51 64.13 64.44 63.55 62.33 60.23 58.95 59.42 57.25 52.89 49.81 48.44 46.81 46.38 46.79 45.81 41.83 43.58 44.66
50.95 51.99 52.14 52.45 53.10 54.33 53.95 54.06 53.79 53.24 53.20 52.35 54.49 56.19 58.88 61.43 62.36 63.53 64.36 65.08 65.68 64.07 63.35 63.51 63.32 63.82 62.83 62.17 62.27 60.62 58.69 58.09 58.74 54.48 51.07 49.04 48.02 46.29 44.84 45.52 43.68 41.82 40.94
50.58 51.07 50.92 51.20 52.34 52.84 53.34 52.94 53.07 53.15 53.98 54.07 53.22 53.05 54.65 57.70 61.17 62.54 62.96 63.26 63.87 62.99 62.13 62.63 62.17 62.16 62.06 61.45 61.06 59.71 58.02 57.44 56.01 54.11 50.88 48.94 44.29 43.32 42.14 41.99 39.09 39.75 35.83
50.26 50.60 50.69 51.29 52.09 52.23 52.77 52.92 52.58 52.59 53.94 54.26 54.63 54.92 54.11 54.22 55.29 57.55 60.14 61.32 61.98 63.28 63.42 61.76 61.55 60.95 60.70 59.84 58.76 58.01 57.17 56.87 55.54 53.30 50.47 45.87 42.06 40.41 40.05 40.56 37.87 36.44 33.46
49.44 49.59 50.33 50.79 51.18 51.37 51.34 51.49 51.51 52.40 52.36 53.00 54.11 54.74 55.52 55.39 55.14 55.66 56.75 58.56 60.43 61.71 62.57 61.62 59.95 59.69 58.03 56.85 55.55 54.69 54.10 53.54 52.65 49.24 45.33 43.58 39.58 39.19 39.41 38.29 39.16 40.38 33.90
48.36 48.09 48.34 49.07 49.20 48.67 49.26 50.26 50.20 49.95 50.83 51.68 52.66 52.72 53.26 53.57 54.35 55.50 56.00 56.61 57.77 58.74 58.29 58.34 57.82 55.78 54.62 53.36 52.18 52.07 51.34 50.22 45.83 42.63 38.19 37.20 36.87 36.57 36.33 35.82 35.66 36.29 34.24
46.41 46.65 47.42 47.12 46.56 47.13 47.35 47.58 47.91 48.50 49.06 50.03 51.04 51.55 51.37 51.16 51.24 51.15 51.86 52.80 53.27 53.74 54.26 54.42 53.01 51.96 50.89 50.54 48.23 45.64 44.27 41.42 40.04 39.04 39.03 34.82 35.42 34.64 35.18 35.78 35.26 34.61 35.24
44.47 45.60 45.02 44.76 45.18 45.42 45.71 45.75 45.93 46.23 46.94 48.56 50.02 50.48 51.13 51.35 51.32 50.91 50.81 50.85 50.79 50.79 51.13 50.57 49.15 47.77 46.04 43.83 41.53 40.13 38.69 36.98 35.98 36.08 35.12 34.91 35.83 35.86 36.00 35.81 34.74 34.80 33.73
43.36 43.56 43.23 42.54 42.88 43.29 43.51 43.75 43.68 43.88 44.57 45.94 46.62 46.97 47.14 46.84 46.36 46.28 46.06 46.73 47.31 46.66 46.39 45.37 44.15 41.94 41.07 39.36 38.55 37.27 36.49 36.13 35.99 36.26 35.80 35.22 35.40 34.75 35.09 34.41 33.61 33.12 33.54
40.88 41.42 41.66 41.59 41.75 41.68 42.01 42.12 42.04 42.40 42.82 43.33 43.45 42.74 41.94 40.61 40.13 41.02 41.02 40.15 39.73 38.94 38.74 39.15 39.10 38.13 38.26 37.53 36.84 36.70 36.63 36.64 36.77 36.70 36.19 35.74 35.09 34.03 33.18 33.74 33.89 33.53 32.21
39.63 39.11 39.69 40.19 41.16 41.14 41.56 41.66 41.50 41.28 41.99 41.41 40.95 40.18 39.91 38.97 38.60 38.69 38.89 38.91 38.73 38.37 38.14 37.22 37.41 37.62 37.56 37.72 37.05 36.91 36.23 35.26 34.18 33.86 33.75 33.61 34.48 35.65 34.63 33.56 33.35 33.39 32.56
37.08 37.58 38.02 38.98 39.78 40.90 41.19 41.30 41.14 40.51 40.68 39.00 38.20 38.82 37.90 37.74 37.26 38.07 38.80 38.57 38.39 38.99 38.33 38.48 38.82 38.41 39.49 40.43 39.50 36.78 34.47 33.88 32.62 31.39 31.69 33.46 34.11 34.65 34.58 34.20 34.72 34.91 33.11
36.56 37.06 37.38 38.05 39.41 39.78 40.16 39.73 40.29 40.86 39.83 38.62 38.46 37.79 36.96 36.06 36.12 36.16 35.71 36.02 36.39 36.87 36.97 37.27 37.24 37.30 38.98 40.41 38.99 36.30 32.38 31.42 31.23 31.24 31.67 31.79 32.66 31.84 31.59 31.90 33.15 33.55 33.63
36.12 36.22 37.99 38.08 38.59 39.58 39.83 40.14 40.16 38.38 37.53 36.93 36.31 36.36 35.83 35.48 35.82 35.83 35.39 35.27 34.87 34.31 34.22 33.16 32.47 33.31 36.02 37.19 36.12 33.81 32.39 32.09 31.69 31.52 31.67 31.56 30.91 30.91 31.81 32.30 32.75 33.02 33.45
37.16 37.09 36.86 36.83 38.50 38.66 39.07 39.35 38.09 37.39 36.66 36.22 36.09 36.48 36.41 35.41 35.26 33.76 32.82 32.21 32.23 32.03 32.05 32.50 33.33 33.65 34.14 34.79 33.64 32.58 31.75 30.68 30.15 30.93 31.46 31.63 31.29 30.86 32.79 32.78 31.97 31.65 31.67
37.94 37.73 37.30 36.72 36.76 36.68 38.23 38.00 36.39 35.93 35.22 35.49 35.74 35.97 35.65 34.42 33.24 32.54 32.30 32.76 32.96 32.09 33.62 32.63 34.70 35.36 35.62 35.58 33.11 32.30 32.25 31.01 30.51 31.18 31.01 30.30 31.34 32.15 32.54 32.24 30.96 28.62 29.27
37.42 37.65 37.12 35.91 36.24 37.12 37.05 35.78 35.51 34.63 35.67 35.96 35.79 35.76 35.46 34.15 34.12 33.19 33.52 32.55 31.56 31.11 31.28 30.98 32.07 33.98 35.04 34.62 34.03 32.68 31.83 31.01 30.22 29.69 29.74 30.44 30.77 31.34 30.96 30.85 30.38 28.67 31.08
36.76 37.32 36.47 36.28 37.17 37.19 36.63 35.29 34.31 35.86 36.00 35.86 35.28 35.41 36.04 34.60 33.10 31.97 32.07 32.16 31.66 30.41 29.63 29.33 29.08 30.14 32.09 32.59 32.76 32.66 32.12 31.38 30.01 28.94 29.79 30.30 29.75 29.02 28.75 29.21 29.37 31.00 30.69
35.33 36.23 35.76 35.09 35.90 36.51 37.20 35.27 35.24 35.93 35.83 35.29 33.11 32.19 32.20 32.00 32.15 31.74 31.09 30.68 30.92 30.38 29.24 28.97 28.52 28.54 29.73 30.87 30.79 31.00 30.75 30.61 29.80 29.78 29.18 28.19 27.29 27.24 27.79 27.62 28.51 28.66 28.31
35.03 36.41 35.92 35.57 34.51 36.45 36.78 36.38 36.15 36.44 34.59 32.40 31.34 31.70 31.29 30.61 30.93 31.08 30.66 30.26 29.70 29.15 28.90 28.08 27.72 28.09 29.04 29.85 30.85 30.35 30.57 29.25 29.29 28.06 28.68 26.24 26.00 25.80 26.62 27.13 27.70 27.84 27.74
36.00 36.21 36.58 36.15 35.70 36.65 36.53 36.78 36.32 34.59 32.38 31.43 31.16 30.91 30.65 30.50 30.38 30.70 30.42 29.64 29.35 29.74 28.91 28.54 28.30 27.79 27.88 29.09 30.31 29.82 29.36 29.87 28.96 27.61 26.27 26.12 26.18 26.44 26.73 26.91 26.96 26.98 26.67
36.82 37.02 37.53 36.61 36.38 36.34 34.73 35.61 34.67 33.24 31.71 30.47 30.26 30.22 30.46 30.76 31.16 31.03 30.73 31.76 31.55 30.85 30.05 28.78 28.98 29.03 29.00 29.49 29.18 28.86 28.59 27.58 27.35 24.98 24.15 25.05 25.56 25.20 25.19 25.00 25.59 26.34 25.94

GFSMW_sfc_wetblb_063.txt.gz
Wetbulb
53.82 54.96 54.87 55.42 56.01 57.18 57.77 58.38 58.47 59.41 60.16 63.06 65.58 67.73 66.71 66.83 66.83 68.78 70.28 70.17 69.68 68.73 68.60 68.00 67.27 66.79 65.72 65.45 65.22 63.78 63.62 61.27 61.38 57.96 54.82 54.83 54.15 53.04 53.68 54.90 54.59 53.77 53.74
51.75 51.94 51.79 52.37 53.11 54.36 55.88 56.83 57.93 58.77 59.48 60.33 62.86 68.08 67.39 66.71 67.06 67.75 67.74 68.69 69.47 69.51 68.52 67.81 67.18 66.97 65.78 65.39 65.06 63.10 62.01 61.25 60.45 55.61 54.68 51.63 51.47 51.26 51.52 52.45 52.82 52.85 52.46
49.64 50.76 51.61 52.26 53.01 53.31 53.86 54.17 55.54 57.23 58.85 60.13 60.71 62.69 67.33 67.69 67.57 67.86 67.21 67.28 67.18 68.51 68.89 68.12 67.40 67.22 66.34 65.07 64.77 64.38 62.37 59.75 58.41 57.19 56.52 52.55 51.92 49.27 50.48 50.17 51.09 51.14 50.49
50.89 51.20 51.72 52.27 52.87 53.95 55.53 54.20 53.90 54.64 55.93 57.63 57.64 58.17 60.56 62.80 65.33 65.91 67.22 67.60 68.10 66.98 65.96 67.23 66.95 66.77 65.98 65.33 64.86 64.55 63.33 60.93 56.89 54.94 56.37 57.82 53.22 50.43 44.36 48.20 48.48 49.75 48.84
51.52 51.53 52.06 52.83 54.15 54.88 55.05 55.53 55.43 54.03 54.57 55.28 55.93 56.73 57.68 61.12 64.04 64.61 64.30 65.22 66.81 67.66 66.11 64.38 65.01 64.80 65.09 64.56 65.04 63.52 63.57 60.98 58.76 54.01 53.85 53.35 50.76 49.47 47.66 43.30 42.87 46.22 47.02
51.88 52.75 53.19 53.74 54.23 55.52 55.58 55.37 54.77 54.82 55.38 54.69 54.64 55.30 56.66 58.48 60.97 62.11 62.60 63.88 65.10 66.10 66.48 64.19 63.86 64.24 63.92 63.56 63.13 63.74 62.19 60.86 60.11 56.76 55.24 52.15 50.40 47.67 46.34 46.89 44.74 42.61 43.15
51.40 51.97 52.18 52.72 53.69 54.09 54.70 54.76 54.75 54.09 55.23 55.75 55.48 54.53 54.64 56.08 57.77 60.18 62.01 62.56 63.11 63.99 64.64 63.53 62.89 62.83 62.67 62.77 62.20 61.60 60.81 59.84 58.97 58.63 54.48 52.71 52.29 49.60 48.64 47.06 40.37 39.78 37.28
51.28 51.47 51.93 52.72 53.21 53.39 53.68 53.79 53.64 53.62 54.54 54.53 55.07 55.90 56.09 55.00 54.86 55.76 57.32 59.18 60.92 61.75 63.19 64.13 62.06 61.99 62.21 61.78 61.02 60.35 59.71 58.47 58.33 57.80 56.97 53.30 46.48 44.51 42.90 43.24 41.13 38.55 34.48
50.14 50.36 50.96 51.33 51.79 51.40 51.22 51.89 52.22 52.35 52.74 53.10 54.18 54.58 55.27 55.46 55.70 56.36 56.73 56.60 57.53 58.74 60.34 62.05 61.77 60.14 60.57 60.37 59.68 58.15 57.10 56.40 56.39 55.29 50.75 45.39 42.68 41.99 40.98 40.35 41.05 40.93 33.47
49.53 49.50 49.62 49.96 49.51 49.51 49.81 50.58 50.73 50.67 51.43 52.09 52.86 53.22 53.37 53.42 53.68 54.15 54.58 55.17 56.09 57.12 57.63 58.22 57.91 58.45 58.14 57.32 56.17 55.05 54.15 53.01 50.47 45.15 43.19 39.82 39.62 38.86 38.34 38.33 37.87 37.75 37.09
47.74 48.13 48.66 48.19 48.43 48.91 48.77 48.87 48.92 49.16 49.52 50.85 52.08 52.47 52.56 52.82 53.13 52.58 52.53 52.54 52.85 53.75 53.76 54.31 54.29 54.78 53.97 52.98 51.74 49.20 49.32 44.33 41.44 40.74 41.73 38.07 38.37 37.31 36.86 37.15 37.21 36.65 36.38
46.48 46.96 46.54 46.31 46.75 46.80 47.03 47.00 46.89 46.89 47.30 48.72 49.63 49.53 49.35 49.76 49.02 48.21 48.37 48.67 49.08 49.85 49.95 50.83 50.73 49.73 48.20 46.80 44.27 43.53 41.12 39.45 39.70 37.46 37.22 36.31 37.99 37.69 37.18 37.31 36.35 35.73 34.99
45.70 45.74 45.66 45.01 45.06 45.30 45.45 45.51 45.23 45.04 45.68 46.40 46.45 45.77 44.94 44.34 44.05 43.74 43.52 43.13 42.40 41.81 41.93 42.57 42.23 41.92 41.59 41.07 40.53 38.55 37.60 36.87 36.67 36.73 36.25 36.82 37.05 36.09 36.40 35.08 34.27 33.94 34.05
43.94 44.38 44.66 44.48 44.44 44.19 44.45 44.48 44.05 44.26 44.44 44.43 43.93 42.94 42.48 41.79 41.10 40.61 40.53 40.42 40.14 38.94 38.45 38.65 38.53 38.67 38.29 38.36 37.76 37.39 36.99 37.05 37.05 37.20 37.08 37.12 36.36 34.87 34.03 33.67 33.13 33.71 33.49
41.95 41.87 42.93 43.40 43.71 43.70 44.17 44.01 43.70 43.15 43.19 42.35 41.90 41.12 41.25 40.77 40.54 40.17 40.15 40.02 39.52 38.97 39.12 38.45 38.38 38.30 38.09 38.04 37.16 36.69 36.04 35.17 34.22 34.30 34.56 34.73 36.19 37.02 36.12 34.74 33.61 32.95 32.29
40.10 39.94 40.86 41.68 42.20 42.97 42.69 43.04 42.80 42.56 42.73 41.05 40.16 40.37 39.82 39.06 38.32 38.22 38.58 38.41 38.36 37.77 37.82 38.17 38.81 38.79 39.35 40.35 39.32 36.19 33.95 33.98 32.39 31.58 32.70 34.05 35.26 35.97 36.65 36.22 35.61 35.26 33.32
40.07 40.14 40.25 40.81 41.57 41.70 42.15 41.26 41.61 41.63 40.34 39.36 38.97 38.43 37.93 37.32 36.98 37.15 36.87 36.17 35.63 35.64 34.93 34.67 34.07 32.79 34.99 38.76 38.13 36.45 32.67 31.90 31.65 32.03 32.16 32.29 32.81 32.31 31.87 32.45 33.20 33.68 34.00
39.88 39.05 40.10 40.27 40.77 41.48 41.29 41.76 40.56 38.20 37.23 36.91 36.42 37.05 37.07 36.74 36.58 35.71 35.06 34.94 35.29 34.59 34.17 33.29 33.15 33.63 35.43 36.74 35.74 34.68 31.95 31.62 31.61 32.14 32.16 31.69 31.24 31.25 31.80 32.29 32.53 32.61 32.70
40.64 40.10 40.07 39.24 39.98 40.24 40.76 40.53 39.22 37.99 36.40 36.39 35.93 36.62 36.45 35.44 35.08 33.81 33.48 33.21 32.84 32.76 32.74 33.22 33.81 33.80 33.64 34.63 34.31 33.25 32.25 31.19 30.86 31.37 31.89 31.88 31.31 31.91 33.08 32.31 31.61 31.15 31.00
40.42 39.70 39.67 38.73 38.36 38.29 40.19 39.03 37.10 36.17 35.50 35.73 35.92 36.33 36.11 35.02 33.69 33.10 33.00 33.65 33.44 32.96 34.19 34.57 35.79 36.43 33.71 34.69 34.20 33.34 32.17 30.75 30.50 31.04 30.76 31.21 31.33 32.48 33.03 31.18 30.28 27.83 27.86
39.78 39.98 39.35 37.75 38.32 38.99 38.52 34.84 35.61 34.95 35.75 36.25 36.41 36.04 35.81 34.49 34.49 34.15 34.58 34.43 33.33 32.94 32.41 32.18 32.99 33.43 34.14 33.48 34.25 33.88 31.59 30.24 29.59 29.06 28.76 29.59 31.01 31.34 31.06 30.91 28.65 27.87 29.73
38.60 39.38 38.28 37.76 38.19 37.51 36.33 34.25 34.44 36.19 36.62 36.60 36.17 36.17 36.73 35.62 34.18 33.72 33.48 33.42 32.47 31.29 30.66 30.28 29.77 30.78 32.16 33.08 33.00 32.83 32.21 31.83 29.22 28.25 28.79 29.58 30.02 29.22 29.04 28.94 29.76 31.08 30.83
38.40 39.17 37.65 35.65 36.16 37.56 37.04 35.13 35.45 36.65 36.89 36.64 34.85 33.61 33.44 33.41 33.59 32.83 32.31 31.79 31.82 30.63 29.40 29.02 28.61 28.39 29.71 30.50 30.75 30.97 30.86 30.88 28.87 28.96 28.74 28.72 28.05 28.09 28.53 28.43 29.37 29.24 27.25
37.40 38.17 36.64 35.46 35.37 37.22 37.60 36.25 37.27 37.70 37.04 34.52 32.78 32.68 32.10 31.94 32.11 31.68 31.40 31.03 30.23 29.55 28.84 27.97 27.67 28.00 28.71 29.46 30.69 30.56 30.38 30.42 29.78 29.28 28.81 26.98 26.88 27.82 27.57 27.60 27.72 27.16 26.67
37.75 38.56 37.23 36.30 36.13 36.95 37.38 38.38 38.51 37.39 34.50 32.85 32.37 32.05 31.73 31.41 30.98 31.11 30.94 29.79 29.95 30.08 28.74 28.19 27.79 26.96 27.27 28.45 30.14 29.55 28.34 28.68 28.55 27.74 26.16 25.21 25.51 25.67 26.19 26.36 26.49 26.43 26.10
37.34 37.55 37.95 36.81 36.82 37.16 37.80 38.40 37.67 36.03 33.28 31.69 31.47 31.50 31.33 31.70 31.78 31.18 30.37 31.94 31.46 30.92 30.35 29.73 28.78 28.95 28.73 29.85 29.68 29.41 29.24 28.89 28.30 25.03 23.72 24.25 25.18 24.93 25.01 24.89 25.23 26.02 26.67

GFSMW_sfc_wetblb_066.txt.gz
Wetbulb
50.30 49.98 50.88 50.79 50.59 51.46 52.16 52.98 53.93 55.07 55.79 55.93 59.06 65.92 65.84 65.85 66.17 67.27 67.40 67.74 65.14 65.50 64.40 64.37 63.49 62.52 61.60 61.89 62.63 61.49 60.58 58.60 56.68 52.75 50.00 48.92 49.10 48.59 49.31 50.24 49.91 50.64 50.98
47.02 48.46 48.59 46.77 48.39 48.89 49.87 51.32 52.63 54.02 54.77 55.03 55.75 61.90 65.91 65.81 65.37 65.61 66.75 66.96 66.48 65.91 64.70 64.37 64.10 62.74 61.74 60.98 61.28 61.71 60.08 60.37 58.05 51.81 48.05 45.56 46.96 47.44 48.19 48.55 49.70 48.66 49.63
45.98 47.21 47.99 48.85 49.32 49.79 50.24 50.31 50.40 51.13 52.31 54.01 54.65 55.11 63.60 63.94 63.38 63.69 64.78 65.96 66.42 65.72 64.58 65.20 64.33 63.23 63.20 62.33 60.22 61.29 59.93 58.95 57.94 54.43 50.84 48.11 46.75 44.14 46.34 47.22 47.75 47.82 47.09
46.44 48.19 48.55 48.40 49.17 50.27 51.72 52.03 50.72 50.48 51.40 51.57 52.00 51.50 51.55 56.01 61.71 63.60 65.51 65.66 65.39 65.11 64.94 63.87 65.27 64.76 64.76 63.26 62.56 62.53 61.26 58.71 57.43 55.46 54.98 53.48 49.66 44.92 40.87 44.48 45.88 46.71 46.21
47.28 48.09 48.66 50.29 51.33 51.67 51.26 51.56 51.72 51.16 50.71 50.19 50.61 50.39 50.61 52.05 54.19 59.00 60.56 61.01 61.59 64.54 64.34 63.16 62.24 61.70 62.96 63.91 63.43 62.45 61.84 61.40 59.96 56.04 51.98 53.47 50.38 44.84 43.14 39.31 41.54 43.77 44.78
48.11 49.01 49.84 50.60 50.87 51.50 51.56 51.30 51.30 51.30 51.68 51.11 49.96 49.29 49.37 49.98 50.84 54.45 56.92 58.20 59.77 61.26 62.66 62.99 63.29 63.27 63.17 63.06 62.40 63.06 61.46 61.07 61.09 57.94 54.36 52.57 52.60 49.93 45.85 44.58 41.50 41.98 42.53
47.40 47.95 48.23 48.97 49.92 49.79 50.26 50.96 50.52 50.23 50.97 50.69 51.00 50.95 49.60 48.66 48.65 50.32 53.13 55.86 57.99 59.44 60.84 61.16 60.70 61.58 62.21 62.40 62.12 62.08 61.69 60.63 59.56 58.77 54.48 54.09 52.64 52.62 50.18 48.92 42.00 40.89 38.14
47.06 47.47 47.41 47.76 48.16 48.57 48.01 48.38 48.91 48.95 49.45 49.42 49.94 50.16 50.75 51.15 50.90 51.11 50.96 51.15 51.96 53.94 56.55 59.40 59.85 60.62 61.29 61.15 61.39 61.09 60.71 60.25 59.30 58.62 57.77 54.21 49.98 48.03 48.49 48.84 42.67 38.61 36.41
46.48 45.89 46.15 46.87 46.25 45.61 46.11 46.61 46.92 47.64 48.31 48.66 48.90 49.23 49.63 49.71 49.78 50.42 51.34 51.99 52.39 54.01 53.68 54.47 55.37 58.19 59.22 59.50 59.39 59.43 59.06 57.95 57.70 57.30 55.13 47.63 44.57 44.88 44.63 44.55 44.32 44.21 36.02
46.13 45.68 45.74 45.08 45.08 45.27 45.51 45.82 46.26 46.28 46.97 47.83 48.37 49.30 49.03 49.57 49.59 49.50 49.08 49.31 49.80 51.06 51.10 51.22 51.87 52.90 53.44 55.82 56.41 55.84 54.94 54.18 49.66 47.69 45.07 43.16 41.33 40.27 40.68 40.86 41.39 41.37 39.40
44.48 44.50 44.34 44.31 44.89 44.64 44.30 43.91 43.87 43.98 44.17 45.50 46.49 45.93 45.36 46.35 45.69 44.27 44.47 44.66 46.29 47.30 48.16 49.95 51.11 50.55 50.30 50.71 50.68 49.64 49.40 45.72 42.97 42.54 41.35 40.36 40.84 39.28 39.05 40.30 40.12 38.61 38.18
44.15 43.95 43.46 43.19 42.90 42.79 42.63 42.10 41.98 41.79 42.36 43.48 43.14 42.36 42.09 41.92 41.09 40.44 40.15 40.18 39.10 39.95 39.97 41.02 41.37 42.20 42.41 43.09 43.17 42.17 41.67 42.08 39.98 39.36 39.08 38.21 38.66 38.35 38.98 38.37 37.87 36.86 36.37
43.47 42.90 42.25 41.74 41.33 41.35 41.54 41.24 40.51 40.45 41.41 41.71 40.94 40.30 39.59 38.63 38.02 38.19 38.79 38.98 37.98 37.44 37.93 38.36 38.36 38.32 38.70 38.32 38.41 38.38 37.97 37.91 38.02 37.85 37.90 37.48 38.00 37.24 37.51 36.49 34.72 34.50 34.73
42.86 41.58 40.80 40.43 40.30 40.55 40.77 40.38 39.91 40.15 40.39 40.48 39.50 38.54 37.98 37.88 37.97 38.73 39.90 39.52 38.68 36.72 37.53 37.93 37.58 38.01 38.15 38.01 37.88 37.65 37.06 36.90 36.76 36.96 36.94 36.80 36.38 35.78 34.25 33.98 33.21 33.79 33.30
40.96 40.14 40.10 38.90 39.35 39.40 39.80 39.99 39.75 39.44 39.51 38.72 38.09 37.70 38.07 39.45 39.28 39.58 39.49 38.93 38.59 38.66 37.89 38.62 38.56 38.76 38.46 37.61 36.44 36.25 35.44 34.74 34.33 35.12 35.91 36.22 37.41 37.70 36.81 34.96 33.91 33.10 31.79
39.58 38.75 39.02 39.02 39.62 38.49 39.01 39.88 39.17 39.35 39.33 37.70 37.02 37.43 37.80 37.88 37.13 37.34 37.15 37.19 36.47 36.36 35.91 35.47 36.87 38.02 39.06 40.13 38.93 35.37 33.11 32.74 32.48 32.00 32.05 32.54 34.91 36.41 37.49 36.95 36.33 35.11 31.17
38.92 38.67 38.03 37.73 38.04 38.24 38.96 37.55 37.46 38.08 38.39 37.47 36.76 36.87 36.99 36.15 36.08 36.24 36.18 35.05 35.13 35.26 34.86 34.22 33.80 34.03 36.73 39.18 38.34 36.20 32.48 31.98 31.85 31.83 32.01 31.90 32.69 32.13 31.40 32.48 33.34 33.50 34.26
38.68 37.50 37.17 37.28 37.84 38.19 38.03 37.87 38.09 37.49 37.09 36.14 35.94 36.45 36.26 35.32 35.31 35.23 34.85 34.44 34.44 33.89 33.46 32.82 33.14 33.79 35.51 36.91 36.41 35.20 31.61 31.68 31.80 31.74 31.54 30.82 30.42 30.71 31.68 31.03 30.26 29.91 29.93
38.27 37.03 36.24 36.53 37.12 38.52 37.95 37.22 37.57 36.66 36.05 35.24 35.09 35.41 34.67 34.96 34.67 33.34 32.79 32.46 32.56 32.45 32.10 32.82 29.11 28.79 30.35 35.39 35.11 32.42 29.97 29.53 28.81 29.92 30.05 30.17 29.68 32.99 33.67 30.22 28.86 28.13 27.71
37.54 36.16 35.81 36.03 36.54 37.20 36.78 36.77 35.97 35.52 35.31 35.51 35.45 35.69 35.69 34.56 33.11 32.78 32.67 32.96 32.62 30.29 29.21 30.82 29.65 33.84 29.02 35.30 35.03 31.44 27.72 26.30 27.10 27.27 28.07 32.00 31.05 33.06 33.24 28.15 25.37 23.86 23.91
37.25 37.23 35.90 34.44 35.39 36.17 35.88 34.59 34.81 34.54 35.93 36.60 36.35 35.67 34.91 33.72 33.73 32.78 28.81 26.90 27.99 28.30 26.78 26.97 27.18 27.95 29.37 29.86 34.52 34.11 27.74 26.82 26.26 25.70 24.62 26.28 31.29 31.16 30.71 30.46 24.46 25.08 26.94
36.92 37.26 35.14 34.88 35.74 37.13 36.11 34.50 34.36 36.14 36.51 35.98 35.31 34.15 34.46 34.50 33.35 29.05 28.54 27.01 26.07 24.54 23.91 23.79 23.33 24.51 27.24 32.26 32.15 32.70 31.93 31.12 25.64 24.68 24.33 25.39 30.17 29.36 29.22 27.59 30.20 31.11 30.35
36.30 36.71 34.76 35.38 36.11 36.92 36.13 34.40 35.26 36.45 36.34 34.45 32.56 30.36 29.93 29.62 29.54 26.62 25.72 24.82 24.91 23.50 22.57 22.12 21.69 22.20 25.24 24.98 31.26 31.99 31.48 30.54 26.53 26.02 27.85 29.01 28.53 28.81 27.38 29.25 30.05 29.53 23.63
36.69 36.00 34.62 34.25 34.84 36.81 36.75 36.25 36.44 36.24 35.01 31.62 27.88 27.24 26.59 26.82 26.60 26.56 25.50 23.86 23.15 22.62 21.75 22.07 21.62 21.50 23.10 24.22 25.22 26.24 24.64 29.59 27.23 27.69 24.67 26.82 27.37 28.45 27.38 26.82 25.81 24.57 23.52
37.25 35.72 34.29 35.03 35.31 36.92 36.44 36.58 36.37 35.16 31.27 28.31 27.24 26.74 26.68 25.31 24.60 25.88 25.87 23.48 24.95 25.99 22.46 22.21 22.84 21.86 21.82 25.57 28.97 28.17 26.39 25.01 27.03 26.14 22.53 21.25 22.06 22.33 23.08 23.29 23.60 23.68 23.83
36.73 35.02 35.23 35.97 35.59 36.38 36.23 36.05 35.54 33.24 29.03 27.31 26.20 25.53 24.99 25.05 24.96 24.91 25.61 32.19 30.94 30.92 30.49 29.88 26.89 26.17 28.67 29.87 29.68 29.51 29.40 29.31 28.75 23.00 20.17 19.73 20.75 21.31 22.39 22.66 22.83 23.41 25.95

GFSMW_sfc_wetblb_069.txt.gz
Wetbulb
47.27 47.13 46.71 46.49 47.48 47.97 47.84 48.90 51.07 52.00 53.72 56.40 63.73 63.85 64.69 63.05 63.74 65.56 65.96 65.92 66.17 64.47 63.11 63.53 62.49 61.76 61.12 60.69 61.78 60.95 59.29 58.19 55.73 53.29 51.79 48.18 47.84 47.97 48.94 49.17 49.27 52.03 54.52
44.95 46.06 47.03 46.93 47.42 47.94 48.32 48.18 48.42 49.24 50.78 52.16 53.00 63.61 64.90 64.55 65.66 65.46 65.22 65.33 64.89 65.24 64.70 62.60 62.88 61.99 60.27 59.48 60.77 60.20 58.18 58.78 56.34 54.09 49.35 47.32 46.58 47.42 47.58 47.59 49.11 48.65 50.04
44.70 45.26 46.96 48.20 48.69 48.79 49.17 49.78 48.38 48.60 49.31 50.16 51.61 51.95 61.57 62.54 62.50 62.66 62.78 64.33 64.71 64.62 64.34 63.63 62.32 61.51 61.18 59.75 58.71 60.81 59.92 59.11 56.32 55.22 50.92 46.70 44.99 44.47 45.60 47.10 47.64 47.55 47.16
45.45 46.74 47.35 48.23 49.08 49.18 49.91 50.26 50.43 49.21 49.78 49.42 49.44 49.23 49.56 51.80 58.39 61.96 63.34 63.70 64.11 64.00 63.71 63.35 63.35 62.14 61.73 61.54 62.11 61.91 61.72 59.78 57.91 55.19 56.22 53.20 49.61 44.85 42.83 44.40 47.37 47.24 46.40
45.66 46.61 47.84 49.79 50.60 50.71 49.98 49.69 50.05 49.96 49.86 48.41 48.06 47.86 47.73 48.79 50.40 51.84 55.90 61.14 63.06 63.91 63.65 63.30 62.06 60.72 60.68 60.32 60.09 59.58 60.10 60.83 60.46 57.54 55.34 53.36 53.14 49.26 43.10 42.24 45.27 46.96 46.08
45.90 47.28 48.46 49.70 49.81 50.00 50.06 49.71 49.90 49.88 50.00 49.76 49.44 48.00 46.47 46.83 47.49 48.44 50.48 53.83 56.96 58.92 61.14 62.11 61.61 61.13 62.05 61.43 60.77 61.64 61.00 60.64 60.64 60.61 57.36 54.71 54.31 52.64 47.36 44.67 43.72 44.81 43.19
45.68 46.42 47.22 47.64 48.20 47.66 47.67 49.45 48.68 48.52 48.70 48.85 48.74 49.01 49.16 48.74 47.63 48.20 48.26 49.20 51.11 53.29 54.09 58.31 59.40 59.56 60.19 61.42 61.48 60.94 60.76 60.72 59.91 59.85 57.55 56.35 54.40 54.54 52.04 48.78 43.97 42.23 39.78
45.51 46.37 46.26 46.08 45.46 45.60 45.68 46.16 46.35 46.62 47.58 47.91 48.02 48.41 48.64 49.02 49.28 49.29 49.68 49.90 50.27 51.13 52.23 53.64 55.43 56.95 59.80 60.58 60.37 59.37 60.06 60.22 58.80 58.48 57.93 55.37 55.18 52.52 51.59 50.08 46.02 41.01 38.94
45.30 44.83 45.07 44.25 43.88 44.23 44.63 44.77 45.27 45.74 46.55 47.09 47.36 47.72 48.20 48.32 48.15 47.97 48.19 48.50 48.93 51.25 50.13 50.71 50.96 52.27 52.73 54.13 56.52 57.49 57.92 57.56 57.64 56.75 55.93 51.89 47.53 47.20 48.11 48.00 47.80 48.84 38.85
44.00 43.59 43.34 43.25 43.61 43.84 43.59 43.27 43.77 43.40 44.08 45.19 45.28 44.55 44.47 44.35 43.64 42.98 41.96 42.90 43.85 45.14 46.08 48.22 48.82 48.56 48.82 49.12 49.92 50.20 51.51 53.73 48.90 47.49 46.05 43.73 42.25 42.55 43.47 43.99 44.57 43.97 42.82
42.31 42.53 42.03 42.79 42.97 42.30 41.77 41.17 41.24 41.55 41.91 42.57 41.63 40.78 40.82 40.88 40.26 39.27 38.66 38.38 38.64 39.14 39.82 41.67 42.11 41.74 42.26 43.46 45.12 45.38 45.29 44.81 43.22 42.65 41.67 40.41 40.95 39.98 40.14 40.74 42.14 40.26 39.89
42.85 42.18 41.51 41.44 40.90 40.48 40.40 39.69 39.85 39.96 40.59 41.13 40.25 39.30 38.92 38.53 37.73 37.67 37.90 37.60 36.58 37.29 37.29 37.58 37.47 37.52 37.73 37.74 39.21 40.05 41.47 40.72 39.99 39.70 39.48 38.87 39.78 39.17 39.92 39.36 38.40 38.15 37.00
42.81 41.88 40.94 40.27 39.88 39.82 39.83 39.01 39.10 38.82 39.72 39.51 38.51 37.81 37.58 37.21 36.96 37.18 37.62 37.58 36.31 36.07 36.62 36.72 36.60 36.57 36.94 36.97 37.86 38.50 38.23 37.88 37.97 38.31 38.22 38.22 38.24 37.24 36.68 36.30 36.05 36.16 35.94
42.46 40.93 39.65 39.03 38.78 39.57 39.27 38.65 38.24 38.43 38.89 38.77 37.70 37.16 37.20 38.73 38.24 37.85 37.66 38.67 37.20 36.43 36.62 37.59 37.77 37.39 36.48 36.91 36.72 36.74 36.37 36.36 36.50 36.80 36.79 36.44 35.99 35.06 34.64 34.25 34.33 34.68 34.08
40.08 40.28 38.98 37.98 38.10 38.51 38.39 38.41 38.22 38.19 37.90 37.14 36.68 36.28 36.91 38.41 38.70 38.19 38.03 37.80 37.33 37.74 37.93 38.00 38.12 38.15 36.64 36.47 34.79 35.57 35.23 34.84 34.05 34.26 36.03 37.02 38.03 38.68 37.28 34.65 33.95 33.47 31.96
39.06 38.73 38.70 38.41 38.20 37.71 38.14 38.23 37.62 37.28 36.95 35.81 35.48 36.20 37.62 37.43 36.92 36.89 36.91 36.77 36.62 36.14 35.92 36.14 37.31 38.02 38.09 39.58 38.60 35.36 33.50 33.25 32.76 32.18 32.54 33.54 33.93 35.36 38.04 37.55 36.19 35.12 32.36
38.36 37.38 37.31 37.48 37.26 37.66 37.50 35.76 35.93 36.61 36.19 35.72 35.62 37.07 36.75 36.38 36.24 36.50 36.01 35.41 34.90 34.74 34.34 34.87 35.29 35.56 37.57 39.27 38.23 35.91 30.76 30.91 31.55 31.58 31.65 31.45 32.60 32.35 31.96 33.17 33.58 33.55 34.59
38.19 37.22 36.24 36.81 37.24 37.13 36.77 36.23 36.65 37.39 36.97 36.16 36.10 36.71 36.22 35.34 35.86 35.37 34.33 33.94 33.32 32.21 32.74 32.29 31.38 30.83 34.66 36.57 36.18 34.78 24.44 24.96 27.79 28.84 28.54 27.84 28.17 29.66 31.13 30.45 29.82 29.63 29.28
37.39 36.38 36.16 36.01 35.82 36.17 36.31 35.69 35.66 36.62 35.84 35.25 35.37 35.03 35.58 35.20 34.69 33.34 32.61 32.57 32.28 31.91 31.65 26.17 25.85 26.91 29.28 35.41 34.90 31.09 27.60 26.62 26.26 26.98 27.92 28.01 27.95 33.58 34.34 28.19 26.09 26.17 25.63
36.25 34.93 35.00 34.89 34.73 34.87 35.72 34.82 34.28 35.57 34.70 34.85 35.02 35.38 35.87 35.02 33.61 32.85 32.44 32.23 25.72 30.00 31.86 31.75 26.24 33.15 27.46 35.51 35.06 29.56 25.58 23.55 25.19 24.65 25.83 32.09 29.95 32.58 32.36 26.11 24.03 22.59 23.07
35.41 35.19 34.70 33.51 33.85 34.64 34.13 33.00 35.16 35.03 36.28 36.65 36.34 35.73 35.19 33.96 32.87 32.02 26.29 24.02 25.88 25.88 25.18 25.47 25.60 26.57 28.28 29.18 34.10 33.24 26.97 26.01 25.53 24.84 23.77 25.90 31.48 30.97 30.37 30.07 24.02 24.72 26.17
35.99 35.31 33.73 33.54 34.60 35.06 34.71 34.91 34.46 36.24 36.47 36.17 35.31 33.65 32.10 33.68 32.13 28.53 28.28 27.49 24.93 23.23 22.46 22.05 21.87 24.26 25.62 31.53 32.04 32.58 31.74 30.31 25.13 24.52 24.25 24.85 30.18 29.61 29.59 27.62 30.23 31.17 29.48
35.69 35.37 33.80 33.12 34.18 36.59 36.19 34.87 35.45 36.47 35.83 35.27 33.36 32.48 31.88 29.88 28.55 25.40 24.10 23.12 22.62 21.48 20.56 20.87 20.89 21.64 24.51 23.81 32.03 32.71 32.41 31.04 26.16 26.11 28.34 29.69 28.75 28.62 26.54 29.52 30.50 29.19 23.20
36.54 34.71 33.63 32.71 34.85 36.03 35.88 36.37 36.50 36.72 35.56 32.40 30.13 27.64 26.88 26.19 25.83 24.81 24.09 22.27 21.36 20.71 20.81 21.38 20.93 20.49 22.23 23.82 24.63 25.72 24.07 28.46 26.91 27.61 23.85 27.12 27.59 28.58 27.65 26.53 25.32 24.24 23.18
36.39 35.06 33.61 33.76 35.03 36.25 35.78 36.68 36.74 34.61 32.60 28.68 25.49 25.90 26.48 24.79 24.16 25.21 22.67 23.07 23.87 23.57 21.71 22.00 22.55 21.41 21.38 24.95 28.65 28.02 26.50 24.88 27.13 26.03 22.92 21.19 21.80 22.12 22.77 23.02 23.23 23.56 23.93
36.10 34.55 33.86 34.19 35.56 36.43 35.94 36.06 36.15 34.06 30.05 25.14 24.33 24.42 23.58 23.28 23.66 25.07 24.88 31.67 31.00 31.43 31.04 30.55 26.49 26.18 28.86 30.02 29.78 29.58 29.50 29.50 29.36 23.14 20.05 18.92 20.36 20.87 22.03 22.20 22.38 22.69 25.28

GFSMW_sfc_wetblb_072.txt.gz
Wetbulb
44.28 45.81 44.75 44.70 45.97 47.39 47.50 47.58 49.41 49.78 58.43 63.13 62.99 62.62 63.02 63.37 62.77 63.81 65.60 66.14 65.96 64.41 62.63 61.61 61.25 60.63 60.38 61.08 61.08 59.79 58.70 58.41 55.74 54.06 52.81 51.53 50.78 48.21 48.43 48.38 50.09 56.18 56.69
43.86 44.50 44.92 46.12 47.34 47.28 47.62 47.31 47.34 48.01 49.25 51.10 53.21 63.31 63.19 63.24 63.94 63.92 63.93 63.91 64.14 64.29 64.28 62.55 61.93 61.31 60.12 59.25 59.13 59.33 57.41 58.59 56.38 54.15 50.70 50.82 50.92 48.79 48.09 47.32 48.60 49.46 55.14
43.54 44.45 45.85 46.95 47.25 47.27 47.67 48.79 48.49 47.27 48.22 48.96 49.98 50.64 60.36 61.42 61.84 61.43 62.05 63.87 64.25 64.08 63.74 63.63 62.67 61.15 60.25 59.90 59.08 59.53 58.43 58.77 55.75 55.00 53.86 47.12 47.44 45.60 46.51 46.46 47.16 47.64 47.49
43.44 44.91 46.11 47.27 47.85 48.13 48.49 48.74 48.77 47.90 47.89 47.54 47.76 47.88 48.70 51.47 57.10 58.54 60.73 62.35 62.71 63.00 62.84 62.68 62.42 62.18 60.64 60.54 60.16 58.94 59.30 58.27 58.28 56.14 57.12 54.24 51.57 47.48 45.80 44.88 47.54 48.58 49.20
44.12 45.38 46.94 49.18 49.78 49.27 48.43 48.22 49.02 49.18 48.97 48.35 46.57 46.38 46.39 47.56 48.73 49.17 51.09 54.41 58.52 61.67 62.45 62.07 61.13 60.44 59.99 59.43 59.22 58.69 58.23 58.49 59.02 55.76 53.84 55.07 53.89 51.28 47.73 49.24 46.11 48.53 48.84
44.21 45.85 47.84 49.32 48.89 48.34 48.07 48.09 48.37 48.04 48.22 48.28 48.28 47.60 45.31 45.18 46.20 46.69 47.30 48.83 52.69 54.37 54.66 58.06 60.01 59.95 59.20 59.13 59.47 60.84 58.86 57.86 59.09 59.27 58.19 55.75 52.49 52.17 51.03 47.16 44.42 45.46 45.77
43.89 45.28 46.21 46.97 46.81 46.10 46.34 47.74 46.87 46.84 47.53 47.51 48.10 48.20 48.05 48.05 47.75 48.07 48.49 48.91 49.69 50.34 51.23 53.99 56.18 57.30 58.07 58.95 59.42 60.37 59.85 58.82 59.10 59.55 59.48 57.71 56.89 55.83 53.26 51.82 47.45 44.66 42.70
44.52 45.35 45.22 45.27 44.46 44.72 44.64 44.98 45.52 46.05 46.51 46.62 47.33 47.50 47.84 47.97 48.04 47.68 47.84 47.67 48.33 49.28 49.85 50.63 52.02 52.77 53.78 54.60 55.63 56.55 56.01 57.26 55.61 56.09 55.41 55.18 56.02 55.12 54.87 52.31 49.12 41.62 40.05
44.53 43.86 44.40 43.40 43.35 43.58 43.53 43.91 44.40 44.48 45.31 46.24 45.67 44.69 45.20 44.88 43.72 42.96 43.85 44.96 44.46 47.64 47.27 48.54 48.72 49.23 49.47 50.06 51.01 51.29 50.65 51.49 53.74 52.35 51.68 51.01 47.16 47.31 48.03 48.30 48.19 48.39 43.29
43.42 43.50 42.66 42.43 42.74 42.76 41.75 42.01 42.28 42.11 42.88 42.61 42.27 41.69 40.75 40.17 39.47 38.85 38.04 38.46 38.73 39.96 41.82 42.95 42.77 42.84 43.44 45.00 46.09 45.97 48.20 49.44 46.44 45.87 44.24 44.00 42.75 42.87 43.54 44.20 44.65 44.27 43.37
42.32 42.32 41.90 42.27 42.06 41.16 40.32 39.98 40.26 40.91 41.05 40.78 39.66 38.71 38.54 38.34 37.96 37.43 36.86 36.61 36.97 37.38 37.58 38.14 38.11 38.07 38.00 39.21 40.91 41.57 42.22 43.29 42.51 42.24 41.52 40.55 41.15 40.61 40.82 41.31 41.52 40.98 40.46
42.70 41.98 41.46 41.26 40.13 39.60 39.09 38.84 39.14 39.61 39.76 39.36 38.26 37.57 37.65 37.41 36.72 36.43 36.33 36.40 35.77 36.69 36.33 36.74 36.49 36.41 36.69 36.79 37.17 37.59 38.15 39.91 39.51 39.73 39.68 39.24 40.10 38.99 39.08 38.62 37.76 37.33 37.45
42.15 40.95 39.95 39.40 38.93 38.70 38.11 38.01 38.14 38.30 38.63 38.27 37.53 37.17 36.99 36.83 36.48 36.65 37.19 37.24 36.33 36.29 36.61 36.58 36.03 36.04 36.34 36.10 36.21 36.44 36.70 37.79 38.02 38.31 38.08 37.99 37.91 36.84 36.68 36.27 35.43 35.03 36.04
42.53 40.86 39.37 38.74 38.46 38.46 37.81 37.35 37.20 37.70 37.72 37.40 36.83 36.36 37.73 39.01 38.48 37.21 38.05 37.23 36.67 35.92 35.99 36.34 36.01 35.61 35.24 35.57 35.82 36.80 35.64 36.65 36.80 36.91 36.79 36.39 35.86 35.02 34.31 34.41 34.43 34.54 33.47
40.58 39.81 38.74 37.93 38.24 37.85 37.63 37.34 37.18 36.98 36.91 36.56 36.01 35.85 38.01 38.35 38.09 37.77 37.53 37.44 37.06 37.03 37.78 38.36 37.31 36.61 36.05 35.69 33.56 34.07 34.27 34.44 34.17 34.18 35.66 37.52 38.67 39.30 37.61 34.83 33.69 33.32 32.38
39.35 39.29 38.67 37.64 37.83 37.58 37.61 37.68 36.88 36.33 36.28 35.36 35.14 36.04 37.51 37.19 37.01 37.09 37.05 36.58 35.96 36.07 36.43 36.82 37.71 37.27 38.16 39.04 38.31 34.00 31.44 31.17 31.49 32.08 32.91 33.52 33.73 35.10 37.98 37.51 36.91 35.70 32.68
38.53 37.87 37.71 37.77 37.33 37.40 37.07 35.87 35.74 35.81 35.07 34.80 35.47 37.06 37.08 36.37 36.29 36.32 35.63 34.91 34.49 34.91 34.91 35.50 36.14 35.79 36.56 38.92 37.94 35.59 28.68 28.20 26.58 26.19 27.14 30.02 31.98 32.13 30.55 32.20 34.10 34.01 35.31
39.36 37.27 36.38 37.14 37.39 36.90 36.19 35.81 36.15 36.30 37.05 36.46 36.66 36.92 36.07 36.05 35.92 34.97 34.23 33.46 33.18 33.22 32.11 29.43 26.46 26.43 33.03 36.18 35.45 33.88 22.60 23.22 25.05 26.03 25.73 25.56 26.47 28.77 29.41 28.51 27.70 27.47 27.61
38.43 36.73 36.56 36.84 35.88 35.88 35.77 35.45 35.47 36.56 36.07 35.65 35.62 35.71 35.98 35.29 34.60 33.20 32.80 32.44 31.81 25.64 23.71 21.99 24.11 25.85 28.36 35.31 34.24 29.85 25.58 25.03 24.58 26.55 26.71 26.94 26.79 33.83 33.93 27.02 25.30 24.45 24.74
36.20 35.08 35.04 34.98 35.04 35.44 35.57 34.83 34.39 35.56 35.00 35.32 35.12 35.78 36.16 35.07 33.66 32.86 32.51 32.00 31.64 28.70 26.51 25.38 25.10 32.64 27.02 35.18 33.73 28.36 25.33 23.07 24.88 24.26 25.19 32.20 29.88 32.48 32.06 25.78 23.83 22.55 23.05
35.15 35.34 34.95 34.28 34.32 35.40 34.87 32.92 33.31 35.09 35.82 36.17 36.13 35.86 35.23 34.27 33.41 32.53 26.25 22.41 23.61 25.52 24.22 25.03 24.46 25.55 27.46 28.02 33.77 32.82 27.02 25.67 25.20 24.63 23.92 25.81 31.85 31.25 30.52 30.02 23.88 24.72 25.78
35.43 35.08 33.67 33.18 34.12 34.36 33.98 32.66 33.74 36.64 36.84 36.38 35.57 34.81 34.60 34.27 32.46 28.61 28.04 26.63 24.20 22.93 21.54 21.56 21.96 23.71 24.13 31.28 32.02 32.65 31.33 29.81 25.21 24.52 24.04 24.55 30.08 29.89 29.97 27.78 30.38 31.28 28.05
36.01 34.45 33.39 32.74 33.02 34.05 34.06 34.47 35.82 36.51 36.17 35.43 34.09 32.46 31.62 31.23 29.86 27.45 26.09 23.52 22.35 21.03 20.16 20.31 20.37 21.34 24.22 23.62 32.18 32.10 31.93 31.64 25.91 26.12 28.15 30.62 29.55 28.85 26.53 29.27 30.65 28.89 23.10
36.10 35.40 32.98 32.02 31.91 33.46 35.42 36.52 36.55 36.57 35.59 34.69 30.87 30.47 28.61 26.66 25.90 26.00 25.66 22.94 20.82 19.56 20.13 20.43 20.91 20.31 21.97 23.55 24.50 26.01 24.10 28.07 27.09 27.79 23.92 26.58 27.43 28.25 27.07 25.96 24.87 23.94 22.99
36.84 35.67 33.49 32.93 33.39 34.75 35.64 36.83 36.93 36.51 34.22 32.97 29.31 25.56 24.90 25.74 23.23 23.58 22.91 23.11 22.29 22.04 20.34 21.03 21.84 21.09 21.13 24.53 28.62 28.12 26.61 25.00 27.27 26.33 22.22 20.68 21.48 21.91 22.52 22.82 23.04 23.39 23.74
35.50 34.20 33.65 33.77 33.86 35.17 35.66 36.52 36.92 35.61 32.02 28.66 24.63 23.29 22.95 21.99 23.10 25.22 24.66 30.47 30.57 32.64 31.75 30.46 25.88 25.63 28.61 30.47 30.68 30.26 30.18 30.25 30.23 23.27 19.93 18.41 19.62 20.25 21.48 21.71 21.83 22.07 24.07

GFSMW_sfc_wetblb_075.txt.gz
Wetbulb
44.98 45.17 44.62 44.65 45.69 46.16 46.74 47.51 51.14 51.17 60.29 63.10 62.69 62.08 62.63 62.81 63.49 64.27 65.39 65.48 64.51 62.29 61.01 60.96 60.48 59.99 59.23 59.95 59.43 58.80 58.37 57.94 55.84 54.16 53.41 52.09 52.57 52.59 52.31 51.21 49.16 52.80 56.22
43.42 43.20 45.17 45.56 46.43 46.18 46.10 46.13 46.80 47.51 48.81 53.10 58.23 63.01 62.80 62.89 63.00 62.90 63.23 63.89 63.89 63.74 63.12 61.82 61.34 60.75 59.92 59.23 58.74 58.52 56.93 57.45 55.92 54.98 50.77 53.28 52.39 49.08 51.53 48.20 49.03 48.71 54.33
42.90 43.67 44.94 45.63 46.28 46.46 46.79 47.51 47.16 46.61 47.09 47.88 49.12 50.60 59.33 61.15 61.96 61.64 61.68 62.68 63.45 63.62 63.53 63.14 62.79 61.77 60.02 59.74 58.49 57.66 57.44 58.23 54.97 54.87 55.04 47.60 48.23 47.17 48.25 46.45 46.36 47.03 48.14
42.10 44.22 45.58 46.40 46.54 47.09 47.61 47.99 47.54 47.19 47.20 46.56 46.81 46.87 48.54 56.84 56.74 55.50 56.47 55.16 60.12 61.74 62.19 62.17 61.83 61.49 60.28 59.42 59.36 58.45 57.92 56.63 57.41 53.76 55.45 54.21 50.50 49.73 48.99 46.83 46.40 47.04 47.21
42.67 44.26 45.72 47.71 48.50 48.32 47.53 47.50 48.21 48.27 48.19 47.94 46.12 45.75 45.89 46.80 47.63 47.95 48.75 50.63 54.26 55.87 57.74 60.12 60.35 59.97 59.55 59.04 58.85 57.80 56.84 57.69 58.10 57.49 55.81 55.60 54.00 50.94 50.02 51.68 50.63 48.13 48.27
42.91 44.41 47.15 48.27 47.31 47.16 47.42 46.97 47.06 46.96 47.79 48.51 48.30 46.70 45.45 45.64 46.94 47.62 47.23 48.02 50.65 51.80 52.14 55.71 57.54 58.44 58.35 58.35 58.23 57.97 57.35 56.88 57.78 59.12 58.15 56.70 54.51 52.88 50.30 48.83 51.27 47.36 47.53
42.38 44.32 46.08 46.34 45.83 45.41 45.24 46.19 46.30 45.93 46.68 47.46 47.42 47.36 47.17 47.06 46.94 47.17 47.44 47.93 48.90 49.03 49.26 51.09 52.69 54.48 56.19 57.06 57.54 57.09 57.17 56.92 57.61 58.19 57.73 56.76 55.95 56.51 54.05 52.57 51.03 46.65 44.86
42.41 44.28 45.41 44.96 44.19 44.22 43.85 44.37 44.85 44.97 45.70 46.64 46.37 46.47 46.87 46.52 45.85 45.28 45.87 45.21 46.20 47.05 47.66 48.79 49.51 49.88 50.82 52.77 53.80 53.30 53.60 52.47 54.23 55.07 55.04 55.72 55.09 54.24 53.80 52.24 49.74 44.62 42.56
43.46 44.28 44.33 43.35 42.92 42.83 42.74 43.30 43.31 43.82 44.90 43.87 42.79 41.11 41.04 40.79 39.98 39.67 40.35 40.33 39.87 44.05 44.12 44.73 44.64 44.86 45.64 47.35 48.73 48.98 49.45 51.12 50.42 49.26 49.12 48.69 46.49 46.45 46.95 48.07 48.92 48.45 45.38
43.35 43.33 42.39 42.22 42.05 41.77 41.07 41.12 41.55 41.73 41.26 40.79 40.74 39.57 38.78 38.56 38.05 37.55 36.83 37.12 37.42 38.23 39.21 39.65 39.47 39.47 40.23 42.46 43.44 43.48 47.10 47.61 45.83 45.41 44.36 43.40 42.51 41.60 43.23 43.82 44.34 44.34 43.72
42.97 41.98 41.25 41.86 41.85 40.47 39.63 39.37 40.14 40.41 39.62 39.03 38.19 37.57 37.33 37.31 36.91 36.26 35.95 35.96 36.32 36.59 36.89 37.24 37.21 37.29 37.51 38.45 39.33 39.68 43.04 43.16 42.24 41.81 40.78 40.56 41.03 40.86 41.10 41.50 41.37 40.44 40.11
42.29 41.51 40.95 40.67 39.92 39.25 38.61 38.38 39.02 39.17 38.71 38.19 37.47 37.13 37.23 36.87 36.11 35.87 35.81 35.83 35.44 36.20 36.07 36.31 36.17 36.07 36.41 36.29 36.50 36.56 38.35 39.49 39.39 39.70 39.80 39.49 40.25 38.94 39.01 38.79 37.69 37.37 37.38
42.15 41.05 40.57 39.62 38.95 38.38 37.82 37.78 38.05 37.81 37.68 37.40 36.90 36.93 36.69 35.98 35.27 35.68 36.30 36.24 35.63 35.50 35.81 35.67 35.19 35.31 35.55 35.35 35.14 35.24 36.03 37.62 37.61 38.04 37.78 37.58 37.66 36.39 35.50 35.26 32.98 33.69 36.08
42.31 40.83 39.59 39.18 38.60 38.17 37.38 37.14 37.02 37.42 37.26 37.05 36.51 36.02 37.58 38.19 37.82 38.16 37.29 37.13 36.36 36.13 35.76 35.50 35.17 34.69 33.98 34.51 34.83 35.65 35.74 35.84 36.28 37.06 37.00 36.48 35.76 34.59 31.50 33.32 33.75 33.97 34.03
40.60 40.41 39.30 38.36 38.19 37.60 36.93 36.87 36.46 36.34 36.48 35.79 35.21 35.11 38.12 38.38 38.17 37.64 37.44 37.28 37.33 37.63 38.15 37.64 36.83 36.08 35.68 35.37 32.75 34.57 34.88 34.78 34.37 34.53 35.26 36.92 38.78 39.17 36.48 33.21 31.94 31.51 30.54
40.93 40.22 39.55 38.38 37.86 37.18 37.33 37.30 36.51 36.25 36.25 35.17 34.98 36.31 37.64 37.48 37.17 37.23 36.62 36.22 36.10 36.60 37.12 37.34 37.78 37.80 38.54 39.15 38.00 32.82 29.81 30.21 31.87 30.22 29.02 31.01 31.64 33.46 37.42 37.38 37.14 35.82 32.47
40.84 39.74 39.52 38.64 37.85 37.74 37.88 36.77 35.89 35.67 35.07 34.79 35.19 37.04 37.13 36.42 36.31 36.05 35.51 35.06 34.41 35.35 34.95 34.97 34.75 34.85 36.95 38.65 37.35 34.74 26.77 25.23 22.63 22.58 24.40 28.26 29.92 29.80 28.24 32.82 33.82 33.80 35.36
40.28 39.12 38.33 37.64 37.54 37.32 36.80 36.25 35.88 35.43 35.27 35.09 36.36 36.93 36.49 36.18 35.67 34.94 34.11 33.42 33.65 32.14 30.61 26.78 25.49 25.89 32.55 35.80 34.94 32.84 19.49 20.44 23.61 24.87 24.82 25.68 26.50 29.72 28.30 26.89 26.75 26.50 25.77
40.73 38.89 37.40 37.42 36.78 36.34 35.73 35.45 35.14 35.41 35.23 35.86 36.42 36.14 36.35 35.44 34.59 33.36 32.59 32.22 27.14 22.98 21.57 20.70 23.98 25.36 28.18 34.78 33.99 28.49 24.15 24.06 24.19 25.37 25.97 26.79 26.66 33.51 33.29 26.64 25.27 24.02 24.57
37.91 36.30 35.94 35.82 35.74 35.00 35.24 34.52 33.77 34.20 35.42 35.68 35.78 36.17 36.31 35.20 33.56 32.92 32.33 31.27 25.42 21.69 23.05 24.71 23.90 32.22 26.22 34.61 33.27 28.02 25.05 22.59 24.83 23.80 24.73 31.92 29.79 32.57 31.92 25.13 23.47 22.46 22.90
35.31 35.08 35.11 35.03 35.25 34.85 34.55 32.94 32.79 33.30 35.98 36.24 35.99 36.13 35.85 34.54 33.47 32.40 30.25 30.33 29.58 29.81 24.15 24.26 23.30 24.48 26.92 26.75 33.68 32.58 26.26 25.48 25.09 24.72 24.05 25.50 31.13 31.15 30.79 30.16 23.68 24.91 25.95
35.18 35.17 33.44 33.06 33.85 34.56 34.03 32.28 32.34 34.94 36.44 36.09 35.66 34.90 34.52 34.59 33.46 31.42 27.50 25.67 24.16 22.60 21.52 21.66 22.27 23.47 23.28 30.72 31.62 32.99 31.30 29.76 25.27 24.25 23.99 24.56 30.54 29.98 30.33 28.14 30.41 31.55 27.45
36.28 35.77 33.67 33.00 33.21 34.05 34.27 32.79 35.21 36.61 36.28 35.77 34.86 34.42 34.07 33.08 31.37 27.55 26.30 24.47 22.12 21.07 20.11 20.34 20.19 21.76 24.73 23.18 31.85 31.76 31.63 31.33 25.90 26.14 28.04 30.43 30.32 29.31 26.75 29.13 30.71 28.49 22.95
35.79 35.35 34.16 32.69 31.98 33.02 34.04 34.29 36.48 36.88 36.05 34.86 33.64 32.64 31.63 28.66 26.96 26.39 25.94 23.54 21.00 20.38 20.95 21.27 21.56 20.65 21.86 23.20 23.99 25.98 24.24 28.08 27.25 27.84 23.87 26.76 27.56 28.32 27.08 25.56 24.78 23.80 22.80
36.07 35.65 34.45 33.71 33.09 33.12 33.42 34.70 36.75 36.45 34.89 34.37 32.55 29.95 28.84 28.76 23.94 23.06 21.97 22.15 21.07 22.06 20.53 20.89 21.82 20.59 20.41 24.05 27.69 27.73 26.41 24.89 27.40 26.12 21.88 20.23 20.97 21.53 22.06 22.42 22.59 22.86 23.19
35.92 34.68 34.25 33.70 34.03 34.17 33.68 36.19 37.05 36.20 34.39 33.42 31.09 27.80 24.55 23.50 22.06 21.66 23.05 29.98 29.57 32.03 32.34 30.63 25.60 25.14 28.86 30.07 31.54 31.74 30.93 30.64 30.67 23.41 20.32 17.94 18.89 19.77 21.00 21.26 21.42 21.58 22.91

GFSMW_sfc_wetblb_078.txt.gz
Wetbulb
45.30 44.47 44.39 43.95 46.72 46.37 47.93 50.92 60.67 60.81 63.19 62.70 62.07 61.72 61.79 62.19 62.97 63.89 64.70 64.26 62.07 61.40 61.34 60.98 59.92 58.84 58.31 58.67 57.72 57.33 56.87 56.79 55.75 54.84 55.13 53.72 53.85 53.59 54.23 54.34 50.65 49.98 52.41
41.76 42.23 43.36 42.68 46.24 46.12 45.98 46.36 47.46 48.07 50.74 57.87 60.95 62.10 61.93 62.19 62.52 62.40 62.79 63.34 63.93 63.64 62.08 60.47 60.03 59.64 58.99 58.27 57.98 57.64 56.15 56.74 55.52 57.16 54.11 54.61 55.64 51.06 51.36 50.50 49.81 48.75 50.72
42.68 41.89 43.34 44.26 45.56 46.37 46.63 47.29 46.42 46.31 46.61 47.15 48.71 50.33 57.93 59.92 60.53 61.79 60.93 61.54 62.36 62.79 62.93 63.08 62.39 61.17 59.75 59.39 58.41 57.30 57.34 57.31 54.58 55.43 57.14 51.70 51.07 49.01 50.01 47.75 46.98 47.12 46.65
41.05 42.23 43.67 44.50 45.40 46.41 47.12 47.14 47.25 47.31 47.09 46.21 46.50 46.44 48.28 53.97 55.26 53.44 52.61 52.65 55.63 58.26 60.48 61.43 61.61 61.41 60.23 59.41 59.05 58.01 56.98 56.82 58.02 55.58 56.79 55.96 53.67 52.04 51.27 50.80 48.84 47.84 47.16
41.37 42.82 44.21 45.58 46.50 46.44 46.31 46.97 48.08 48.54 48.59 47.70 46.02 45.36 45.16 45.68 46.34 46.82 47.49 48.71 52.52 53.48 54.09 55.95 59.03 59.70 59.32 58.89 58.73 57.67 56.95 56.51 57.74 57.38 55.79 55.71 54.78 52.49 51.05 51.86 52.30 49.47 49.29
41.07 43.12 45.17 46.83 45.89 45.97 46.00 46.26 46.82 47.19 48.54 48.96 48.31 46.31 45.01 45.85 46.90 47.69 47.80 48.46 49.75 50.34 49.98 52.26 53.74 58.20 59.34 58.51 57.69 57.48 56.88 56.79 58.01 58.50 57.21 54.81 54.92 52.84 50.84 49.48 49.94 50.60 50.34
40.59 43.34 45.45 45.37 44.97 44.97 44.78 45.56 45.88 45.56 46.82 47.18 47.27 47.29 46.70 46.50 46.41 46.84 46.75 46.81 47.42 47.26 47.24 48.84 49.53 52.06 54.83 56.67 58.52 58.47 57.98 57.46 57.57 57.63 57.32 56.27 55.86 56.18 54.16 53.09 51.28 49.15 46.88
40.31 43.68 45.17 44.46 43.80 43.64 43.36 44.12 44.57 44.53 45.74 45.68 45.28 45.13 45.30 44.88 44.04 43.74 43.93 42.63 43.86 44.71 45.41 46.07 46.27 46.40 48.15 51.77 54.01 54.42 53.68 52.22 54.04 52.95 50.72 53.02 50.86 50.91 51.60 52.05 50.27 46.51 44.46
41.31 43.43 43.90 43.08 42.52 42.30 42.67 43.28 43.47 43.84 43.38 42.43 40.87 39.70 39.50 39.25 38.58 38.27 38.66 38.42 38.45 42.07 41.00 41.16 41.55 42.00 43.52 45.59 47.38 49.38 50.64 50.06 49.59 48.68 48.17 48.35 46.14 45.95 46.57 47.38 47.98 47.65 43.84
42.31 42.62 42.03 41.61 41.53 41.32 41.08 41.24 42.36 41.77 40.45 40.06 39.39 38.51 37.77 37.74 37.23 37.10 36.52 36.78 36.87 37.72 38.23 38.43 38.65 39.13 39.98 41.85 42.73 43.34 47.78 47.23 45.84 45.64 44.90 43.92 43.01 40.40 40.12 42.61 44.16 44.59 44.04
42.41 42.03 40.72 40.90 40.66 39.50 39.19 39.40 40.04 39.65 38.72 38.28 37.61 37.12 36.75 36.61 36.19 35.73 35.62 35.78 36.22 36.51 36.49 36.86 37.00 37.18 37.38 38.08 38.99 40.95 44.20 43.18 42.33 41.93 41.73 40.76 41.41 41.03 40.70 40.84 41.38 40.18 40.67
41.89 41.05 40.22 39.97 38.84 38.31 37.95 38.10 38.74 38.50 37.80 37.40 36.85 36.57 36.57 36.23 35.72 35.36 35.58 35.99 35.60 35.95 35.64 35.89 35.65 35.51 35.73 35.45 35.79 37.22 39.84 39.84 39.41 39.68 39.47 39.13 39.91 38.51 38.64 38.26 37.41 37.49 37.18
41.24 40.27 39.74 39.20 38.51 37.71 37.44 37.35 37.64 37.19 37.04 36.85 36.19 35.71 35.19 34.77 34.48 34.74 35.13 35.24 34.90 34.53 34.77 34.67 34.20 34.24 34.82 34.60 34.84 35.82 37.64 37.51 37.49 37.59 36.34 37.03 37.24 35.90 35.85 35.15 34.14 34.21 34.08
41.29 39.70 39.41 39.77 38.90 38.13 37.34 37.01 37.16 37.22 36.86 36.40 35.69 35.16 35.76 37.02 37.44 37.92 36.80 36.86 36.20 35.04 34.42 34.35 34.09 33.77 33.54 34.96 36.17 36.46 36.16 36.38 36.68 37.36 36.74 36.51 35.57 34.33 32.77 30.92 30.65 32.06 30.72
40.14 39.69 39.33 39.18 38.39 37.69 37.06 36.96 37.18 36.80 36.86 36.26 35.42 35.45 38.10 38.55 38.20 37.75 37.49 37.64 37.82 37.99 38.03 37.01 36.43 36.14 35.47 34.82 35.09 35.54 35.34 35.00 34.24 34.09 34.57 35.89 38.72 38.84 36.32 32.11 30.23 29.51 28.48
40.76 40.00 39.37 38.84 37.54 36.89 36.62 37.08 36.61 36.41 36.76 35.77 35.43 36.51 37.96 37.70 37.33 37.07 36.65 36.49 36.79 37.16 37.42 36.97 37.71 37.97 38.10 38.74 37.65 32.76 32.26 31.34 28.84 26.72 26.69 28.89 30.97 32.63 37.08 37.22 37.65 34.01 27.64
41.56 40.42 40.09 39.22 38.37 37.49 37.17 35.95 35.69 35.79 35.23 34.79 35.17 36.60 37.31 36.69 36.56 36.09 35.73 35.16 35.20 35.37 34.36 34.09 34.85 35.63 37.00 37.96 36.21 33.30 25.52 23.61 21.11 21.01 23.49 28.16 30.23 29.43 27.82 32.52 33.10 33.10 35.50
42.17 41.12 39.95 38.07 38.00 37.97 37.54 36.40 35.66 34.89 34.83 34.48 35.31 36.70 36.76 36.21 35.64 35.15 34.44 33.96 33.36 32.07 29.98 26.52 25.65 27.00 32.57 35.61 34.43 31.84 19.91 20.97 23.14 24.48 24.95 25.53 26.31 28.98 27.47 26.30 26.00 25.10 25.97
41.49 41.28 39.91 38.56 37.74 37.53 36.86 35.90 34.96 34.88 34.82 34.90 35.71 36.50 36.71 35.61 34.88 33.76 33.12 32.34 29.90 22.70 22.44 22.66 23.93 25.24 28.42 34.96 33.16 27.85 23.60 23.78 23.54 24.89 25.94 26.68 26.65 33.07 32.55 26.22 25.09 23.85 24.41
40.43 38.31 37.47 37.23 36.96 35.77 36.06 35.18 34.70 34.63 34.36 35.17 36.46 36.54 36.61 35.34 33.85 32.98 32.26 30.82 24.81 22.77 23.49 25.11 23.59 31.62 25.41 34.38 32.93 27.51 24.72 22.02 24.84 23.27 24.77 31.90 29.81 32.58 31.95 24.51 22.99 22.11 22.58
36.50 35.80 35.97 35.94 35.98 35.44 35.43 33.76 33.29 33.29 35.07 36.10 36.49 36.36 36.11 34.90 33.77 32.60 31.41 25.37 25.93 26.28 23.67 23.83 22.67 23.59 26.06 26.56 34.09 32.19 25.67 25.20 24.87 24.64 23.52 25.11 31.28 31.17 31.15 29.74 23.91 25.26 25.90
35.57 36.08 34.48 34.21 34.16 34.77 34.78 32.92 32.69 34.31 35.11 35.43 35.85 35.52 35.16 35.02 33.55 31.83 30.18 29.40 28.17 23.58 21.67 21.49 21.90 23.17 22.76 30.58 31.76 33.31 31.55 29.96 25.41 24.00 23.94 24.75 30.94 30.35 30.28 28.39 30.43 31.86 27.14
35.28 35.26 35.34 33.46 32.44 33.30 33.78 32.24 32.73 34.45 34.30 35.27 34.90 34.48 34.47 33.60 33.25 30.16 27.09 23.97 22.58 21.55 20.42 20.28 19.91 21.39 24.19 23.02 31.73 31.99 31.71 31.61 26.02 26.12 27.66 30.69 30.02 29.61 26.84 29.11 30.78 28.55 22.77
35.27 35.16 33.47 33.77 32.84 32.39 33.39 33.29 34.47 36.68 35.72 34.97 34.43 34.13 33.01 31.96 30.91 28.43 27.60 24.25 21.48 19.96 20.13 20.19 20.35 20.15 22.51 23.32 24.46 25.91 24.46 28.21 27.72 28.03 23.75 26.80 27.20 28.33 27.08 25.38 24.71 23.57 22.48
35.47 34.79 34.62 34.46 33.76 33.32 33.25 33.98 35.78 36.45 35.40 34.83 33.83 32.99 32.71 32.93 26.84 26.07 24.38 24.28 21.35 22.08 19.94 20.24 21.36 20.17 19.82 23.33 27.03 26.97 26.21 24.52 27.35 26.33 21.99 19.97 20.28 21.07 21.65 21.98 22.21 22.37 22.81
36.19 34.81 33.98 33.57 33.64 34.23 34.26 34.63 35.81 36.33 35.22 33.96 32.89 32.24 31.08 28.12 25.11 22.82 21.52 29.74 29.72 30.84 31.57 30.35 25.05 24.73 28.57 30.14 31.64 32.61 32.69 31.63 31.38 23.79 20.81 18.21 17.99 19.35 20.51 20.76 21.07 21.22 22.59

GFSMW_sfc_wetblb_081.txt.gz
Wetbulb
50.42 48.79 49.06 50.38 51.60 52.72 58.48 63.44 64.99 65.95 66.29 65.86 65.36 65.24 65.43 66.17 66.36 66.91 66.96 66.07 64.96 64.29 64.98 64.89 64.53 63.46 62.94 63.25 62.85 62.18 61.02 61.05 61.29 59.85 61.07 61.46 61.75 61.77 62.10 62.24 61.17 60.38 58.93
47.84 48.06 47.61 48.29 49.81 50.10 51.93 53.88 61.08 60.70 63.99 65.05 65.22 65.65 65.57 65.80 66.21 66.44 66.45 66.82 66.85 66.25 64.44 63.92 63.69 63.67 63.00 62.33 62.03 61.10 60.95 61.19 61.07 60.41 57.71 56.87 59.95 60.20 59.68 59.46 58.02 57.86 56.46
47.27 47.05 46.93 47.81 48.79 49.32 49.59 50.11 50.63 51.52 52.29 54.87 55.99 56.56 61.50 63.45 64.43 64.82 64.85 64.45 64.44 65.24 65.89 65.84 64.62 63.73 62.82 62.60 62.54 62.03 61.22 61.05 60.48 60.51 59.06 54.83 54.46 54.10 58.68 55.40 52.59 53.32 55.24
46.28 46.19 46.12 47.57 48.29 49.53 50.11 49.41 49.43 49.67 49.60 50.14 50.96 52.16 54.94 57.95 59.16 57.57 55.67 55.79 57.63 58.76 60.45 62.62 64.01 64.54 64.24 63.61 64.19 62.51 61.86 60.70 59.58 59.13 59.16 59.84 57.50 55.02 53.05 55.59 53.75 52.53 52.00
47.44 46.54 46.52 48.00 48.79 49.42 49.55 50.34 50.85 51.05 51.11 49.78 50.02 50.02 49.65 50.20 50.42 50.85 51.06 52.20 54.81 54.38 54.71 57.28 59.00 61.55 62.35 62.74 63.12 62.48 61.10 60.62 60.48 59.86 58.18 57.80 57.05 57.17 54.74 52.55 55.98 54.45 53.96
46.91 46.62 46.95 48.21 48.58 48.86 48.97 49.58 50.07 50.10 51.14 51.51 50.74 49.56 49.20 49.50 50.26 50.85 51.17 51.86 52.89 52.40 51.90 53.26 55.37 57.69 59.39 60.43 60.80 61.77 61.59 60.57 60.01 60.09 59.48 58.24 57.35 55.09 54.18 52.16 53.50 53.48 54.56
45.23 44.92 46.25 47.47 47.36 47.41 47.82 48.49 49.10 48.59 49.63 49.90 49.81 50.03 49.89 50.14 49.96 49.76 49.50 49.69 50.36 49.60 49.35 50.74 51.52 52.69 53.79 55.93 58.77 59.91 59.83 59.67 59.50 59.52 58.90 58.76 57.17 56.56 55.79 54.36 53.46 53.41 50.56
42.84 44.55 46.95 47.73 47.28 46.63 46.88 47.58 47.50 47.51 48.36 48.34 47.69 47.68 47.76 47.60 46.53 46.39 46.34 44.89 45.52 46.29 46.29 46.82 47.43 47.76 49.68 51.72 54.82 55.40 54.81 55.55 54.62 53.84 53.49 54.50 52.43 52.70 52.91 53.09 51.75 49.62 47.56
41.77 44.65 46.67 46.52 46.08 45.80 46.16 46.92 46.84 46.79 46.31 45.36 44.35 43.22 43.27 43.17 42.48 42.04 42.36 42.14 42.08 43.64 43.35 43.45 43.97 44.62 46.24 48.15 50.38 52.47 51.54 52.02 51.52 51.08 50.10 49.38 47.39 47.58 47.46 48.28 49.88 49.70 46.32
42.13 44.65 45.10 44.50 44.48 44.85 45.11 45.69 46.37 45.24 44.18 43.21 42.68 41.65 41.09 40.86 40.61 40.74 40.13 39.96 40.17 40.64 41.18 41.60 41.93 42.50 43.47 45.12 47.06 48.72 49.07 48.76 48.29 47.92 47.33 46.18 44.16 45.10 45.87 46.70 47.59 48.51 47.73
43.07 44.06 43.72 43.65 43.48 43.23 43.33 43.63 43.53 42.80 42.27 41.94 41.09 40.54 39.81 39.44 39.31 39.04 38.80 38.97 39.30 39.45 39.55 39.84 40.20 40.45 40.83 41.94 44.68 46.21 45.97 45.09 44.46 44.49 43.95 42.92 43.44 43.33 43.02 43.74 43.73 42.81 43.16
43.75 43.87 42.97 42.33 41.45 41.36 41.56 42.36 42.15 41.87 41.18 40.58 40.14 39.61 39.28 39.11 38.73 38.36 38.28 38.60 38.27 38.58 38.63 38.77 38.60 38.65 38.78 39.51 41.31 41.85 42.10 41.68 40.89 41.00 41.02 40.64 41.15 39.80 39.53 39.53 39.27 39.54 39.45
42.87 42.55 41.95 41.52 40.93 40.83 40.50 40.65 40.95 40.59 39.91 39.70 39.33 38.72 38.31 38.33 37.98 37.85 37.86 37.97 37.57 37.35 37.45 37.51 37.31 37.33 37.64 38.44 39.02 39.36 38.97 38.86 38.94 39.07 39.15 39.00 39.13 38.11 38.32 37.76 38.10 38.25 38.30
43.03 42.33 41.39 41.34 40.71 40.06 39.85 39.93 39.82 39.79 39.30 38.96 38.65 38.09 38.05 38.59 38.86 38.77 38.53 38.98 38.38 37.45 37.15 36.93 36.53 36.37 36.95 37.53 37.88 38.04 37.82 38.03 38.34 38.58 38.45 37.89 37.15 36.41 35.74 35.69 35.82 35.98 36.79
41.76 41.96 41.65 41.10 40.74 39.69 39.51 39.48 39.54 38.99 38.97 38.43 38.14 38.39 39.54 39.76 39.50 38.86 38.54 38.61 38.77 38.62 38.53 37.96 37.82 37.15 36.77 36.77 36.86 37.12 36.88 36.27 35.28 35.37 36.28 38.43 38.99 38.90 38.01 36.10 35.19 34.89 34.36
42.65 42.64 41.93 41.23 40.50 40.00 39.27 39.04 38.80 38.63 38.77 37.88 37.51 38.18 38.87 38.77 38.55 37.83 37.60 37.56 37.69 38.08 38.17 38.33 38.50 38.37 38.31 38.91 38.71 36.56 34.66 33.57 32.67 31.37 32.11 33.47 33.12 36.06 38.30 38.24 37.47 35.72 32.80
42.84 42.36 42.07 41.95 41.35 40.13 39.86 38.61 38.20 38.22 37.59 37.11 37.20 38.09 38.26 37.90 37.54 36.96 36.44 36.35 36.21 36.21 35.74 36.42 37.45 37.24 37.73 37.98 36.75 33.92 30.35 29.39 29.23 30.05 31.64 31.86 32.46 32.28 31.88 33.55 33.25 34.90 35.59
43.23 43.28 42.83 41.25 40.77 40.23 39.27 38.41 37.78 37.25 36.86 36.36 36.81 37.71 37.61 37.18 36.53 36.04 35.22 35.08 34.65 33.80 32.70 32.04 32.68 34.02 35.68 35.79 34.48 31.72 28.60 28.74 28.77 29.27 30.85 31.87 31.81 32.48 30.45 30.20 29.91 30.23 32.14
44.11 44.32 43.65 42.06 40.06 39.56 38.95 37.99 36.73 36.49 36.21 35.96 36.54 37.25 37.56 36.32 35.55 34.83 34.06 32.97 31.99 30.43 29.37 29.75 30.78 32.14 33.91 34.95 33.69 29.91 28.76 28.38 28.42 29.88 30.57 31.41 31.77 33.54 31.77 29.02 28.50 28.22 28.70
42.01 41.92 40.66 39.57 39.48 38.55 38.37 37.00 35.87 35.80 35.52 36.11 36.88 37.56 37.60 36.16 34.89 33.88 32.95 32.00 30.21 29.24 30.16 29.86 30.12 32.74 31.26 34.18 32.95 29.57 28.26 27.26 27.85 28.26 29.28 32.96 32.17 32.44 32.13 28.41 27.81 26.76 27.62
39.32 38.27 38.50 38.44 38.46 37.68 37.72 36.46 35.83 35.58 36.79 37.24 37.61 37.37 37.23 35.71 34.55 33.30 32.36 30.12 29.29 29.07 28.26 28.80 28.11 28.57 29.73 31.69 33.89 31.64 28.46 28.22 27.43 27.51 27.40 28.65 31.58 31.42 31.98 29.76 29.38 29.24 30.00
36.84 36.80 36.68 36.44 36.16 36.94 37.16 35.43 35.15 36.43 36.91 36.89 36.79 36.66 36.18 35.65 34.41 32.83 31.37 30.48 29.58 27.94 26.44 26.29 26.53 27.54 27.87 31.48 33.38 34.27 31.47 30.81 28.03 27.11 27.62 28.65 31.05 30.68 30.81 30.47 31.03 32.87 29.10
35.77 36.26 35.90 34.87 35.34 35.96 36.79 35.09 35.38 36.05 36.03 35.74 35.85 35.70 35.33 34.61 33.63 32.03 30.83 29.41 28.33 26.82 25.83 25.19 25.03 26.01 27.20 27.82 32.85 34.07 33.10 33.02 28.51 28.54 29.01 31.10 30.05 30.37 28.99 30.12 31.46 30.10 27.56
35.50 35.69 35.14 34.37 34.32 35.27 35.13 35.58 35.00 35.99 35.58 35.32 35.31 34.85 33.94 32.99 32.75 31.94 30.90 28.37 26.63 25.42 24.89 24.09 24.36 24.80 25.67 26.36 27.64 29.34 29.92 30.93 30.10 29.76 28.77 28.52 28.65 28.65 28.42 28.34 28.39 27.02 26.82
36.93 36.31 35.67 35.19 35.68 34.70 35.36 35.47 35.94 36.88 35.63 35.41 34.89 34.05 33.71 33.57 31.59 31.05 29.93 28.55 27.04 26.77 25.01 24.98 25.31 24.21 24.19 26.18 28.69 28.69 27.63 27.96 28.87 28.25 26.29 24.57 24.01 24.64 25.09 25.46 25.70 25.94 25.99
36.69 35.63 35.24 35.20 35.25 34.85 35.04 35.18 36.33 36.55 36.02 34.79 34.05 33.58 33.20 33.00 31.50 30.21 28.56 32.42 31.71 31.81 32.49 31.63 27.28 26.65 29.44 30.60 32.04 32.42 31.96 32.58 32.68 27.51 25.05 24.19 23.24 23.05 23.88 23.87 24.37 24.79 25.88

GFSMW_sfc_wetblb_084.txt.gz
Wetbulb
57.28 56.50 54.68 55.40 60.92 64.21 66.80 67.11 67.82 68.86 69.57 69.22 68.82 68.97 68.55 69.38 70.07 70.62 70.86 70.46 70.05 69.38 68.58 68.65 68.51 68.29 66.97 66.67 66.85 66.57 65.73 65.39 65.69 63.41 63.93 65.06 65.78 65.39 65.29 65.68 65.63 65.03 64.50
56.07 55.39 53.71 53.74 56.57 61.12 61.97 64.80 66.40 67.92 68.10 68.50 69.23 69.39 69.31 69.59 69.72 70.05 69.82 69.83 69.72 69.36 68.70 68.55 68.01 67.15 66.65 66.28 66.33 65.84 64.63 64.67 65.16 63.01 62.11 59.27 60.56 62.44 63.95 64.15 63.50 63.17 63.09
54.96 55.08 54.04 52.92 54.04 56.02 57.60 59.44 62.76 66.16 66.87 67.26 66.84 66.36 67.48 67.88 68.04 68.19 68.11 68.28 67.89 68.46 68.43 67.94 67.64 67.46 67.13 66.35 66.47 65.89 64.52 63.22 65.12 64.38 62.12 58.23 55.80 59.20 61.87 61.66 61.35 60.50 59.31
55.18 54.76 52.92 51.55 52.19 54.01 54.95 55.11 55.32 56.89 57.52 58.33 62.54 64.60 65.96 65.55 66.69 66.13 64.51 62.78 61.45 62.38 62.83 63.01 64.36 65.06 65.70 64.91 65.50 65.94 65.04 64.38 63.11 63.10 63.08 63.19 60.60 56.06 55.44 60.20 60.52 59.27 58.00
54.78 51.71 52.20 52.50 53.09 54.28 54.53 54.71 54.47 54.50 54.16 54.69 56.01 56.64 56.39 57.19 56.87 56.64 56.17 57.16 58.63 57.85 57.66 59.11 60.67 62.01 62.99 63.52 64.06 64.27 64.06 63.45 62.26 61.83 61.20 60.70 60.58 60.02 56.40 54.10 56.95 60.03 59.02
54.07 53.21 54.58 53.88 52.80 53.64 53.27 53.60 53.80 54.20 55.11 54.71 54.16 54.32 54.38 53.88 54.03 54.52 54.76 55.47 56.36 56.37 55.58 56.28 58.38 59.77 60.19 60.75 61.86 62.63 63.00 62.45 62.18 61.65 60.55 60.03 58.95 57.67 56.52 53.81 55.81 55.41 58.40
52.75 53.34 52.14 51.72 52.52 52.40 52.66 52.91 53.45 53.21 54.49 54.81 54.73 55.00 54.91 54.83 54.34 53.99 54.44 54.26 54.88 54.51 54.07 54.25 55.59 56.85 57.03 57.92 59.67 61.26 61.09 61.21 60.18 60.64 59.95 60.12 59.40 57.63 57.34 54.67 53.67 52.82 55.46
49.55 50.99 52.20 52.11 52.24 52.26 52.54 52.64 53.10 52.53 53.33 53.62 53.27 53.83 53.96 54.05 53.41 52.98 52.91 52.07 52.34 52.24 50.91 51.46 52.22 52.16 53.28 55.55 57.10 57.99 57.63 58.20 58.05 56.89 55.66 54.68 53.43 53.38 52.92 53.09 52.70 51.93 52.45
47.23 46.52 48.88 50.79 52.35 52.14 52.11 52.51 52.42 52.13 52.15 51.58 51.06 50.38 50.38 50.05 49.39 48.71 49.63 49.24 48.49 47.83 48.36 48.50 49.01 49.54 50.47 51.82 54.09 56.95 55.51 54.27 53.44 52.84 53.09 52.07 50.90 49.55 49.67 50.46 51.68 50.91 47.32
47.08 46.88 48.26 49.55 50.83 51.13 51.65 52.18 52.45 51.64 50.69 50.06 49.79 48.84 47.86 47.56 47.28 47.83 47.18 46.50 46.54 46.25 46.60 46.84 47.03 47.48 48.15 49.42 51.52 53.03 52.09 51.91 50.19 51.19 51.04 50.08 48.74 48.57 51.29 51.32 51.64 50.71 49.16
46.44 47.05 48.68 49.12 49.19 49.90 50.32 50.97 50.70 49.55 49.21 49.11 48.20 47.50 46.48 45.91 46.03 45.82 45.46 45.15 45.09 44.71 44.87 44.85 45.15 45.42 45.95 47.42 49.93 50.04 49.47 48.78 48.41 48.67 48.28 46.99 48.03 48.85 48.85 48.71 48.31 47.95 48.09
46.91 48.02 48.45 48.33 47.82 47.88 48.17 49.25 49.31 48.88 48.59 47.98 47.24 46.43 45.56 45.32 45.14 44.41 43.90 43.88 43.84 43.64 43.39 43.64 43.72 43.87 44.10 45.41 47.04 46.39 46.42 45.91 45.28 45.01 44.79 44.35 45.03 44.36 43.97 44.35 43.50 44.09 44.24
46.97 48.16 48.69 48.18 47.93 48.19 48.10 47.71 47.82 47.71 46.71 46.14 45.88 45.02 44.61 44.55 44.36 43.75 43.16 42.89 42.70 42.55 42.38 42.42 42.37 42.32 42.34 42.79 43.08 43.32 42.75 42.37 42.44 43.06 43.80 43.11 43.30 42.50 42.46 42.58 42.58 42.77 42.98
47.03 48.05 48.39 48.42 48.40 47.57 47.05 46.98 46.82 46.51 45.50 44.92 44.92 44.46 44.21 44.24 43.92 43.60 43.12 42.70 42.42 41.96 41.60 41.57 41.25 40.17 40.07 40.32 40.71 40.85 40.57 40.52 41.06 41.39 41.55 41.20 40.72 40.13 39.77 39.77 39.78 40.90 42.16
46.96 47.88 48.14 48.41 48.06 47.00 46.81 46.50 46.30 45.19 44.96 44.15 43.81 43.78 43.93 44.23 43.77 42.93 42.62 41.64 40.71 40.56 41.59 41.06 40.53 39.28 39.01 39.01 39.30 39.56 39.30 39.07 39.07 39.56 40.10 40.41 39.93 39.23 38.91 39.72 39.12 39.55 39.59
47.57 48.01 48.65 48.83 48.05 47.59 46.57 46.05 45.75 44.87 44.41 43.87 43.37 43.32 43.24 42.65 42.37 41.52 40.86 40.16 39.55 39.48 39.98 39.63 39.46 39.30 39.25 39.93 39.63 38.91 37.60 36.92 36.05 35.20 35.71 36.90 37.33 38.93 38.80 38.09 37.77 36.80 35.86
47.32 48.45 48.97 48.92 49.10 48.49 47.76 45.92 45.59 45.04 43.72 43.40 43.01 42.44 42.45 41.60 40.79 39.96 38.81 38.32 38.14 38.38 38.67 39.19 39.24 38.80 39.04 39.09 38.66 36.89 35.92 34.65 34.16 34.45 34.82 33.78 34.16 34.40 34.97 34.71 35.50 36.32 35.50
46.71 48.39 49.75 49.83 50.15 49.50 47.62 47.00 45.17 43.59 42.90 42.27 41.51 41.75 41.36 40.58 39.62 38.30 37.52 37.41 36.84 36.57 36.45 36.30 36.80 38.00 37.28 36.54 35.07 33.39 33.50 33.10 33.30 34.11 34.79 34.77 34.55 33.92 33.02 33.71 33.39 34.18 34.93
48.33 49.23 50.69 51.03 50.17 48.01 47.07 45.10 43.00 42.86 41.98 41.12 41.18 40.65 40.83 39.77 38.33 37.05 36.46 34.83 33.34 33.23 33.65 35.18 35.54 35.62 35.38 35.08 34.04 32.70 32.80 32.37 32.23 32.73 33.40 34.18 34.56 34.22 31.36 31.99 31.42 31.75 32.08
47.44 48.29 49.65 48.43 48.14 47.22 46.12 44.12 42.58 41.72 40.71 40.76 40.96 41.10 40.98 39.96 37.94 36.41 34.69 34.01 33.64 33.07 34.57 33.89 34.61 34.99 34.98 34.88 33.54 32.09 32.49 31.30 31.20 32.31 33.68 33.02 33.80 33.02 31.90 31.60 31.41 30.04 30.95
45.66 47.29 46.53 46.69 46.79 44.64 44.11 42.63 41.88 40.68 41.53 41.36 40.88 40.56 40.40 39.40 37.47 34.86 34.11 32.47 31.83 33.12 33.67 33.53 33.78 34.04 34.49 34.98 33.78 32.25 31.26 31.21 30.39 30.42 30.83 31.67 32.34 32.04 32.69 30.87 32.75 31.82 32.73
41.98 43.77 44.50 43.72 43.06 43.05 42.55 41.70 40.24 41.46 40.53 40.01 39.57 39.50 39.16 37.67 36.03 34.63 33.18 31.78 31.92 32.37 31.69 31.29 31.52 32.53 33.27 33.44 35.28 33.69 31.95 31.67 30.63 30.00 31.24 31.73 31.85 31.57 32.03 32.32 31.48 33.60 31.35
42.26 42.85 42.93 40.93 41.12 42.02 42.67 40.69 40.99 40.30 39.86 39.38 39.00 38.62 38.17 36.62 35.24 33.63 32.14 31.09 32.43 31.84 30.85 30.23 29.99 30.35 30.90 32.58 34.43 35.67 35.13 34.12 31.35 31.41 31.09 31.49 31.39 32.12 31.24 31.31 32.52 33.08 31.19
41.69 41.83 41.54 41.07 40.05 41.10 41.26 42.37 40.75 40.77 39.87 39.17 38.66 38.05 36.41 34.74 33.92 33.66 32.90 32.52 32.45 31.84 31.30 30.04 29.18 29.87 29.81 30.63 32.14 34.42 34.65 33.96 33.11 31.15 32.02 31.18 30.20 29.99 30.21 29.92 31.60 31.46 30.64
40.87 40.95 41.00 40.91 40.63 40.23 39.98 40.24 39.73 39.95 39.17 38.94 37.65 36.93 35.76 35.14 32.94 32.94 32.54 32.41 34.04 33.30 31.74 31.20 30.45 29.31 28.85 30.15 32.21 32.14 31.71 32.00 31.82 31.01 30.49 29.30 27.84 27.80 28.47 28.77 29.17 29.55 29.10
39.09 37.87 38.44 37.52 39.04 38.09 38.82 39.05 39.83 39.02 38.62 37.39 36.83 36.16 34.74 34.57 33.13 32.50 31.49 35.54 34.58 33.53 33.38 32.46 31.23 30.53 31.75 31.15 32.24 32.80 32.84 32.43 32.10 30.65 29.05 28.75 28.30 27.36 27.65 27.42 27.51 28.10 28.29

GFSMW_sfc_wetblb_087.txt.gz
Wetbulb
58.42 58.13 56.89 55.75 62.19 67.50 68.48 69.21 69.07 69.48 69.50 69.22 68.62 68.70 68.52 69.71 70.15 70.41 70.76 70.65 70.49 70.30 69.80 69.39 69.09 69.20 68.35 67.95 67.70 67.25 66.17 66.13 66.85 64.72 64.23 64.69 65.40 65.41 65.04 65.29 64.82 65.39 65.25
57.30 57.25 55.85 54.83 55.70 62.72 66.02 68.10 68.68 68.91 69.13 69.40 69.64 69.75 69.96 70.04 70.50 70.74 70.65 70.82 70.52 70.46 69.40 68.63 68.51 68.70 68.11 67.49 67.05 66.85 65.58 65.56 66.14 62.98 62.38 59.16 60.49 61.31 62.68 64.27 63.56 63.10 63.70
56.08 57.41 56.01 55.59 55.20 58.41 62.19 64.40 66.89 68.30 68.87 69.33 68.83 67.34 67.56 68.41 68.35 68.65 68.88 69.23 69.24 69.37 69.07 68.14 67.52 67.30 67.07 66.20 66.40 66.10 64.76 62.99 65.09 64.48 62.45 58.20 55.60 58.97 61.63 62.25 61.98 61.40 60.41
56.92 57.60 56.56 55.63 54.25 56.57 60.12 59.50 63.00 65.89 66.76 64.34 65.70 64.99 65.04 65.39 66.89 67.16 67.85 66.39 63.84 64.54 64.38 64.21 64.37 64.95 65.67 65.32 65.13 65.40 64.79 63.74 62.14 63.95 63.46 63.36 61.83 57.12 55.17 59.72 60.30 59.95 59.68
56.37 57.08 56.64 55.52 55.14 56.57 56.98 57.16 57.49 58.82 59.10 59.88 61.93 63.48 63.61 63.41 61.11 59.70 59.71 59.73 60.02 59.40 58.95 59.80 60.88 62.24 62.94 63.74 63.80 63.91 64.17 64.65 63.20 62.07 61.83 61.22 60.91 60.66 57.38 54.19 56.68 59.21 58.73
54.73 56.95 56.41 55.72 54.58 56.02 55.95 56.49 55.41 55.51 55.52 55.63 56.13 57.17 57.40 56.21 55.32 55.77 55.51 56.14 57.02 57.27 56.61 56.81 57.98 59.49 60.14 60.67 60.93 61.83 62.64 62.99 62.69 62.38 61.59 60.01 58.44 57.97 56.86 54.66 55.39 55.68 57.28
53.92 54.59 54.90 54.82 55.03 54.63 54.50 54.52 54.56 53.96 55.56 55.75 55.51 55.41 55.71 55.62 55.79 55.46 55.19 54.85 55.13 55.31 55.04 54.80 55.64 56.43 57.66 58.40 59.28 59.96 59.72 61.50 61.49 61.54 60.91 61.14 59.96 59.08 58.03 56.68 55.45 53.91 54.92
53.59 54.02 55.01 55.68 54.27 54.20 53.53 53.38 54.07 54.05 54.76 55.16 54.94 55.60 55.80 55.48 54.95 54.55 53.96 53.32 53.43 53.25 52.21 52.35 52.89 53.16 53.58 54.92 57.18 58.61 58.73 58.50 58.50 58.59 57.77 55.38 53.50 54.36 54.70 53.79 53.46 51.22 52.40
50.17 51.42 52.05 51.64 53.93 53.64 53.49 53.53 53.93 53.72 54.04 54.15 53.67 53.44 53.29 52.99 52.07 51.45 51.45 51.01 50.15 49.30 49.37 50.07 50.22 50.80 51.17 52.05 53.59 56.36 56.05 54.75 53.91 53.26 53.60 51.93 51.07 51.52 52.41 52.80 53.17 51.63 47.08
49.46 50.34 49.71 50.25 52.74 53.69 53.73 53.97 53.82 52.95 53.15 52.74 52.53 51.51 50.65 50.38 49.87 49.71 48.97 48.49 48.19 47.76 47.88 48.01 48.18 48.48 48.90 49.73 51.21 53.54 53.40 53.00 52.00 52.04 51.56 50.83 50.37 50.78 51.79 51.73 52.07 51.31 49.88
48.52 49.49 49.89 50.74 51.98 52.69 52.80 52.58 52.75 52.29 51.49 51.34 50.41 49.72 48.82 48.43 48.42 47.75 46.99 46.57 46.62 46.38 46.35 46.36 46.54 46.66 46.85 47.78 49.44 50.75 50.74 50.73 50.19 50.22 49.96 48.92 49.58 49.57 49.24 49.41 49.55 48.65 48.11
48.71 49.17 50.26 50.54 50.22 50.19 50.76 51.53 51.58 50.71 50.76 50.48 49.79 49.18 48.13 47.77 47.29 46.46 45.82 45.76 45.35 45.24 44.66 45.02 45.06 45.09 45.17 46.07 47.41 47.76 47.41 47.48 46.87 46.63 46.81 45.90 46.66 46.07 45.93 45.97 45.17 45.19 44.81
48.54 49.13 49.37 49.35 49.53 49.71 50.31 50.34 50.36 50.21 49.79 48.91 48.51 47.64 47.09 47.04 46.86 46.15 45.33 44.90 44.33 43.97 44.00 43.76 43.64 43.55 43.37 43.99 44.55 45.11 44.76 44.72 44.58 44.89 44.99 44.72 44.74 43.73 43.66 43.87 43.61 43.58 43.78
48.85 49.36 49.29 49.22 50.12 50.39 50.03 49.55 48.87 48.52 47.65 47.40 47.44 46.81 46.65 46.75 46.34 45.71 45.07 44.42 44.06 43.49 43.07 42.89 42.65 41.60 41.48 41.59 42.04 42.32 42.08 42.14 42.36 43.00 42.87 42.32 42.22 41.37 40.89 40.61 40.71 41.97 41.90
48.57 49.04 49.37 49.80 50.35 49.82 49.37 49.43 49.05 48.06 47.10 46.22 45.91 45.70 46.02 46.25 45.96 45.05 44.43 43.75 43.07 42.42 42.73 42.25 41.69 40.31 40.10 40.08 40.40 40.81 40.81 40.56 40.26 40.62 40.57 40.61 39.99 39.89 40.14 40.44 39.57 39.84 39.55
47.45 49.38 49.90 50.44 50.16 49.90 49.21 48.78 47.99 47.03 46.83 45.98 45.50 45.93 45.53 45.06 44.43 43.92 42.97 42.23 41.12 40.84 40.71 40.52 40.35 39.79 39.89 40.19 40.48 39.85 38.58 38.09 37.69 36.24 37.72 38.49 39.51 39.34 39.06 38.86 37.89 36.93 35.95
48.18 48.59 49.84 50.48 51.04 50.74 50.35 48.44 48.26 47.53 46.07 45.73 45.46 44.82 44.72 43.66 43.25 42.51 41.43 40.30 39.53 39.48 39.45 39.96 39.65 38.90 39.01 40.29 39.90 39.02 37.24 36.40 35.64 35.33 35.19 34.30 35.01 35.42 35.01 35.85 36.94 36.10 36.04
48.35 49.21 50.17 51.30 52.00 52.09 51.07 50.08 48.71 47.04 45.57 45.28 44.91 44.44 44.09 43.17 42.08 40.83 39.93 39.22 38.64 38.09 38.37 37.95 37.17 37.72 37.78 38.00 37.17 35.83 34.91 35.09 34.60 34.78 34.89 34.47 33.91 33.11 33.46 33.42 33.06 33.40 33.87
49.03 50.12 50.48 51.59 52.59 51.96 51.10 49.26 47.32 46.15 44.80 44.38 43.92 43.66 43.34 42.29 40.58 38.89 38.70 36.93 34.34 33.66 34.17 35.92 36.60 36.76 35.73 35.76 35.11 33.76 33.03 32.02 31.65 32.87 34.05 34.38 34.71 34.06 31.98 32.29 30.88 31.06 31.53
49.12 49.33 50.58 51.25 52.07 51.83 50.42 47.87 45.72 44.76 43.72 43.85 43.73 43.51 43.06 41.87 39.82 38.19 36.87 35.66 34.69 33.16 34.88 35.41 36.22 36.30 35.36 35.52 34.33 32.72 31.81 31.28 31.17 32.22 32.45 33.38 33.81 34.25 32.14 31.04 30.56 28.94 29.53
47.92 48.49 49.88 50.76 51.26 50.65 48.89 46.12 45.52 44.26 45.11 44.41 43.42 42.67 42.38 41.31 39.88 36.60 35.62 34.01 33.12 33.12 34.33 33.96 34.34 34.58 35.34 34.76 35.01 33.42 31.09 30.43 29.77 29.40 29.83 31.16 32.96 32.67 33.23 31.45 30.60 30.56 31.73
43.88 46.93 47.56 48.23 48.59 47.60 46.74 45.48 44.01 44.82 43.88 43.10 41.84 41.50 41.19 39.53 38.09 36.52 34.60 33.08 32.33 32.38 33.45 33.01 32.53 33.10 33.87 34.72 35.33 34.23 32.90 32.40 29.56 28.94 29.60 30.40 32.76 32.04 32.50 32.21 32.54 33.45 31.58
43.92 45.20 44.92 43.16 44.01 45.00 45.81 44.07 43.66 43.30 41.86 41.15 40.66 40.47 39.75 38.65 37.43 35.27 33.05 31.35 31.69 32.04 32.48 31.24 30.69 30.77 31.29 32.29 35.49 36.26 35.06 33.46 30.89 30.25 31.03 31.84 32.05 32.63 31.88 32.66 32.03 33.40 30.56
43.90 44.62 44.05 43.09 42.34 44.04 44.42 44.84 43.52 42.65 41.51 40.51 40.21 39.95 38.24 37.05 36.15 34.56 33.18 31.88 31.46 32.14 32.10 30.21 29.41 29.87 29.81 30.15 31.59 33.23 34.41 35.32 33.39 31.53 30.39 31.44 31.58 31.68 31.53 29.88 30.39 30.48 29.84
43.12 43.78 43.81 43.34 42.70 42.94 42.79 43.21 42.71 42.42 41.07 40.91 40.10 38.79 37.46 36.32 34.35 33.54 32.76 32.50 33.89 34.83 33.14 31.63 30.78 29.29 28.63 29.49 32.32 32.38 32.47 32.38 32.48 31.54 29.54 28.61 27.73 27.02 27.59 27.90 28.23 28.82 28.17
42.23 41.41 40.99 41.44 41.52 41.40 41.15 41.17 41.11 41.47 40.89 39.65 38.04 37.81 36.44 36.08 33.92 32.52 32.01 36.05 36.18 37.17 36.53 35.93 32.86 30.53 32.91 32.95 33.85 34.04 34.21 34.24 33.58 29.49 27.62 27.42 27.44 26.20 26.36 26.31 26.44 26.83 27.96

GFSMW_sfc_wetblb_090.txt.gz
Wetbulb
54.63 54.78 53.78 53.73 59.26 64.88 65.82 66.07 66.19 66.99 66.67 66.37 65.69 65.53 64.99 66.02 67.00 67.79 68.12 67.97 68.11 68.03 67.31 66.41 66.51 65.80 65.03 65.28 64.38 64.86 63.51 62.65 62.92 62.18 60.95 61.10 61.98 62.03 62.03 62.08 60.38 61.47 61.26
52.16 52.80 51.46 51.70 57.56 62.39 64.34 65.88 66.08 66.45 66.31 67.05 67.13 66.03 66.33 65.80 66.23 67.05 67.39 67.63 67.37 67.97 66.88 66.13 65.75 66.61 66.05 64.66 64.02 63.54 62.69 62.67 62.63 60.30 58.98 57.54 57.14 57.58 58.83 58.64 58.94 57.32 57.96
49.38 51.90 50.05 50.02 51.67 57.44 61.58 63.65 65.22 65.77 66.17 66.87 65.77 64.40 64.93 65.92 65.89 65.67 65.95 66.44 67.03 67.59 66.41 66.08 66.04 65.76 65.51 64.88 64.69 64.52 63.47 62.10 62.75 63.00 60.09 54.63 52.25 54.50 56.96 57.35 57.05 55.62 54.10
50.87 52.28 51.78 50.06 49.83 52.07 59.23 60.83 63.08 64.98 65.45 65.00 63.85 63.34 63.15 62.60 63.41 64.52 65.51 62.49 61.82 61.80 61.94 63.12 63.67 63.96 64.31 64.18 64.24 64.38 63.62 62.91 61.37 62.43 62.17 60.51 58.27 55.02 51.65 54.75 55.46 55.13 55.12
50.20 51.59 52.24 50.89 51.01 53.27 53.89 54.94 57.26 60.98 61.33 60.50 62.59 62.93 62.35 61.11 59.38 59.51 59.28 58.95 57.96 57.25 56.96 57.11 57.55 58.98 60.86 62.23 62.62 62.50 62.72 63.05 62.25 60.50 58.91 59.14 59.95 59.28 55.66 51.05 52.44 54.50 53.51
49.97 52.01 52.43 51.51 50.49 52.12 52.66 53.29 54.24 55.22 54.54 56.48 56.36 58.32 59.35 53.48 52.96 53.53 53.24 53.34 55.08 54.42 53.99 54.79 55.16 56.32 57.11 57.10 57.47 57.87 59.28 60.46 60.44 60.11 59.99 59.42 57.59 56.98 55.66 54.30 53.44 51.57 52.49
49.17 50.57 50.73 49.63 49.71 50.62 51.04 51.59 51.80 51.83 52.54 51.79 51.46 52.30 52.01 51.31 51.53 51.62 51.48 51.21 51.83 52.43 51.62 52.29 52.33 52.78 53.32 54.79 55.79 56.23 57.28 58.07 58.82 58.65 59.97 59.01 58.05 56.78 55.44 55.18 52.19 50.36 51.42
46.24 49.62 50.52 50.02 49.90 50.90 51.47 50.41 50.88 51.38 52.08 51.81 51.62 52.36 52.53 52.01 51.93 51.60 51.05 49.82 49.87 49.30 49.21 49.20 49.67 49.93 50.43 51.01 52.11 55.41 56.71 55.40 56.18 57.23 57.40 56.05 54.36 54.37 54.48 54.32 52.80 50.34 50.58
44.46 48.10 48.65 49.72 50.04 50.90 51.59 51.20 51.73 51.16 51.76 51.62 51.40 50.95 50.19 50.29 48.64 48.24 48.54 47.78 46.66 46.85 46.39 47.15 47.15 47.61 47.96 48.69 49.64 50.74 54.83 53.95 53.17 52.41 52.82 51.81 51.08 51.22 50.95 51.56 52.15 49.01 43.70
42.68 44.83 46.14 47.76 48.56 50.52 52.10 51.56 50.80 51.17 51.01 50.54 49.48 49.20 48.42 47.83 47.32 47.32 45.65 44.90 44.83 44.77 44.86 44.95 45.03 45.05 45.60 46.28 47.04 48.90 52.43 52.21 51.15 51.33 50.90 50.09 49.49 49.62 50.07 49.94 48.63 47.89 46.69
43.27 44.08 44.57 46.42 48.20 49.06 50.56 51.14 51.27 50.43 49.37 49.18 47.83 46.70 46.26 46.12 45.92 44.40 44.11 44.06 43.92 43.81 43.53 43.46 43.48 43.35 43.41 43.97 44.55 46.86 47.32 48.09 49.39 49.16 49.19 48.20 48.75 48.43 47.91 48.00 48.05 47.46 46.96
44.64 44.56 45.07 46.26 46.95 47.39 48.34 50.06 50.33 49.01 48.82 48.26 47.71 46.38 45.84 45.36 44.00 43.35 42.98 43.11 42.28 42.07 41.51 41.81 42.00 42.13 42.33 42.53 42.93 43.95 44.46 44.41 44.20 43.88 43.99 43.98 45.18 42.65 42.94 41.94 40.93 41.14 40.69
44.71 44.62 44.58 44.98 45.26 45.84 46.60 47.10 47.96 47.73 47.54 46.64 45.30 44.88 44.40 44.27 43.64 43.11 42.83 42.66 41.77 41.14 40.81 40.95 40.77 40.59 40.78 40.89 41.04 41.50 41.63 41.59 41.77 42.15 43.07 43.87 42.04 39.99 39.52 39.45 38.88 38.82 41.62
45.51 44.71 44.19 44.34 45.06 45.77 46.03 46.18 46.10 46.16 45.29 45.29 44.65 43.85 43.55 43.40 42.95 42.70 42.23 41.77 41.35 40.39 39.95 39.80 39.62 39.05 39.07 39.59 40.73 41.55 41.34 41.42 41.60 41.50 40.84 40.19 40.56 38.23 36.51 37.05 37.01 38.75 38.40
43.93 45.03 44.73 44.16 44.69 45.30 45.67 45.47 44.81 44.11 43.91 43.38 43.14 43.11 43.81 43.78 43.10 42.26 41.90 41.23 40.55 39.76 40.15 39.83 39.09 38.62 39.71 40.02 40.02 40.72 40.46 40.02 39.50 39.76 39.69 37.50 39.09 40.73 39.86 37.86 35.58 36.66 36.67
44.00 44.39 46.01 45.71 45.30 44.63 44.70 45.38 44.42 43.58 43.50 42.46 42.21 42.85 42.55 42.27 41.84 41.22 40.39 39.85 38.92 38.13 37.98 38.10 39.94 39.52 39.76 40.58 41.21 39.83 38.22 37.93 36.79 35.83 36.63 37.98 38.46 38.61 40.08 39.57 39.27 37.23 33.62
43.59 44.23 45.00 45.99 45.83 45.42 45.25 43.78 43.31 43.38 42.57 42.19 42.50 42.55 42.32 41.20 40.52 39.81 39.18 38.95 36.62 36.75 36.81 38.76 38.98 38.23 39.23 41.23 41.21 39.56 36.37 35.45 34.93 34.44 33.22 33.29 34.47 34.52 32.75 37.01 36.81 36.51 37.44
43.88 44.28 44.91 46.17 46.98 46.75 45.86 44.90 44.38 43.03 42.18 41.75 41.86 42.02 41.48 40.58 39.58 38.50 38.19 38.57 36.06 36.36 37.71 37.33 36.05 36.45 38.17 39.77 39.21 37.62 33.69 33.04 32.04 32.35 31.50 30.27 29.92 31.32 31.39 31.37 30.87 30.34 30.98
43.60 43.99 45.11 45.28 46.82 46.80 46.00 45.04 43.39 42.48 41.75 41.36 41.16 41.24 41.07 39.62 38.27 37.07 38.18 35.82 33.73 33.36 33.42 34.64 35.86 35.72 34.60 37.26 37.44 33.26 30.22 29.31 28.79 31.02 31.17 31.89 31.32 33.49 33.94 30.65 29.19 28.41 29.38
43.10 43.56 44.66 45.77 46.30 46.46 46.28 43.89 41.90 40.97 40.55 41.09 40.99 41.08 40.76 39.23 37.23 37.80 36.52 34.66 33.38 33.13 34.24 34.36 35.52 36.70 31.32 36.36 35.52 32.53 28.71 27.27 28.35 28.94 30.24 34.58 33.02 35.06 32.73 28.25 27.12 25.66 25.88
41.94 43.25 44.30 44.59 45.35 45.60 44.41 42.28 41.00 40.07 41.22 41.79 41.28 40.69 39.85 38.22 36.55 36.21 34.94 33.51 33.03 33.31 33.70 33.44 33.49 31.74 32.27 33.14 36.12 34.55 28.53 27.69 27.51 28.04 28.18 29.80 33.93 33.83 33.41 31.90 26.72 27.45 28.71
41.67 43.28 43.50 42.67 43.28 44.17 43.36 41.40 39.94 41.06 40.90 40.31 39.85 39.00 38.34 38.54 37.82 36.14 34.79 33.62 32.71 32.04 32.24 31.86 29.52 30.03 31.04 35.44 36.42 35.61 33.61 32.23 27.64 26.78 26.42 27.65 33.73 32.89 33.22 30.83 33.52 33.88 31.25
41.08 42.14 40.57 39.77 40.61 41.96 42.30 40.36 39.77 39.99 39.51 38.67 37.96 37.66 38.47 37.86 37.04 35.29 33.40 32.01 32.00 31.69 31.57 30.53 28.24 27.76 29.27 30.42 36.55 36.28 35.11 33.91 28.90 28.03 30.02 33.12 33.28 33.25 31.84 33.49 32.96 34.11 28.61
40.22 41.01 40.00 38.92 38.95 40.47 41.78 40.97 40.22 39.73 38.78 37.61 37.16 36.97 37.73 36.77 36.08 34.90 33.54 32.17 31.27 31.27 30.97 29.14 27.19 26.99 27.56 27.68 29.97 31.98 32.74 35.50 32.48 31.47 28.29 30.17 31.31 31.52 30.67 30.04 29.98 28.47 28.19
39.79 40.09 39.66 39.32 38.83 39.35 39.42 40.12 39.85 39.39 38.07 37.85 36.85 35.83 37.06 36.36 34.20 33.65 32.91 32.27 33.01 33.55 31.94 29.67 27.49 26.38 25.46 27.33 30.99 31.29 30.44 30.21 31.60 30.39 27.18 26.73 25.86 24.54 24.79 24.97 25.06 25.85 27.23
38.83 37.84 37.44 38.06 37.91 38.19 37.94 38.23 39.52 40.55 39.58 38.20 36.67 35.94 35.59 35.23 33.77 32.57 32.11 36.50 36.07 37.20 37.78 37.13 31.20 29.01 32.44 34.36 34.68 34.69 35.00 36.08 35.49 29.21 25.11 24.09 24.38 23.45 23.16 23.76 23.85 24.04 26.88

GFSMW_sfc_wetblb_093.txt.gz
Wetbulb
53.18 54.00 54.75 56.20 61.28 63.71 65.96 66.63 66.43 66.26 66.67 66.20 66.20 65.38 66.45 66.74 66.74 67.19 67.34 67.00 66.90 66.47 65.96 65.17 65.09 64.97 64.81 64.54 64.79 63.80 63.41 62.94 63.02 61.21 60.62 60.13 61.12 61.12 61.02 61.16 60.26 60.93 59.72
50.02 51.22 51.41 51.97 57.19 62.61 64.91 65.95 66.57 66.73 66.78 66.75 66.36 65.61 66.15 64.83 64.80 65.73 66.43 66.78 66.62 66.71 66.86 66.26 65.79 65.93 65.62 65.07 64.37 63.79 63.03 62.95 63.15 61.30 59.87 57.95 56.37 56.04 57.52 57.37 56.72 55.81 55.37
48.01 49.21 48.02 49.26 54.66 61.63 62.63 64.28 65.16 66.04 66.23 66.32 65.08 63.96 63.56 64.02 64.20 65.06 65.13 65.29 65.92 65.34 65.30 65.20 65.53 65.21 65.28 64.66 64.53 64.29 63.52 61.91 62.43 62.68 60.38 56.10 52.28 53.69 55.74 55.85 55.17 53.78 53.10
48.02 50.62 47.63 47.07 48.27 59.17 60.82 62.96 64.27 65.31 65.23 65.00 64.24 62.78 62.31 62.21 62.93 64.02 64.68 63.77 63.58 61.86 61.53 61.68 62.42 63.44 63.86 63.63 63.86 64.19 63.41 62.61 61.21 61.88 62.09 60.18 58.48 55.24 52.26 54.59 54.62 53.82 52.79
48.35 50.57 49.61 49.28 48.27 50.30 56.57 58.58 60.69 62.70 62.50 63.82 64.63 62.98 61.87 62.01 60.66 61.55 61.21 59.03 58.23 58.07 57.89 57.68 57.67 58.53 58.92 59.99 60.63 61.29 61.46 62.22 61.58 60.97 59.78 59.34 58.05 56.83 54.21 53.33 52.48 53.38 51.90
48.18 48.47 51.27 49.50 48.25 51.03 52.06 52.52 55.29 56.87 58.26 59.01 60.43 61.90 61.22 57.81 57.02 56.46 55.85 55.38 54.92 54.56 54.53 55.13 54.82 55.39 55.68 55.79 56.10 56.35 56.23 56.80 58.26 59.45 57.74 56.82 55.80 55.30 56.06 52.93 51.32 51.12 50.62
46.68 47.83 47.31 47.25 48.38 49.57 49.87 50.54 51.95 51.95 52.60 55.08 56.08 55.97 56.87 54.00 53.83 53.11 52.55 52.01 52.80 51.96 51.10 52.07 51.67 51.93 52.05 53.19 54.32 54.31 54.60 55.21 55.09 55.37 56.37 57.33 57.03 56.21 55.17 54.57 52.69 50.87 50.72
44.14 47.45 48.70 48.05 48.32 48.84 49.09 49.57 49.25 49.32 49.88 49.99 50.21 53.18 52.86 52.30 51.95 52.63 51.50 50.65 50.14 49.14 49.03 49.09 49.70 49.80 50.11 49.98 50.39 52.05 54.35 54.93 54.09 54.88 55.33 56.35 54.13 53.62 54.99 54.74 53.22 49.48 51.16
43.87 45.80 47.04 46.67 47.68 48.48 48.93 48.67 49.02 49.29 49.73 49.91 50.35 49.68 50.04 50.33 49.80 47.51 46.95 47.18 45.70 46.48 47.04 47.15 46.84 46.66 46.85 47.54 48.11 48.88 51.62 52.50 52.21 53.05 53.02 53.04 51.66 51.69 52.00 52.61 52.05 51.87 47.03
42.77 44.63 45.80 46.46 47.43 48.48 48.82 49.08 49.58 49.65 49.67 49.34 49.66 48.87 47.03 46.81 46.62 45.72 44.89 44.66 44.38 45.06 45.37 44.82 44.64 44.45 44.80 45.30 45.57 46.59 49.91 50.42 49.91 51.23 50.28 49.06 49.60 48.36 50.26 50.21 50.15 49.94 48.09
41.86 42.26 43.36 45.68 46.91 47.67 48.14 47.95 49.36 50.59 49.12 48.75 47.45 46.31 46.23 45.48 44.46 44.04 44.32 43.98 43.98 44.08 43.63 42.96 43.00 42.75 42.73 42.91 42.97 44.55 46.31 47.17 48.25 48.94 49.53 49.10 48.94 48.59 47.29 47.12 48.22 47.64 47.52
43.36 42.39 42.84 44.48 45.33 46.38 47.02 47.33 48.48 49.87 49.09 48.11 47.16 45.96 45.61 43.92 43.75 43.55 43.35 43.58 42.53 42.05 41.78 41.46 41.43 41.62 41.58 41.06 41.13 42.16 43.10 43.48 43.40 43.11 45.07 45.10 45.59 44.41 44.55 44.55 43.71 44.26 44.20
42.71 43.16 43.21 43.82 44.43 44.99 45.97 46.88 46.79 46.98 46.48 47.62 46.92 45.74 45.08 44.09 41.92 43.00 42.75 42.63 41.87 41.38 41.32 41.38 40.58 40.44 40.21 40.12 39.88 40.53 40.51 40.57 40.92 41.16 41.45 41.84 41.12 39.51 38.81 38.49 38.31 38.08 40.81
43.32 42.78 42.38 43.01 43.45 44.57 45.12 45.16 45.17 45.45 45.03 44.89 44.87 44.04 43.63 43.20 42.49 41.90 41.42 41.29 40.58 40.03 39.71 39.52 39.35 38.93 38.80 39.00 39.77 40.10 39.44 39.78 40.69 41.11 40.92 41.23 41.69 38.40 36.19 36.62 36.57 38.11 37.84
42.83 43.08 43.08 42.90 43.13 43.55 44.38 44.67 44.45 44.06 43.70 43.03 42.47 42.36 42.80 42.70 41.99 41.35 41.18 40.70 39.97 39.11 39.39 39.07 38.51 38.13 38.76 39.45 39.90 40.80 40.63 40.04 39.40 39.47 38.93 38.97 40.25 40.77 38.86 36.88 35.21 36.62 36.34
42.07 44.11 44.29 43.70 43.31 43.11 43.66 43.87 42.68 42.73 43.17 42.43 41.85 42.20 42.17 41.58 40.83 40.32 39.44 38.91 37.93 37.72 37.62 37.60 38.26 38.12 39.86 40.87 41.54 40.55 39.36 38.55 37.51 36.53 37.52 38.19 38.15 39.36 41.04 40.39 39.79 37.52 34.72
42.13 42.53 43.20 44.69 44.67 44.40 45.00 43.70 42.53 42.01 41.49 41.32 41.43 41.62 41.62 40.73 39.88 39.30 38.42 37.33 36.17 36.16 36.08 36.31 37.20 38.19 39.59 41.52 42.23 40.44 37.06 35.93 35.51 35.38 35.05 34.82 35.68 34.17 33.45 37.13 37.58 38.15 38.09
41.94 42.49 42.24 43.89 45.07 45.66 45.48 44.19 43.02 42.33 41.37 40.78 41.04 41.25 40.78 39.94 38.97 38.05 37.20 36.19 35.05 34.58 34.87 36.34 35.16 36.70 38.75 41.03 40.64 38.84 34.50 34.05 34.27 33.59 32.18 30.88 29.37 30.61 31.14 30.23 29.75 29.88 31.28
41.77 41.67 41.89 43.21 44.99 45.42 45.50 43.98 42.35 41.56 41.02 40.67 40.72 40.71 40.43 38.83 37.55 36.14 35.16 33.69 32.95 32.07 33.41 34.08 36.30 35.82 36.49 38.77 39.27 35.20 31.98 30.63 29.04 30.55 30.83 30.44 29.62 34.18 35.58 30.68 29.58 29.36 29.76
41.85 41.44 41.58 42.43 43.75 44.71 44.79 43.35 41.77 41.02 40.62 40.30 40.15 40.47 40.12 38.65 36.59 35.20 34.55 35.72 34.49 33.33 34.86 35.01 35.96 36.95 34.13 38.00 38.13 33.06 28.28 26.30 27.28 27.68 30.29 35.47 32.60 34.42 34.64 29.59 28.01 26.50 26.84
40.73 41.26 41.09 42.72 43.18 43.84 44.46 42.85 40.83 40.45 40.95 40.99 40.46 40.04 39.27 37.52 35.90 35.05 35.21 34.85 33.82 33.19 33.87 33.85 34.62 34.44 32.57 32.08 36.88 35.60 28.12 27.66 27.38 27.95 28.01 29.47 35.86 35.64 33.59 31.94 27.23 27.61 28.04
40.14 41.73 40.36 39.89 40.83 42.48 43.54 40.71 40.26 39.84 40.58 40.06 39.43 38.48 37.28 37.60 35.81 34.06 35.26 34.50 33.73 33.07 32.96 32.93 32.11 31.74 30.84 35.71 37.16 36.70 34.48 32.15 27.36 26.83 27.21 29.41 34.67 34.38 34.42 31.81 34.60 35.11 32.47
39.97 40.49 39.20 39.04 39.92 41.60 41.42 39.48 39.21 39.60 39.10 38.64 37.39 36.50 36.44 36.08 35.45 34.70 34.27 33.16 32.89 32.33 31.89 31.28 30.42 29.43 29.03 29.58 36.83 37.41 36.33 34.66 28.33 28.05 29.33 31.87 34.42 33.99 32.98 34.07 34.43 34.96 27.11
39.62 39.74 38.98 38.43 38.58 40.15 40.92 39.85 39.16 38.88 38.49 37.20 36.22 36.05 35.57 35.49 36.36 35.42 34.35 33.13 32.14 31.88 31.75 30.70 29.54 28.96 27.34 27.93 29.27 32.24 32.86 34.75 32.28 32.00 30.32 31.97 32.49 32.66 31.24 30.95 31.55 28.63 28.88
38.32 38.94 38.77 38.27 37.92 38.22 38.83 38.96 38.79 38.52 37.32 36.75 36.10 35.53 36.44 36.38 34.93 34.76 33.88 33.06 33.21 33.83 32.26 31.56 30.42 28.32 25.42 27.91 30.88 31.49 30.87 30.97 32.24 30.09 27.11 26.79 26.79 26.55 25.83 26.17 26.09 26.36 27.58
38.96 36.92 36.76 37.01 36.89 36.99 37.17 37.63 38.37 38.14 37.27 37.46 37.47 37.02 36.48 35.48 34.61 33.46 32.89 37.03 36.49 36.90 37.54 36.76 32.51 30.03 32.65 33.87 34.76 34.87 35.10 35.68 36.24 31.53 26.35 25.42 25.82 25.44 24.94 24.62 24.62 24.70 26.91

GFSMW_sfc_wetblb_096.txt.gz
Wetbulb
53.36 53.64 56.17 62.19 62.94 64.00 64.28 65.35 65.47 66.07 66.76 66.93 66.32 65.62 64.57 66.51 66.10 66.32 66.47 66.12 66.13 65.47 64.47 64.34 64.25 64.91 64.59 64.07 63.62 63.51 62.66 62.71 62.67 61.77 61.83 61.61 62.23 60.54 59.36 59.78 59.86 59.03 57.14
48.59 52.00 52.27 54.92 60.72 64.14 64.97 65.08 65.39 65.15 65.57 65.37 65.51 66.17 65.34 65.45 66.63 66.64 66.79 66.93 66.65 66.47 65.87 65.03 65.24 65.64 65.10 64.59 63.75 63.58 62.99 62.80 62.96 61.64 60.24 57.29 55.91 55.49 56.07 55.30 56.12 54.33 55.37
46.97 49.42 50.42 50.60 53.54 60.86 63.94 65.14 65.62 65.55 65.85 66.01 64.64 63.67 63.89 63.97 63.99 63.75 64.18 65.26 65.83 65.94 65.71 65.41 65.19 64.95 64.89 64.39 63.98 63.64 62.88 62.13 62.56 62.89 60.31 55.47 52.13 52.78 55.01 54.48 53.48 52.93 52.08
46.46 48.67 50.59 48.09 49.14 57.78 62.07 65.06 65.64 65.86 66.09 65.54 64.28 64.17 64.27 63.30 63.57 63.31 63.60 63.48 64.48 64.35 64.70 64.65 64.25 63.99 63.64 63.32 63.19 64.00 63.40 62.58 61.22 61.64 61.67 60.34 57.30 54.22 53.50 54.55 53.06 52.73 51.94
46.40 48.06 49.57 50.71 48.89 51.06 57.37 59.63 62.02 62.83 62.99 63.83 64.95 63.40 60.94 61.65 61.27 61.89 61.93 60.25 58.81 59.91 59.88 59.88 60.53 60.74 60.59 60.81 60.41 59.24 59.53 60.02 60.54 59.52 59.90 59.68 59.64 58.49 56.16 52.44 50.77 51.50 50.73
46.41 47.91 49.75 49.41 47.19 47.58 53.68 56.22 58.90 60.09 61.23 61.67 61.12 61.45 61.33 59.86 58.71 58.10 58.38 56.58 55.59 55.37 55.59 55.89 55.59 56.70 57.12 57.12 56.75 56.18 55.84 55.89 55.96 56.26 57.16 57.98 57.35 55.51 53.43 52.25 50.44 50.65 48.85
45.93 45.45 47.77 47.18 46.23 48.91 51.08 52.20 55.48 56.39 57.38 58.29 58.44 59.56 59.61 57.80 58.01 57.90 57.60 55.58 53.78 53.63 52.95 53.43 53.27 52.96 53.11 53.93 54.60 55.03 55.18 54.90 54.02 53.57 54.15 55.25 57.52 57.63 56.49 54.77 53.22 51.70 48.01
43.34 44.40 46.83 47.44 46.96 48.95 50.29 50.58 51.36 51.84 51.14 52.79 53.68 53.35 55.52 54.85 55.57 55.17 55.34 54.46 53.74 51.67 51.59 49.88 49.15 50.06 50.01 50.23 50.64 51.56 53.27 53.78 53.40 53.17 54.14 54.64 55.59 55.35 55.14 55.27 53.47 50.59 49.99
43.30 43.71 46.04 45.92 46.75 47.52 48.80 49.29 49.00 48.90 48.50 48.33 49.61 50.50 51.22 52.17 52.08 51.36 53.13 52.71 51.04 49.32 48.02 47.71 47.16 47.29 46.70 47.22 47.31 48.42 48.96 52.10 51.87 51.72 51.54 52.36 52.90 52.49 53.08 53.50 53.72 52.75 48.41
40.96 43.96 44.94 44.72 45.80 46.34 47.47 47.80 48.34 48.43 48.47 48.78 48.19 47.93 47.49 47.78 46.85 47.56 45.67 44.27 43.73 45.47 45.44 44.88 44.88 44.73 44.98 44.85 45.26 45.51 47.17 49.62 49.13 49.51 49.02 48.88 50.32 49.98 49.86 50.63 50.53 49.58 49.77
39.98 40.87 43.16 44.97 46.07 46.91 47.32 47.24 47.93 48.70 48.10 47.55 47.01 46.12 46.10 46.04 44.86 43.71 43.34 43.88 43.36 43.08 43.71 43.86 43.39 43.10 42.97 43.04 42.83 42.88 45.29 46.47 46.90 47.17 47.28 47.53 48.12 47.89 48.53 48.44 48.81 48.35 47.48
40.97 40.69 42.11 43.91 45.13 46.03 46.53 46.57 47.23 47.97 47.64 47.91 47.41 45.91 45.80 45.19 44.81 43.00 43.16 43.91 43.48 43.43 42.43 42.40 42.26 42.07 42.24 42.13 41.98 42.12 43.00 42.70 43.29 43.16 44.13 45.18 45.56 45.83 45.37 45.63 44.70 45.23 44.75
41.26 41.65 42.45 43.09 43.79 44.74 45.40 45.54 46.49 46.91 45.91 45.68 45.32 44.90 43.65 43.98 44.12 43.68 43.49 43.33 42.69 42.23 41.89 41.78 40.79 40.29 40.48 40.43 40.29 40.93 41.21 41.06 41.44 40.74 40.84 41.28 43.04 42.01 41.55 41.48 41.25 40.95 42.39
42.11 41.57 41.43 42.28 42.95 44.52 45.31 45.41 45.41 45.35 44.59 44.29 43.74 43.28 42.89 42.95 43.54 43.35 42.73 42.14 41.11 39.97 38.93 39.94 39.18 39.11 38.40 38.38 38.80 39.73 39.38 39.51 39.84 40.50 41.16 41.88 42.55 40.81 37.60 36.96 36.52 37.50 37.08
41.72 41.95 42.08 41.91 42.19 43.14 44.14 44.76 44.93 44.28 43.87 43.48 42.97 42.63 42.60 42.74 41.42 41.05 40.31 40.67 40.15 39.66 39.23 38.74 38.27 37.68 37.89 38.79 38.04 39.03 38.64 38.99 39.31 39.47 39.36 39.75 40.75 41.37 40.03 37.06 35.62 36.22 35.98
41.02 42.95 43.00 42.39 42.60 42.45 43.86 44.35 43.77 43.37 43.13 42.14 41.85 41.76 41.52 40.62 40.09 39.58 39.22 38.53 38.05 37.98 37.80 37.59 37.85 37.26 38.77 41.31 41.95 41.53 39.78 39.29 38.29 37.14 37.76 38.55 39.40 40.71 41.33 39.97 39.44 38.02 35.11
40.53 40.67 42.25 43.34 42.62 42.94 44.06 43.76 43.04 42.36 41.65 41.31 41.05 41.12 40.79 39.91 39.27 38.86 38.12 37.10 36.24 36.14 35.97 36.03 36.56 36.06 37.45 41.69 42.52 41.60 38.04 36.80 36.31 35.98 35.89 35.34 36.50 35.37 34.48 38.03 38.37 38.98 38.95
40.09 40.72 40.59 40.99 43.75 44.10 44.20 43.89 42.66 42.24 41.39 40.55 40.53 40.59 40.20 39.30 38.41 37.51 36.82 35.64 34.87 34.78 34.52 34.54 33.79 34.25 38.40 41.65 41.71 39.66 34.59 34.38 35.54 35.30 34.68 33.04 31.47 31.92 31.22 29.34 29.70 30.21 29.76
41.11 41.38 41.68 41.40 42.15 43.83 44.71 43.63 42.12 41.48 40.92 40.16 40.26 39.99 39.82 38.36 37.08 36.05 34.95 33.41 32.96 32.22 32.71 33.66 35.04 35.73 37.20 40.64 40.09 37.40 33.89 32.98 32.41 32.61 31.65 30.82 28.83 33.28 35.54 30.27 29.03 29.42 30.47
41.29 40.84 40.63 40.94 40.87 43.45 43.85 42.94 41.51 41.00 40.75 40.23 40.28 40.21 39.70 38.41 36.71 35.16 33.87 34.87 34.63 33.21 33.93 33.32 35.78 37.52 35.53 38.89 39.01 35.73 30.60 29.10 28.72 27.36 29.48 35.55 31.49 35.13 36.32 30.02 28.86 27.52 27.94
40.01 40.81 41.12 41.05 41.50 42.35 43.27 42.29 40.54 40.82 41.26 40.47 40.30 39.88 39.09 37.81 36.09 34.84 34.83 31.90 34.57 34.08 32.02 33.72 35.25 35.54 35.34 34.18 39.21 37.45 27.08 26.62 26.61 26.96 27.26 29.52 36.74 36.32 34.96 33.59 27.92 28.51 28.69
39.52 40.36 38.99 38.94 39.78 41.64 42.78 40.93 40.40 40.36 40.18 40.07 39.69 39.15 38.16 37.91 36.30 35.41 32.79 33.89 35.00 34.08 33.24 33.25 33.26 33.44 33.18 36.36 37.11 37.64 34.94 31.77 27.39 27.84 28.52 29.72 35.34 35.94 35.26 32.94 32.49 34.28 32.41
39.18 39.17 37.98 37.83 38.31 39.81 40.62 38.91 38.02 39.62 39.17 38.73 38.19 37.24 36.13 35.50 34.54 32.85 32.30 34.16 34.12 33.32 32.92 32.58 32.25 31.48 31.17 30.85 37.13 38.13 38.10 36.40 28.31 28.46 29.65 32.48 34.42 35.00 33.68 34.44 35.11 35.60 27.59
38.55 38.75 37.98 37.37 37.27 38.47 39.73 39.59 40.35 39.37 39.04 37.62 36.52 35.77 35.13 34.54 34.21 34.28 34.86 34.21 33.27 32.73 32.51 31.66 31.04 30.60 29.87 29.51 30.28 32.42 32.91 36.65 32.80 31.84 30.62 31.91 32.77 33.96 31.80 31.41 31.76 29.64 27.66
37.77 38.32 38.05 37.39 36.83 37.90 37.83 38.05 38.33 38.55 37.45 36.56 35.61 34.90 35.13 35.22 34.48 35.13 34.91 34.12 34.65 34.64 32.86 32.52 32.00 29.99 29.16 29.90 32.23 31.31 30.42 30.38 31.50 31.15 27.98 27.81 27.98 28.09 27.50 27.55 27.68 27.43 28.57
37.93 37.21 36.66 36.96 36.35 36.66 36.76 36.98 37.59 37.64 36.52 35.29 35.23 36.59 36.69 36.13 35.27 34.44 33.76 37.59 37.36 37.50 37.87 37.71 34.02 31.44 34.85 35.29 35.27 35.52 35.42 36.18 36.53 31.76 26.60 25.57 26.01 25.86 26.13 25.48 25.71 25.04 27.62

GFSMW_sfc_wetblb_099.txt.gz
Wetbulb
51.44 54.27 57.19 61.12 62.48 64.30 64.92 64.78 65.01 65.81 66.37 65.64 65.48 65.28 65.28 64.87 64.56 64.74 65.77 65.56 65.07 64.80 63.84 62.84 62.66 62.78 62.22 62.64 62.55 62.84 62.16 62.11 62.44 61.43 61.78 60.69 61.94 60.27 56.46 56.43 58.21 58.19 56.89
48.07 50.81 52.15 55.46 60.65 62.62 63.76 64.06 65.29 64.84 66.23 66.69 65.89 65.63 65.04 64.95 65.46 65.66 65.67 66.14 65.67 65.44 64.77 64.18 63.48 63.83 64.36 64.38 63.61 62.73 61.97 62.08 62.04 61.09 60.75 56.53 55.70 55.06 55.31 54.70 54.75 53.00 54.08
48.01 48.27 50.17 50.84 55.63 60.20 62.60 64.31 64.98 64.83 65.24 64.73 64.22 62.87 63.58 63.22 63.04 63.88 64.36 65.51 66.11 65.92 65.08 64.69 64.52 64.21 64.49 63.63 63.68 63.35 62.34 61.40 62.11 62.50 60.28 54.48 51.96 52.60 55.31 53.37 53.26 52.91 51.06
46.17 47.62 48.91 49.60 49.97 56.43 61.58 63.23 64.19 64.66 64.92 64.11 63.49 62.97 63.60 62.59 64.34 63.37 63.27 63.79 64.61 64.28 64.21 64.40 64.42 64.57 64.05 63.16 63.50 63.39 62.80 62.01 60.26 61.13 60.90 60.13 58.21 55.24 54.13 53.54 52.28 52.46 51.40
46.32 46.68 47.88 50.48 50.23 50.39 57.79 59.93 61.66 62.78 62.59 63.01 63.12 62.76 62.23 62.73 61.26 60.97 61.85 62.30 61.87 62.53 62.15 61.73 61.59 61.80 61.73 61.31 61.41 61.37 61.13 61.12 60.11 59.14 57.91 56.87 56.87 56.58 54.30 52.57 51.77 51.82 50.32
46.59 46.46 47.26 48.64 48.54 46.89 54.13 57.86 60.30 60.39 61.21 61.28 61.86 61.87 61.49 59.45 58.83 58.54 59.37 58.32 58.09 58.68 59.22 59.21 58.83 58.65 58.26 58.11 57.75 57.33 57.08 56.96 56.30 56.53 56.57 56.49 54.87 54.07 53.68 52.00 51.24 51.25 48.92
46.10 45.65 45.86 46.58 46.65 46.22 48.90 54.01 57.09 58.74 59.62 59.77 60.38 60.45 59.39 58.94 58.61 58.10 57.41 56.00 55.72 56.10 56.73 55.65 54.35 54.16 54.42 54.55 54.87 54.44 54.41 55.29 54.53 54.48 54.21 54.77 55.11 55.72 55.49 55.55 53.54 49.73 47.56
41.83 44.03 45.32 46.92 46.18 46.65 47.49 50.41 53.35 55.41 56.53 56.61 58.37 57.46 58.66 57.10 56.12 56.03 56.17 55.77 54.96 53.96 53.00 52.18 51.27 51.05 50.78 50.63 50.20 50.73 52.04 53.09 53.72 52.99 53.19 52.80 53.54 55.60 55.49 55.82 53.42 51.40 48.31
41.20 42.71 44.13 45.87 46.83 45.93 47.70 49.16 50.96 51.50 50.90 51.08 51.71 51.32 52.64 52.45 52.68 52.21 52.76 53.51 53.66 52.96 51.91 50.45 48.98 47.93 47.26 47.22 47.29 47.65 47.71 49.36 51.80 51.51 51.25 50.92 51.37 51.36 52.85 53.31 53.66 53.58 49.59
41.70 43.16 42.81 44.09 44.75 45.34 46.97 47.92 48.68 48.77 47.86 48.02 48.80 49.06 49.58 49.97 49.44 49.64 49.08 48.64 48.34 47.96 45.62 45.02 44.92 45.10 44.35 43.98 44.40 44.12 46.15 47.63 49.68 49.62 49.43 48.63 48.55 49.24 50.54 50.74 51.37 50.89 49.28
40.23 41.29 42.87 43.53 44.45 45.38 46.14 46.59 47.04 47.46 47.25 47.44 46.51 45.87 45.68 45.72 45.46 44.93 44.06 43.62 43.67 44.20 42.87 42.77 42.83 42.68 42.42 42.32 42.64 42.53 43.87 45.44 46.99 47.97 47.78 47.42 46.59 47.11 48.86 48.73 48.80 48.05 48.47
40.06 40.43 42.12 43.55 44.34 45.00 45.66 46.07 46.51 47.18 46.95 46.26 45.52 44.68 44.17 43.51 43.13 43.20 43.66 44.25 43.24 42.78 41.73 41.82 41.36 41.42 41.92 41.81 42.15 42.19 41.99 42.37 42.82 43.51 43.29 44.88 45.12 44.21 43.68 44.60 45.72 45.82 45.78
40.08 40.52 41.41 42.00 43.15 43.73 44.84 45.19 45.52 46.15 45.64 45.07 44.42 43.48 42.87 42.32 41.73 41.69 41.56 42.85 42.15 42.03 42.52 41.80 41.35 40.77 40.20 39.40 39.41 39.65 39.18 39.46 40.24 40.04 40.59 41.67 42.25 42.96 41.91 42.11 42.32 42.41 43.34
41.12 40.58 40.64 41.31 42.05 43.44 44.19 44.32 44.40 45.16 44.58 44.27 43.60 42.72 42.40 42.52 42.71 43.16 42.79 42.59 42.08 41.55 40.89 40.53 39.82 39.32 38.61 38.41 38.47 39.18 38.05 38.12 39.26 39.81 39.80 40.34 42.12 42.07 40.55 39.79 39.75 39.73 39.52
41.01 41.66 41.26 41.05 41.23 42.57 43.11 43.63 44.17 44.14 43.94 43.48 42.98 42.82 42.75 42.50 42.10 41.22 40.31 39.86 38.99 38.63 38.74 38.70 38.40 37.72 38.25 38.80 37.89 38.09 37.75 37.39 37.70 38.68 39.53 40.07 41.14 42.19 41.28 39.67 38.41 35.84 35.39
39.70 40.42 41.93 41.36 41.45 41.70 42.64 43.99 43.82 43.65 43.21 42.59 42.58 42.44 41.90 40.96 40.01 39.06 38.45 37.85 37.20 37.00 37.22 37.13 37.51 37.16 38.56 40.77 42.05 41.81 38.74 39.51 38.91 37.80 38.05 38.91 39.50 40.66 42.39 41.79 41.04 39.23 35.26
40.31 40.11 40.18 41.67 41.59 41.90 43.02 43.47 43.29 42.89 42.15 41.89 41.58 41.34 40.64 39.58 38.71 38.11 37.32 36.41 35.64 35.74 35.50 35.82 36.14 35.60 36.37 41.21 42.38 42.49 38.55 37.61 37.01 36.45 36.53 35.94 37.04 36.16 35.16 37.96 38.69 39.38 40.12
39.30 39.43 39.23 39.37 39.90 42.05 42.66 43.11 43.10 42.13 41.90 41.22 40.91 40.44 39.92 38.86 37.74 37.01 36.37 35.10 34.26 34.22 33.82 33.76 32.67 33.36 36.34 41.00 42.41 40.55 34.68 34.79 36.30 36.64 36.01 34.32 32.82 33.26 32.28 31.46 31.48 31.63 30.19
39.92 40.07 40.35 40.39 40.06 40.01 42.13 42.58 41.46 41.26 41.03 40.67 40.64 40.32 39.83 38.45 36.88 35.87 34.85 32.86 32.91 32.16 32.47 33.40 34.58 32.77 33.94 40.90 41.20 38.46 35.01 34.21 33.76 33.69 32.75 32.80 31.49 33.29 35.75 30.14 29.05 29.32 30.75
40.32 40.31 40.28 40.35 40.44 40.87 41.92 41.73 41.15 40.97 41.23 41.42 41.15 40.36 39.85 38.70 37.16 35.48 33.72 35.07 34.83 33.08 34.29 34.37 32.89 36.57 34.67 38.94 40.19 37.86 32.79 31.33 30.85 30.40 30.41 35.07 31.34 34.40 36.53 29.11 28.11 27.88 28.56
38.95 40.17 39.90 39.96 40.94 41.61 42.13 41.19 40.86 41.27 42.34 40.94 40.41 39.96 39.29 38.12 36.85 34.55 34.89 33.89 34.19 34.20 34.50 34.06 32.13 34.74 36.74 35.44 39.51 39.98 29.65 28.73 27.43 26.84 26.62 28.45 36.55 36.37 36.00 35.11 28.88 28.61 29.49
39.04 39.53 38.41 38.13 38.70 40.05 41.24 39.70 39.89 40.25 40.00 39.94 39.50 38.34 37.52 37.90 36.07 35.92 34.37 32.64 32.65 33.72 34.53 34.07 31.72 33.93 34.68 37.61 37.36 39.60 37.02 31.53 26.29 25.92 25.87 27.02 34.56 37.09 36.27 33.67 33.29 34.49 32.58
38.54 38.62 37.49 37.00 37.24 38.19 39.78 38.61 37.83 39.35 39.61 38.82 37.90 37.52 37.16 36.49 36.38 34.26 32.42 32.16 34.01 34.57 33.97 33.36 33.05 32.31 32.82 32.52 37.38 38.00 38.84 37.82 29.37 26.85 28.84 32.73 34.19 35.48 34.63 35.52 34.36 35.24 28.32
37.72 37.65 37.17 36.48 36.23 36.61 37.88 38.13 38.67 40.84 40.34 38.79 36.20 35.60 35.36 34.74 33.73 33.34 33.34 32.70 33.79 33.95 33.53 32.62 32.05 31.00 31.46 31.06 30.90 31.97 34.70 37.57 35.49 32.93 28.49 31.52 32.55 34.03 32.17 31.80 31.87 29.57 27.71
37.54 37.39 36.63 35.96 35.73 36.34 36.20 37.06 39.51 40.22 38.95 37.90 36.52 36.05 36.15 34.39 32.67 33.36 34.05 34.19 35.47 35.58 34.01 33.06 32.61 31.40 30.67 31.48 33.23 32.13 30.82 31.86 32.46 29.82 27.31 27.16 27.56 27.90 28.76 28.46 28.10 27.93 29.16
37.26 36.76 36.08 36.51 36.01 36.38 36.48 36.65 37.54 38.70 37.88 36.25 34.69 34.31 34.10 34.91 35.69 35.16 34.60 38.25 37.90 38.21 38.63 38.25 35.07 32.72 35.76 36.66 36.53 36.76 36.46 35.93 36.55 30.17 25.73 25.15 26.41 26.89 26.95 26.25 26.14 26.48 28.18

GFSMW_sfc_wetblb_102.txt.gz
Wetbulb
51.78 57.08 61.13 62.76 63.43 64.15 65.30 65.79 66.34 66.60 67.26 65.39 64.39 64.43 64.47 64.39 63.47 63.36 64.15 63.91 63.59 62.99 62.30 61.62 61.32 61.72 60.78 60.63 60.43 60.63 60.76 60.67 61.26 59.89 59.54 59.75 59.15 56.97 55.48 55.54 56.63 56.62 56.31
48.01 49.94 53.89 59.55 61.78 63.16 64.14 64.54 65.40 65.84 66.29 66.71 66.33 65.91 65.85 65.16 65.32 64.80 64.20 64.19 63.67 63.60 63.69 63.43 63.05 62.49 61.88 61.82 61.75 62.10 61.41 61.21 61.48 59.39 57.90 53.91 55.27 54.47 54.44 54.14 53.95 52.64 53.69
46.51 47.94 49.75 52.57 58.18 61.01 62.30 63.54 64.81 65.18 65.50 65.54 65.12 63.51 64.07 63.79 63.87 64.34 64.03 64.39 64.62 64.97 64.27 64.45 64.15 63.71 63.28 62.79 63.10 62.71 61.88 60.64 61.32 61.82 58.76 53.92 51.52 52.68 53.72 52.72 52.98 52.15 51.60
45.44 46.75 48.17 50.19 50.73 56.95 61.46 63.44 64.16 64.04 64.56 64.17 64.01 62.69 62.96 62.47 63.57 63.03 63.53 64.03 64.32 63.96 63.97 63.87 63.49 63.36 63.39 62.79 63.10 62.98 61.96 61.53 59.68 60.78 61.07 59.38 56.52 54.01 51.74 52.83 51.89 51.85 51.57
45.52 46.29 46.91 48.96 51.35 51.43 56.20 60.76 62.45 62.83 62.99 62.73 63.61 62.61 61.98 62.55 61.30 61.53 61.97 61.81 62.06 62.25 62.67 62.75 62.92 62.72 62.51 61.94 61.68 61.08 60.87 60.82 60.57 59.33 58.15 57.14 56.42 55.96 53.73 50.60 50.02 51.68 50.57
44.68 46.26 47.31 47.61 48.45 48.44 52.43 58.10 60.74 61.50 61.99 61.69 62.02 62.03 62.06 60.89 59.23 58.64 59.62 60.20 59.96 59.94 60.15 60.75 61.19 60.85 59.97 59.34 58.79 58.16 57.58 56.81 56.36 55.84 56.48 56.05 55.20 53.91 53.00 51.59 49.70 49.21 48.71
43.35 44.19 45.22 45.78 47.13 46.79 47.56 54.44 57.78 58.97 59.91 60.59 61.64 62.27 61.64 60.77 59.35 58.30 58.45 58.02 57.04 56.97 57.62 58.01 57.76 57.61 57.68 56.16 55.73 55.16 54.69 54.67 53.83 54.00 53.51 53.56 54.10 54.82 55.74 54.85 52.97 50.54 47.72
40.43 41.65 45.15 46.50 46.54 46.58 45.87 48.35 53.24 56.23 57.94 59.56 60.24 60.89 61.16 60.52 59.63 57.75 56.29 57.63 56.27 55.01 54.29 53.15 52.29 52.82 52.64 51.51 50.95 51.48 52.08 52.91 51.67 52.22 52.59 52.05 52.37 53.89 55.13 54.92 52.80 51.01 48.23
40.62 40.57 43.09 44.59 46.08 45.92 46.20 47.41 49.75 51.81 54.30 55.63 58.03 56.78 56.77 56.18 56.32 55.09 54.17 53.72 52.96 52.51 51.71 51.04 49.91 49.64 48.37 48.25 47.50 48.28 47.88 47.53 48.66 49.46 49.21 48.85 49.86 50.33 50.77 50.86 51.99 52.17 48.14
41.21 42.98 42.42 42.38 43.38 43.89 45.77 47.42 49.40 50.88 50.54 50.26 51.23 51.07 51.17 51.37 51.13 50.86 50.69 50.78 49.48 49.11 48.95 48.83 47.94 46.27 44.95 44.20 43.85 43.49 44.58 45.28 46.48 47.99 47.12 47.14 47.45 47.75 48.10 48.96 49.83 51.12 50.07
39.81 42.25 43.50 42.88 43.25 44.14 45.62 46.57 47.79 48.09 47.47 47.65 47.32 47.57 47.91 48.09 48.22 48.44 48.10 48.22 47.97 47.49 47.19 45.08 43.23 42.25 41.66 41.63 41.60 41.90 42.73 43.61 44.25 45.39 45.63 46.28 46.23 46.51 46.67 47.14 47.11 47.54 48.55
38.94 39.92 41.83 42.95 43.33 44.00 44.49 45.53 45.97 46.71 46.75 46.43 45.61 45.10 44.65 44.27 43.81 43.01 42.78 43.32 42.79 42.89 42.46 42.87 42.39 41.81 41.24 40.60 40.49 40.43 40.80 40.72 41.07 41.16 41.90 42.70 44.50 42.47 42.58 44.38 44.82 44.26 44.62
39.38 39.85 40.48 40.69 42.13 43.09 43.74 44.23 44.66 45.33 45.34 44.95 44.17 43.30 42.67 42.47 41.75 41.24 41.22 41.26 41.05 40.98 41.15 41.34 40.91 41.18 40.94 39.66 39.12 40.32 39.11 38.85 38.91 39.17 39.45 40.02 40.26 40.14 40.86 42.06 40.14 41.69 43.60
40.94 41.05 40.29 40.63 41.14 42.06 42.93 43.64 43.67 44.60 44.15 43.96 43.23 42.47 41.78 41.48 41.03 40.83 40.85 40.69 40.46 39.97 39.83 40.22 39.75 40.33 39.62 39.11 38.95 38.64 37.91 37.79 37.85 38.80 38.76 38.96 39.41 39.66 39.04 40.56 40.58 40.50 40.43
39.38 40.74 41.37 41.02 40.71 41.66 41.83 42.62 43.13 43.45 43.16 42.92 42.39 41.99 41.88 41.65 41.37 41.17 41.03 40.71 39.64 38.96 38.81 38.15 37.59 37.09 37.61 38.47 37.44 37.86 37.25 37.09 37.14 37.37 38.15 38.21 40.66 42.33 42.35 40.34 39.74 38.98 38.26
39.64 39.74 39.58 40.70 40.90 41.09 42.04 43.02 43.49 42.95 42.96 42.53 42.34 42.09 41.67 41.17 40.51 39.56 38.61 37.88 37.37 37.03 37.24 36.77 36.81 36.51 38.28 41.57 42.37 40.67 36.86 37.02 37.16 37.34 38.23 38.63 38.96 39.58 42.51 42.44 42.26 40.08 37.88
40.58 40.21 40.01 39.52 40.74 41.25 41.88 42.60 42.66 42.34 41.84 41.79 41.62 41.48 40.79 39.93 38.97 38.07 37.42 36.59 35.81 35.45 35.01 35.08 35.71 35.27 35.76 41.08 42.29 42.55 36.78 37.01 37.31 37.06 37.01 36.49 37.20 36.13 35.86 37.52 38.17 38.01 39.49
39.62 39.04 38.54 38.87 39.54 39.79 41.41 41.76 42.67 42.10 41.44 41.05 40.96 40.82 40.19 39.01 37.65 36.89 36.09 34.93 34.15 34.39 33.81 33.71 32.22 33.02 35.85 40.62 42.05 40.72 34.52 35.72 36.59 36.91 36.89 35.42 33.84 33.97 32.97 32.20 32.14 32.24 32.89
38.92 39.47 39.47 39.71 39.70 39.78 39.64 40.83 40.63 40.72 40.84 40.96 41.02 40.70 39.97 38.09 36.87 35.91 34.92 32.73 33.10 32.30 32.94 33.65 34.17 32.80 33.26 39.78 41.56 38.89 35.57 34.97 34.56 34.65 33.79 33.78 32.88 33.82 36.20 30.92 30.65 30.67 31.61
39.41 39.18 39.18 39.40 39.30 39.59 39.49 39.75 39.60 39.44 40.08 40.66 40.68 40.06 39.59 38.49 37.15 35.79 33.88 35.33 34.93 33.36 34.73 34.88 33.32 35.27 32.79 38.62 40.79 39.58 34.62 33.11 32.36 31.60 31.00 34.87 33.41 34.64 36.48 30.64 27.93 26.84 27.71
38.56 39.27 38.31 38.58 39.77 40.35 40.03 39.20 38.79 39.57 41.33 40.50 39.92 39.39 38.90 38.06 36.59 34.53 35.40 35.12 34.76 34.70 34.60 34.84 32.75 32.41 33.91 34.55 39.35 40.52 32.70 31.59 30.47 29.56 28.54 28.57 35.25 36.95 36.47 34.90 27.45 27.88 28.90
38.78 38.91 37.46 37.65 38.22 39.19 40.36 39.71 38.63 39.40 40.23 40.17 39.92 39.26 38.31 37.99 36.09 35.98 35.17 34.56 34.27 32.76 32.38 33.17 34.40 32.26 32.76 37.90 38.50 39.60 39.31 34.03 27.10 26.14 25.51 26.26 33.38 36.02 37.05 33.66 34.38 34.34 32.92
37.88 37.91 36.66 36.71 37.02 37.23 39.38 38.77 38.56 39.17 39.17 38.94 38.32 37.43 36.84 35.94 35.87 35.56 33.85 32.76 32.26 32.21 31.97 33.65 33.43 30.94 31.65 33.76 37.97 39.55 39.38 39.72 29.17 28.40 29.50 32.29 33.49 34.69 35.06 36.29 34.95 34.53 28.25
37.32 37.13 36.53 36.11 35.88 36.01 36.78 37.19 37.77 38.76 39.00 38.58 38.09 36.39 35.65 34.35 34.55 33.98 34.19 33.29 32.08 31.77 33.23 33.62 32.88 31.30 32.24 32.42 32.31 33.37 34.99 37.94 36.43 34.98 32.11 31.24 31.77 33.36 32.28 32.23 31.41 29.11 27.66
37.43 37.14 36.16 35.58 35.15 35.71 35.78 36.60 37.87 38.50 38.17 38.43 37.42 36.76 36.47 35.39 34.94 34.13 33.85 33.08 34.07 36.34 34.72 33.75 31.80 30.35 31.86 32.31 34.45 33.10 31.06 31.89 33.51 30.47 27.62 26.62 26.79 26.93 28.37 28.35 27.86 27.35 28.34
36.58 36.97 35.75 35.64 35.38 35.18 35.33 35.84 37.85 39.40 38.50 37.12 36.75 36.69 36.72 35.35 34.99 34.43 34.79 38.49 38.34 39.00 39.14 38.46 35.21 33.60 36.38 37.33 37.26 37.43 37.49 36.59 36.45 29.88 26.24 24.65 24.58 25.49 26.28 27.46 27.26 26.97 28.05

GFSMW_sfc_wetblb_105.txt.gz
Wetbulb
55.85 60.47 62.61 63.39 62.62 63.06 63.06 62.97 64.04 66.80 66.45 65.20 64.56 64.54 64.98 65.28 65.12 65.97 66.48 66.17 66.33 65.88 66.00 65.96 65.25 64.28 63.07 62.74 62.27 62.50 62.40 62.56 64.14 63.51 64.01 64.17 63.22 62.64 61.32 61.56 62.55 61.19 61.30
50.68 54.67 59.90 62.82 63.00 64.02 64.64 65.86 65.17 66.50 66.51 66.05 65.79 65.89 65.12 65.69 65.97 66.78 66.28 66.68 66.17 65.93 65.56 65.14 64.82 63.85 62.69 63.06 62.92 63.21 63.39 63.82 63.63 62.17 61.84 59.45 59.98 59.89 59.23 60.20 59.16 59.02 59.64
49.05 50.02 53.66 59.12 62.34 62.79 63.94 64.81 65.32 65.60 64.49 65.53 64.62 64.05 65.18 64.84 64.84 65.46 64.78 64.38 65.51 65.77 65.91 64.54 64.61 64.02 63.69 63.20 64.42 64.14 63.73 62.17 62.52 63.36 61.70 57.12 56.01 57.80 58.75 57.48 58.10 57.61 57.88
48.67 49.24 51.21 52.84 56.90 61.51 63.78 64.12 64.61 65.05 65.39 65.56 64.73 61.70 61.99 62.13 64.25 64.38 65.33 65.55 64.96 65.08 65.58 65.32 65.03 65.20 65.20 63.91 64.01 63.66 63.47 62.49 59.62 61.97 62.30 62.45 59.94 58.10 56.76 57.38 56.20 56.09 55.58
49.01 49.54 49.76 51.25 53.70 55.54 61.09 63.52 63.70 64.71 64.85 65.73 64.80 64.21 62.77 63.93 64.51 64.24 64.18 63.67 64.76 65.03 65.27 65.53 65.23 64.59 64.19 63.69 62.79 61.76 61.30 62.02 61.10 61.08 59.85 60.88 60.78 60.53 58.48 55.93 54.58 54.23 54.33
48.34 49.11 50.33 50.56 51.05 52.99 54.35 59.82 62.61 63.05 64.08 64.11 64.28 63.72 63.34 63.02 62.15 62.65 62.07 62.77 62.58 62.45 63.33 63.46 63.61 62.99 62.31 62.13 61.80 61.07 59.73 59.52 59.68 59.18 59.66 59.10 58.07 57.51 57.46 55.55 55.49 54.78 52.79
48.43 48.27 48.82 49.00 50.10 50.68 51.55 56.52 60.55 61.76 62.66 62.74 63.08 63.48 63.27 62.36 62.03 61.06 61.63 60.73 59.97 59.05 59.91 60.74 60.89 61.03 61.54 61.70 61.07 59.77 57.39 56.83 56.96 56.64 56.76 57.29 57.43 58.17 56.25 55.11 54.59 53.72 52.12
45.30 46.09 47.50 48.81 49.65 50.53 50.56 52.91 57.84 59.66 61.37 62.02 62.72 63.71 63.68 63.30 62.65 61.29 60.57 60.62 59.71 59.01 59.00 59.01 58.34 56.77 57.61 56.97 56.29 55.44 54.98 55.41 55.65 55.53 55.51 55.80 56.07 56.77 56.21 54.31 53.86 51.76 52.06
43.92 43.60 43.92 46.60 48.71 49.84 50.28 50.00 52.51 56.10 58.94 60.43 61.08 61.05 61.35 61.23 61.03 60.14 59.30 59.39 58.58 56.97 55.75 54.98 53.95 53.09 52.43 51.19 50.98 49.99 50.23 51.38 52.39 52.98 53.64 53.47 53.40 53.94 54.57 55.20 54.25 51.30 47.75
43.83 44.90 44.30 44.43 46.23 47.96 48.94 49.22 51.04 53.76 56.38 58.00 59.44 58.52 57.42 57.44 57.47 57.32 57.12 56.62 55.19 53.98 52.88 51.64 50.66 49.72 48.82 48.08 48.34 47.45 48.14 48.92 50.50 51.87 51.83 51.90 52.01 52.25 52.78 53.12 53.25 52.86 50.20
42.07 43.87 44.43 44.44 45.61 47.03 48.22 49.18 50.39 51.82 52.55 53.30 53.49 53.25 53.06 53.19 53.34 54.03 53.79 53.12 52.37 51.69 50.75 49.38 47.71 46.64 45.87 46.05 46.42 46.47 46.80 47.24 47.79 48.76 49.48 49.51 49.85 50.54 50.80 51.14 51.34 51.36 50.71
41.66 42.37 44.28 44.88 45.49 46.25 47.40 48.84 49.75 50.71 50.92 50.39 50.01 50.00 50.02 50.00 50.18 50.12 49.89 50.03 48.23 47.35 46.01 45.47 45.27 45.05 44.90 45.26 45.27 44.87 44.94 45.14 45.12 45.17 45.98 45.92 46.66 47.54 47.88 48.30 48.37 48.04 48.25
41.71 42.11 42.70 43.21 45.20 45.76 46.18 46.92 47.69 48.41 48.37 48.27 48.11 47.52 47.53 47.56 46.99 46.58 46.60 46.40 45.44 45.07 45.03 44.83 44.26 43.80 43.55 43.25 43.45 43.49 43.16 42.90 43.23 43.46 44.10 44.41 44.77 45.33 45.83 45.73 45.61 45.45 45.31
42.23 42.44 42.54 42.55 43.32 44.62 46.04 46.34 46.78 47.51 46.82 46.67 46.31 45.77 45.57 45.46 44.83 44.35 44.24 44.10 44.16 43.70 43.65 43.57 42.93 42.35 42.19 42.13 42.07 41.78 41.17 41.87 42.07 42.27 42.72 43.09 43.46 43.68 43.89 43.63 43.67 42.92 42.34
41.27 41.46 42.36 42.90 42.71 43.49 44.31 45.31 45.93 46.37 46.18 45.78 45.38 44.88 44.43 43.99 43.47 43.21 43.18 42.91 43.00 42.80 42.68 41.69 41.07 40.86 41.05 40.72 40.99 41.08 41.08 41.21 41.15 41.09 41.00 41.56 42.19 42.43 43.63 42.94 42.80 41.45 40.70
41.64 42.00 41.49 41.74 42.83 43.44 43.80 44.59 45.14 45.38 45.45 44.95 44.79 44.15 43.64 43.29 43.17 42.85 42.46 41.98 41.05 40.93 40.82 40.40 40.20 40.48 40.35 43.39 43.38 41.76 40.97 40.57 40.36 40.23 40.44 40.49 40.01 40.20 42.42 42.18 42.13 41.94 40.39
41.61 42.02 41.74 41.21 41.45 42.76 43.79 44.26 45.11 44.86 44.56 44.61 44.22 43.61 43.22 42.59 42.29 41.67 40.72 39.83 39.55 39.54 39.43 39.32 39.57 39.43 40.56 43.08 43.48 42.46 40.57 40.01 40.01 39.44 38.89 38.17 38.24 37.43 37.54 37.97 37.86 37.63 38.58
41.25 41.11 40.36 41.34 42.30 42.23 42.94 43.65 44.26 44.32 44.07 43.74 43.39 43.19 42.67 41.91 40.95 40.31 39.57 38.40 38.55 38.41 38.10 37.91 37.63 38.09 39.17 42.37 43.31 40.23 36.96 38.88 38.97 38.69 38.55 37.74 35.93 35.72 34.95 34.41 34.05 33.66 34.71
40.51 41.07 41.35 41.45 41.58 41.61 41.85 42.02 42.74 43.41 43.10 43.09 43.15 42.99 42.52 41.01 39.83 39.01 37.86 36.65 34.65 34.24 35.22 36.53 36.70 37.48 38.21 41.57 42.32 39.15 37.75 37.39 36.89 36.69 36.00 35.60 34.84 34.79 36.68 32.87 31.95 31.73 32.49
40.59 40.27 40.86 41.29 41.14 41.47 41.54 40.64 41.00 41.50 42.25 43.46 43.02 42.68 42.22 41.07 39.72 38.70 36.92 36.77 36.62 34.84 36.52 36.21 36.74 37.37 37.43 39.60 41.58 40.45 37.44 36.17 35.13 34.04 32.89 35.07 36.11 35.17 36.29 33.70 31.34 29.84 31.47
40.06 40.88 40.00 39.45 39.73 40.21 40.47 40.46 40.49 40.44 42.57 42.58 42.53 41.95 41.57 40.43 39.35 36.57 37.10 36.39 36.49 36.37 36.54 36.67 36.32 36.55 37.36 37.65 40.40 40.81 36.40 35.27 33.76 32.87 31.32 31.47 34.65 37.31 36.78 36.17 32.85 31.74 32.74
39.72 39.71 39.08 38.59 38.77 38.89 39.65 40.27 39.94 40.88 41.89 41.86 41.37 40.59 40.00 39.05 37.52 37.22 36.71 36.73 36.57 36.11 35.60 35.76 36.14 35.99 36.14 38.46 39.46 40.23 40.31 36.90 33.13 31.64 31.36 31.14 33.07 35.22 37.29 36.44 35.11 34.92 33.95
38.53 38.64 37.91 37.84 37.90 37.67 38.47 39.61 40.24 40.37 40.41 40.60 40.37 39.82 38.89 37.99 37.67 36.63 35.70 35.47 35.91 35.52 35.17 35.39 35.68 35.10 34.66 35.38 38.35 39.97 40.24 40.54 31.58 31.03 31.44 32.19 33.31 34.40 35.60 37.38 36.05 35.33 32.15
37.74 37.76 37.37 36.98 36.70 36.81 37.18 37.97 39.22 40.13 40.26 39.81 39.09 38.44 37.88 36.83 37.41 36.92 36.20 35.84 35.37 35.38 35.40 35.23 35.20 35.45 34.03 34.56 35.33 36.01 37.77 39.63 38.26 36.02 35.06 34.04 33.29 33.42 33.63 34.67 34.38 32.49 31.80
37.93 37.54 36.91 36.28 36.02 36.48 36.70 37.33 38.98 39.74 38.93 38.72 38.47 38.01 38.35 36.54 35.79 36.36 36.04 36.27 36.94 37.10 36.64 36.10 35.39 34.35 33.85 34.67 36.18 35.14 33.68 33.58 34.42 32.84 30.89 30.03 29.84 30.05 30.75 31.49 31.34 31.16 31.40
37.76 36.99 36.62 36.48 36.19 36.13 36.40 38.07 39.18 39.85 39.29 37.97 37.72 37.68 37.25 36.50 36.35 35.79 35.36 38.29 38.54 39.59 39.64 38.61 36.48 34.93 36.99 37.37 37.74 37.91 38.02 37.25 36.74 31.91 29.86 29.69 29.56 28.86 29.04 29.48 30.27 30.29 30.64

GFSMW_sfc_wetblb_108.txt.gz
Wetbulb
59.49 61.11 62.07 62.31 63.17 63.96 63.53 63.99 66.35 68.30 67.67 67.54 66.68 66.38 65.61 66.06 66.02 66.83 67.33 68.02 68.49 69.35 69.32 69.15 68.58 68.04 66.91 66.64 66.67 65.31 64.86 64.73 66.35 65.37 65.51 66.37 66.69 66.23 66.27 65.53 65.33 64.56 65.36
57.23 60.64 61.46 61.58 62.13 62.24 63.10 63.17 65.10 67.09 67.48 67.48 66.87 67.17 67.30 67.89 67.76 67.72 67.79 68.39 68.22 68.58 68.72 68.80 68.35 68.09 67.11 66.70 66.05 65.29 64.63 65.29 66.12 63.69 62.53 58.86 61.85 63.34 63.65 64.00 63.37 63.26 64.02
56.27 59.27 61.31 61.45 61.44 62.02 63.23 64.03 64.72 66.65 67.13 67.47 66.28 64.67 64.54 65.60 66.19 67.41 67.98 68.15 67.89 68.25 68.15 68.04 68.11 67.78 66.48 64.47 64.80 65.34 65.21 64.15 64.97 63.89 61.48 57.98 56.93 60.04 62.14 61.72 62.53 62.29 63.05
52.14 55.87 58.50 61.24 60.44 61.95 64.33 64.07 63.88 65.84 66.16 65.58 64.28 62.18 60.99 60.58 64.84 65.89 67.59 66.64 66.90 66.43 65.45 64.89 65.68 66.34 65.61 65.00 65.11 65.27 64.80 63.12 60.05 62.36 62.77 63.20 62.11 58.11 57.37 60.52 60.16 60.13 60.12
52.49 52.29 53.63 57.06 62.02 63.19 62.63 64.45 63.48 64.16 64.17 64.67 63.80 63.27 61.64 61.72 62.90 63.95 63.64 63.41 64.21 65.58 65.90 65.88 65.72 65.32 65.64 65.72 64.90 64.26 63.44 62.38 61.57 61.47 61.56 61.52 62.03 61.99 59.46 55.80 57.67 58.97 59.39
53.14 53.52 54.21 54.57 55.91 59.74 62.95 64.45 64.23 63.47 63.89 63.59 64.48 64.45 62.49 61.51 61.43 62.41 62.14 62.68 63.27 64.46 65.25 65.55 65.27 65.80 65.54 64.99 64.74 64.63 62.87 61.87 62.21 61.66 60.95 60.36 59.16 57.50 57.44 56.11 56.23 56.37 58.03
53.38 53.20 53.19 52.81 53.58 55.31 57.35 61.51 64.30 63.76 64.38 64.38 64.33 64.36 64.15 62.78 62.11 62.32 62.79 62.88 63.09 62.09 63.03 64.18 64.34 64.41 64.82 63.96 63.08 62.41 62.09 60.44 59.34 58.88 59.79 59.67 58.46 58.62 57.45 55.97 54.61 54.29 56.34
52.48 52.88 53.17 54.61 54.23 55.28 56.15 58.00 60.49 63.28 64.88 64.45 64.15 65.21 64.63 64.42 63.89 64.03 64.06 63.59 62.70 62.15 62.41 62.54 63.36 62.58 61.78 61.26 60.81 59.30 58.92 58.96 58.54 57.89 57.55 57.31 57.56 57.67 57.27 55.55 54.21 52.39 53.66
50.42 50.72 50.91 53.20 54.17 54.80 56.01 56.68 58.47 60.65 63.39 64.00 63.15 63.74 64.58 64.54 63.96 63.93 63.99 63.04 62.74 61.85 61.62 60.61 59.48 58.25 57.44 57.91 58.43 59.23 57.99 56.37 55.17 56.41 57.06 56.31 56.43 56.73 56.92 56.78 55.60 53.08 49.56
48.82 49.56 49.52 49.48 50.96 52.57 55.18 55.62 56.64 58.78 61.30 63.15 63.33 62.63 62.90 63.42 63.50 63.57 62.65 61.38 60.51 59.14 58.84 57.00 55.45 54.32 54.69 54.77 54.21 53.18 52.90 53.37 53.78 54.21 54.34 54.64 55.05 55.24 55.53 55.43 55.25 53.91 51.24
48.69 49.28 49.13 48.98 49.23 51.15 52.81 53.70 54.70 56.39 59.19 61.45 61.08 60.59 60.60 60.78 60.56 60.92 58.79 57.54 56.43 55.66 53.86 53.09 51.86 51.31 51.36 51.62 51.34 50.46 50.74 51.08 51.46 52.08 52.87 52.79 53.29 53.42 53.58 53.95 53.58 52.34 51.27
47.22 49.01 49.26 49.55 49.27 50.91 52.19 53.09 54.33 55.50 57.20 58.84 59.59 59.37 58.15 57.55 57.92 57.47 55.76 55.13 54.34 54.00 52.37 51.18 50.49 50.04 49.37 50.04 49.70 48.82 49.61 49.73 49.42 49.86 50.03 50.21 49.69 51.21 51.57 51.76 51.47 50.84 50.96
46.41 47.61 49.50 50.25 50.36 50.34 51.37 52.53 53.46 54.41 54.73 55.06 55.48 54.72 54.49 55.22 55.61 55.36 53.78 53.35 51.33 49.16 47.61 47.51 47.14 47.86 48.21 48.21 48.54 48.58 47.96 47.98 47.96 47.95 47.91 47.65 48.14 49.06 49.80 49.65 49.18 49.30 48.14
46.43 47.11 47.57 48.26 50.06 50.94 51.14 51.92 52.21 53.45 52.99 52.91 52.95 52.87 53.04 53.59 53.43 52.90 52.40 50.11 48.28 46.87 46.40 46.83 47.17 47.32 46.76 46.88 46.53 46.62 46.52 46.38 46.40 46.30 46.84 47.00 47.10 47.23 47.28 46.93 47.03 46.72 45.98
46.51 46.29 47.22 47.70 48.90 49.69 50.82 50.92 51.16 51.40 51.73 51.28 51.14 51.05 51.38 51.29 50.22 50.12 49.92 49.44 49.14 48.33 47.84 46.95 46.39 46.07 45.88 45.04 45.49 45.64 45.48 45.35 45.14 45.03 44.86 45.19 44.31 42.67 44.78 45.29 46.15 45.29 43.96
46.50 47.05 46.44 46.54 47.16 48.23 49.18 49.72 50.51 50.80 51.09 50.78 50.24 49.28 48.90 48.61 48.21 48.33 47.96 47.66 47.18 46.97 46.56 46.05 45.39 45.01 43.78 43.07 43.59 45.16 45.08 44.34 44.16 43.84 43.87 44.09 41.75 41.93 42.74 42.38 42.08 43.36 42.82
46.19 46.44 46.21 46.06 46.68 46.97 48.06 49.02 50.05 50.38 50.12 50.27 49.74 48.41 48.14 47.58 47.26 46.85 46.28 45.79 45.70 45.91 45.53 44.69 44.90 44.70 45.07 44.36 44.18 43.20 44.32 43.62 43.57 43.12 43.02 41.86 41.18 40.17 41.25 39.29 38.18 38.00 38.42
46.03 45.87 45.43 45.84 46.27 46.95 47.31 47.58 48.46 49.58 49.50 49.88 49.39 48.75 47.88 47.20 46.79 46.09 45.82 45.74 45.46 45.03 44.51 43.91 44.45 44.04 44.09 44.03 44.07 40.90 41.19 42.41 42.70 42.80 42.65 41.87 40.20 38.59 37.81 38.05 37.38 35.94 36.10
45.44 45.68 46.01 45.60 45.95 45.94 46.24 46.08 46.92 47.98 48.40 48.68 49.09 48.81 48.20 47.03 46.18 45.58 45.23 44.43 41.20 40.94 43.20 42.65 41.39 42.90 43.08 43.20 43.20 41.32 41.71 41.19 40.95 41.11 40.67 39.97 38.27 37.02 37.77 36.32 34.94 34.45 34.20
45.03 44.92 45.62 45.59 46.03 45.95 45.91 45.71 46.07 46.22 46.83 48.18 48.38 48.41 48.02 47.07 45.83 45.47 43.69 42.86 40.20 38.09 40.04 40.22 42.52 42.81 43.03 42.57 42.86 41.93 41.62 40.08 39.02 38.46 37.30 37.33 37.40 36.60 37.69 37.63 35.90 33.40 33.25
43.24 44.59 44.88 44.59 44.62 44.77 44.78 45.11 45.93 45.70 46.78 47.15 47.74 47.40 47.13 46.43 45.44 41.37 41.47 39.36 38.66 38.93 39.65 39.91 41.31 41.85 42.62 42.03 42.61 41.87 40.75 39.37 38.28 37.36 36.06 33.98 36.07 38.00 37.40 37.32 36.87 35.18 35.60
41.70 42.33 42.60 42.97 43.30 43.20 42.93 44.42 44.83 46.39 46.08 46.11 46.56 46.48 46.29 44.25 43.14 42.52 40.04 40.01 39.72 39.54 39.23 39.38 39.77 40.70 41.14 40.65 41.13 41.64 41.03 40.06 38.03 36.72 37.24 36.52 34.58 35.70 37.15 37.71 36.28 35.14 34.53
41.81 42.37 41.36 41.13 41.47 41.68 41.98 42.26 44.26 44.31 44.66 45.22 45.51 45.64 45.54 44.24 43.64 41.04 38.67 38.40 39.39 39.15 39.44 40.43 40.30 39.86 39.62 40.68 40.33 41.17 41.34 40.88 37.14 36.16 34.42 33.34 33.49 34.25 35.32 37.72 36.87 36.03 35.26
41.08 41.39 41.74 41.73 41.32 40.87 40.66 41.55 43.10 44.00 44.24 44.82 44.86 44.79 43.99 42.92 42.44 40.75 38.91 39.35 38.58 40.41 40.39 39.71 39.21 39.64 38.37 38.47 39.28 39.92 40.79 40.66 39.43 36.88 35.86 36.22 35.34 34.57 34.79 35.31 37.04 36.28 35.42
40.83 40.77 40.43 39.79 39.76 40.93 40.87 41.62 42.36 43.72 43.72 43.72 43.05 42.72 42.22 40.48 39.46 39.91 39.33 38.98 40.01 41.55 40.62 40.05 39.23 37.61 37.34 37.58 39.29 38.81 38.25 39.46 39.38 37.19 34.87 34.85 33.18 33.06 32.92 33.63 34.46 34.92 34.41
39.40 39.41 38.70 38.47 39.42 40.12 39.94 39.55 40.31 42.27 43.10 41.22 40.21 39.61 39.07 38.11 37.74 37.11 36.51 38.86 38.89 39.71 40.26 39.94 38.62 37.46 38.21 38.48 38.71 38.60 38.09 37.53 37.61 34.59 32.26 32.31 32.86 32.94 32.75 31.88 32.35 33.00 32.81

GFSMW_sfc_wetblb_111.txt.gz
Wetbulb
59.87 60.72 61.51 62.28 62.32 63.08 64.30 66.51 66.55 66.66 66.64 66.79 65.79 65.16 64.10 65.13 66.38 68.24 69.37 68.86 68.60 68.18 68.14 68.41 68.29 68.06 66.86 66.78 66.82 65.98 64.63 64.73 65.93 65.88 65.47 65.48 66.17 65.89 66.28 66.31 64.96 64.66 64.57
58.36 59.75 60.93 61.62 62.27 61.95 62.49 62.66 64.68 65.89 66.54 67.07 67.16 67.19 66.51 67.16 66.82 66.95 67.38 67.89 68.15 68.67 68.03 67.67 68.15 68.22 67.47 66.87 66.73 66.27 64.60 65.50 67.33 64.18 62.77 58.90 60.79 63.82 64.34 64.49 63.72 63.43 64.12
57.11 58.24 59.75 61.04 61.41 61.26 62.12 62.22 62.51 64.78 66.10 66.75 66.66 66.56 66.84 67.07 66.73 67.40 67.44 68.04 68.08 68.81 69.40 68.70 68.55 68.21 68.17 67.34 66.08 65.68 65.08 64.37 65.31 65.19 61.33 58.08 56.65 59.39 62.83 62.38 62.53 62.20 62.64
57.86 57.99 59.60 60.37 59.99 59.39 60.46 62.18 62.08 62.99 66.50 66.65 65.00 63.88 63.18 62.90 65.48 66.44 67.39 67.41 67.69 67.74 67.88 67.87 67.63 67.16 66.99 65.93 65.53 65.47 65.72 64.35 61.69 61.96 62.65 63.10 61.18 57.47 56.95 61.31 61.30 61.54 60.87
56.34 57.82 59.70 60.92 60.54 59.60 60.08 62.24 62.26 62.81 63.67 64.64 64.20 64.27 62.92 64.09 65.55 64.95 64.34 64.20 63.92 66.43 66.74 66.46 66.19 65.61 65.47 65.28 65.36 64.24 63.27 63.07 62.36 61.53 61.70 61.75 61.76 61.79 59.21 56.24 58.21 59.33 59.98
52.86 54.76 59.00 61.41 60.24 61.90 62.92 62.28 61.69 62.21 63.20 63.32 63.78 63.48 62.92 62.25 62.47 62.12 62.06 62.31 62.85 63.22 65.21 65.93 65.92 65.11 64.45 64.06 64.36 64.09 64.18 63.04 62.63 61.76 61.11 60.66 59.43 58.91 58.39 56.17 56.23 55.79 57.97
53.13 53.22 53.32 54.42 57.76 59.72 61.74 61.48 62.28 61.46 62.23 62.18 61.64 62.70 63.20 62.23 61.63 60.79 60.35 60.88 61.38 61.91 62.90 64.55 64.87 64.57 64.46 64.73 64.75 64.24 64.09 63.38 61.23 60.85 60.08 60.79 60.31 59.79 58.02 56.37 54.85 53.66 55.66
54.16 53.38 53.86 53.74 54.84 57.21 59.36 61.44 62.31 61.73 62.28 61.63 61.84 62.98 63.11 62.85 61.20 61.30 61.16 60.95 61.77 62.25 64.21 63.97 64.88 64.25 64.37 63.75 63.72 63.09 62.09 60.73 59.57 58.70 58.74 59.03 58.29 58.31 57.62 56.10 54.43 52.33 53.23
50.81 54.33 54.83 54.87 54.84 55.58 57.07 58.94 61.37 62.36 62.62 62.36 62.59 63.08 63.07 62.10 61.89 61.90 62.48 62.51 63.45 63.34 62.99 62.84 62.40 61.67 61.16 60.99 60.53 59.20 57.58 58.75 59.10 59.64 58.11 56.92 55.81 57.54 57.59 57.39 56.25 53.72 49.09
50.07 52.65 51.48 52.33 54.48 55.99 56.87 58.02 59.23 60.76 63.67 64.44 64.02 64.04 63.80 64.07 63.95 64.03 63.66 63.29 62.90 61.69 61.35 59.83 58.29 58.21 57.00 57.07 56.63 56.35 55.23 55.76 56.08 55.89 55.62 55.51 55.62 55.56 55.74 55.32 55.17 54.58 51.62
50.05 50.87 50.88 50.88 50.54 52.22 55.05 56.27 57.45 59.15 60.69 63.68 63.69 62.83 63.72 63.75 63.85 62.82 62.31 61.42 59.84 59.14 57.59 55.64 54.18 53.63 53.75 53.41 53.63 53.40 53.41 53.20 52.99 52.70 53.78 53.78 54.13 53.88 54.04 54.26 53.70 52.67 52.09
48.73 50.42 50.88 50.37 50.83 51.07 51.96 53.92 55.21 56.84 59.60 61.84 62.16 61.72 61.70 61.21 60.64 60.41 58.70 58.08 57.12 56.44 55.46 53.60 52.13 51.06 51.07 51.51 51.49 49.73 50.21 50.09 50.42 51.09 51.12 51.45 50.76 51.39 52.18 51.66 51.60 51.56 50.73
48.06 49.44 50.85 50.79 50.76 51.60 52.50 53.40 54.45 55.83 58.33 59.88 60.45 60.34 59.40 59.42 59.16 58.03 56.73 56.27 55.27 53.44 52.25 51.76 50.17 49.16 48.90 49.81 49.97 49.56 49.75 49.61 49.66 49.27 49.14 49.37 49.48 49.48 49.99 50.12 49.52 49.59 48.40
47.48 48.15 48.90 50.18 51.19 51.70 52.31 53.22 54.32 55.08 55.54 56.53 56.29 56.35 56.39 57.08 56.94 56.14 55.28 53.66 52.24 49.31 47.94 47.93 47.82 47.60 47.86 48.38 49.22 48.18 47.81 47.49 47.57 47.54 48.15 48.08 47.92 47.89 47.81 47.28 47.05 47.18 45.81
47.33 47.29 47.65 48.88 49.99 51.05 51.53 52.53 52.90 53.46 53.67 53.38 53.71 53.64 54.33 54.58 54.18 53.79 52.33 50.73 49.76 48.51 47.46 46.54 46.52 46.64 46.89 46.91 46.30 46.86 46.81 46.26 45.87 45.95 46.01 46.25 44.37 43.51 44.43 45.15 45.96 45.35 44.07
47.21 47.81 47.82 47.99 48.48 49.39 49.88 51.30 51.71 51.51 52.58 51.72 51.39 51.41 51.39 50.93 51.17 51.26 51.20 49.59 47.83 47.12 46.68 45.92 45.98 47.01 45.31 45.72 46.74 46.40 45.46 45.39 45.24 44.46 44.51 44.39 41.92 42.14 43.24 42.91 42.61 42.58 42.71
47.12 47.23 46.75 46.95 47.51 47.70 48.71 49.60 50.71 51.41 51.63 51.36 50.62 49.93 49.71 49.14 49.00 48.99 48.50 47.55 47.10 46.98 46.51 46.16 45.93 44.81 43.93 44.80 44.92 45.59 45.18 44.48 44.29 44.06 44.03 43.27 42.35 41.09 43.13 40.62 39.38 39.07 39.18
45.59 46.50 46.95 47.27 47.44 48.22 48.57 48.66 49.36 50.31 50.66 50.79 50.19 49.72 49.19 48.43 47.98 47.28 46.80 46.60 46.55 46.33 45.60 44.96 45.04 45.01 44.29 45.11 44.27 43.34 42.68 43.35 43.54 43.50 43.49 43.11 41.78 40.90 39.84 39.46 37.93 37.19 37.11
45.65 46.20 47.22 47.02 47.52 47.58 47.68 47.73 48.13 48.59 49.37 49.75 50.30 49.84 49.00 47.84 47.09 46.13 46.05 46.12 42.49 42.42 44.32 44.24 44.00 44.20 43.22 44.73 43.49 42.20 42.39 42.15 41.93 42.43 42.31 42.02 40.51 39.87 39.10 37.68 35.43 35.16 34.84
45.78 45.61 46.37 47.22 47.50 47.33 47.35 46.70 47.00 47.26 47.49 48.61 49.90 50.44 49.60 48.44 46.76 46.55 45.60 45.13 41.81 39.93 43.22 42.87 43.64 44.38 43.17 44.30 43.27 42.30 42.38 40.92 40.20 40.22 39.79 38.32 39.21 38.86 38.92 37.49 36.67 32.81 32.65
44.66 45.14 45.50 45.78 46.06 45.98 45.94 45.82 46.88 46.66 48.30 48.75 49.54 49.94 49.69 48.40 47.60 44.78 44.95 42.95 40.35 41.10 41.50 41.17 42.26 42.29 43.68 42.73 43.61 42.63 41.81 40.23 38.73 37.57 37.17 36.23 38.88 39.31 38.13 38.11 36.57 34.30 34.43
42.48 43.24 43.14 44.09 44.89 44.87 44.55 44.76 45.47 47.35 47.36 47.54 47.16 48.21 48.71 47.34 46.01 44.61 42.47 41.68 41.23 40.35 40.05 40.40 40.83 41.88 42.76 43.32 43.08 42.80 41.92 41.63 38.26 36.38 37.85 37.61 37.51 37.67 38.29 37.99 37.99 36.03 34.55
43.20 43.64 43.26 42.77 43.47 43.36 43.03 42.66 44.28 45.32 45.81 46.10 46.39 47.12 47.47 46.17 45.06 43.44 41.41 40.96 41.07 41.21 40.87 40.79 40.62 40.12 41.13 41.65 42.03 42.51 42.33 41.79 39.19 37.77 36.51 36.80 35.58 35.48 35.81 37.40 38.04 37.13 33.40
42.74 42.77 42.93 42.84 42.83 42.81 42.68 42.74 43.04 44.76 45.12 45.39 45.94 46.67 46.12 44.93 44.78 43.23 41.17 41.25 41.10 41.29 41.08 40.81 40.56 40.02 39.46 40.03 40.50 40.56 40.82 41.51 40.58 38.94 35.50 35.14 35.31 35.40 34.91 34.65 36.32 34.25 33.45
42.44 42.44 41.56 40.81 40.72 42.03 42.02 42.01 42.34 43.95 44.38 45.10 45.14 44.98 45.10 44.08 43.29 42.24 40.56 41.24 41.97 42.79 41.74 40.82 39.64 38.82 37.72 38.68 40.35 40.31 39.88 39.96 39.62 37.34 35.20 34.05 32.87 31.78 31.34 31.72 32.15 33.19 32.81
40.97 40.50 40.19 40.23 40.39 41.02 41.07 40.69 41.42 42.23 43.36 42.78 43.11 42.82 41.27 39.81 39.42 38.84 37.66 39.70 40.32 41.18 40.96 41.38 39.87 38.21 39.63 40.58 40.75 40.64 40.37 40.03 40.63 35.11 33.05 32.57 32.19 32.07 31.46 30.36 30.47 31.15 32.02

GFSMW_sfc_wetblb_114.txt.gz
Wetbulb
57.79 57.69 58.47 58.79 59.39 60.27 60.25 60.29 61.22 64.31 62.66 63.07 63.52 64.46 64.12 65.10 65.57 66.08 66.47 65.36 65.26 64.58 64.14 65.55 65.57 64.62 63.63 63.44 63.41 62.77 60.95 60.93 62.00 61.81 61.35 61.72 62.26 62.12 62.09 62.30 60.82 60.91 61.18
56.86 57.92 58.64 59.58 60.12 61.26 61.00 63.18 63.38 63.89 63.68 63.44 62.80 62.29 62.48 64.37 66.23 66.86 67.11 67.03 66.30 66.02 65.72 65.79 65.73 65.79 64.33 63.90 63.93 63.31 61.09 61.22 62.81 60.28 58.83 55.36 57.20 60.16 61.73 59.96 59.87 58.72 60.10
56.68 57.81 58.31 59.19 60.46 60.54 60.30 61.76 62.24 63.79 64.63 65.08 65.16 64.67 64.70 64.16 63.56 63.40 63.42 64.68 65.86 65.84 66.19 66.35 66.47 65.32 65.21 64.17 63.71 62.87 62.56 61.36 62.09 62.27 58.45 54.80 53.34 56.52 59.27 58.33 58.59 57.91 58.36
57.06 57.73 58.03 58.89 59.63 59.66 60.39 61.61 61.31 62.25 63.65 65.44 64.36 63.51 63.01 62.49 63.70 64.54 64.81 65.01 65.86 65.89 66.02 65.47 65.58 64.60 64.56 63.42 62.35 63.54 62.82 61.98 59.97 60.66 61.51 60.22 59.00 54.67 53.92 57.38 57.33 57.66 57.21
56.64 55.87 56.87 59.29 59.30 59.76 59.42 59.92 60.83 61.40 62.37 62.55 62.71 61.76 61.31 61.52 64.16 63.97 62.94 62.17 62.58 64.77 65.06 64.46 64.43 64.18 63.85 63.96 62.56 62.49 62.36 61.64 61.32 59.92 60.08 59.34 59.20 58.21 55.65 52.92 54.28 55.68 55.96
55.33 56.21 56.76 60.04 58.66 58.53 58.21 59.81 59.88 60.06 61.71 61.71 62.40 61.58 60.71 60.95 61.07 61.30 61.31 61.23 60.88 61.82 63.90 64.44 64.00 63.94 63.47 62.81 62.47 62.81 62.44 62.16 61.83 61.51 60.15 59.10 57.08 56.71 55.40 54.33 53.55 52.46 54.36
51.99 53.27 56.70 59.09 58.32 57.14 58.22 60.10 59.89 59.38 61.55 61.21 61.57 61.45 61.01 60.96 60.33 60.20 59.97 59.78 59.92 60.09 61.36 63.28 63.47 63.25 63.13 62.71 62.72 62.90 62.67 62.64 62.37 61.72 60.65 59.94 58.87 57.98 55.34 53.16 51.61 50.44 51.85
50.33 51.83 52.50 54.71 57.95 58.54 59.48 60.36 60.03 58.98 59.85 60.98 61.17 61.02 61.79 61.03 60.64 60.24 59.93 59.89 59.17 59.72 60.87 61.90 61.99 62.70 63.19 63.47 63.22 62.94 63.20 63.19 61.96 60.11 59.40 58.74 57.61 56.70 55.88 53.81 51.31 49.36 49.97
48.86 50.69 51.59 52.16 53.89 56.00 58.95 60.40 59.73 59.56 60.45 61.07 61.23 61.10 61.01 61.62 60.72 60.08 60.14 60.28 60.11 60.40 61.16 61.41 61.88 61.89 62.67 62.71 62.61 60.62 59.57 60.11 59.02 58.67 57.62 56.86 56.66 56.17 54.89 54.12 53.09 50.49 46.06
48.07 47.98 48.72 49.72 51.27 52.62 55.10 58.29 60.44 60.68 61.01 61.31 61.19 61.06 61.26 61.95 61.61 61.06 59.71 60.19 60.36 60.64 60.64 60.48 60.99 60.11 60.08 59.87 60.32 58.46 58.78 58.23 56.99 56.88 56.08 53.94 52.57 52.96 53.08 52.14 52.06 50.97 48.45
46.97 47.28 47.31 47.23 47.10 48.66 53.07 55.05 57.44 58.11 58.68 60.83 61.28 61.12 60.88 61.47 61.37 61.19 60.11 60.38 61.30 60.62 60.13 60.01 58.94 57.96 57.35 57.28 57.62 55.61 55.91 54.52 53.02 53.48 52.36 51.52 51.73 50.76 50.94 50.78 50.34 49.18 49.29
46.17 46.89 46.88 46.91 47.29 48.12 49.91 51.45 52.17 54.71 56.74 60.14 60.72 60.38 60.38 60.16 60.18 60.53 60.79 59.98 59.09 58.15 56.62 55.78 54.92 54.77 54.47 53.43 51.79 50.63 51.28 51.02 50.31 49.44 50.19 50.57 49.98 48.63 48.65 48.24 48.14 47.95 47.33
44.10 45.68 46.87 46.95 47.97 48.46 48.22 49.95 51.74 53.89 57.30 58.64 58.61 59.41 59.20 59.04 58.10 56.79 56.41 56.88 55.49 54.13 53.05 53.38 52.50 50.65 50.68 50.09 49.94 49.82 49.53 48.85 48.34 48.66 47.67 47.11 47.01 46.37 46.72 46.64 45.61 45.64 46.31
43.48 43.62 44.30 46.63 47.08 48.22 49.13 50.03 51.45 53.30 54.80 55.69 55.88 55.74 56.09 56.75 56.64 55.67 55.31 54.15 51.46 49.96 48.87 48.47 48.41 47.90 47.97 48.49 48.65 48.57 48.18 47.62 46.63 45.76 45.79 45.83 45.54 44.74 44.67 44.58 43.45 43.82 42.73
43.79 43.18 42.75 43.88 45.95 47.11 48.02 48.94 49.82 50.72 51.70 52.85 53.31 52.96 53.10 53.27 53.10 51.63 51.12 50.27 48.64 47.51 46.97 46.50 46.42 46.68 46.75 47.00 47.21 47.37 46.39 45.54 44.05 43.97 44.42 43.61 42.87 44.24 44.21 42.84 41.72 42.10 41.35
44.35 43.78 43.40 43.33 43.81 44.03 46.59 48.59 48.25 48.72 49.84 49.47 49.93 51.13 50.40 50.18 50.14 49.45 48.01 47.53 46.64 45.91 45.74 45.69 45.68 45.48 45.52 47.34 48.01 47.33 44.29 43.75 43.07 41.93 41.99 41.49 41.96 43.02 44.29 43.80 43.36 41.64 39.12
42.62 43.04 43.39 43.02 42.91 43.27 44.51 44.93 47.35 48.63 48.65 48.32 48.07 48.02 47.79 47.41 47.39 47.30 46.58 45.97 45.11 45.33 44.89 44.98 45.08 43.51 44.31 47.43 48.00 46.12 42.98 42.36 42.06 41.69 41.36 41.28 41.11 41.38 40.46 41.72 41.02 40.26 40.44
42.13 42.72 42.35 42.64 43.41 44.07 44.12 44.25 46.13 47.60 47.94 47.80 47.22 47.25 46.93 46.12 45.60 44.90 44.23 43.74 43.74 44.40 44.49 44.27 43.70 42.72 43.46 45.98 45.76 44.78 41.23 41.53 41.20 41.47 41.22 39.98 38.18 38.85 38.40 37.02 35.28 34.33 34.71
41.82 42.25 43.43 44.14 43.78 43.40 43.80 44.26 44.53 44.95 46.56 47.21 47.06 46.79 46.38 45.49 44.82 43.76 43.11 42.57 39.92 39.38 41.09 41.75 41.64 41.08 42.44 44.98 44.49 42.72 41.34 40.40 39.61 40.24 39.89 39.45 37.61 40.47 40.19 35.77 32.71 32.76 32.50
42.95 42.27 42.26 43.19 42.99 43.51 43.93 43.38 43.48 43.74 43.44 44.68 46.57 47.29 46.32 45.13 43.57 43.02 42.56 41.43 41.02 39.01 40.59 40.99 40.87 42.45 41.23 44.77 43.69 42.90 40.67 37.88 37.60 37.48 37.24 40.58 37.83 40.31 40.33 35.55 33.89 30.35 29.68
42.24 42.45 41.85 41.38 41.79 42.41 42.50 41.95 42.79 42.91 44.66 45.42 45.15 46.91 46.51 45.04 43.63 41.87 40.79 38.76 38.94 39.24 38.94 39.20 39.82 40.33 41.60 42.83 44.05 43.63 39.83 38.45 36.07 35.23 34.56 34.82 40.04 39.79 39.67 39.40 35.54 32.91 31.48
40.67 41.56 40.06 40.54 42.13 41.42 40.94 40.65 40.84 42.75 43.35 43.78 44.15 44.35 45.21 44.87 43.15 41.15 39.29 38.25 37.92 37.28 37.16 37.44 37.75 38.86 40.11 43.27 44.08 43.47 42.35 41.38 35.67 34.12 34.89 34.53 38.75 39.21 39.62 37.99 37.84 37.33 34.53
40.19 40.61 39.61 39.99 40.42 40.47 40.13 39.02 39.63 41.33 42.15 42.33 42.55 43.14 44.75 43.19 42.25 39.73 38.15 37.59 37.55 37.63 37.28 37.94 38.48 38.42 39.55 41.59 44.03 44.06 43.37 42.00 36.85 35.21 35.91 38.23 38.29 37.88 36.55 37.69 38.33 37.84 30.71
39.70 40.62 40.29 38.84 38.58 39.21 39.91 39.25 40.62 41.36 41.72 41.46 41.76 42.66 44.71 43.42 42.58 41.03 39.38 38.52 38.36 38.41 38.83 39.38 39.20 38.67 38.10 38.21 38.96 40.62 41.43 41.99 40.58 39.34 33.42 33.69 33.66 34.17 32.69 33.14 33.66 31.83 30.53
41.25 40.80 39.22 37.76 37.70 38.40 38.60 38.59 39.27 40.08 40.63 42.14 43.31 43.60 43.69 43.14 42.09 40.98 40.31 38.49 39.44 40.75 40.06 38.86 38.03 36.81 36.14 37.87 39.81 39.69 38.69 38.54 39.13 35.97 33.50 32.42 31.15 29.60 30.39 28.88 29.50 30.59 30.32
39.19 39.52 39.60 38.77 38.80 38.82 37.35 37.14 37.62 38.81 39.29 39.64 40.64 41.15 40.39 39.27 39.67 39.05 38.08 39.99 41.06 41.61 41.85 41.90 40.37 38.95 40.72 41.84 41.73 41.76 41.80 41.56 41.36 34.78 32.80 32.29 31.70 30.65 30.56 29.48 28.38 29.12 31.44

GFSMW_sfc_wetblb_117.txt.gz
Wetbulb
57.76 58.02 58.44 58.73 58.86 59.47 59.19 59.92 61.15 62.46 64.23 62.54 61.89 60.24 60.47 60.93 60.75 60.82 61.06 61.55 62.11 62.40 62.76 62.63 61.94 62.08 61.98 61.13 61.40 61.00 60.24 59.48 61.29 60.60 60.11 60.57 61.42 60.74 60.95 61.37 60.34 59.82 60.71
56.11 57.22 58.02 58.77 59.17 58.57 59.67 60.08 61.12 63.27 63.74 63.98 63.55 62.42 62.23 62.74 62.95 62.69 62.86 63.01 63.20 63.51 63.63 64.45 63.59 63.24 62.80 62.46 62.06 61.99 60.18 59.92 61.57 59.64 58.07 55.74 55.95 57.70 60.94 59.69 58.85 58.39 59.80
55.23 56.92 57.73 58.53 59.37 60.05 60.46 61.39 60.59 63.22 63.38 64.29 63.44 62.99 64.37 64.39 63.66 64.13 63.63 64.26 64.13 64.21 64.32 65.20 65.10 64.37 63.78 62.95 63.31 62.41 60.89 60.38 61.33 61.09 58.07 53.97 51.35 54.63 58.01 57.91 57.44 57.25 57.70
56.21 57.19 57.94 58.85 59.51 59.88 61.16 60.57 62.43 62.72 63.51 63.57 63.06 62.26 61.74 61.07 62.76 63.67 64.75 64.85 65.27 64.95 64.92 65.02 64.87 64.62 64.27 63.21 62.52 62.94 61.89 61.45 59.38 60.32 60.42 59.82 57.65 53.47 54.07 56.43 56.54 56.58 56.53
56.46 56.56 57.90 58.92 59.35 58.98 58.96 60.08 61.08 62.65 62.31 62.03 62.78 61.96 60.94 61.66 63.13 63.89 63.37 63.75 64.11 64.81 64.79 64.69 64.53 63.92 63.62 62.81 62.67 62.24 62.44 62.13 60.97 60.20 59.45 59.02 58.78 58.47 54.64 52.12 53.91 55.06 55.26
55.48 55.80 57.68 58.19 58.67 58.80 58.74 59.18 59.17 60.60 61.53 61.85 60.94 60.92 60.80 62.45 61.88 61.37 60.73 60.95 61.60 62.97 63.65 63.89 63.58 63.28 63.32 63.10 62.60 62.16 62.12 61.34 60.95 60.79 59.94 59.27 57.44 56.85 55.77 53.60 53.02 52.36 53.16
55.19 55.06 56.69 56.89 56.16 56.96 57.89 58.86 58.28 59.01 60.87 61.33 60.80 60.37 60.24 60.80 60.65 61.25 61.48 60.23 59.47 59.75 61.59 62.65 62.40 62.36 62.44 62.49 62.61 62.38 62.13 61.61 60.63 60.69 60.83 60.37 59.17 58.54 55.73 54.11 51.82 50.67 52.19
52.77 54.05 55.35 57.25 57.21 56.34 57.31 58.73 57.99 58.63 60.00 60.62 60.62 60.77 60.50 60.02 60.09 59.60 59.81 59.49 59.73 59.98 60.49 62.20 62.06 61.78 62.04 61.26 61.59 61.96 62.12 62.18 62.13 62.02 61.51 60.85 59.90 57.76 56.58 54.70 52.58 49.74 50.31
46.97 50.08 53.15 55.30 57.14 57.65 57.32 59.26 58.64 58.14 59.25 59.63 60.53 60.29 60.43 60.21 59.82 59.91 59.83 59.70 59.28 58.98 59.72 60.30 60.38 60.54 60.78 60.57 61.08 61.41 61.62 61.69 62.07 61.00 59.99 58.62 57.01 56.73 56.28 55.47 53.67 50.26 44.63
46.59 46.98 47.51 48.96 53.05 55.68 57.61 59.66 59.74 58.96 58.74 59.64 59.85 60.17 60.69 61.15 61.01 60.65 59.67 59.35 59.54 59.55 59.61 59.58 59.87 60.67 60.85 60.50 60.91 60.17 59.73 60.03 58.94 58.54 57.81 56.56 55.41 54.79 54.04 53.41 51.93 50.61 48.59
45.72 45.91 45.92 47.08 47.12 48.87 53.89 57.50 59.17 59.10 59.32 60.13 60.33 60.17 60.29 60.72 60.91 60.40 60.09 59.71 59.89 59.89 59.77 60.24 59.89 59.19 58.94 59.35 59.35 58.85 58.74 58.34 56.58 56.00 55.98 53.62 52.94 52.11 51.11 50.93 50.41 49.31 48.45
44.14 46.38 46.24 47.04 47.14 46.95 49.43 52.48 55.80 58.34 59.47 60.05 60.25 59.99 60.47 60.71 60.67 60.97 61.17 60.92 59.40 60.23 59.45 59.23 58.61 58.30 58.21 58.13 58.29 56.77 57.07 55.23 54.36 52.77 52.46 51.56 50.48 49.01 49.44 49.09 48.07 47.69 46.94
41.80 44.45 46.17 45.90 46.76 48.19 48.66 49.80 51.94 54.75 57.60 58.98 59.57 59.10 58.89 59.32 59.45 59.91 59.91 59.09 57.82 56.89 56.57 56.97 56.14 55.33 55.30 54.73 52.65 52.61 51.67 51.48 50.49 50.39 50.05 48.91 48.94 47.81 47.06 46.19 45.71 45.32 45.95
41.78 41.82 42.51 44.93 46.45 47.58 48.82 49.75 50.85 53.14 54.33 56.43 56.94 56.33 56.13 57.16 56.85 56.64 55.78 54.97 54.29 54.24 53.77 53.84 52.92 52.12 50.97 50.36 49.64 49.75 49.42 48.71 48.42 48.71 47.61 47.41 46.33 45.44 44.88 44.70 44.10 43.76 42.94
41.22 41.31 40.92 41.09 42.56 45.08 47.15 47.94 48.63 49.70 52.29 53.06 53.33 53.35 53.76 53.63 53.39 53.20 52.50 50.91 50.31 49.92 49.09 48.26 48.01 47.75 48.38 48.10 48.24 47.98 47.26 46.58 45.79 45.39 44.27 43.39 43.79 45.07 45.30 43.32 42.01 41.98 40.81
40.87 41.37 41.79 41.28 41.71 41.43 43.88 46.88 47.24 47.77 49.03 49.60 50.16 50.44 51.54 52.24 50.67 49.51 48.43 47.96 46.91 46.18 46.37 46.40 46.46 46.03 46.29 47.92 48.11 47.08 45.62 44.76 43.94 42.56 41.96 41.92 43.15 44.58 45.69 44.90 43.99 41.98 39.48
40.14 40.73 40.40 40.73 41.17 41.69 42.71 43.23 45.99 47.15 47.25 47.12 47.52 48.08 48.66 48.89 48.89 47.54 46.30 45.07 44.29 44.12 43.88 44.25 44.43 44.44 45.81 47.90 47.91 46.44 44.52 43.67 42.74 41.19 40.76 40.43 41.23 41.85 40.97 43.21 42.72 41.90 42.11
40.10 40.49 40.37 40.80 41.19 41.88 42.45 42.77 43.62 46.07 46.73 46.16 46.17 46.59 46.80 46.79 46.51 45.91 44.85 43.80 43.31 43.56 43.22 43.49 43.35 43.50 45.07 47.32 47.09 45.62 42.58 41.52 41.86 41.97 40.85 39.27 38.52 39.30 38.85 36.89 34.84 34.12 34.42
40.51 40.74 40.63 41.01 41.21 41.19 41.72 42.07 42.44 42.49 43.82 45.83 45.97 45.76 45.77 44.97 44.48 43.91 43.17 42.06 39.93 39.69 43.08 43.54 42.70 42.48 43.97 45.84 45.79 42.98 41.02 40.68 40.47 40.79 40.76 38.88 37.53 41.39 41.44 35.72 32.79 32.57 32.28
40.05 40.24 40.66 40.84 40.39 40.41 41.22 41.35 41.71 42.29 42.76 43.80 43.86 46.40 45.51 44.54 43.50 42.63 41.97 41.38 40.82 39.26 40.42 41.48 42.05 42.94 42.35 45.04 44.89 42.27 40.43 39.24 38.82 38.74 39.34 41.50 37.93 42.16 41.26 34.00 32.79 30.46 29.50
39.99 40.27 39.83 39.58 39.90 40.07 40.13 39.77 40.45 40.19 41.82 42.90 43.75 44.06 45.47 44.13 43.36 41.27 40.35 39.32 39.57 39.16 39.08 39.41 39.40 40.00 41.47 42.56 44.67 43.90 39.97 39.11 37.50 36.37 34.72 36.16 41.41 41.49 41.20 38.64 34.43 33.37 31.52
39.29 39.41 38.49 38.93 39.87 39.62 39.16 38.26 37.92 39.89 40.96 41.71 42.13 42.31 42.77 44.09 42.62 40.73 38.77 38.03 38.14 37.78 37.42 37.72 37.57 38.59 39.81 43.40 44.66 44.46 41.90 41.05 36.84 34.46 34.61 35.13 40.93 40.50 40.32 39.11 38.78 38.74 34.51
40.45 39.29 38.30 38.06 38.03 38.53 38.34 36.99 37.59 39.20 39.93 40.38 40.55 40.95 41.92 41.92 40.67 39.13 37.54 36.57 36.73 36.61 36.48 37.33 36.92 36.97 38.31 40.51 44.45 44.41 43.36 42.18 36.25 35.09 36.68 37.66 39.54 39.86 39.02 39.70 39.08 38.55 29.62
39.61 39.84 39.85 37.12 36.62 36.89 37.61 36.66 37.60 38.74 39.21 39.54 40.24 40.40 41.58 43.42 42.56 41.13 39.11 36.75 36.21 36.15 37.08 37.27 37.35 37.75 38.71 40.03 42.21 42.69 42.64 41.95 38.57 38.66 36.49 37.43 35.98 35.82 33.53 33.73 34.37 31.36 30.07
39.16 39.83 39.74 36.91 36.56 36.97 36.57 36.19 36.77 37.45 38.39 39.16 39.95 42.26 43.01 43.00 41.96 41.27 40.51 39.79 39.33 39.23 38.58 39.38 39.55 38.32 37.75 38.93 41.55 41.97 41.10 40.39 39.24 35.86 32.72 30.70 29.30 28.83 28.67 28.46 29.68 30.14 30.43
37.70 37.71 39.35 38.98 39.11 37.87 36.64 36.09 36.58 36.61 37.27 37.73 38.03 40.08 40.04 39.55 40.42 39.62 39.06 40.71 40.76 42.24 41.91 42.27 40.91 39.32 41.66 41.93 41.73 42.13 42.16 41.87 41.45 34.31 32.77 31.86 31.62 30.58 28.95 28.60 29.37 28.58 31.45